<?xml version="1.0" encoding="UTF-8" standalone="no" ?><gpx xmlns="http://www.topografix.com/GPX/1/1" xmlns:gpxx="http://www.garmin.com/xmlschemas/GpxExtensions/v3" xmlns:wptx1="http://www.garmin.com/xmlschemas/WaypointExtension/v1" xmlns:gpxtpx="http://www.garmin.com/xmlschemas/TrackPointExtension/v1" creator="GuideVTT.com" version="1.1" xmlns:xsi="http://www.w3.org/2001/XMLSchema-instance" xsi:schemaLocation="http://www.topografix.com/GPX/1/1 http://www.topografix.com/GPX/1/1/gpx.xsd http://www.garmin.com/xmlschemas/GpxExtensions/v3 http://www8.garmin.com/xmlschemas/GpxExtensionsv3.xsd http://www.garmin.com/xmlschemas/WaypointExtension/v1 http://www8.garmin.com/xmlschemas/WaypointExtensionv1.xsd http://www.garmin.com/xmlschemas/TrackPointExtension/v1 http://www.garmin.com/xmlschemas/TrackPointExtensionv1.xsd">
<metadata><link href="http://www.garmin.com"><text>Garmin International</text></link><time>2013-06-22T15:13:50Z</time></metadata>
<trk><name>activity_542842186.gpx</name><extensions><gpxx:TrackExtension><gpxx:DisplayColor>Cyan</gpxx:DisplayColor></gpxx:TrackExtension></extensions><trkseg>
<trkpt lat="46.61516952328384" lon="7.111886506900191"><ele></ele><time>2014-10-30T1:20:8Z</time></trkpt>
<trkpt lat="46.61516952328384" lon="7.111886506900191"><ele></ele><time>2014-10-30T1:20:11Z</time></trkpt>
<trkpt lat="46.61516952328384" lon="7.111886506900191"><ele></ele><time>2014-10-30T1:20:14Z</time></trkpt>
<trkpt lat="46.6085334867239" lon="7.111915173009038"><ele></ele><time>2014-10-30T1:20:17Z</time></trkpt>
<trkpt lat="46.608511777594686" lon="7.111920202150941"><ele></ele><time>2014-10-30T1:20:20Z</time></trkpt>
<trkpt lat="46.60848814062774" lon="7.111925650388002"><ele></ele><time>2014-10-30T1:20:23Z</time></trkpt>
<trkpt lat="46.60846366547048" lon="7.11192942224443"><ele></ele><time>2014-10-30T1:20:26Z</time></trkpt>
<trkpt lat="46.60843902267516" lon="7.111934786662459"><ele></ele><time>2014-10-30T1:20:29Z</time></trkpt>
<trkpt lat="46.608417397364974" lon="7.111940905451775"><ele></ele><time>2014-10-30T1:20:32Z</time></trkpt>
<trkpt lat="46.60839417949319" lon="7.111946269869804"><ele></ele><time>2014-10-30T1:20:35Z</time></trkpt>
<trkpt lat="46.60835369490087" lon="7.111962782219052"><ele></ele><time>2014-10-30T1:20:38Z</time></trkpt>
<trkpt lat="46.60833257250488" lon="7.111976109445095"><ele></ele><time>2014-10-30T1:20:41Z</time></trkpt>
<trkpt lat="46.60830927081406" lon="7.111982312053442"><ele></ele><time>2014-10-30T1:20:44Z</time></trkpt>
<trkpt lat="46.60828345455229" lon="7.111992705613375"><ele></ele><time>2014-10-30T1:20:47Z</time></trkpt>
<trkpt lat="46.60825981758535" lon="7.112000249326229"><ele></ele><time>2014-10-30T1:20:50Z</time></trkpt>
<trkpt lat="46.6081915050745" lon="7.112026736140251"><ele></ele><time>2014-10-30T1:20:53Z</time></trkpt>
<trkpt lat="46.608070973306894" lon="7.112067053094506"><ele></ele><time>2014-10-30T1:20:56Z</time></trkpt>
<trkpt lat="46.60792613402009" lon="7.112127402797341"><ele></ele><time>2014-10-30T1:20:59Z</time></trkpt>
<trkpt lat="46.60787349566817" lon="7.112149028107524"><ele></ele><time>2014-10-30T1:21:2Z</time></trkpt>
<trkpt lat="46.60784927196801" lon="7.112157493829727"><ele></ele><time>2014-10-30T1:21:5Z</time></trkpt>
<trkpt lat="46.60782781429589" lon="7.112167216837406"><ele></ele><time>2014-10-30T1:21:8Z</time></trkpt>
<trkpt lat="46.60780794918537" lon="7.112175850197673"><ele></ele><time>2014-10-30T1:21:11Z</time></trkpt>
<trkpt lat="46.60778691060841" lon="7.112182890996337"><ele></ele><time>2014-10-30T1:21:14Z</time></trkpt>
<trkpt lat="46.60776386037469" lon="7.112191189080477"><ele></ele><time>2014-10-30T1:21:17Z</time></trkpt>
<trkpt lat="46.60767702385783" lon="7.112224381417036"><ele></ele><time>2014-10-30T1:21:20Z</time></trkpt>
<trkpt lat="46.60765087231994" lon="7.112235864624381"><ele></ele><time>2014-10-30T1:21:23Z</time></trkpt>
<trkpt lat="46.60762430168688" lon="7.112246174365282"><ele></ele><time>2014-10-30T1:21:26Z</time></trkpt>
<trkpt lat="46.6076010838151" lon="7.112253131344914"><ele></ele><time>2014-10-30T1:21:29Z</time></trkpt>
<trkpt lat="46.607577949762344" lon="7.112262770533562"><ele></ele><time>2014-10-30T1:21:32Z</time></trkpt>
<trkpt lat="46.60751022398472" lon="7.112310798838735"><ele></ele><time>2014-10-30T1:21:35Z</time></trkpt>
<trkpt lat="46.60744694061577" lon="7.112376093864441"><ele></ele><time>2014-10-30T1:21:38Z</time></trkpt>
<trkpt lat="46.60742808133364" lon="7.112402329221368"><ele></ele><time>2014-10-30T1:21:41Z</time></trkpt>
<trkpt lat="46.60740913823247" lon="7.112432420253754"><ele></ele><time>2014-10-30T1:21:44Z</time></trkpt>
<trkpt lat="46.60739002749324" lon="7.112459996715188"><ele></ele><time>2014-10-30T1:21:47Z</time></trkpt>
<trkpt lat="46.60737393423915" lon="7.112490506842732"><ele></ele><time>2014-10-30T1:21:50Z</time></trkpt>
<trkpt lat="46.607300424948335" lon="7.112656552344561"><ele></ele><time>2014-10-30T1:21:53Z</time></trkpt>
<trkpt lat="46.6072850022465" lon="7.112688068300486"><ele></ele><time>2014-10-30T1:21:56Z</time></trkpt>
<trkpt lat="46.6072694119066" lon="7.112717907875776"><ele></ele><time>2014-10-30T1:21:59Z</time></trkpt>
<trkpt lat="46.60725633613765" lon="7.112753447145224"><ele></ele><time>2014-10-30T1:22:2Z</time></trkpt>
<trkpt lat="46.607242757454515" lon="7.112788315862417"><ele></ele><time>2014-10-30T1:22:5Z</time></trkpt>
<trkpt lat="46.60723186098039" lon="7.112817149609327"><ele></ele><time>2014-10-30T1:22:8Z</time></trkpt>
<trkpt lat="46.60721803084016" lon="7.112845731899142"><ele></ele><time>2014-10-30T1:22:11Z</time></trkpt>
<trkpt lat="46.607150975614786" lon="7.113000629469752"><ele></ele><time>2014-10-30T1:22:14Z</time></trkpt>
<trkpt lat="46.60713613964617" lon="7.113029630854726"><ele></ele><time>2014-10-30T1:22:17Z</time></trkpt>
<trkpt lat="46.607123063877225" lon="7.113061314448714"><ele></ele><time>2014-10-30T1:22:20Z</time></trkpt>
<trkpt lat="46.60710822790861" lon="7.113093752413988"><ele></ele><time>2014-10-30T1:22:23Z</time></trkpt>
<trkpt lat="46.60709070973098" lon="7.113123424351215"><ele></ele><time>2014-10-30T1:22:26Z</time></trkpt>
<trkpt lat="46.60704209469259" lon="7.113202717155218"><ele></ele><time>2014-10-30T1:22:29Z</time></trkpt>
<trkpt lat="46.60699297674" lon="7.113280249759555"><ele></ele><time>2014-10-30T1:22:32Z</time></trkpt>
<trkpt lat="46.60696657374501" lon="7.113298773765564"><ele></ele><time>2014-10-30T1:22:35Z</time></trkpt>
<trkpt lat="46.60693857818842" lon="7.113316040486097"><ele></ele><time>2014-10-30T1:22:38Z</time></trkpt>
<trkpt lat="46.60692156292498" lon="7.1133489813655615"><ele></ele><time>2014-10-30T1:22:41Z</time></trkpt>
<trkpt lat="46.60690454766154" lon="7.113376054912806"><ele></ele><time>2014-10-30T1:22:44Z</time></trkpt>
<trkpt lat="46.60687504336238" lon="7.113435147330165"><ele></ele><time>2014-10-30T1:22:47Z</time></trkpt>
<trkpt lat="46.6067857760936" lon="7.113615777343512"><ele></ele><time>2014-10-30T1:22:50Z</time></trkpt>
<trkpt lat="46.606771778315306" lon="7.113645700737834"><ele></ele><time>2014-10-30T1:22:53Z</time></trkpt>
<trkpt lat="46.6067564394325" lon="7.113672187551856"><ele></ele><time>2014-10-30T1:22:56Z</time></trkpt>
<trkpt lat="46.60674068145454" lon="7.113700183108449"><ele></ele><time>2014-10-30T1:22:59Z</time></trkpt>
<trkpt lat="46.60672450438142" lon="7.113733878359199"><ele></ele><time>2014-10-30T1:23:2Z</time></trkpt>
<trkpt lat="46.6066512465477" lon="7.113846531137824"><ele></ele><time>2014-10-30T1:23:5Z</time></trkpt>
<trkpt lat="46.606613947078586" lon="7.113904366269708"><ele></ele><time>2014-10-30T1:23:8Z</time></trkpt>
<trkpt lat="46.60659642890096" lon="7.113934541121125"><ele></ele><time>2014-10-30T1:23:11Z</time></trkpt>
<trkpt lat="46.6065804194659" lon="7.113963542506099"><ele></ele><time>2014-10-30T1:23:14Z</time></trkpt>
<trkpt lat="46.60656340420246" lon="7.113995980471373"><ele></ele><time>2014-10-30T1:23:17Z</time></trkpt>
<trkpt lat="46.606545466929674" lon="7.1140284184366465"><ele></ele><time>2014-10-30T1:23:20Z</time></trkpt>
<trkpt lat="46.60652560181916" lon="7.114056581631303"><ele></ele><time>2014-10-30T1:23:23Z</time></trkpt>
<trkpt lat="46.6064665094018" lon="7.114164205268025"><ele></ele><time>2014-10-30T1:23:26Z</time></trkpt>
<trkpt lat="46.60645829513669" lon="7.114196140319109"><ele></ele><time>2014-10-30T1:23:29Z</time></trkpt>
<trkpt lat="46.60644161514938" lon="7.114231511950493"><ele></ele><time>2014-10-30T1:23:32Z</time></trkpt>
<trkpt lat="46.6064250189811" lon="7.114265877753496"><ele></ele><time>2014-10-30T1:23:35Z</time></trkpt>
<trkpt lat="46.606411691755056" lon="7.1143055241554976"><ele></ele><time>2014-10-30T1:23:38Z</time></trkpt>
<trkpt lat="46.606365675106645" lon="7.114494871348143"><ele></ele><time>2014-10-30T1:23:41Z</time></trkpt>
<trkpt lat="46.606362322345376" lon="7.114527393132448"><ele></ele><time>2014-10-30T1:23:44Z</time></trkpt>
<trkpt lat="46.60635905340314" lon="7.114561591297388"><ele></ele><time>2014-10-30T1:23:47Z</time></trkpt>
<trkpt lat="46.606348576024175" lon="7.114585563540459"><ele></ele><time>2014-10-30T1:23:50Z</time></trkpt>
<trkpt lat="46.60634262487292" lon="7.114612804725766"><ele></ele><time>2014-10-30T1:23:53Z</time></trkpt>
<trkpt lat="46.606334410607815" lon="7.114640632644296"><ele></ele><time>2014-10-30T1:23:56Z</time></trkpt>
<trkpt lat="46.606235671788454" lon="7.11459101177752"><ele></ele><time>2014-10-30T1:23:59Z</time></trkpt>
<trkpt lat="46.60624606534839" lon="7.114701820537448"><ele></ele><time>2014-10-30T1:24:2Z</time></trkpt>
<trkpt lat="46.60624279640615" lon="7.114740880206227"><ele></ele><time>2014-10-30T1:24:5Z</time></trkpt>
<trkpt lat="46.60624681971967" lon="7.114772899076343"><ele></ele><time>2014-10-30T1:24:8Z</time></trkpt>
<trkpt lat="46.606255788356066" lon="7.114808103069663"><ele></ele><time>2014-10-30T1:24:11Z</time></trkpt>
<trkpt lat="46.60626324824989" lon="7.114839283749461"><ele></ele><time>2014-10-30T1:24:14Z</time></trkpt>
<trkpt lat="46.60624916665256" lon="7.115012453868985"><ele></ele><time>2014-10-30T1:24:17Z</time></trkpt>
<trkpt lat="46.60624681971967" lon="7.115045310929418"><ele></ele><time>2014-10-30T1:24:20Z</time></trkpt>
<trkpt lat="46.60624857991934" lon="7.115076156333089"><ele></ele><time>2014-10-30T1:24:23Z</time></trkpt>
<trkpt lat="46.60624816082418" lon="7.115110354498029"><ele></ele><time>2014-10-30T1:24:26Z</time></trkpt>
<trkpt lat="46.606249334290624" lon="7.115145977586508"><ele></ele><time>2014-10-30T1:24:29Z</time></trkpt>
<trkpt lat="46.6062574647367" lon="7.115248823538423"><ele></ele><time>2014-10-30T1:24:32Z</time></trkpt>
<trkpt lat="46.60625536926091" lon="7.1154192276299"><ele></ele><time>2014-10-30T1:24:35Z</time></trkpt>
<trkpt lat="46.606256207451224" lon="7.115454347804189"><ele></ele><time>2014-10-30T1:24:38Z</time></trkpt>
<trkpt lat="46.606260146945715" lon="7.115488545969129"><ele></ele><time>2014-10-30T1:24:41Z</time></trkpt>
<trkpt lat="46.606263499706984" lon="7.115521989762783"><ele></ele><time>2014-10-30T1:24:44Z</time></trkpt>
<trkpt lat="46.60626525990665" lon="7.115556187927723"><ele></ele><time>2014-10-30T1:24:47Z</time></trkpt>
<trkpt lat="46.60626567900181" lon="7.115713935345411"><ele></ele><time>2014-10-30T1:24:50Z</time></trkpt>
<trkpt lat="46.60626576282084" lon="7.115749390795827"><ele></ele><time>2014-10-30T1:24:53Z</time></trkpt>
<trkpt lat="46.60626676864922" lon="7.1157783921808"><ele></ele><time>2014-10-30T1:24:56Z</time></trkpt>
<trkpt lat="46.60627196542919" lon="7.115809908136725"><ele></ele><time>2014-10-30T1:24:59Z</time></trkpt>
<trkpt lat="46.60628244280815" lon="7.115842010825872"><ele></ele><time>2014-10-30T1:25:2Z</time></trkpt>
<trkpt lat="46.60629694350064" lon="7.11590881459415"><ele></ele><time>2014-10-30T1:25:5Z</time></trkpt>
<trkpt lat="46.60638973116875" lon="7.116031609475613"><ele></ele><time>2014-10-30T1:25:8Z</time></trkpt>
<trkpt lat="46.60648721270263" lon="7.1160731837153435"><ele></ele><time>2014-10-30T1:25:11Z</time></trkpt>
<trkpt lat="46.6065164655447" lon="7.116073686629534"><ele></ele><time>2014-10-30T1:25:14Z</time></trkpt>
<trkpt lat="46.60654228180647" lon="7.116068322211504"><ele></ele><time>2014-10-30T1:25:17Z</time></trkpt>
<trkpt lat="46.60656709223986" lon="7.116058766841888"><ele></ele><time>2014-10-30T1:25:20Z</time></trkpt>
<trkpt lat="46.60659106448293" lon="7.116048038005829"><ele></ele><time>2014-10-30T1:25:23Z</time></trkpt>
<trkpt lat="46.60666164010763" lon="7.115971008315682"><ele></ele><time>2014-10-30T1:25:26Z</time></trkpt>
<trkpt lat="46.6067012026906" lon="7.115813177078962"><ele></ele><time>2014-10-30T1:25:29Z</time></trkpt>
<trkpt lat="46.60670371726155" lon="7.1157395001500845"><ele></ele><time>2014-10-30T1:25:32Z</time></trkpt>
<trkpt lat="46.6067014541477" lon="7.115706475451589"><ele></ele><time>2014-10-30T1:25:35Z</time></trkpt>
<trkpt lat="46.60669608972967" lon="7.115667834877968"><ele></ele><time>2014-10-30T1:25:38Z</time></trkpt>
<trkpt lat="46.60668879747391" lon="7.115626009181142"><ele></ele><time>2014-10-30T1:25:41Z</time></trkpt>
<trkpt lat="46.606680415570736" lon="7.115584183484316"><ele></ele><time>2014-10-30T1:25:44Z</time></trkpt>
<trkpt lat="46.606622245162725" lon="7.115339431911707"><ele></ele><time>2014-10-30T1:25:47Z</time></trkpt>
<trkpt lat="46.606615036726" lon="7.1153042279183865"><ele></ele><time>2014-10-30T1:25:50Z</time></trkpt>
<trkpt lat="46.606606068089604" lon="7.115268604829907"><ele></ele><time>2014-10-30T1:25:53Z</time></trkpt>
<trkpt lat="46.60659894347191" lon="7.1152314729988575"><ele></ele><time>2014-10-30T1:25:56Z</time></trkpt>
<trkpt lat="46.606593411415815" lon="7.115195011720061"><ele></ele><time>2014-10-30T1:25:59Z</time></trkpt>
<trkpt lat="46.606588046997786" lon="7.115157963708043"><ele></ele><time>2014-10-30T1:26:2Z</time></trkpt>
<trkpt lat="46.6065751388669" lon="7.11508059874177"><ele></ele><time>2014-10-30T1:26:5Z</time></trkpt>
<trkpt lat="46.606559213250875" lon="7.114891083911061"><ele></ele><time>2014-10-30T1:26:8Z</time></trkpt>
<trkpt lat="46.60655829124153" lon="7.1148524433374405"><ele></ele><time>2014-10-30T1:26:11Z</time></trkpt>
<trkpt lat="46.60655938088894" lon="7.114817071706057"><ele></ele><time>2014-10-30T1:26:14Z</time></trkpt>
<trkpt lat="46.60655845887959" lon="7.114780023694038"><ele></ele><time>2014-10-30T1:26:17Z</time></trkpt>
<trkpt lat="46.60656088963151" lon="7.114747166633606"><ele></ele><time>2014-10-30T1:26:20Z</time></trkpt>
<trkpt lat="46.606563068926334" lon="7.1147137228399515"><ele></ele><time>2014-10-30T1:26:23Z</time></trkpt>
<trkpt lat="46.60658989101648" lon="7.114545833319426"><ele></ele><time>2014-10-30T1:26:26Z</time></trkpt>
<trkpt lat="46.606596847996116" lon="7.114510042592883"><ele></ele><time>2014-10-30T1:26:29Z</time></trkpt>
<trkpt lat="46.60661185160279" lon="7.11447961628437"><ele></ele><time>2014-10-30T1:26:32Z</time></trkpt>
<trkpt lat="46.60661989822984" lon="7.1144460048526525"><ele></ele><time>2014-10-30T1:26:35Z</time></trkpt>
<trkpt lat="46.60663020797074" lon="7.114413985982537"><ele></ele><time>2014-10-30T1:26:38Z</time></trkpt>
<trkpt lat="46.606673458591104" lon="7.114320946857333"><ele></ele><time>2014-10-30T1:26:41Z</time></trkpt>
<trkpt lat="46.60674177110195" lon="7.114209216088057"><ele></ele><time>2014-10-30T1:26:44Z</time></trkpt>
<trkpt lat="46.60676138475537" lon="7.114184070378542"><ele></ele><time>2014-10-30T1:26:47Z</time></trkpt>
<trkpt lat="46.606779070571065" lon="7.114161103963852"><ele></ele><time>2014-10-30T1:26:50Z</time></trkpt>
<trkpt lat="46.60679851658642" lon="7.114135790616274"><ele></ele><time>2014-10-30T1:26:53Z</time></trkpt>
<trkpt lat="46.60681678913534" lon="7.114113410934806"><ele></ele><time>2014-10-30T1:26:56Z</time></trkpt>
<trkpt lat="46.606912510469556" lon="7.113998914137483"><ele></ele><time>2014-10-30T1:26:59Z</time></trkpt>
<trkpt lat="46.606934387236834" lon="7.113978210836649"><ele></ele><time>2014-10-30T1:27:2Z</time></trkpt>
<trkpt lat="46.60695618018508" lon="7.113955160602927"><ele></ele><time>2014-10-30T1:27:5Z</time></trkpt>
<trkpt lat="46.6069757938385" lon="7.1139362175017595"><ele></ele><time>2014-10-30T1:27:8Z</time></trkpt>
<trkpt lat="46.606995575129986" lon="7.113915095105767"><ele></ele><time>2014-10-30T1:27:11Z</time></trkpt>
<trkpt lat="46.60712314769626" lon="7.113807890564203"><ele></ele><time>2014-10-30T1:27:14Z</time></trkpt>
<trkpt lat="46.60714762285352" lon="7.113792132586241"><ele></ele><time>2014-10-30T1:27:17Z</time></trkpt>
<trkpt lat="46.60716941580176" lon="7.113775368779898"><ele></ele><time>2014-10-30T1:27:20Z</time></trkpt>
<trkpt lat="46.607188526540995" lon="7.113760365173221"><ele></ele><time>2014-10-30T1:27:23Z</time></trkpt>
<trkpt lat="46.60720587708056" lon="7.113730777055025"><ele></ele><time>2014-10-30T1:27:26Z</time></trkpt>
<trkpt lat="46.6072244849056" lon="7.113707643002272"><ele></ele><time>2014-10-30T1:27:29Z</time></trkpt>
<trkpt lat="46.60729330033064" lon="7.113650310784578"><ele></ele><time>2014-10-30T1:27:32Z</time></trkpt>
<trkpt lat="46.60733738914132" lon="7.113619297742844"><ele></ele><time>2014-10-30T1:27:35Z</time></trkpt>
<trkpt lat="46.607359601184726" lon="7.113605719059706"><ele></ele><time>2014-10-30T1:27:38Z</time></trkpt>
<trkpt lat="46.60738072358072" lon="7.113590128719807"><ele></ele><time>2014-10-30T1:27:41Z</time></trkpt>
<trkpt lat="46.607401091605425" lon="7.1135692577809095"><ele></ele><time>2014-10-30T1:27:44Z</time></trkpt>
<trkpt lat="46.607424058020115" lon="7.113555008545518"><ele></ele><time>2014-10-30T1:27:47Z</time></trkpt>
<trkpt lat="46.60744342021644" lon="7.113539837300777"><ele></ele><time>2014-10-30T1:27:50Z</time></trkpt>
<trkpt lat="46.60758113488555" lon="7.113393573090434"><ele></ele><time>2014-10-30T1:27:53Z</time></trkpt>
<trkpt lat="46.60759957507253" lon="7.113373875617981"><ele></ele><time>2014-10-30T1:27:56Z</time></trkpt>
<trkpt lat="46.60762111656368" lon="7.113357447087765"><ele></ele><time>2014-10-30T1:27:59Z</time></trkpt>
<trkpt lat="46.60764215514064" lon="7.113333474844694"><ele></ele><time>2014-10-30T1:28:2Z</time></trkpt>
<trkpt lat="46.60766243934631" lon="7.113309586420655"><ele></ele><time>2014-10-30T1:28:5Z</time></trkpt>
<trkpt lat="46.60775497555733" lon="7.113207997754216"><ele></ele><time>2014-10-30T1:28:8Z</time></trkpt>
<trkpt lat="46.60779076628387" lon="7.113169692456722"><ele></ele><time>2014-10-30T1:28:11Z</time></trkpt>
<trkpt lat="46.60781230777502" lon="7.113153012469411"><ele></ele><time>2014-10-30T1:28:14Z</time></trkpt>
<trkpt lat="46.6078304965049" lon="7.113130046054721"><ele></ele><time>2014-10-30T1:28:17Z</time></trkpt>
<trkpt lat="46.6078513674438" lon="7.113111102953553"><ele></ele><time>2014-10-30T1:28:20Z</time></trkpt>
<trkpt lat="46.607872070744634" lon="7.113094925880432"><ele></ele><time>2014-10-30T1:28:23Z</time></trkpt>
<trkpt lat="46.60806552506983" lon="7.11299417540431"><ele></ele><time>2014-10-30T1:28:26Z</time></trkpt>
<trkpt lat="46.60808941349387" lon="7.112988475710154"><ele></ele><time>2014-10-30T1:28:29Z</time></trkpt>
<trkpt lat="46.608111122623086" lon="7.112989565357566"><ele></ele><time>2014-10-30T1:28:32Z</time></trkpt>
<trkpt lat="46.608132999390364" lon="7.112990319728851"><ele></ele><time>2014-10-30T1:28:35Z</time></trkpt>
<trkpt lat="46.60815319977701" lon="7.112995935603976"><ele></ele><time>2014-10-30T1:28:38Z</time></trkpt>
<trkpt lat="46.60820080898702" lon="7.113031139597297"><ele></ele><time>2014-10-30T1:28:41Z</time></trkpt>
<trkpt lat="46.60827063024044" lon="7.113101212307811"><ele></ele><time>2014-10-30T1:28:44Z</time></trkpt>
<trkpt lat="46.608285047113895" lon="7.113124597817659"><ele></ele><time>2014-10-30T1:28:47Z</time></trkpt>
<trkpt lat="46.60830298438668" lon="7.113149743527174"><ele></ele><time>2014-10-30T1:28:50Z</time></trkpt>
<trkpt lat="46.608325531706214" lon="7.113176817074418"><ele></ele><time>2014-10-30T1:28:53Z</time></trkpt>
<trkpt lat="46.60833349451423" lon="7.113205483183265"><ele></ele><time>2014-10-30T1:28:56Z</time></trkpt>
<trkpt lat="46.60834304988384" lon="7.113271951675415"><ele></ele><time>2014-10-30T1:28:59Z</time></trkpt>
<trkpt lat="46.60834967158735" lon="7.113341856747866"><ele></ele><time>2014-10-30T1:29:2Z</time></trkpt>
<trkpt lat="46.60834439098835" lon="7.113373791798949"><ele></ele><time>2014-10-30T1:29:5Z</time></trkpt>
<trkpt lat="46.60833986476064" lon="7.113408325240016"><ele></ele><time>2014-10-30T1:29:8Z</time></trkpt>
<trkpt lat="46.60833751782775" lon="7.113444032147527"><ele></ele><time>2014-10-30T1:29:11Z</time></trkpt>
<trkpt lat="46.60833299160004" lon="7.113477308303118"><ele></ele><time>2014-10-30T1:29:14Z</time></trkpt>
<trkpt lat="46.60828814841807" lon="7.113717868924141"><ele></ele><time>2014-10-30T1:29:17Z</time></trkpt>
<trkpt lat="46.608280101791024" lon="7.113750474527478"><ele></ele><time>2014-10-30T1:29:20Z</time></trkpt>
<trkpt lat="46.60827339626849" lon="7.113785594701767"><ele></ele><time>2014-10-30T1:29:23Z</time></trkpt>
<trkpt lat="46.6082676127553" lon="7.113818284124136"><ele></ele><time>2014-10-30T1:29:26Z</time></trkpt>
<trkpt lat="46.608267948031425" lon="7.113847536966205"><ele></ele><time>2014-10-30T1:29:29Z</time></trkpt>
<trkpt lat="46.608243975788355" lon="7.114020120352507"><ele></ele><time>2014-10-30T1:29:32Z</time></trkpt>
<trkpt lat="46.6082364320755" lon="7.114054737612605"><ele></ele><time>2014-10-30T1:29:35Z</time></trkpt>
<trkpt lat="46.60822821781039" lon="7.11408918723464"><ele></ele><time>2014-10-30T1:29:38Z</time></trkpt>
<trkpt lat="46.60821975208819" lon="7.114124810323119"><ele></ele><time>2014-10-30T1:29:41Z</time></trkpt>
<trkpt lat="46.60820793360472" lon="7.11415565572679"><ele></ele><time>2014-10-30T1:29:44Z</time></trkpt>
<trkpt lat="46.60817717202008" lon="7.114304602146149"><ele></ele><time>2014-10-30T1:29:47Z</time></trkpt>
<trkpt lat="46.60816946066916" lon="7.114342572167516"><ele></ele><time>2014-10-30T1:29:50Z</time></trkpt>
<trkpt lat="46.60816250368953" lon="7.114380123093724"><ele></ele><time>2014-10-30T1:29:53Z</time></trkpt>
<trkpt lat="46.608154624700546" lon="7.114415327087045"><ele></ele><time>2014-10-30T1:29:56Z</time></trkpt>
<trkpt lat="46.60814515314996" lon="7.114451872184873"><ele></ele><time>2014-10-30T1:29:59Z</time></trkpt>
<trkpt lat="46.60813760943711" lon="7.114491099491715"><ele></ele><time>2014-10-30T1:30:2Z</time></trkpt>
<trkpt lat="46.60811179317534" lon="7.1146035846322775"><ele></ele><time>2014-10-30T1:30:5Z</time></trkpt>
<trkpt lat="46.60808639600873" lon="7.114754542708397"><ele></ele><time>2014-10-30T1:30:8Z</time></trkpt>
<trkpt lat="46.60808186978102" lon="7.114793183282018"><ele></ele><time>2014-10-30T1:30:11Z</time></trkpt>
<trkpt lat="46.60807801410556" lon="7.114831153303385"><ele></ele><time>2014-10-30T1:30:14Z</time></trkpt>
<trkpt lat="46.60807365551591" lon="7.114865770563483"><ele></ele><time>2014-10-30T1:30:17Z</time></trkpt>
<trkpt lat="46.608064100146294" lon="7.115097027271986"><ele></ele><time>2014-10-30T1:30:20Z</time></trkpt>
<trkpt lat="46.60806636326015" lon="7.115138433873653"><ele></ele><time>2014-10-30T1:30:23Z</time></trkpt>
<trkpt lat="46.60806837491691" lon="7.1151810977607965"><ele></ele><time>2014-10-30T1:30:26Z</time></trkpt>
<trkpt lat="46.60807172767818" lon="7.115224180743098"><ele></ele><time>2014-10-30T1:30:29Z</time></trkpt>
<trkpt lat="46.60807432606816" lon="7.115266090258956"><ele></ele><time>2014-10-30T1:30:32Z</time></trkpt>
<trkpt lat="46.60809461027384" lon="7.1155056450515985"><ele></ele><time>2014-10-30T1:30:35Z</time></trkpt>
<trkpt lat="46.60809947177768" lon="7.115543782711029"><ele></ele><time>2014-10-30T1:30:38Z</time></trkpt>
<trkpt lat="46.608107602223754" lon="7.115578902885318"><ele></ele><time>2014-10-30T1:30:41Z</time></trkpt>
<trkpt lat="46.608116487041116" lon="7.115616118535399"><ele></ele><time>2014-10-30T1:30:44Z</time></trkpt>
<trkpt lat="46.60812973044813" lon="7.115652244538069"><ele></ele><time>2014-10-30T1:30:47Z</time></trkpt>
<trkpt lat="46.60814247094095" lon="7.115687029436231"><ele></ele><time>2014-10-30T1:30:50Z</time></trkpt>
<trkpt lat="46.60816761665046" lon="7.115760454908013"><ele></ele><time>2014-10-30T1:30:53Z</time></trkpt>
<trkpt lat="46.60825495608151" lon="7.115942509844899"><ele></ele><time>2014-10-30T1:30:56Z</time></trkpt>
<trkpt lat="46.608273312449455" lon="7.115970756858587"><ele></ele><time>2014-10-30T1:30:59Z</time></trkpt>
<trkpt lat="46.60829150117934" lon="7.115999339148402"><ele></ele><time>2014-10-30T1:31:2Z</time></trkpt>
<trkpt lat="46.60830927081406" lon="7.116022137925029"><ele></ele><time>2014-10-30T1:31:5Z</time></trkpt>
<trkpt lat="46.608326118439436" lon="7.11604418233037"><ele></ele><time>2014-10-30T1:31:8Z</time></trkpt>
<trkpt lat="46.60844069905579" lon="7.116211485117674"><ele></ele><time>2014-10-30T1:31:11Z</time></trkpt>
<trkpt lat="46.608514124527574" lon="7.116327071562409"><ele></ele><time>2014-10-30T1:31:14Z</time></trkpt>
<trkpt lat="46.60853432491422" lon="7.116357246413827"><ele></ele><time>2014-10-30T1:31:17Z</time></trkpt>
<trkpt lat="46.60855301655829" lon="7.116384403780103"><ele></ele><time>2014-10-30T1:31:20Z</time></trkpt>
<trkpt lat="46.60856860689819" lon="7.116411309689283"><ele></ele><time>2014-10-30T1:31:23Z</time></trkpt>
<trkpt lat="46.608584029600024" lon="7.116439724341035"><ele></ele><time>2014-10-30T1:31:26Z</time></trkpt>
<trkpt lat="46.60866189748049" lon="7.116568051278591"><ele></ele><time>2014-10-30T1:31:29Z</time></trkpt>
<trkpt lat="46.60868595354259" lon="7.1165973879396915"><ele></ele><time>2014-10-30T1:31:32Z</time></trkpt>
<trkpt lat="46.60870648920536" lon="7.11662664078176"><ele></ele><time>2014-10-30T1:31:35Z</time></trkpt>
<trkpt lat="46.60872400738299" lon="7.116652457043529"><ele></ele><time>2014-10-30T1:31:38Z</time></trkpt>
<trkpt lat="46.6088289488107" lon="7.116831578314304"><ele></ele><time>2014-10-30T1:31:41Z</time></trkpt>
<trkpt lat="46.60884537734091" lon="7.11686410009861"><ele></ele><time>2014-10-30T1:31:44Z</time></trkpt>
<trkpt lat="46.60886121913791" lon="7.116896286606789"><ele></ele><time>2014-10-30T1:31:47Z</time></trkpt>
<trkpt lat="46.608878234401345" lon="7.1169287245720625"><ele></ele><time>2014-10-30T1:31:50Z</time></trkpt>
<trkpt lat="46.60889466293156" lon="7.116955714300275"><ele></ele><time>2014-10-30T1:31:53Z</time></trkpt>
<trkpt lat="46.60900807008147" lon="7.117171715945005"><ele></ele><time>2014-10-30T1:31:56Z</time></trkpt>
<trkpt lat="46.609039921313524" lon="7.117250757291913"><ele></ele><time>2014-10-30T1:31:59Z</time></trkpt>
<trkpt lat="46.609055595472455" lon="7.117287889122963"><ele></ele><time>2014-10-30T1:32:2Z</time></trkpt>
<trkpt lat="46.60906900651753" lon="7.11731948889792"><ele></ele><time>2014-10-30T1:32:5Z</time></trkpt>
<trkpt lat="46.60908526740968" lon="7.11735175922513"><ele></ele><time>2014-10-30T1:32:8Z</time></trkpt>
<trkpt lat="46.60910286940634" lon="7.117388555780053"><ele></ele><time>2014-10-30T1:32:11Z</time></trkpt>
<trkpt lat="46.609212504699826" lon="7.117660967633128"><ele></ele><time>2014-10-30T1:32:14Z</time></trkpt>
<trkpt lat="46.60925407893956" lon="7.117772614583373"><ele></ele><time>2014-10-30T1:32:17Z</time></trkpt>
<trkpt lat="46.60926883108914" lon="7.117811255156994"><ele></ele><time>2014-10-30T1:32:20Z</time></trkpt>
<trkpt lat="46.6092811524868" lon="7.117849476635456"><ele></ele><time>2014-10-30T1:32:23Z</time></trkpt>
<trkpt lat="46.60929531790316" lon="7.1178885363042355"><ele></ele><time>2014-10-30T1:32:26Z</time></trkpt>
<trkpt lat="46.60930789075792" lon="7.117926590144634"><ele></ele><time>2014-10-30T1:32:29Z</time></trkpt>
<trkpt lat="46.60932322964072" lon="7.117969086393714"><ele></ele><time>2014-10-30T1:32:32Z</time></trkpt>
<trkpt lat="46.60937243141234" lon="7.118099508807063"><ele></ele><time>2014-10-30T1:32:35Z</time></trkpt>
<trkpt lat="46.60952724516392" lon="7.118497313931584"><ele></ele><time>2014-10-30T1:32:38Z</time></trkpt>
<trkpt lat="46.6095454338938" lon="7.118524638935924"><ele></ele><time>2014-10-30T1:32:41Z</time></trkpt>
<trkpt lat="46.60959186963737" lon="7.118541486561298"><ele></ele><time>2014-10-30T1:32:44Z</time></trkpt>
<trkpt lat="46.609650794416666" lon="7.1184952184557915"><ele></ele><time>2014-10-30T1:32:47Z</time></trkpt>
<trkpt lat="46.60969597287476" lon="7.118434030562639"><ele></ele><time>2014-10-30T1:32:50Z</time></trkpt>
<trkpt lat="46.6097217053175" lon="7.118419110774994"><ele></ele><time>2014-10-30T1:32:53Z</time></trkpt>
<trkpt lat="46.60974173806608" lon="7.118391199037433"><ele></ele><time>2014-10-30T1:32:56Z</time></trkpt>
<trkpt lat="46.60976235754788" lon="7.118361946195364"><ele></ele><time>2014-10-30T1:32:59Z</time></trkpt>
<trkpt lat="46.60978733561933" lon="7.118326490744948"><ele></ele><time>2014-10-30T1:33:2Z</time></trkpt>
<trkpt lat="46.60984693095088" lon="7.118250299245119"><ele></ele><time>2014-10-30T1:33:5Z</time></trkpt>
<trkpt lat="46.60988112911582" lon="7.118209814652801"><ele></ele><time>2014-10-30T1:33:8Z</time></trkpt>
<trkpt lat="46.61004340276122" lon="7.118003703653812"><ele></ele><time>2014-10-30T1:33:11Z</time></trkpt>
<trkpt lat="46.61008279770613" lon="7.117974115535617"><ele></ele><time>2014-10-30T1:33:14Z</time></trkpt>
<trkpt lat="46.61021992564201" lon="7.117946203798056"><ele></ele><time>2014-10-30T1:33:17Z</time></trkpt>
<trkpt lat="46.6102447360754" lon="7.117951903492212"><ele></ele><time>2014-10-30T1:33:20Z</time></trkpt>
<trkpt lat="46.61029209382832" lon="7.117985095828772"><ele></ele><time>2014-10-30T1:33:23Z</time></trkpt>
<trkpt lat="46.610315730795264" lon="7.118004625663161"><ele></ele><time>2014-10-30T1:33:26Z</time></trkpt>
<trkpt lat="46.61033266223967" lon="7.118033543229103"><ele></ele><time>2014-10-30T1:33:29Z</time></trkpt>
<trkpt lat="46.610344648361206" lon="7.118060113862157"><ele></ele><time>2014-10-30T1:33:32Z</time></trkpt>
<trkpt lat="46.61035470664501" lon="7.118074614554644"><ele></ele><time>2014-10-30T1:33:35Z</time></trkpt>
<trkpt lat="46.61037381738424" lon="7.118134461343288"><ele></ele><time>2014-10-30T1:33:38Z</time></trkpt>
<trkpt lat="46.61040742881596" lon="7.118168156594038"><ele></ele><time>2014-10-30T1:33:41Z</time></trkpt>
<trkpt lat="46.61042318679392" lon="7.118188524618745"><ele></ele><time>2014-10-30T1:33:44Z</time></trkpt>
<trkpt lat="46.61043676547706" lon="7.118214005604386"><ele></ele><time>2014-10-30T1:33:47Z</time></trkpt>
<trkpt lat="46.61045243963599" lon="7.118244934827089"><ele></ele><time>2014-10-30T1:33:50Z</time></trkpt>
<trkpt lat="46.61046635359526" lon="7.118271589279175"><ele></ele><time>2014-10-30T1:33:53Z</time></trkpt>
<trkpt lat="46.610484290868044" lon="7.118285419419408"><ele></ele><time>2014-10-30T1:33:56Z</time></trkpt>
<trkpt lat="46.61052628420293" lon="7.118342583999038"><ele></ele><time>2014-10-30T1:33:59Z</time></trkpt>
<trkpt lat="46.61053785122931" lon="7.118362532928586"><ele></ele><time>2014-10-30T1:34:2Z</time></trkpt>
<trkpt lat="46.61054858006537" lon="7.118379045277834"><ele></ele><time>2014-10-30T1:34:5Z</time></trkpt>
<trkpt lat="46.610559057444334" lon="7.118397988379002"><ele></ele><time>2014-10-30T1:34:8Z</time></trkpt>
<trkpt lat="46.61056802608073" lon="7.118420954793692"><ele></ele><time>2014-10-30T1:34:11Z</time></trkpt>
<trkpt lat="46.610615719109774" lon="7.118520280346274"><ele></ele><time>2014-10-30T1:34:14Z</time></trkpt>
<trkpt lat="46.61063055507839" lon="7.118543246760964"><ele></ele><time>2014-10-30T1:34:17Z</time></trkpt>
<trkpt lat="46.61064111627638" lon="7.118568560108542"><ele></ele><time>2014-10-30T1:34:20Z</time></trkpt>
<trkpt lat="46.61064974963665" lon="7.118591694161296"><ele></ele><time>2014-10-30T1:34:23Z</time></trkpt>
<trkpt lat="46.61066240631044" lon="7.118611894547939"><ele></ele><time>2014-10-30T1:34:26Z</time></trkpt>
<trkpt lat="46.61068629473448" lon="7.118648188188672"><ele></ele><time>2014-10-30T1:34:29Z</time></trkpt>
<trkpt lat="46.61069585010409" lon="7.118671741336584"><ele></ele><time>2014-10-30T1:34:32Z</time></trkpt>
<trkpt lat="46.6107040643692" lon="7.118693282827735"><ele></ele><time>2014-10-30T1:34:35Z</time></trkpt>
<trkpt lat="46.61071563139558" lon="7.118712896481156"><ele></ele><time>2014-10-30T1:34:38Z</time></trkpt>
<trkpt lat="46.610728707164526" lon="7.118732342496514"><ele></ele><time>2014-10-30T1:34:41Z</time></trkpt>
<trkpt lat="46.610778998583555" lon="7.118810545653105"><ele></ele><time>2014-10-30T1:34:44Z</time></trkpt>
<trkpt lat="46.610792661085725" lon="7.118837451562285"><ele></ele><time>2014-10-30T1:34:47Z</time></trkpt>
<trkpt lat="46.610806323587894" lon="7.118861088529229"><ele></ele><time>2014-10-30T1:34:50Z</time></trkpt>
<trkpt lat="46.610823506489396" lon="7.118883887305856"><ele></ele><time>2014-10-30T1:34:53Z</time></trkpt>
<trkpt lat="46.6108821798116" lon="7.118999138474464"><ele></ele><time>2014-10-30T1:34:56Z</time></trkpt>
<trkpt lat="46.61089785397053" lon="7.1190400421619415"><ele></ele><time>2014-10-30T1:34:59Z</time></trkpt>
<trkpt lat="46.610907996073365" lon="7.1190594881772995"><ele></ele><time>2014-10-30T1:35:2Z</time></trkpt>
<trkpt lat="46.610920233651996" lon="7.119077676907182"><ele></ele><time>2014-10-30T1:35:5Z</time></trkpt>
<trkpt lat="46.61092978902161" lon="7.1191007271409035"><ele></ele><time>2014-10-30T1:35:8Z</time></trkpt>
<trkpt lat="46.610944038257" lon="7.1191207598894835"><ele></ele><time>2014-10-30T1:35:11Z</time></trkpt>
<trkpt lat="46.610956778749824" lon="7.119140876457095"><ele></ele><time>2014-10-30T1:35:14Z</time></trkpt>
<trkpt lat="46.61101612262428" lon="7.119282111525536"><ele></ele><time>2014-10-30T1:35:17Z</time></trkpt>
<trkpt lat="46.611026683822274" lon="7.119302898645401"><ele></ele><time>2014-10-30T1:35:20Z</time></trkpt>
<trkpt lat="46.61103816702962" lon="7.119322009384632"><ele></ele><time>2014-10-30T1:35:23Z</time></trkpt>
<trkpt lat="46.61104705184698" lon="7.119342461228371"><ele></ele><time>2014-10-30T1:35:26Z</time></trkpt>
<trkpt lat="46.61105719394982" lon="7.119364254176617"><ele></ele><time>2014-10-30T1:35:29Z</time></trkpt>
<trkpt lat="46.61110513843596" lon="7.119484534487128"><ele></ele><time>2014-10-30T1:35:32Z</time></trkpt>
<trkpt lat="46.61112894304097" lon="7.119560809805989"><ele></ele><time>2014-10-30T1:35:35Z</time></trkpt>
<trkpt lat="46.61113606765866" lon="7.1195852011442184"><ele></ele><time>2014-10-30T1:35:38Z</time></trkpt>
<trkpt lat="46.61114629358053" lon="7.1196075808256865"><ele></ele><time>2014-10-30T1:35:41Z</time></trkpt>
<trkpt lat="46.611151825636625" lon="7.119635324925184"><ele></ele><time>2014-10-30T1:35:44Z</time></trkpt>
<trkpt lat="46.611157190054655" lon="7.119657956063747"><ele></ele><time>2014-10-30T1:35:47Z</time></trkpt>
<trkpt lat="46.611173283308744" lon="7.119701374322176"><ele></ele><time>2014-10-30T1:35:50Z</time></trkpt>
<trkpt lat="46.61118275485933" lon="7.119770105928183"><ele></ele><time>2014-10-30T1:35:53Z</time></trkpt>
<trkpt lat="46.61118778400123" lon="7.119789300486445"><ele></ele><time>2014-10-30T1:35:56Z</time></trkpt>
<trkpt lat="46.61119440570474" lon="7.119807740673423"><ele></ele><time>2014-10-30T1:35:59Z</time></trkpt>
<trkpt lat="46.61120077595115" lon="7.119830371811986"><ele></ele><time>2014-10-30T1:36:2Z</time></trkpt>
<trkpt lat="46.611211420968175" lon="7.119848895817995"><ele></ele><time>2014-10-30T1:36:5Z</time></trkpt>
<trkpt lat="46.61121510900557" lon="7.119872448965907"><ele></ele><time>2014-10-30T1:36:8Z</time></trkpt>
<trkpt lat="46.61122592166066" lon="7.119914945214987"><ele></ele><time>2014-10-30T1:36:11Z</time></trkpt>
<trkpt lat="46.61126573570073" lon="7.1200113371014595"><ele></ele><time>2014-10-30T1:36:14Z</time></trkpt>
<trkpt lat="46.611272525042295" lon="7.120031286031008"><ele></ele><time>2014-10-30T1:36:17Z</time></trkpt>
<trkpt lat="46.61127864383161" lon="7.120051067322493"><ele></ele><time>2014-10-30T1:36:20Z</time></trkpt>
<trkpt lat="46.611286187544465" lon="7.120069675147533"><ele></ele><time>2014-10-30T1:36:23Z</time></trkpt>
<trkpt lat="46.61129037849605" lon="7.120091216638684"><ele></ele><time>2014-10-30T1:36:26Z</time></trkpt>
<trkpt lat="46.611321810632944" lon="7.120177214965224"><ele></ele><time>2014-10-30T1:36:29Z</time></trkpt>
<trkpt lat="46.61133077926934" lon="7.1201983373612165"><ele></ele><time>2014-10-30T1:36:32Z</time></trkpt>
<trkpt lat="46.61133631132543" lon="7.120217615738511"><ele></ele><time>2014-10-30T1:36:35Z</time></trkpt>
<trkpt lat="46.61134360358119" lon="7.120231613516808"><ele></ele><time>2014-10-30T1:36:38Z</time></trkpt>
<trkpt lat="46.611344777047634" lon="7.120251310989261"><ele></ele><time>2014-10-30T1:36:41Z</time></trkpt>
<trkpt lat="46.61135089583695" lon="7.120265727862716"><ele></ele><time>2014-10-30T1:36:44Z</time></trkpt>
<trkpt lat="46.61135768517852" lon="7.120282659307122"><ele></ele><time>2014-10-30T1:36:47Z</time></trkpt>
<trkpt lat="46.61138425581157" lon="7.120369579643011"><ele></ele><time>2014-10-30T1:36:50Z</time></trkpt>
<trkpt lat="46.6113896202296" lon="7.120387516915798"><ele></ele><time>2014-10-30T1:36:53Z</time></trkpt>
<trkpt lat="46.61139582283795" lon="7.120406040921807"><ele></ele><time>2014-10-30T1:36:56Z</time></trkpt>
<trkpt lat="46.611399594694376" lon="7.120424313470721"><ele></ele><time>2014-10-30T1:36:59Z</time></trkpt>
<trkpt lat="46.61141501739621" lon="7.120476700365543"><ele></ele><time>2014-10-30T1:37:2Z</time></trkpt>
<trkpt lat="46.61142683587968" lon="7.120511066168547"><ele></ele><time>2014-10-30T1:37:5Z</time></trkpt>
<trkpt lat="46.611431781202555" lon="7.120522717013955"><ele></ele><time>2014-10-30T1:37:8Z</time></trkpt>
<trkpt lat="46.61143781617284" lon="7.120536211878061"><ele></ele><time>2014-10-30T1:37:11Z</time></trkpt>
<trkpt lat="46.611445527523756" lon="7.120548114180565"><ele></ele><time>2014-10-30T1:37:14Z</time></trkpt>
<trkpt lat="46.611450808122754" lon="7.120563201606274"><ele></ele><time>2014-10-30T1:37:17Z</time></trkpt>
<trkpt lat="46.61148282699287" lon="7.120622713118792"><ele></ele><time>2014-10-30T1:37:20Z</time></trkpt>
<trkpt lat="46.61149112507701" lon="7.120637213811278"><ele></ele><time>2014-10-30T1:37:23Z</time></trkpt>
<trkpt lat="46.6114985011518" lon="7.120653977617621"><ele></ele><time>2014-10-30T1:37:26Z</time></trkpt>
<trkpt lat="46.61150688305497" lon="7.12066562846303"><ele></ele><time>2014-10-30T1:37:29Z</time></trkpt>
<trkpt lat="46.61151157692075" lon="7.120681554079056"><ele></ele><time>2014-10-30T1:37:32Z</time></trkpt>
<trkpt lat="46.611511912196875" lon="7.120697647333145"><ele></ele><time>2014-10-30T1:37:35Z</time></trkpt>
<trkpt lat="46.611517276614904" lon="7.1207252237945795"><ele></ele><time>2014-10-30T1:37:38Z</time></trkpt>
<trkpt lat="46.61152331158519" lon="7.120755733922124"><ele></ele><time>2014-10-30T1:37:41Z</time></trkpt>
<trkpt lat="46.61152490414679" lon="7.120773671194911"><ele></ele><time>2014-10-30T1:37:44Z</time></trkpt>
<trkpt lat="46.611531525850296" lon="7.120789932087064"><ele></ele><time>2014-10-30T1:37:47Z</time></trkpt>
<trkpt lat="46.6115328669548" lon="7.120811473578215"><ele></ele><time>2014-10-30T1:37:50Z</time></trkpt>
<trkpt lat="46.61153697408736" lon="7.120830751955509"><ele></ele><time>2014-10-30T1:37:53Z</time></trkpt>
<trkpt lat="46.61156069487333" lon="7.1208948735147715"><ele></ele><time>2014-10-30T1:37:56Z</time></trkpt>
<trkpt lat="46.61156647838652" lon="7.1209110505878925"><ele></ele><time>2014-10-30T1:37:59Z</time></trkpt>
<trkpt lat="46.61156689748168" lon="7.120925048366189"><ele></ele><time>2014-10-30T1:38:2Z</time></trkpt>
<trkpt lat="46.61156656220555" lon="7.120941812172532"><ele></ele><time>2014-10-30T1:38:5Z</time></trkpt>
<trkpt lat="46.611565137282014" lon="7.120957486331463"><ele></ele><time>2014-10-30T1:38:8Z</time></trkpt>
<trkpt lat="46.611572094261646" lon="7.120996713638306"><ele></ele><time>2014-10-30T1:38:11Z</time></trkpt>
<trkpt lat="46.61158240400255" lon="7.121019680052996"><ele></ele><time>2014-10-30T1:38:14Z</time></trkpt>
<trkpt lat="46.61158642731607" lon="7.1210377011448145"><ele></ele><time>2014-10-30T1:38:17Z</time></trkpt>
<trkpt lat="46.611594976857305" lon="7.121055219322443"><ele></ele><time>2014-10-30T1:38:20Z</time></trkpt>
<trkpt lat="46.6116002574563" lon="7.121079945936799"><ele></ele><time>2014-10-30T1:38:23Z</time></trkpt>
<trkpt lat="46.61161006428301" lon="7.12120265699923"><ele></ele><time>2014-10-30T1:38:26Z</time></trkpt>
<trkpt lat="46.61160838790238" lon="7.12132184766233"><ele></ele><time>2014-10-30T1:38:29Z</time></trkpt>
<trkpt lat="46.61161090247333" lon="7.12134481407702"><ele></ele><time>2014-10-30T1:38:32Z</time></trkpt>
<trkpt lat="46.61161467432976" lon="7.121369289234281"><ele></ele><time>2014-10-30T1:38:35Z</time></trkpt>
<trkpt lat="46.6116195358336" lon="7.121398290619254"><ele></ele><time>2014-10-30T1:38:38Z</time></trkpt>
<trkpt lat="46.61167058162391" lon="7.1215542778372765"><ele></ele><time>2014-10-30T1:38:41Z</time></trkpt>
<trkpt lat="46.61172573454678" lon="7.121759299188852"><ele></ele><time>2014-10-30T1:38:44Z</time></trkpt>
<trkpt lat="46.6117384750396" lon="7.121787881478667"><ele></ele><time>2014-10-30T1:38:47Z</time></trkpt>
<trkpt lat="46.611788515001535" lon="7.1219385880976915"><ele></ele><time>2014-10-30T1:38:50Z</time></trkpt>
<trkpt lat="46.611798238009214" lon="7.121966499835253"><ele></ele><time>2014-10-30T1:38:53Z</time></trkpt>
<trkpt lat="46.611806033179164" lon="7.121996423229575"><ele></ele><time>2014-10-30T1:38:56Z</time></trkpt>
<trkpt lat="46.611814415082335" lon="7.122027520090342"><ele></ele><time>2014-10-30T1:38:59Z</time></trkpt>
<trkpt lat="46.61182438954711" lon="7.122056353837252"><ele></ele><time>2014-10-30T1:39:2Z</time></trkpt>
<trkpt lat="46.61188364960253" lon="7.122233128175139"><ele></ele><time>2014-10-30T1:39:5Z</time></trkpt>
<trkpt lat="46.6119181830436" lon="7.1223503071814775"><ele></ele><time>2014-10-30T1:39:8Z</time></trkpt>
<trkpt lat="46.6119234636426" lon="7.122378973290324"><ele></ele><time>2014-10-30T1:39:11Z</time></trkpt>
<trkpt lat="46.61193402484059" lon="7.122410489246249"><ele></ele><time>2014-10-30T1:39:14Z</time></trkpt>
<trkpt lat="46.611945675686" lon="7.1224413346499205"><ele></ele><time>2014-10-30T1:39:17Z</time></trkpt>
<trkpt lat="46.611957075074315" lon="7.122469497844577"><ele></ele><time>2014-10-30T1:39:20Z</time></trkpt>
<trkpt lat="46.612005438655615" lon="7.122612996026874"><ele></ele><time>2014-10-30T1:39:23Z</time></trkpt>
<trkpt lat="46.61205179058015" lon="7.1227555721998215"><ele></ele><time>2014-10-30T1:39:26Z</time></trkpt>
<trkpt lat="46.61206101067364" lon="7.122786249965429"><ele></ele><time>2014-10-30T1:39:29Z</time></trkpt>
<trkpt lat="46.61207249388099" lon="7.122814832255244"><ele></ele><time>2014-10-30T1:39:32Z</time></trkpt>
<trkpt lat="46.61208154633641" lon="7.122842995449901"><ele></ele><time>2014-10-30T1:39:35Z</time></trkpt>
<trkpt lat="46.61209185607731" lon="7.122869314625859"><ele></ele><time>2014-10-30T1:39:38Z</time></trkpt>
<trkpt lat="46.61213460378349" lon="7.12297392077744"><ele></ele><time>2014-10-30T1:39:41Z</time></trkpt>
<trkpt lat="46.61218053661287" lon="7.123118508607149"><ele></ele><time>2014-10-30T1:39:44Z</time></trkpt>
<trkpt lat="46.61219000816345" lon="7.123147509992123"><ele></ele><time>2014-10-30T1:39:47Z</time></trkpt>
<trkpt lat="46.61220015026629" lon="7.123175002634525"><ele></ele><time>2014-10-30T1:39:50Z</time></trkpt>
<trkpt lat="46.61220987327397" lon="7.123205680400133"><ele></ele><time>2014-10-30T1:39:53Z</time></trkpt>
<trkpt lat="46.61221833899617" lon="7.12323434650898"><ele></ele><time>2014-10-30T1:39:56Z</time></trkpt>
<trkpt lat="46.612262427806854" lon="7.12334138341248"><ele></ele><time>2014-10-30T1:39:59Z</time></trkpt>
<trkpt lat="46.6123085282743" lon="7.12343517690897"><ele></ele><time>2014-10-30T1:40:2Z</time></trkpt>
<trkpt lat="46.612317161634564" lon="7.1234529465436935"><ele></ele><time>2014-10-30T1:40:5Z</time></trkpt>
<trkpt lat="46.612322609871626" lon="7.1234733145684"><ele></ele><time>2014-10-30T1:40:8Z</time></trkpt>
<trkpt lat="46.61232830956578" lon="7.123494604602456"><ele></ele><time>2014-10-30T1:40:11Z</time></trkpt>
<trkpt lat="46.612365022301674" lon="7.1235790103673935"><ele></ele><time>2014-10-30T1:40:14Z</time></trkpt>
<trkpt lat="46.61237206310034" lon="7.1236019767820835"><ele></ele><time>2014-10-30T1:40:17Z</time></trkpt>
<trkpt lat="46.612379271537066" lon="7.123621758073568"><ele></ele><time>2014-10-30T1:40:20Z</time></trkpt>
<trkpt lat="46.61238916218281" lon="7.123638605698943"><ele></ele><time>2014-10-30T1:40:23Z</time></trkpt>
<trkpt lat="46.61239477805793" lon="7.1236558724194765"><ele></ele><time>2014-10-30T1:40:26Z</time></trkpt>
<trkpt lat="46.61240927875042" lon="7.123714461922646"><ele></ele><time>2014-10-30T1:40:29Z</time></trkpt>
<trkpt lat="46.61241455934942" lon="7.123741200193763"><ele></ele><time>2014-10-30T1:40:32Z</time></trkpt>
<trkpt lat="46.612423192709684" lon="7.123760394752026"><ele></ele><time>2014-10-30T1:40:35Z</time></trkpt>
<trkpt lat="46.61243610084057" lon="7.12378160096705"><ele></ele><time>2014-10-30T1:40:38Z</time></trkpt>
<trkpt lat="46.61244054324925" lon="7.1238025557249784"><ele></ele><time>2014-10-30T1:40:41Z</time></trkpt>
<trkpt lat="46.61244699731469" lon="7.1238199062645435"><ele></ele><time>2014-10-30T1:40:44Z</time></trkpt>
<trkpt lat="46.61244657821953" lon="7.123850584030151"><ele></ele><time>2014-10-30T1:40:47Z</time></trkpt>
<trkpt lat="46.61245412193239" lon="7.123884949833155"><ele></ele><time>2014-10-30T1:40:50Z</time></trkpt>
<trkpt lat="46.61245948635042" lon="7.123912526294589"><ele></ele><time>2014-10-30T1:40:53Z</time></trkpt>
<trkpt lat="46.612467197701335" lon="7.123932391405106"><ele></ele><time>2014-10-30T1:40:56Z</time></trkpt>
<trkpt lat="46.612471556290984" lon="7.123955022543669"><ele></ele><time>2014-10-30T1:40:59Z</time></trkpt>
<trkpt lat="46.612477926537395" lon="7.12397363036871"><ele></ele><time>2014-10-30T1:41:2Z</time></trkpt>
<trkpt lat="46.612485721707344" lon="7.123997351154685"><ele></ele><time>2014-10-30T1:41:5Z</time></trkpt>
<trkpt lat="46.61248396150768" lon="7.124015958979726"><ele></ele><time>2014-10-30T1:41:8Z</time></trkpt>
<trkpt lat="46.61248806864023" lon="7.124036997556686"><ele></ele><time>2014-10-30T1:41:11Z</time></trkpt>
<trkpt lat="46.61249837838113" lon="7.124068262055516"><ele></ele><time>2014-10-30T1:41:14Z</time></trkpt>
<trkpt lat="46.61250349134207" lon="7.124082176014781"><ele></ele><time>2014-10-30T1:41:17Z</time></trkpt>
<trkpt lat="46.61252327263355" lon="7.124136406928301"><ele></ele><time>2014-10-30T1:41:20Z</time></trkpt>
<trkpt lat="46.612531235441566" lon="7.1241609659045935"><ele></ele><time>2014-10-30T1:41:23Z</time></trkpt>
<trkpt lat="46.612538108602166" lon="7.124187871813774"><ele></ele><time>2014-10-30T1:41:26Z</time></trkpt>
<trkpt lat="46.61254422739148" lon="7.1242104191333055"><ele></ele><time>2014-10-30T1:41:29Z</time></trkpt>
<trkpt lat="46.61254758015275" lon="7.124234056100249"><ele></ele><time>2014-10-30T1:41:32Z</time></trkpt>
<trkpt lat="46.612614216282964" lon="7.124362885951996"><ele></ele><time>2014-10-30T1:41:35Z</time></trkpt>
<trkpt lat="46.61262813024223" lon="7.124386103823781"><ele></ele><time>2014-10-30T1:41:38Z</time></trkpt>
<trkpt lat="46.61264095455408" lon="7.124409154057503"><ele></ele><time>2014-10-30T1:41:41Z</time></trkpt>
<trkpt lat="46.61265176720917" lon="7.1244357246905565"><ele></ele><time>2014-10-30T1:41:44Z</time></trkpt>
<trkpt lat="46.612666603177786" lon="7.124453075230122"><ele></ele><time>2014-10-30T1:41:47Z</time></trkpt>
<trkpt lat="46.61268504336476" lon="7.12450529448688"><ele></ele><time>2014-10-30T1:41:50Z</time></trkpt>
<trkpt lat="46.61269074305892" lon="7.124523231759667"><ele></ele><time>2014-10-30T1:41:53Z</time></trkpt>
<trkpt lat="46.612707087770104" lon="7.124537145718932"><ele></ele><time>2014-10-30T1:41:56Z</time></trkpt>
<trkpt lat="46.61271748133004" lon="7.1245567593723536"><ele></ele><time>2014-10-30T1:41:59Z</time></trkpt>
<trkpt lat="46.612727623432875" lon="7.124571008607745"><ele></ele><time>2014-10-30T1:42:2Z</time></trkpt>
<trkpt lat="46.61273910664022" lon="7.124592969194055"><ele></ele><time>2014-10-30T1:42:5Z</time></trkpt>
<trkpt lat="46.6128075029701" lon="7.124724816530943"><ele></ele><time>2014-10-30T1:42:8Z</time></trkpt>
<trkpt lat="46.612883443012834" lon="7.124869069084525"><ele></ele><time>2014-10-30T1:42:11Z</time></trkpt>
<trkpt lat="46.61290314048529" lon="7.124902680516243"><ele></ele><time>2014-10-30T1:42:14Z</time></trkpt>
<trkpt lat="46.61291504278779" lon="7.124929586425424"><ele></ele><time>2014-10-30T1:42:17Z</time></trkpt>
<trkpt lat="46.6129282861948" lon="7.124953810125589"><ele></ele><time>2014-10-30T1:42:20Z</time></trkpt>
<trkpt lat="46.61294773221016" lon="7.124981973320246"><ele></ele><time>2014-10-30T1:42:23Z</time></trkpt>
<trkpt lat="46.61297949962318" lon="7.125036790966988"><ele></ele><time>2014-10-30T1:42:26Z</time></trkpt>
<trkpt lat="46.61302895285189" lon="7.125118598341942"><ele></ele><time>2014-10-30T1:42:29Z</time></trkpt>
<trkpt lat="46.613084273412824" lon="7.1251914370805025"><ele></ele><time>2014-10-30T1:42:32Z</time></trkpt>
<trkpt lat="46.61309785209596" lon="7.125216582790017"><ele></ele><time>2014-10-30T1:42:35Z</time></trkpt>
<trkpt lat="46.613111766055226" lon="7.125242231413722"><ele></ele><time>2014-10-30T1:42:38Z</time></trkpt>
<trkpt lat="46.61312660202384" lon="7.125265784561634"><ele></ele><time>2014-10-30T1:42:41Z</time></trkpt>
<trkpt lat="46.613145461305976" lon="7.125287828966975"><ele></ele><time>2014-10-30T1:42:44Z</time></trkpt>
<trkpt lat="46.613160045817494" lon="7.125314651057124"><ele></ele><time>2014-10-30T1:42:47Z</time></trkpt>
<trkpt lat="46.61319315433502" lon="7.125369217246771"><ele></ele><time>2014-10-30T1:42:50Z</time></trkpt>
<trkpt lat="46.6132755484432" lon="7.125447504222393"><ele></ele><time>2014-10-30T1:42:53Z</time></trkpt>
<trkpt lat="46.61329356953502" lon="7.125464351847768"><ele></ele><time>2014-10-30T1:42:56Z</time></trkpt>
<trkpt lat="46.61330932751298" lon="7.12548203766346"><ele></ele><time>2014-10-30T1:42:59Z</time></trkpt>
<trkpt lat="46.613328186795115" lon="7.125504584982991"><ele></ele><time>2014-10-30T1:43:2Z</time></trkpt>
<trkpt lat="46.61334067583084" lon="7.125531826168299"><ele></ele><time>2014-10-30T1:43:5Z</time></trkpt>
<trkpt lat="46.613379400223494" lon="7.125677838921547"><ele></ele><time>2014-10-30T1:43:8Z</time></trkpt>
<trkpt lat="46.61342483013868" lon="7.125906916335225"><ele></ele><time>2014-10-30T1:43:11Z</time></trkpt>
<trkpt lat="46.61343237385154" lon="7.125947568565607"><ele></ele><time>2014-10-30T1:43:14Z</time></trkpt>
<trkpt lat="46.61343581043184" lon="7.1259948424994946"><ele></ele><time>2014-10-30T1:43:17Z</time></trkpt>
<trkpt lat="46.61344142630696" lon="7.126039769500494"><ele></ele><time>2014-10-30T1:43:20Z</time></trkpt>
<trkpt lat="46.613450311124325" lon="7.1260852832347155"><ele></ele><time>2014-10-30T1:43:23Z</time></trkpt>
<trkpt lat="46.61345827393234" lon="7.126130377873778"><ele></ele><time>2014-10-30T1:43:26Z</time></trkpt>
<trkpt lat="46.6134721878916" lon="7.12623062543571"><ele></ele><time>2014-10-30T1:43:29Z</time></trkpt>
<trkpt lat="46.61353262141347" lon="7.126512425020337"><ele></ele><time>2014-10-30T1:43:32Z</time></trkpt>
<trkpt lat="46.61355030722916" lon="7.126583084464073"><ele></ele><time>2014-10-30T1:43:35Z</time></trkpt>
<trkpt lat="46.613573441281915" lon="7.126730857416987"><ele></ele><time>2014-10-30T1:43:38Z</time></trkpt>
<trkpt lat="46.61357821896672" lon="7.126805204898119"><ele></ele><time>2014-10-30T1:43:41Z</time></trkpt>
<trkpt lat="46.613586181774735" lon="7.126882653683424"><ele></ele><time>2014-10-30T1:43:44Z</time></trkpt>
<trkpt lat="46.61359263584018" lon="7.126948200166225"><ele></ele><time>2014-10-30T1:43:47Z</time></trkpt>
<trkpt lat="46.61360629834235" lon="7.127013746649027"><ele></ele><time>2014-10-30T1:43:50Z</time></trkpt>
<trkpt lat="46.61369246430695" lon="7.127328235656023"><ele></ele><time>2014-10-30T1:43:53Z</time></trkpt>
<trkpt lat="46.613725908100605" lon="7.1274208556860685"><ele></ele><time>2014-10-30T1:43:56Z</time></trkpt>
<trkpt lat="46.613789945840836" lon="7.1276037488132715"><ele></ele><time>2014-10-30T1:43:59Z</time></trkpt>
<trkpt lat="46.61382045596838" lon="7.127693016082048"><ele></ele><time>2014-10-30T1:44:2Z</time></trkpt>
<trkpt lat="46.61384979262948" lon="7.1277757454663515"><ele></ele><time>2014-10-30T1:44:5Z</time></trkpt>
<trkpt lat="46.6138762794435" lon="7.127855205908418"><ele></ele><time>2014-10-30T1:44:8Z</time></trkpt>
<trkpt lat="46.613908130675554" lon="7.127928212285042"><ele></ele><time>2014-10-30T1:44:11Z</time></trkpt>
<trkpt lat="46.61394098773599" lon="7.1279998775571585"><ele></ele><time>2014-10-30T1:44:14Z</time></trkpt>
<trkpt lat="46.6139817237854" lon="7.128067687153816"><ele></ele><time>2014-10-30T1:44:17Z</time></trkpt>
<trkpt lat="46.614134442061186" lon="7.128312857821584"><ele></ele><time>2014-10-30T1:44:20Z</time></trkpt>
<trkpt lat="46.61428372375667" lon="7.128525925800204"><ele></ele><time>2014-10-30T1:44:23Z</time></trkpt>
<trkpt lat="46.61432320252061" lon="7.128576133400202"><ele></ele><time>2014-10-30T1:44:26Z</time></trkpt>
<trkpt lat="46.61436041817069" lon="7.128631202504039"><ele></ele><time>2014-10-30T1:44:29Z</time></trkpt>
<trkpt lat="46.61439763382077" lon="7.128691803663969"><ele></ele><time>2014-10-30T1:44:32Z</time></trkpt>
<trkpt lat="46.614433927461505" lon="7.128755422309041"><ele></ele><time>2014-10-30T1:44:35Z</time></trkpt>
<trkpt lat="46.61469007842243" lon="7.1292379684746265"><ele></ele><time>2014-10-30T1:44:38Z</time></trkpt>
<trkpt lat="46.614871714264154" lon="7.129580453038216"><ele></ele><time>2014-10-30T1:44:41Z</time></trkpt>
<trkpt lat="46.614916222169995" lon="7.129668043926358"><ele></ele><time>2014-10-30T1:44:44Z</time></trkpt>
<trkpt lat="46.61496383138001" lon="7.1297574788331985"><ele></ele><time>2014-10-30T1:44:47Z</time></trkpt>
<trkpt lat="46.61501328460872" lon="7.129839537665248"><ele></ele><time>2014-10-30T1:44:50Z</time></trkpt>
<trkpt lat="46.615065755322576" lon="7.1299247816205025"><ele></ele><time>2014-10-30T1:44:53Z</time></trkpt>
<trkpt lat="46.6152666695416" lon="7.130257040262222"><ele></ele><time>2014-10-30T1:44:56Z</time></trkpt>
<trkpt lat="46.61537144333124" lon="7.130405902862549"><ele></ele><time>2014-10-30T1:44:59Z</time></trkpt>
<trkpt lat="46.61547412164509" lon="7.130559124052525"><ele></ele><time>2014-10-30T1:45:2Z</time></trkpt>
<trkpt lat="46.6155790630728" lon="7.130707064643502"><ele></ele><time>2014-10-30T1:45:5Z</time></trkpt>
<trkpt lat="46.61568098701537" lon="7.130845282226801"><ele></ele><time>2014-10-30T1:45:8Z</time></trkpt>
<trkpt lat="46.61573010496795" lon="7.130902027711272"><ele></ele><time>2014-10-30T1:45:11Z</time></trkpt>
<trkpt lat="46.61577989347279" lon="7.130949050188065"><ele></ele><time>2014-10-30T1:45:14Z</time></trkpt>
<trkpt lat="46.615824569016695" lon="7.130989618599415"><ele></ele><time>2014-10-30T1:45:17Z</time></trkpt>
<trkpt lat="46.615875363349915" lon="7.131031779572368"><ele></ele><time>2014-10-30T1:45:20Z</time></trkpt>
<trkpt lat="46.615962870419025" lon="7.131106294691563"><ele></ele><time>2014-10-30T1:45:23Z</time></trkpt>
<trkpt lat="46.61600084044039" lon="7.1311399061232805"><ele></ele><time>2014-10-30T1:45:26Z</time></trkpt>
<trkpt lat="46.61603118292987" lon="7.131182653829455"><ele></ele><time>2014-10-30T1:45:29Z</time></trkpt>
<trkpt lat="46.616058172658086" lon="7.131231017410755"><ele></ele><time>2014-10-30T1:45:32Z</time></trkpt>
<trkpt lat="46.616073762997985" lon="7.1312906965613365"><ele></ele><time>2014-10-30T1:45:35Z</time></trkpt>
<trkpt lat="46.61610519513488" lon="7.131421621888876"><ele></ele><time>2014-10-30T1:45:38Z</time></trkpt>
<trkpt lat="46.616168059408665" lon="7.131618345156312"><ele></ele><time>2014-10-30T1:45:41Z</time></trkpt>
<trkpt lat="46.61619429476559" lon="7.131727812811732"><ele></ele><time>2014-10-30T1:45:44Z</time></trkpt>
<trkpt lat="46.61621633917093" lon="7.131872484460473"><ele></ele><time>2014-10-30T1:45:47Z</time></trkpt>
<trkpt lat="46.61621726118028" lon="7.131945239380002"><ele></ele><time>2014-10-30T1:45:50Z</time></trkpt>
<trkpt lat="46.61620443686843" lon="7.132010953500867"><ele></ele><time>2014-10-30T1:45:53Z</time></trkpt>
<trkpt lat="46.61618649959564" lon="7.13208731263876"><ele></ele><time>2014-10-30T1:45:56Z</time></trkpt>
<trkpt lat="46.61618825979531" lon="7.132172891870141"><ele></ele><time>2014-10-30T1:45:59Z</time></trkpt>
<trkpt lat="46.61616965197027" lon="7.132405573502183"><ele></ele><time>2014-10-30T1:46:2Z</time></trkpt>
<trkpt lat="46.61617971025407" lon="7.132576983422041"><ele></ele><time>2014-10-30T1:46:5Z</time></trkpt>
<trkpt lat="46.616191528737545" lon="7.13267027400434"><ele></ele><time>2014-10-30T1:46:8Z</time></trkpt>
<trkpt lat="46.61621667444706" lon="7.132771946489811"><ele></ele><time>2014-10-30T1:46:11Z</time></trkpt>
<trkpt lat="46.61625573411584" lon="7.132880659773946"><ele></ele><time>2014-10-30T1:46:14Z</time></trkpt>
<trkpt lat="46.61629202775657" lon="7.133016781881452"><ele></ele><time>2014-10-30T1:46:17Z</time></trkpt>
<trkpt lat="46.616343492642045" lon="7.1331437677145"><ele></ele><time>2014-10-30T1:46:20Z</time></trkpt>
<trkpt lat="46.61637685261667" lon="7.133268406614661"><ele></ele><time>2014-10-30T1:46:23Z</time></trkpt>
<trkpt lat="46.61640426144004" lon="7.133388100191951"><ele></ele><time>2014-10-30T1:46:26Z</time></trkpt>
<trkpt lat="46.61644625477493" lon="7.133519444614649"><ele></ele><time>2014-10-30T1:46:29Z</time></trkpt>
<trkpt lat="46.61650744266808" lon="7.133619273081422"><ele></ele><time>2014-10-30T1:46:32Z</time></trkpt>
<trkpt lat="46.61656410433352" lon="7.1337224543094635"><ele></ele><time>2014-10-30T1:46:35Z</time></trkpt>
<trkpt lat="46.61669787950814" lon="7.1339598298072815"><ele></ele><time>2014-10-30T1:46:38Z</time></trkpt>
<trkpt lat="46.61678940989077" lon="7.134107099846005"><ele></ele><time>2014-10-30T1:46:41Z</time></trkpt>
<trkpt lat="46.616829726845026" lon="7.134183626621962"><ele></ele><time>2014-10-30T1:46:44Z</time></trkpt>
<trkpt lat="46.616870295256376" lon="7.134255291894078"><ele></ele><time>2014-10-30T1:46:47Z</time></trkpt>
<trkpt lat="46.616908768191934" lon="7.134323520585895"><ele></ele><time>2014-10-30T1:46:50Z</time></trkpt>
<trkpt lat="46.61695486865938" lon="7.134378086775541"><ele></ele><time>2014-10-30T1:46:53Z</time></trkpt>
<trkpt lat="46.61700960248709" lon="7.134410357102752"><ele></ele><time>2014-10-30T1:46:56Z</time></trkpt>
<trkpt lat="46.617202302441" lon="7.134466348215938"><ele></ele><time>2014-10-30T1:46:59Z</time></trkpt>
<trkpt lat="46.61726424470544" lon="7.134498870000243"><ele></ele><time>2014-10-30T1:47:2Z</time></trkpt>
<trkpt lat="46.61731855943799" lon="7.134538264945149"><ele></ele><time>2014-10-30T1:47:5Z</time></trkpt>
<trkpt lat="46.617347141727805" lon="7.134585455060005"><ele></ele><time>2014-10-30T1:47:8Z</time></trkpt>
<trkpt lat="46.617362229153514" lon="7.134646140038967"><ele></ele><time>2014-10-30T1:47:11Z</time></trkpt>
<trkpt lat="46.6173836030066" lon="7.134706908836961"><ele></ele><time>2014-10-30T1:47:14Z</time></trkpt>
<trkpt lat="46.61744554527104" lon="7.134885527193546"><ele></ele><time>2014-10-30T1:47:17Z</time></trkpt>
<trkpt lat="46.61748795770109" lon="7.1350079867988825"><ele></ele><time>2014-10-30T1:47:20Z</time></trkpt>
<trkpt lat="46.617542104795575" lon="7.1351961605250835"><ele></ele><time>2014-10-30T1:47:23Z</time></trkpt>
<trkpt lat="46.61756054498255" lon="7.135256426408887"><ele></ele><time>2014-10-30T1:47:26Z</time></trkpt>
<trkpt lat="46.61761133931577" lon="7.135419538244605"><ele></ele><time>2014-10-30T1:47:29Z</time></trkpt>
<trkpt lat="46.6176185477525" lon="7.135447366163135"><ele></ele><time>2014-10-30T1:47:32Z</time></trkpt>
<trkpt lat="46.61760731600225" lon="7.135457759723067"><ele></ele><time>2014-10-30T1:47:35Z</time></trkpt>
<trkpt lat="46.61759088747203" lon="7.135486761108041"><ele></ele><time>2014-10-30T1:47:38Z</time></trkpt>
<trkpt lat="46.61756926216185" lon="7.135514672845602"><ele></ele><time>2014-10-30T1:47:41Z</time></trkpt>
<trkpt lat="46.61753296852112" lon="7.135549541562796"><ele></ele><time>2014-10-30T1:47:44Z</time></trkpt>
<trkpt lat="46.61749265156686" lon="7.135581476613879"><ele></ele><time>2014-10-30T1:47:47Z</time></trkpt>
<trkpt lat="46.6174525860697" lon="7.135627157986164"><ele></ele><time>2014-10-30T1:47:50Z</time></trkpt>
<trkpt lat="46.617409670725465" lon="7.135669989511371"><ele></ele><time>2014-10-30T1:47:53Z</time></trkpt>
<trkpt lat="46.617372035980225" lon="7.135710138827562"><ele></ele><time>2014-10-30T1:47:56Z</time></trkpt>
<trkpt lat="46.61733213812113" lon="7.135747605934739"><ele></ele><time>2014-10-30T1:47:59Z</time></trkpt>
<trkpt lat="46.617302633821964" lon="7.135779205709696"><ele></ele><time>2014-10-30T1:48:2Z</time></trkpt>
<trkpt lat="46.61727371625602" lon="7.135808626189828"><ele></ele><time>2014-10-30T1:48:5Z</time></trkpt>
<trkpt lat="46.618365962058306" lon="7.134945876896381"><ele></ele><time>2014-10-30T1:48:8Z</time></trkpt>
<trkpt lat="46.61840979941189" lon="7.134942440316081"><ele></ele><time>2014-10-30T1:48:11Z</time></trkpt>
<trkpt lat="46.61858104169369" lon="7.134652426466346"><ele></ele><time>2014-10-30T1:48:14Z</time></trkpt>
<trkpt lat="46.61860845051706" lon="7.134627951309085"><ele></ele><time>2014-10-30T1:48:17Z</time></trkpt>
<trkpt lat="46.61861582659185" lon="7.134587550535798"><ele></ele><time>2014-10-30T1:48:20Z</time></trkpt>
<trkpt lat="46.618625884875655" lon="7.13457053527236"><ele></ele><time>2014-10-30T1:48:23Z</time></trkpt>
<trkpt lat="46.61864113993943" lon="7.134578330442309"><ele></ele><time>2014-10-30T1:48:26Z</time></trkpt>
<trkpt lat="46.61865170113742" lon="7.134588221088052"><ele></ele><time>2014-10-30T1:48:29Z</time></trkpt>
<trkpt lat="46.61861197091639" lon="7.134595261886716"><ele></ele><time>2014-10-30T1:48:32Z</time></trkpt>
<trkpt lat="46.61860006861389" lon="7.134597105905414"><ele></ele><time>2014-10-30T1:48:35Z</time></trkpt>
<trkpt lat="46.61858506500721" lon="7.134611438959837"><ele></ele><time>2014-10-30T1:48:38Z</time></trkpt>
<trkpt lat="46.6185958776623" lon="7.134616049006581"><ele></ele><time>2014-10-30T1:48:41Z</time></trkpt>
<trkpt lat="46.618601409718394" lon="7.134613366797566"><ele></ele><time>2014-10-30T1:48:44Z</time></trkpt>
<trkpt lat="46.61859671585262" lon="7.134625185281038"><ele></ele><time>2014-10-30T1:48:47Z</time></trkpt>
<trkpt lat="46.61859671585262" lon="7.134625185281038"><ele></ele><time>2014-10-30T1:48:50Z</time></trkpt>
<trkpt lat="46.61858120933175" lon="7.134625604376197"><ele></ele><time>2014-10-30T1:48:53Z</time></trkpt>
<trkpt lat="46.6185736656189" lon="7.134635746479034"><ele></ele><time>2014-10-30T1:48:56Z</time></trkpt>
<trkpt lat="46.618572575971484" lon="7.134666591882706"><ele></ele><time>2014-10-30T1:48:59Z</time></trkpt>
<trkpt lat="46.61856830120087" lon="7.134675811976194"><ele></ele><time>2014-10-30T1:49:2Z</time></trkpt>
<trkpt lat="46.6185646969825" lon="7.134681427851319"><ele></ele><time>2014-10-30T1:49:5Z</time></trkpt>
<trkpt lat="46.618558997288346" lon="7.1346914023160934"><ele></ele><time>2014-10-30T1:49:8Z</time></trkpt>
<trkpt lat="46.6185303311795" lon="7.134681008756161"><ele></ele><time>2014-10-30T1:49:11Z</time></trkpt>
<trkpt lat="46.6185165848583" lon="7.134683271870017"><ele></ele><time>2014-10-30T1:49:14Z</time></trkpt>
<trkpt lat="46.61849420517683" lon="7.134691653773189"><ele></ele><time>2014-10-30T1:49:17Z</time></trkpt>
<trkpt lat="46.61845891736448" lon="7.134729707613587"><ele></ele><time>2014-10-30T1:49:20Z</time></trkpt>
<trkpt lat="46.618424132466316" lon="7.134798523038626"><ele></ele><time>2014-10-30T1:49:23Z</time></trkpt>
<trkpt lat="46.618421617895365" lon="7.134835235774517"><ele></ele><time>2014-10-30T1:49:26Z</time></trkpt>
<trkpt lat="46.61842974834144" lon="7.134907906875014"><ele></ele><time>2014-10-30T1:49:29Z</time></trkpt>
<trkpt lat="46.61845464259386" lon="7.134992480278015"><ele></ele><time>2014-10-30T1:49:32Z</time></trkpt>
<trkpt lat="46.618460761383176" lon="7.135097254067659"><ele></ele><time>2014-10-30T1:49:35Z</time></trkpt>
<trkpt lat="46.61845908500254" lon="7.135120891034603"><ele></ele><time>2014-10-30T1:49:38Z</time></trkpt>
<trkpt lat="46.6184716578573" lon="7.135146204382181"><ele></ele><time>2014-10-30T1:49:41Z</time></trkpt>
<trkpt lat="46.61847794428468" lon="7.135169170796871"><ele></ele><time>2014-10-30T1:49:44Z</time></trkpt>
<trkpt lat="46.618482721969485" lon="7.13519305922091"><ele></ele><time>2014-10-30T1:49:47Z</time></trkpt>
<trkpt lat="46.61848783493042" lon="7.135215103626251"><ele></ele><time>2014-10-30T1:49:50Z</time></trkpt>
<trkpt lat="46.618513483554125" lon="7.135413838550448"><ele></ele><time>2014-10-30T1:49:53Z</time></trkpt>
<trkpt lat="46.61851700395346" lon="7.135449629276991"><ele></ele><time>2014-10-30T1:49:56Z</time></trkpt>
<trkpt lat="46.61851566284895" lon="7.135487264022231"><ele></ele><time>2014-10-30T1:49:59Z</time></trkpt>
<trkpt lat="46.61852412857115" lon="7.135529508814216"><ele></ele><time>2014-10-30T1:50:2Z</time></trkpt>
<trkpt lat="46.61852982826531" lon="7.135574268177152"><ele></ele><time>2014-10-30T1:50:5Z</time></trkpt>
<trkpt lat="46.61853410303593" lon="7.135606873780489"><ele></ele><time>2014-10-30T1:50:8Z</time></trkpt>
<trkpt lat="46.618575509637594" lon="7.13579555042088"><ele></ele><time>2014-10-30T1:50:11Z</time></trkpt>
<trkpt lat="46.61858405917883" lon="7.135815331712365"><ele></ele><time>2014-10-30T1:50:14Z</time></trkpt>
<trkpt lat="46.61859478801489" lon="7.135838130488992"><ele></ele><time>2014-10-30T1:50:17Z</time></trkpt>
<trkpt lat="46.61860593594611" lon="7.135862689465284"><ele></ele><time>2014-10-30T1:50:20Z</time></trkpt>
<trkpt lat="46.618620436638594" lon="7.135886074975133"><ele></ele><time>2014-10-30T1:50:23Z</time></trkpt>
<trkpt lat="46.618632674217224" lon="7.1358997374773026"><ele></ele><time>2014-10-30T1:50:26Z</time></trkpt>
<trkpt lat="46.618648348376155" lon="7.135969223454595"><ele></ele><time>2014-10-30T1:50:29Z</time></trkpt>
<trkpt lat="46.61866083741188" lon="7.13599780574441"><ele></ele><time>2014-10-30T1:50:32Z</time></trkpt>
<trkpt lat="46.618658658117056" lon="7.135999817401171"><ele></ele><time>2014-10-30T1:50:35Z</time></trkpt>
<trkpt lat="46.61865253932774" lon="7.136016916483641"><ele></ele><time>2014-10-30T1:50:38Z</time></trkpt>
<trkpt lat="46.61864474415779" lon="7.136028483510017"><ele></ele><time>2014-10-30T1:50:41Z</time></trkpt>
<trkpt lat="46.618632087484" lon="7.1360620111227036"><ele></ele><time>2014-10-30T1:50:44Z</time></trkpt>
<trkpt lat="46.618616161867976" lon="7.136133508756757"><ele></ele><time>2014-10-30T1:50:47Z</time></trkpt>
<trkpt lat="46.6186133120209" lon="7.136166030541062"><ele></ele><time>2014-10-30T1:50:50Z</time></trkpt>
<trkpt lat="46.61860702559352" lon="7.136190254241228"><ele></ele><time>2014-10-30T1:50:53Z</time></trkpt>
<trkpt lat="46.61860249936581" lon="7.136223362758756"><ele></ele><time>2014-10-30T1:50:56Z</time></trkpt>
<trkpt lat="46.618596045300364" lon="7.136252531781793"><ele></ele><time>2014-10-30T1:50:59Z</time></trkpt>
<trkpt lat="46.61859420128167" lon="7.1362763363868"><ele></ele><time>2014-10-30T1:51:2Z</time></trkpt>
<trkpt lat="46.61859294399619" lon="7.1363050024956465"><ele></ele><time>2014-10-30T1:51:5Z</time></trkpt>
<trkpt lat="46.618582885712385" lon="7.136344145983458"><ele></ele><time>2014-10-30T1:51:8Z</time></trkpt>
<trkpt lat="46.618573078885674" lon="7.136436849832535"><ele></ele><time>2014-10-30T1:51:11Z</time></trkpt>
<trkpt lat="46.618558997288346" lon="7.136548077687621"><ele></ele><time>2014-10-30T1:51:14Z</time></trkpt>
<trkpt lat="46.61855321377516" lon="7.136577581986785"><ele></ele><time>2014-10-30T1:51:17Z</time></trkpt>
<trkpt lat="46.618536449968815" lon="7.136598788201809"><ele></ele><time>2014-10-30T1:51:20Z</time></trkpt>
<trkpt lat="46.61852630786598" lon="7.1366355009377"><ele></ele><time>2014-10-30T1:51:23Z</time></trkpt>
<trkpt lat="46.61844030953944" lon="7.136815125122666"><ele></ele><time>2014-10-30T1:51:26Z</time></trkpt>
<trkpt lat="46.61838415078819" lon="7.137024253606796"><ele></ele><time>2014-10-30T1:51:29Z</time></trkpt>
<trkpt lat="46.61837249994278" lon="7.137092649936676"><ele></ele><time>2014-10-30T1:51:32Z</time></trkpt>
<trkpt lat="46.618366967886686" lon="7.137162555009127"><ele></ele><time>2014-10-30T1:51:35Z</time></trkpt>
<trkpt lat="46.618360597640276" lon="7.137443767860532"><ele></ele><time>2014-10-30T1:51:38Z</time></trkpt>
<trkpt lat="46.61836386658251" lon="7.1377362962812185"><ele></ele><time>2014-10-30T1:51:41Z</time></trkpt>
<trkpt lat="46.618377696722746" lon="7.137817516922951"><ele></ele><time>2014-10-30T1:51:44Z</time></trkpt>
<trkpt lat="46.61840099841356" lon="7.137982724234462"><ele></ele><time>2014-10-30T1:51:47Z</time></trkpt>
<trkpt lat="46.61845036782324" lon="7.13820937089622"><ele></ele><time>2014-10-30T1:51:50Z</time></trkpt>
<trkpt lat="46.61847844719887" lon="7.138342475518584"><ele></ele><time>2014-10-30T1:51:53Z</time></trkpt>
<trkpt lat="46.61849504336715" lon="7.138409279286861"><ele></ele><time>2014-10-30T1:51:56Z</time></trkpt>
<trkpt lat="46.618618005886674" lon="7.138796439394355"><ele></ele><time>2014-10-30T1:51:59Z</time></trkpt>
<trkpt lat="46.61869109608233" lon="7.139032809063792"><ele></ele><time>2014-10-30T1:52:2Z</time></trkpt>
<trkpt lat="46.61871121264994" lon="7.1391118504107"><ele></ele><time>2014-10-30T1:52:5Z</time></trkpt>
<trkpt lat="46.61872345022857" lon="7.139158034697175"><ele></ele><time>2014-10-30T1:52:8Z</time></trkpt>
<trkpt lat="46.61873267032206" lon="7.139201369136572"><ele></ele><time>2014-10-30T1:52:11Z</time></trkpt>
<trkpt lat="46.61874323152006" lon="7.139245038852096"><ele></ele><time>2014-10-30T1:52:14Z</time></trkpt>
<trkpt lat="46.61874717101455" lon="7.139293234795332"><ele></ele><time>2014-10-30T1:52:17Z</time></trkpt>
<trkpt lat="46.6187909245491" lon="7.139567490667105"><ele></ele><time>2014-10-30T1:52:20Z</time></trkpt>
<trkpt lat="46.618785727769136" lon="7.1396161057055"><ele></ele><time>2014-10-30T1:52:23Z</time></trkpt>
<trkpt lat="46.61877868697047" lon="7.139803860336542"><ele></ele><time>2014-10-30T1:52:26Z</time></trkpt>
<trkpt lat="46.618770472705364" lon="7.139942916110158"><ele></ele><time>2014-10-30T1:52:29Z</time></trkpt>
<trkpt lat="46.618770053610206" lon="7.139983149245381"><ele></ele><time>2014-10-30T1:52:32Z</time></trkpt>
<trkpt lat="46.61877038888633" lon="7.140025896951556"><ele></ele><time>2014-10-30T1:52:35Z</time></trkpt>
<trkpt lat="46.618759240955114" lon="7.140068141743541"><ele></ele><time>2014-10-30T1:52:38Z</time></trkpt>
<trkpt lat="46.61874909885228" lon="7.140108039602637"><ele></ele><time>2014-10-30T1:52:41Z</time></trkpt>
<trkpt lat="46.61864373832941" lon="7.140277689322829"><ele></ele><time>2014-10-30T1:52:44Z</time></trkpt>
<trkpt lat="46.6185768507421" lon="7.140463516116142"><ele></ele><time>2014-10-30T1:52:47Z</time></trkpt>
<trkpt lat="46.61857618018985" lon="7.140509448945522"><ele></ele><time>2014-10-30T1:52:50Z</time></trkpt>
<trkpt lat="46.61858204752207" lon="7.140551609918475"><ele></ele><time>2014-10-30T1:52:53Z</time></trkpt>
<trkpt lat="46.618587160483" lon="7.140594944357872"><ele></ele><time>2014-10-30T1:52:56Z</time></trkpt>
<trkpt lat="46.61859478801489" lon="7.140639703720808"><ele></ele><time>2014-10-30T1:52:59Z</time></trkpt>
<trkpt lat="46.61860233172774" lon="7.140714218840003"><ele></ele><time>2014-10-30T1:53:2Z</time></trkpt>
<trkpt lat="46.61863108165562" lon="7.140922760590911"><ele></ele><time>2014-10-30T1:53:5Z</time></trkpt>
<trkpt lat="46.61863284185529" lon="7.140964837744832"><ele></ele><time>2014-10-30T1:53:8Z</time></trkpt>
<trkpt lat="46.618638038635254" lon="7.140998616814613"><ele></ele><time>2014-10-30T1:53:11Z</time></trkpt>
<trkpt lat="46.61864231340587" lon="7.141035916283727"><ele></ele><time>2014-10-30T1:53:14Z</time></trkpt>
<trkpt lat="46.61865203641355" lon="7.141071204096079"><ele></ele><time>2014-10-30T1:53:17Z</time></trkpt>
<trkpt lat="46.61868824623525" lon="7.141165751963854"><ele></ele><time>2014-10-30T1:53:20Z</time></trkpt>
<trkpt lat="46.61871179938316" lon="7.141179498285055"><ele></ele><time>2014-10-30T1:53:23Z</time></trkpt>
<trkpt lat="46.61880500614643" lon="7.141146389767528"><ele></ele><time>2014-10-30T1:53:26Z</time></trkpt>
<trkpt lat="46.61885730922222" lon="7.141110263764858"><ele></ele><time>2014-10-30T1:53:29Z</time></trkpt>
<trkpt lat="46.618881449103355" lon="7.141086710616946"><ele></ele><time>2014-10-30T1:53:32Z</time></trkpt>
<trkpt lat="46.61890558898449" lon="7.141059469431639"><ele></ele><time>2014-10-30T1:53:35Z</time></trkpt>
<trkpt lat="46.61893190816045" lon="7.141042621806264"><ele></ele><time>2014-10-30T1:53:38Z</time></trkpt>
<trkpt lat="46.61895269528031" lon="7.141013536602259"><ele></ele><time>2014-10-30T1:53:41Z</time></trkpt>
<trkpt lat="46.61904296837747" lon="7.140905410051346"><ele></ele><time>2014-10-30T1:53:44Z</time></trkpt>
<trkpt lat="46.619062665849924" lon="7.140874145552516"><ele></ele><time>2014-10-30T1:53:47Z</time></trkpt>
<trkpt lat="46.61914271302521" lon="7.140676248818636"><ele></ele><time>2014-10-30T1:53:50Z</time></trkpt>
<trkpt lat="46.619174061343074" lon="7.140600644052029"><ele></ele><time>2014-10-30T1:53:53Z</time></trkpt>
<trkpt lat="46.61918504163623" lon="7.140562338754535"><ele></ele><time>2014-10-30T1:53:56Z</time></trkpt>
<trkpt lat="46.619199961423874" lon="7.140523698180914"><ele></ele><time>2014-10-30T1:53:59Z</time></trkpt>
<trkpt lat="46.61921538412571" lon="7.140489835292101"><ele></ele><time>2014-10-30T1:54:2Z</time></trkpt>
<trkpt lat="46.61923105828464" lon="7.140454212203622"><ele></ele><time>2014-10-30T1:54:5Z</time></trkpt>
<trkpt lat="46.619245475158095" lon="7.140414649620652"><ele></ele><time>2014-10-30T1:54:8Z</time></trkpt>
<trkpt lat="46.61927682347596" lon="7.1402087062597275"><ele></ele><time>2014-10-30T1:54:11Z</time></trkpt>
<trkpt lat="46.61929450929165" lon="7.140088090673089"><ele></ele><time>2014-10-30T1:54:14Z</time></trkpt>
<trkpt lat="46.6192951798439" lon="7.140046935528517"><ele></ele><time>2014-10-30T1:54:17Z</time></trkpt>
<trkpt lat="46.61930054426193" lon="7.140007372945547"><ele></ele><time>2014-10-30T1:54:20Z</time></trkpt>
<trkpt lat="46.61930322647095" lon="7.139969151467085"><ele></ele><time>2014-10-30T1:54:23Z</time></trkpt>
<trkpt lat="46.61930297501385" lon="7.139924056828022"><ele></ele><time>2014-10-30T1:54:26Z</time></trkpt>
<trkpt lat="46.619311943650246" lon="7.139884242787957"><ele></ele><time>2014-10-30T1:54:29Z</time></trkpt>
<trkpt lat="46.619299203157425" lon="7.139664888381958"><ele></ele><time>2014-10-30T1:54:32Z</time></trkpt>
<trkpt lat="46.61926777102053" lon="7.139369761571288"><ele></ele><time>2014-10-30T1:54:35Z</time></trkpt>
<trkpt lat="46.619260646402836" lon="7.139328354969621"><ele></ele><time>2014-10-30T1:54:38Z</time></trkpt>
<trkpt lat="46.61925461143255" lon="7.139283679425716"><ele></ele><time>2014-10-30T1:54:41Z</time></trkpt>
<trkpt lat="46.6192468162626" lon="7.1392391715198755"><ele></ele><time>2014-10-30T1:54:44Z</time></trkpt>
<trkpt lat="46.619223430752754" lon="7.139027696102858"><ele></ele><time>2014-10-30T1:54:47Z</time></trkpt>
<trkpt lat="46.61918898113072" lon="7.138782944530249"><ele></ele><time>2014-10-30T1:54:50Z</time></trkpt>
<trkpt lat="46.61918479017913" lon="7.138743130490184"><ele></ele><time>2014-10-30T1:54:53Z</time></trkpt>
<trkpt lat="46.619179425761104" lon="7.138702059164643"><ele></ele><time>2014-10-30T1:54:56Z</time></trkpt>
<trkpt lat="46.61917615681887" lon="7.138663753867149"><ele></ele><time>2014-10-30T1:54:59Z</time></trkpt>
<trkpt lat="46.61917372606695" lon="7.138625867664814"><ele></ele><time>2014-10-30T1:55:2Z</time></trkpt>
<trkpt lat="46.619139946997166" lon="7.138411039486527"><ele></ele><time>2014-10-30T1:55:5Z</time></trkpt>
<trkpt lat="46.61913491785526" lon="7.138376422226429"><ele></ele><time>2014-10-30T1:55:8Z</time></trkpt>
<trkpt lat="46.619132654741406" lon="7.138340212404728"><ele></ele><time>2014-10-30T1:55:11Z</time></trkpt>
<trkpt lat="46.619131062179804" lon="7.138307020068169"><ele></ele><time>2014-10-30T1:55:14Z</time></trkpt>
<trkpt lat="46.619152100756764" lon="7.138161510229111"><ele></ele><time>2014-10-30T1:55:17Z</time></trkpt>
<trkpt lat="46.61916299723089" lon="7.1381468418985605"><ele></ele><time>2014-10-30T1:55:20Z</time></trkpt>
<trkpt lat="46.619175653904676" lon="7.138131083920598"><ele></ele><time>2014-10-30T1:55:23Z</time></trkpt>
<trkpt lat="46.619192166253924" lon="7.1381191816180944"><ele></ele><time>2014-10-30T1:55:26Z</time></trkpt>
<trkpt lat="46.61921211518347" lon="7.138108536601067"><ele></ele><time>2014-10-30T1:55:29Z</time></trkpt>
<trkpt lat="46.61923013627529" lon="7.1381100453436375"><ele></ele><time>2014-10-30T1:55:32Z</time></trkpt>
<trkpt lat="46.61934781819582" lon="7.13815413415432"><ele></ele><time>2014-10-30T1:55:35Z</time></trkpt>
<trkpt lat="46.61935561336577" lon="7.138177352026105"><ele></ele><time>2014-10-30T1:55:38Z</time></trkpt>
<trkpt lat="46.61936575546861" lon="7.138203503564"><ele></ele><time>2014-10-30T1:55:41Z</time></trkpt>
<trkpt lat="46.619375394657254" lon="7.138229236006737"><ele></ele><time>2014-10-30T1:55:44Z</time></trkpt>
<trkpt lat="46.619382770732045" lon="7.138255555182695"><ele></ele><time>2014-10-30T1:55:47Z</time></trkpt>
<trkpt lat="46.61939752288163" lon="7.138278940692544"><ele></ele><time>2014-10-30T1:55:50Z</time></trkpt>
<trkpt lat="46.61940339021385" lon="7.13831439614296"><ele></ele><time>2014-10-30T1:55:53Z</time></trkpt>
<trkpt lat="46.61941923201084" lon="7.138332417234778"><ele></ele><time>2014-10-30T1:55:56Z</time></trkpt>
<trkpt lat="46.61943716928363" lon="7.138399556279182"><ele></ele><time>2014-10-30T1:55:59Z</time></trkpt>
<trkpt lat="46.619439432397485" lon="7.13842193596065"><ele></ele><time>2014-10-30T1:56:2Z</time></trkpt>
<trkpt lat="46.61945351399481" lon="7.138442136347294"><ele></ele><time>2014-10-30T1:56:5Z</time></trkpt>
<trkpt lat="46.61946164444089" lon="7.1384731493890285"><ele></ele><time>2014-10-30T1:56:8Z</time></trkpt>
<trkpt lat="46.619468266144395" lon="7.138502569869161"><ele></ele><time>2014-10-30T1:56:11Z</time></trkpt>
<trkpt lat="46.61947916261852" lon="7.138531235978007"><ele></ele><time>2014-10-30T1:56:14Z</time></trkpt>
<trkpt lat="46.619530795142055" lon="7.138674482703209"><ele></ele><time>2014-10-30T1:56:17Z</time></trkpt>
<trkpt lat="46.61955141462386" lon="7.138718906790018"><ele></ele><time>2014-10-30T1:56:20Z</time></trkpt>
<trkpt lat="46.6195613052696" lon="7.138745309785008"><ele></ele><time>2014-10-30T1:56:23Z</time></trkpt>
<trkpt lat="46.619567507877946" lon="7.1387682761996984"><ele></ele><time>2014-10-30T1:56:26Z</time></trkpt>
<trkpt lat="46.61957563832402" lon="7.138793170452118"><ele></ele><time>2014-10-30T1:56:29Z</time></trkpt>
<trkpt lat="46.61958083510399" lon="7.13881429284811"><ele></ele><time>2014-10-30T1:56:32Z</time></trkpt>
<trkpt lat="46.619593324139714" lon="7.138835079967976"><ele></ele><time>2014-10-30T1:56:35Z</time></trkpt>
<trkpt lat="46.61963917315006" lon="7.138966005295515"><ele></ele><time>2014-10-30T1:56:38Z</time></trkpt>
<trkpt lat="46.61964638158679" lon="7.138991318643093"><ele></ele><time>2014-10-30T1:56:41Z</time></trkpt>
<trkpt lat="46.6196543443948" lon="7.139015458524227"><ele></ele><time>2014-10-30T1:56:44Z</time></trkpt>
<trkpt lat="46.61965996026993" lon="7.139037754386663"><ele></ele><time>2014-10-30T1:56:47Z</time></trkpt>
<trkpt lat="46.619668090716004" lon="7.139064325019717"><ele></ele><time>2014-10-30T1:56:50Z</time></trkpt>
<trkpt lat="46.61967454478145" lon="7.1390895545482635"><ele></ele><time>2014-10-30T1:56:53Z</time></trkpt>
<trkpt lat="46.61970488727093" lon="7.139166332781315"><ele></ele><time>2014-10-30T1:56:56Z</time></trkpt>
<trkpt lat="46.61974553950131" lon="7.139281667768955"><ele></ele><time>2014-10-30T1:56:59Z</time></trkpt>
<trkpt lat="46.619754172861576" lon="7.139301113784313"><ele></ele><time>2014-10-30T1:57:2Z</time></trkpt>
<trkpt lat="46.61976079456508" lon="7.13932734914124"><ele></ele><time>2014-10-30T1:57:5Z</time></trkpt>
<trkpt lat="46.61976993083954" lon="7.139353416860104"><ele></ele><time>2014-10-30T1:57:8Z</time></trkpt>
<trkpt lat="46.61978024058044" lon="7.139377472922206"><ele></ele><time>2014-10-30T1:57:11Z</time></trkpt>
<trkpt lat="46.61983111873269" lon="7.139487359672785"><ele></ele><time>2014-10-30T1:57:14Z</time></trkpt>
<trkpt lat="46.619842601940036" lon="7.139507560059428"><ele></ele><time>2014-10-30T1:57:17Z</time></trkpt>
<trkpt lat="46.61984972655773" lon="7.13953061029315"><ele></ele><time>2014-10-30T1:57:20Z</time></trkpt>
<trkpt lat="46.61986171267927" lon="7.139556929469109"><ele></ele><time>2014-10-30T1:57:23Z</time></trkpt>
<trkpt lat="46.61987537518144" lon="7.139576710760593"><ele></ele><time>2014-10-30T1:57:26Z</time></trkpt>
<trkpt lat="46.61989079788327" lon="7.139595737680793"><ele></ele><time>2014-10-30T1:57:29Z</time></trkpt>
<trkpt lat="46.61990228109062" lon="7.139613339677453"><ele></ele><time>2014-10-30T1:57:32Z</time></trkpt>
<trkpt lat="46.61998542957008" lon="7.1397339552640915"><ele></ele><time>2014-10-30T1:57:35Z</time></trkpt>
<trkpt lat="46.61999951116741" lon="7.13975197635591"><ele></ele><time>2014-10-30T1:57:38Z</time></trkpt>
<trkpt lat="46.62001149728894" lon="7.139770500361919"><ele></ele><time>2014-10-30T1:57:41Z</time></trkpt>
<trkpt lat="46.6200224775821" lon="7.139790533110499"><ele></ele><time>2014-10-30T1:57:44Z</time></trkpt>
<trkpt lat="46.62003488279879" lon="7.139813499525189"><ele></ele><time>2014-10-30T1:57:47Z</time></trkpt>
<trkpt lat="46.62011107429862" lon="7.139916010200977"><ele></ele><time>2014-10-30T1:57:50Z</time></trkpt>
<trkpt lat="46.6201379802078" lon="7.139953812584281"><ele></ele><time>2014-10-30T1:57:53Z</time></trkpt>
<trkpt lat="46.62014770321548" lon="7.139978539198637"><ele></ele><time>2014-10-30T1:57:56Z</time></trkpt>
<trkpt lat="46.62016907706857" lon="7.14001483283937"><ele></ele><time>2014-10-30T1:57:59Z</time></trkpt>
<trkpt lat="46.62018533796072" lon="7.140046935528517"><ele></ele><time>2014-10-30T1:58:2Z</time></trkpt>
<trkpt lat="46.620200173929334" lon="7.140073589980602"><ele></ele><time>2014-10-30T1:58:5Z</time></trkpt>
<trkpt lat="46.62028198130429" lon="7.140167048200965"><ele></ele><time>2014-10-30T1:58:8Z</time></trkpt>
<trkpt lat="46.62029371596873" lon="7.140191439539194"><ele></ele><time>2014-10-30T1:58:11Z</time></trkpt>
<trkpt lat="46.6203055344522" lon="7.140213651582599"><ele></ele><time>2014-10-30T1:58:14Z</time></trkpt>
<trkpt lat="46.620318023487926" lon="7.140233851969242"><ele></ele><time>2014-10-30T1:58:17Z</time></trkpt>
<trkpt lat="46.620331434533" lon="7.140250951051712"><ele></ele><time>2014-10-30T1:58:20Z</time></trkpt>
<trkpt lat="46.620374182239175" lon="7.140335021540523"><ele></ele><time>2014-10-30T1:58:23Z</time></trkpt>
<trkpt lat="46.620420617982745" lon="7.1404054295271635"><ele></ele><time>2014-10-30T1:58:26Z</time></trkpt>
<trkpt lat="46.62043754942715" lon="7.140425713732839"><ele></ele><time>2014-10-30T1:58:29Z</time></trkpt>
<trkpt lat="46.62045297212899" lon="7.14044532738626"><ele></ele><time>2014-10-30T1:58:32Z</time></trkpt>
<trkpt lat="46.62046571262181" lon="7.140464438125491"><ele></ele><time>2014-10-30T1:58:35Z</time></trkpt>
<trkpt lat="46.620476273819804" lon="7.140487153083086"><ele></ele><time>2014-10-30T1:58:38Z</time></trkpt>
<trkpt lat="46.62053670734167" lon="7.140619670972228"><ele></ele><time>2014-10-30T1:58:41Z</time></trkpt>
<trkpt lat="46.62054802291095" lon="7.140637943521142"><ele></ele><time>2014-10-30T1:58:44Z</time></trkpt>
<trkpt lat="46.620556907728314" lon="7.140656299889088"><ele></ele><time>2014-10-30T1:58:47Z</time></trkpt>
<trkpt lat="46.62056495435536" lon="7.1406760811805725"><ele></ele><time>2014-10-30T1:58:50Z</time></trkpt>
<trkpt lat="46.62057576701045" lon="7.140694689005613"><ele></ele><time>2014-10-30T1:58:53Z</time></trkpt>
<trkpt lat="46.62058632820845" lon="7.140713380649686"><ele></ele><time>2014-10-30T1:58:56Z</time></trkpt>
<trkpt lat="46.62060066126287" lon="7.14075461961329"><ele></ele><time>2014-10-30T1:58:59Z</time></trkpt>
<trkpt lat="46.6206562332809" lon="7.140898872166872"><ele></ele><time>2014-10-30T1:59:2Z</time></trkpt>
<trkpt lat="46.6206662915647" lon="7.140920162200928"><ele></ele><time>2014-10-30T1:59:5Z</time></trkpt>
<trkpt lat="46.620677690953016" lon="7.14094371534884"><ele></ele><time>2014-10-30T1:59:8Z</time></trkpt>
<trkpt lat="46.62068992853165" lon="7.140970034524798"><ele></ele><time>2014-10-30T1:59:11Z</time></trkpt>
<trkpt lat="46.62070141173899" lon="7.140997443348169"><ele></ele><time>2014-10-30T1:59:14Z</time></trkpt>
<trkpt lat="46.62074985913932" lon="7.141089895740151"><ele></ele><time>2014-10-30T1:59:17Z</time></trkpt>
<trkpt lat="46.620791014283895" lon="7.141168853268027"><ele></ele><time>2014-10-30T1:59:20Z</time></trkpt>
<trkpt lat="46.62080199457705" lon="7.141189221292734"><ele></ele><time>2014-10-30T1:59:23Z</time></trkpt>
<trkpt lat="46.620811466127634" lon="7.141209924593568"><ele></ele><time>2014-10-30T1:59:26Z</time></trkpt>
<trkpt lat="46.62082110531628" lon="7.1412306278944016"><ele></ele><time>2014-10-30T1:59:29Z</time></trkpt>
<trkpt lat="46.62083233706653" lon="7.141252672299743"><ele></ele><time>2014-10-30T1:59:32Z</time></trkpt>
<trkpt lat="46.62086075171828" lon="7.141307573765516"><ele></ele><time>2014-10-30T1:59:35Z</time></trkpt>
<trkpt lat="46.620904337614775" lon="7.141410335898399"><ele></ele><time>2014-10-30T1:59:38Z</time></trkpt>
<trkpt lat="46.620917581021786" lon="7.141430117189884"><ele></ele><time>2014-10-30T1:59:41Z</time></trkpt>
<trkpt lat="46.620930740609765" lon="7.141452664509416"><ele></ele><time>2014-10-30T1:59:44Z</time></trkpt>
<trkpt lat="46.620943397283554" lon="7.141478480771184"><ele></ele><time>2014-10-30T1:59:47Z</time></trkpt>
<trkpt lat="46.620954629033804" lon="7.141498429700732"><ele></ele><time>2014-10-30T1:59:50Z</time></trkpt>
<trkpt lat="46.62098849192262" lon="7.141566826030612"><ele></ele><time>2014-10-30T1:59:53Z</time></trkpt>
<trkpt lat="46.62106082774699" lon="7.141674114391208"><ele></ele><time>2014-10-30T1:59:56Z</time></trkpt>
<trkpt lat="46.62107666954398" lon="7.141691884025931"><ele></ele><time>2014-10-30T1:59:59Z</time></trkpt>
<trkpt lat="46.62108454853296" lon="7.141714096069336"><ele></ele><time>2014-10-30T2:0:2Z</time></trkpt>
<trkpt lat="46.62109318189323" lon="7.141737649217248"><ele></ele><time>2014-10-30T2:0:5Z</time></trkpt>
<trkpt lat="46.62110441364348" lon="7.141754664480686"><ele></ele><time>2014-10-30T2:0:8Z</time></trkpt>
<trkpt lat="46.62111992016435" lon="7.141778049990535"><ele></ele><time>2014-10-30T2:0:11Z</time></trkpt>
<trkpt lat="46.62114447914064" lon="7.141825659200549"><ele></ele><time>2014-10-30T2:0:14Z</time></trkpt>
<trkpt lat="46.62118881940842" lon="7.141896486282349"><ele></ele><time>2014-10-30T2:0:17Z</time></trkpt>
<trkpt lat="46.62119837477803" lon="7.1419150941073895"><ele></ele><time>2014-10-30T2:0:20Z</time></trkpt>
<trkpt lat="46.62121002562344" lon="7.141935713589191"><ele></ele><time>2014-10-30T2:0:23Z</time></trkpt>
<trkpt lat="46.62122268229723" lon="7.141952896490693"><ele></ele><time>2014-10-30T2:0:26Z</time></trkpt>
<trkpt lat="46.6212313156575" lon="7.141972091048956"><ele></ele><time>2014-10-30T2:0:29Z</time></trkpt>
<trkpt lat="46.6212553717196" lon="7.142011821269989"><ele></ele><time>2014-10-30T2:0:32Z</time></trkpt>
<trkpt lat="46.62132301367819" lon="7.1421377174556255"><ele></ele><time>2014-10-30T2:0:35Z</time></trkpt>
<trkpt lat="46.62133399397135" lon="7.142167221754789"><ele></ele><time>2014-10-30T2:0:38Z</time></trkpt>
<trkpt lat="46.62134623154998" lon="7.142193038016558"><ele></ele><time>2014-10-30T2:0:41Z</time></trkpt>
<trkpt lat="46.62135721184313" lon="7.142215920612216"><ele></ele><time>2014-10-30T2:0:44Z</time></trkpt>
<trkpt lat="46.621366599574685" lon="7.142237797379494"><ele></ele><time>2014-10-30T2:0:47Z</time></trkpt>
<trkpt lat="46.621372886002064" lon="7.142261266708374"><ele></ele><time>2014-10-30T2:0:50Z</time></trkpt>
<trkpt lat="46.621418818831444" lon="7.142375176772475"><ele></ele><time>2014-10-30T2:0:53Z</time></trkpt>
<trkpt lat="46.62143373861909" lon="7.14241742156446"><ele></ele><time>2014-10-30T2:0:56Z</time></trkpt>
<trkpt lat="46.62144027650356" lon="7.142439549788833"><ele></ele><time>2014-10-30T2:0:59Z</time></trkpt>
<trkpt lat="46.62144756875932" lon="7.1424610912799835"><ele></ele><time>2014-10-30T2:1:2Z</time></trkpt>
<trkpt lat="46.621453519910574" lon="7.142482548952103"><ele></ele><time>2014-10-30T2:1:5Z</time></trkpt>
<trkpt lat="46.62145921960473" lon="7.142503252252936"><ele></ele><time>2014-10-30T2:1:8Z</time></trkpt>
<trkpt lat="46.62149727344513" lon="7.142643900588155"><ele></ele><time>2014-10-30T2:1:11Z</time></trkpt>
<trkpt lat="46.62150984629989" lon="7.142665944993496"><ele></ele><time>2014-10-30T2:1:14Z</time></trkpt>
<trkpt lat="46.62152032367885" lon="7.142686899751425"><ele></ele><time>2014-10-30T2:1:17Z</time></trkpt>
<trkpt lat="46.62152560427785" lon="7.142709027975798"><ele></ele><time>2014-10-30T2:1:20Z</time></trkpt>
<trkpt lat="46.62153557874262" lon="7.142730737105012"><ele></ele><time>2014-10-30T2:1:23Z</time></trkpt>
<trkpt lat="46.62154429592192" lon="7.142756888642907"><ele></ele><time>2014-10-30T2:1:26Z</time></trkpt>
<trkpt lat="46.62158980965614" lon="7.142888400703669"><ele></ele><time>2014-10-30T2:1:29Z</time></trkpt>
<trkpt lat="46.62160682491958" lon="7.142938440665603"><ele></ele><time>2014-10-30T2:1:32Z</time></trkpt>
<trkpt lat="46.621618727222085" lon="7.142964508384466"><ele></ele><time>2014-10-30T2:1:35Z</time></trkpt>
<trkpt lat="46.62163062952459" lon="7.1429920848459005"><ele></ele><time>2014-10-30T2:1:38Z</time></trkpt>
<trkpt lat="46.62164052017033" lon="7.1430177334696054"><ele></ele><time>2014-10-30T2:1:41Z</time></trkpt>
<trkpt lat="46.621649991720915" lon="7.14304287917912"><ele></ele><time>2014-10-30T2:1:44Z</time></trkpt>
<trkpt lat="46.62171931006014" lon="7.143190987408161"><ele></ele><time>2014-10-30T2:1:47Z</time></trkpt>
<trkpt lat="46.621731631457806" lon="7.143211774528027"><ele></ele><time>2014-10-30T2:1:50Z</time></trkpt>
<trkpt lat="46.62174210883677" lon="7.143230298534036"><ele></ele><time>2014-10-30T2:1:53Z</time></trkpt>
<trkpt lat="46.62175174802542" lon="7.143248403444886"><ele></ele><time>2014-10-30T2:1:56Z</time></trkpt>
<trkpt lat="46.621761890128255" lon="7.143268184736371"><ele></ele><time>2014-10-30T2:1:59Z</time></trkpt>
<trkpt lat="46.62178753875196" lon="7.1433148719370365"><ele></ele><time>2014-10-30T2:2:2Z</time></trkpt>
<trkpt lat="46.62181058898568" lon="7.1433531772345304"><ele></ele><time>2014-10-30T2:2:5Z</time></trkpt>
<trkpt lat="46.62187160924077" lon="7.1434512455016375"><ele></ele><time>2014-10-30T2:2:8Z</time></trkpt>
<trkpt lat="46.621883092448115" lon="7.143468428403139"><ele></ele><time>2014-10-30T2:2:11Z</time></trkpt>
<trkpt lat="46.621897257864475" lon="7.143486617133021"><ele></ele><time>2014-10-30T2:2:14Z</time></trkpt>
<trkpt lat="46.621911842375994" lon="7.143507907167077"><ele></ele><time>2014-10-30T2:2:17Z</time></trkpt>
<trkpt lat="46.62192567251623" lon="7.143528945744038"><ele></ele><time>2014-10-30T2:2:20Z</time></trkpt>
<trkpt lat="46.621938748285174" lon="7.14354713447392"><ele></ele><time>2014-10-30T2:2:23Z</time></trkpt>
<trkpt lat="46.62194981239736" lon="7.143563563004136"><ele></ele><time>2014-10-30T2:2:26Z</time></trkpt>
<trkpt lat="46.622049724683166" lon="7.143689962103963"><ele></ele><time>2014-10-30T2:2:29Z</time></trkpt>
<trkpt lat="46.62206129170954" lon="7.143712928518653"><ele></ele><time>2014-10-30T2:2:32Z</time></trkpt>
<trkpt lat="46.62207453511655" lon="7.143733548000455"><ele></ele><time>2014-10-30T2:2:35Z</time></trkpt>
<trkpt lat="46.62208870053291" lon="7.1437483839690685"><ele></ele><time>2014-10-30T2:2:38Z</time></trkpt>
<trkpt lat="46.62210110574961" lon="7.143763974308968"><ele></ele><time>2014-10-30T2:2:41Z</time></trkpt>
<trkpt lat="46.62212826311588" lon="7.143797669559717"><ele></ele><time>2014-10-30T2:2:44Z</time></trkpt>
<trkpt lat="46.62223010323942" lon="7.143944017589092"><ele></ele><time>2014-10-30T2:2:47Z</time></trkpt>
<trkpt lat="46.622244184836745" lon="7.143958350643516"><ele></ele><time>2014-10-30T2:2:50Z</time></trkpt>
<trkpt lat="46.62225801497698" lon="7.143968911841512"><ele></ele><time>2014-10-30T2:2:53Z</time></trkpt>
<trkpt lat="46.62227360531688" lon="7.143985591828823"><ele></ele><time>2014-10-30T2:2:56Z</time></trkpt>
<trkpt lat="46.62228676490486" lon="7.1440022718161345"><ele></ele><time>2014-10-30T2:2:59Z</time></trkpt>
<trkpt lat="46.622332111001015" lon="7.144064214080572"><ele></ele><time>2014-10-30T2:3:2Z</time></trkpt>
<trkpt lat="46.6223986633122" lon="7.144163120537996"><ele></ele><time>2014-10-30T2:3:5Z</time></trkpt>
<trkpt lat="46.62240922451019" lon="7.144185248762369"><ele></ele><time>2014-10-30T2:3:8Z</time></trkpt>
<trkpt lat="46.622422551736236" lon="7.144206706434488"><ele></ele><time>2014-10-30T2:3:11Z</time></trkpt>
<trkpt lat="46.62243386730552" lon="7.1442260686308146"><ele></ele><time>2014-10-30T2:3:14Z</time></trkpt>
<trkpt lat="46.62248767912388" lon="7.144294381141663"><ele></ele><time>2014-10-30T2:3:17Z</time></trkpt>
<trkpt lat="46.62253025919199" lon="7.144351378083229"><ele></ele><time>2014-10-30T2:3:20Z</time></trkpt>
<trkpt lat="46.622538389638066" lon="7.144366968423128"><ele></ele><time>2014-10-30T2:3:23Z</time></trkpt>
<trkpt lat="46.62255171686411" lon="7.144383396953344"><ele></ele><time>2014-10-30T2:3:26Z</time></trkpt>
<trkpt lat="46.62256554700434" lon="7.144400663673878"><ele></ele><time>2014-10-30T2:3:29Z</time></trkpt>
<trkpt lat="46.622578455135226" lon="7.144414158537984"><ele></ele><time>2014-10-30T2:3:32Z</time></trkpt>
<trkpt lat="46.62265204824507" lon="7.144502839073539"><ele></ele><time>2014-10-30T2:3:35Z</time></trkpt>
<trkpt lat="46.62268993444741" lon="7.144551537930965"><ele></ele><time>2014-10-30T2:3:38Z</time></trkpt>
<trkpt lat="46.622700076550245" lon="7.144567798823118"><ele></ele><time>2014-10-30T2:3:41Z</time></trkpt>
<trkpt lat="46.62270845845342" lon="7.144581712782383"><ele></ele><time>2014-10-30T2:3:44Z</time></trkpt>
<trkpt lat="46.62272170186043" lon="7.144598811864853"><ele></ele><time>2014-10-30T2:3:47Z</time></trkpt>
<trkpt lat="46.62279814481735" lon="7.144708866253495"><ele></ele><time>2014-10-30T2:3:50Z</time></trkpt>
<trkpt lat="46.62283401936293" lon="7.144763097167015"><ele></ele><time>2014-10-30T2:3:53Z</time></trkpt>
<trkpt lat="46.62284944206476" lon="7.1447827108204365"><ele></ele><time>2014-10-30T2:3:56Z</time></trkpt>
<trkpt lat="46.62286343984306" lon="7.144804000854492"><ele></ele><time>2014-10-30T2:3:59Z</time></trkpt>
<trkpt lat="46.622875509783626" lon="7.144823698326945"><ele></ele><time>2014-10-30T2:4:2Z</time></trkpt>
<trkpt lat="46.62288808263838" lon="7.144842306151986"><ele></ele><time>2014-10-30T2:4:5Z</time></trkpt>
<trkpt lat="46.622915491461754" lon="7.144873570650816"><ele></ele><time>2014-10-30T2:4:8Z</time></trkpt>
<trkpt lat="46.622934183105826" lon="7.144884970039129"><ele></ele><time>2014-10-30T2:4:11Z</time></trkpt>
<trkpt lat="46.622981457039714" lon="7.144938698038459"><ele></ele><time>2014-10-30T2:4:14Z</time></trkpt>
<trkpt lat="46.622991347685456" lon="7.1449599880725145"><ele></ele><time>2014-10-30T2:4:17Z</time></trkpt>
<trkpt lat="46.62300375290215" lon="7.144980104640126"><ele></ele><time>2014-10-30T2:4:20Z</time></trkpt>
<trkpt lat="46.623017163947225" lon="7.144999383017421"><ele></ele><time>2014-10-30T2:4:23Z</time></trkpt>
<trkpt lat="46.62303007207811" lon="7.145019834861159"><ele></ele><time>2014-10-30T2:4:26Z</time></trkpt>
<trkpt lat="46.62309478037059" lon="7.145124021917582"><ele></ele><time>2014-10-30T2:4:29Z</time></trkpt>
<trkpt lat="46.62313115783036" lon="7.145188478752971"><ele></ele><time>2014-10-30T2:4:32Z</time></trkpt>
<trkpt lat="46.6231444850564" lon="7.145208679139614"><ele></ele><time>2014-10-30T2:4:35Z</time></trkpt>
<trkpt lat="46.623160326853395" lon="7.145230304449797"><ele></ele><time>2014-10-30T2:4:38Z</time></trkpt>
<trkpt lat="46.623176923021674" lon="7.1452530194073915"><ele></ele><time>2014-10-30T2:4:41Z</time></trkpt>
<trkpt lat="46.623191675171256" lon="7.145271794870496"><ele></ele><time>2014-10-30T2:4:44Z</time></trkpt>
<trkpt lat="46.623262921348214" lon="7.145350417122245"><ele></ele><time>2014-10-30T2:4:47Z</time></trkpt>
<trkpt lat="46.623308854177594" lon="7.145429793745279"><ele></ele><time>2014-10-30T2:4:50Z</time></trkpt>
<trkpt lat="46.62332125939429" lon="7.145450245589018"><ele></ele><time>2014-10-30T2:4:53Z</time></trkpt>
<trkpt lat="46.62333458662033" lon="7.145472373813391"><ele></ele><time>2014-10-30T2:4:56Z</time></trkpt>
<trkpt lat="46.62334866821766" lon="7.145491065457463"><ele></ele><time>2014-10-30T2:4:59Z</time></trkpt>
<trkpt lat="46.623360738158226" lon="7.145510260015726"><ele></ele><time>2014-10-30T2:5:2Z</time></trkpt>
<trkpt lat="46.62340792827308" lon="7.145570609718561"><ele></ele><time>2014-10-30T2:5:5Z</time></trkpt>
<trkpt lat="46.623451597988605" lon="7.1456359047442675"><ele></ele><time>2014-10-30T2:5:8Z</time></trkpt>
<trkpt lat="46.62346157245338" lon="7.145650740712881"><ele></ele><time>2014-10-30T2:5:11Z</time></trkpt>
<trkpt lat="46.62347422912717" lon="7.1456709410995245"><ele></ele><time>2014-10-30T2:5:14Z</time></trkpt>
<trkpt lat="46.623491579666734" lon="7.145695500075817"><ele></ele><time>2014-10-30T2:5:17Z</time></trkpt>
<trkpt lat="46.62350473925471" lon="7.145709665492177"><ele></ele><time>2014-10-30T2:5:20Z</time></trkpt>
<trkpt lat="46.62351865321398" lon="7.145724166184664"><ele></ele><time>2014-10-30T2:5:23Z</time></trkpt>
<trkpt lat="46.62360322661698" lon="7.145821396261454"><ele></ele><time>2014-10-30T2:5:26Z</time></trkpt>
<trkpt lat="46.62363071925938" lon="7.145852744579315"><ele></ele><time>2014-10-30T2:5:29Z</time></trkpt>
<trkpt lat="46.62364153191447" lon="7.145868502557278"><ele></ele><time>2014-10-30T2:5:32Z</time></trkpt>
<trkpt lat="46.62365251220763" lon="7.145883422344923"><ele></ele><time>2014-10-30T2:5:35Z</time></trkpt>
<trkpt lat="46.62366332486272" lon="7.145894654095173"><ele></ele><time>2014-10-30T2:5:38Z</time></trkpt>
<trkpt lat="46.623672964051366" lon="7.145908568054438"><ele></ele><time>2014-10-30T2:5:41Z</time></trkpt>
<trkpt lat="46.623713448643684" lon="7.145957769826055"><ele></ele><time>2014-10-30T2:5:44Z</time></trkpt>
<trkpt lat="46.623779917135835" lon="7.1460305247455835"><ele></ele><time>2014-10-30T2:5:47Z</time></trkpt>
<trkpt lat="46.62379274144769" lon="7.146046198904514"><ele></ele><time>2014-10-30T2:5:50Z</time></trkpt>
<trkpt lat="46.62380690686405" lon="7.146063297986984"><ele></ele><time>2014-10-30T2:5:53Z</time></trkpt>
<trkpt lat="46.623820988461375" lon="7.146077044308186"><ele></ele><time>2014-10-30T2:5:56Z</time></trkpt>
<trkpt lat="46.62383590824902" lon="7.146092634648085"><ele></ele><time>2014-10-30T2:5:59Z</time></trkpt>
<trkpt lat="46.623977394774556" lon="7.146239401772618"><ele></ele><time>2014-10-30T2:6:2Z</time></trkpt>
<trkpt lat="46.62399466149509" lon="7.1462534833699465"><ele></ele><time>2014-10-30T2:6:5Z</time></trkpt>
<trkpt lat="46.62401000037789" lon="7.146269995719194"><ele></ele><time>2014-10-30T2:6:8Z</time></trkpt>
<trkpt lat="46.624025255441666" lon="7.1462879329919815"><ele></ele><time>2014-10-30T2:6:11Z</time></trkpt>
<trkpt lat="46.62404302507639" lon="7.146305534988642"><ele></ele><time>2014-10-30T2:6:14Z</time></trkpt>
<trkpt lat="46.624094070866704" lon="7.146356999874115"><ele></ele><time>2014-10-30T2:6:17Z</time></trkpt>
<trkpt lat="46.62420270033181" lon="7.146466970443726"><ele></ele><time>2014-10-30T2:6:20Z</time></trkpt>
<trkpt lat="46.624223068356514" lon="7.146484991535544"><ele></ele><time>2014-10-30T2:6:23Z</time></trkpt>
<trkpt lat="46.62424201145768" lon="7.146499408408999"><ele></ele><time>2014-10-30T2:6:26Z</time></trkpt>
<trkpt lat="46.624262714758515" lon="7.146507874131203"><ele></ele><time>2014-10-30T2:6:29Z</time></trkpt>
<trkpt lat="46.62428534589708" lon="7.146514914929867"><ele></ele><time>2014-10-30T2:6:32Z</time></trkpt>
<trkpt lat="46.624332536011934" lon="7.146515250205994"><ele></ele><time>2014-10-30T2:6:35Z</time></trkpt>
<trkpt lat="46.62439062260091" lon="7.146475939080119"><ele></ele><time>2014-10-30T2:6:38Z</time></trkpt>
<trkpt lat="46.624409230425954" lon="7.146463366225362"><ele></ele><time>2014-10-30T2:6:41Z</time></trkpt>
<trkpt lat="46.624428341165185" lon="7.14645498432219"><ele></ele><time>2014-10-30T2:6:44Z</time></trkpt>
<trkpt lat="46.62444460205734" lon="7.14645154774189"><ele></ele><time>2014-10-30T2:6:47Z</time></trkpt>
<trkpt lat="46.62446044385433" lon="7.146454397588968"><ele></ele><time>2014-10-30T2:6:50Z</time></trkpt>
<trkpt lat="46.62449212744832" lon="7.1464708261191845"><ele></ele><time>2014-10-30T2:6:53Z</time></trkpt>
<trkpt lat="46.624559266492724" lon="7.146511562168598"><ele></ele><time>2014-10-30T2:6:56Z</time></trkpt>
<trkpt lat="46.62457418628037" lon="7.146517597138882"><ele></ele><time>2014-10-30T2:6:59Z</time></trkpt>
<trkpt lat="46.62459321320057" lon="7.146523213014007"><ele></ele><time>2014-10-30T2:7:2Z</time></trkpt>
<trkpt lat="46.62461324594915" lon="7.146529164165258"><ele></ele><time>2014-10-30T2:7:5Z</time></trkpt>
<trkpt lat="46.62462841719389" lon="7.146533690392971"><ele></ele><time>2014-10-30T2:7:8Z</time></trkpt>
<trkpt lat="46.62469966337085" lon="7.14656981639564"><ele></ele><time>2014-10-30T2:7:11Z</time></trkpt>
<trkpt lat="46.62483084015548" lon="7.146645504981279"><ele></ele><time>2014-10-30T2:7:14Z</time></trkpt>
<trkpt lat="46.62487241439521" lon="7.1466760989278555"><ele></ele><time>2014-10-30T2:7:17Z</time></trkpt>
<trkpt lat="46.62488792091608" lon="7.146683391183615"><ele></ele><time>2014-10-30T2:7:20Z</time></trkpt>
<trkpt lat="46.62490644492209" lon="7.1466875821352005"><ele></ele><time>2014-10-30T2:7:23Z</time></trkpt>
<trkpt lat="46.62492547184229" lon="7.146694455295801"><ele></ele><time>2014-10-30T2:7:26Z</time></trkpt>
<trkpt lat="46.62494424730539" lon="7.146710213273764"><ele></ele><time>2014-10-30T2:7:29Z</time></trkpt>
<trkpt lat="46.62505396641791" lon="7.146821692585945"><ele></ele><time>2014-10-30T2:7:32Z</time></trkpt>
<trkpt lat="46.62514147348702" lon="7.14689034037292"><ele></ele><time>2014-10-30T2:7:35Z</time></trkpt>
<trkpt lat="46.62515874020755" lon="7.146908277645707"><ele></ele><time>2014-10-30T2:7:38Z</time></trkpt>
<trkpt lat="46.62517810240388" lon="7.146927639842033"><ele></ele><time>2014-10-30T2:7:41Z</time></trkpt>
<trkpt lat="46.62519712932408" lon="7.146951695904136"><ele></ele><time>2014-10-30T2:7:44Z</time></trkpt>
<trkpt lat="46.625215066596866" lon="7.146974829956889"><ele></ele><time>2014-10-30T2:7:47Z</time></trkpt>
<trkpt lat="46.62523685954511" lon="7.147002071142197"><ele></ele><time>2014-10-30T2:7:50Z</time></trkpt>
<trkpt lat="46.625258568674326" lon="7.147031910717487"><ele></ele><time>2014-10-30T2:7:53Z</time></trkpt>
<trkpt lat="46.62538371048868" lon="7.147184628993273"><ele></ele><time>2014-10-30T2:7:56Z</time></trkpt>
<trkpt lat="46.62550910376012" lon="7.1473263669759035"><ele></ele><time>2014-10-30T2:7:59Z</time></trkpt>
<trkpt lat="46.62565813399851" lon="7.147499034181237"><ele></ele><time>2014-10-30T2:8:2Z</time></trkpt>
<trkpt lat="46.62569224834442" lon="7.14753826148808"><ele></ele><time>2014-10-30T2:8:5Z</time></trkpt>
<trkpt lat="46.62577874958515" lon="7.147657619789243"><ele></ele><time>2014-10-30T2:8:8Z</time></trkpt>
<trkpt lat="46.62584161385894" lon="7.147739678621292"><ele></ele><time>2014-10-30T2:8:11Z</time></trkpt>
<trkpt lat="46.62594286724925" lon="7.147869681939483"><ele></ele><time>2014-10-30T2:8:14Z</time></trkpt>
<trkpt lat="46.626039342954755" lon="7.14800882153213"><ele></ele><time>2014-10-30T2:8:17Z</time></trkpt>
<trkpt lat="46.62618527188897" lon="7.14818618260324"><ele></ele><time>2014-10-30T2:8:20Z</time></trkpt>
<trkpt lat="46.62628635764122" lon="7.1483171079307795"><ele></ele><time>2014-10-30T2:8:23Z</time></trkpt>
<trkpt lat="46.62645257078111" lon="7.148571414873004"><ele></ele><time>2014-10-30T2:8:26Z</time></trkpt>
<trkpt lat="46.62648819386959" lon="7.14863084256649"><ele></ele><time>2014-10-30T2:8:29Z</time></trkpt>
<trkpt lat="46.62665977142751" lon="7.1489340998232365"><ele></ele><time>2014-10-30T2:8:32Z</time></trkpt>
<trkpt lat="46.626689694821835" lon="7.148988330736756"><ele></ele><time>2014-10-30T2:8:35Z</time></trkpt>
<trkpt lat="46.626789355650544" lon="7.149150101467967"><ele></ele><time>2014-10-30T2:8:38Z</time></trkpt>
<trkpt lat="46.62686093710363" lon="7.149245571345091"><ele></ele><time>2014-10-30T2:8:41Z</time></trkpt>
<trkpt lat="46.62690410390496" lon="7.149289660155773"><ele></ele><time>2014-10-30T2:8:44Z</time></trkpt>
<trkpt lat="46.62694877944887" lon="7.149331318214536"><ele></ele><time>2014-10-30T2:8:47Z</time></trkpt>
<trkpt lat="46.6269935388118" lon="7.149367108941078"><ele></ele><time>2014-10-30T2:8:50Z</time></trkpt>
<trkpt lat="46.62703402340412" lon="7.149399630725384"><ele></ele><time>2014-10-30T2:8:53Z</time></trkpt>
<trkpt lat="46.627070317044854" lon="7.14942536316812"><ele></ele><time>2014-10-30T2:8:56Z</time></trkpt>
<trkpt lat="46.62710376083851" lon="7.149444641545415"><ele></ele><time>2014-10-30T2:8:59Z</time></trkpt>
<trkpt lat="46.62713695317507" lon="7.14946148917079"><ele></ele><time>2014-10-30T2:9:2Z</time></trkpt>
<trkpt lat="46.627166625112295" lon="7.149475822225213"><ele></ele><time>2014-10-30T2:9:5Z</time></trkpt>
<trkpt lat="46.62718992680311" lon="7.149494010955095"><ele></ele><time>2014-10-30T2:9:8Z</time></trkpt>
<trkpt lat="46.627212977036834" lon="7.149511193856597"><ele></ele><time>2014-10-30T2:9:11Z</time></trkpt>
<trkpt lat="46.62723728455603" lon="7.14952846057713"><ele></ele><time>2014-10-30T2:9:14Z</time></trkpt>
<trkpt lat="46.62725815549493" lon="7.149542877450585"><ele></ele><time>2014-10-30T2:9:17Z</time></trkpt>
<trkpt lat="46.627279529348016" lon="7.149555282667279"><ele></ele><time>2014-10-30T2:9:20Z</time></trkpt>
<trkpt lat="46.62729520350695" lon="7.149573555216193"><ele></ele><time>2014-10-30T2:9:23Z</time></trkpt>
<trkpt lat="46.62731238640845" lon="7.149593168869615"><ele></ele><time>2014-10-30T2:9:26Z</time></trkpt>
<trkpt lat="46.627334682270885" lon="7.149615632370114"><ele></ele><time>2014-10-30T2:9:29Z</time></trkpt>
<trkpt lat="46.62744146771729" lon="7.149770362302661"><ele></ele><time>2014-10-30T2:9:32Z</time></trkpt>
<trkpt lat="46.627519419416785" lon="7.149868346750736"><ele></ele><time>2014-10-30T2:9:35Z</time></trkpt>
<trkpt lat="46.62759594619274" lon="7.14989542029798"><ele></ele><time>2014-10-30T2:9:38Z</time></trkpt>
<trkpt lat="46.62765109911561" lon="7.149887792766094"><ele></ele><time>2014-10-30T2:9:41Z</time></trkpt>
<trkpt lat="46.62771069444716" lon="7.149870861321688"><ele></ele><time>2014-10-30T2:9:44Z</time></trkpt>
<trkpt lat="46.62776299752295" lon="7.149839764460921"><ele></ele><time>2014-10-30T2:9:47Z</time></trkpt>
<trkpt lat="46.62781127728522" lon="7.149801375344396"><ele></ele><time>2014-10-30T2:9:50Z</time></trkpt>
<trkpt lat="46.627863412722945" lon="7.1497622318565845"><ele></ele><time>2014-10-30T2:9:53Z</time></trkpt>
<trkpt lat="46.62791412323713" lon="7.149729123339057"><ele></ele><time>2014-10-30T2:9:56Z</time></trkpt>
<trkpt lat="46.62796810269356" lon="7.149715209379792"><ele></ele><time>2014-10-30T2:9:59Z</time></trkpt>
<trkpt lat="46.62801898084581" lon="7.14970632456243"><ele></ele><time>2014-10-30T2:10:2Z</time></trkpt>
<trkpt lat="46.62818527780473" lon="7.149673048406839"><ele></ele><time>2014-10-30T2:10:5Z</time></trkpt>
<trkpt lat="46.628246549516916" lon="7.149672545492649"><ele></ele><time>2014-10-30T2:10:8Z</time></trkpt>
<trkpt lat="46.62830648012459" lon="7.149670030921698"><ele></ele><time>2014-10-30T2:10:11Z</time></trkpt>
<trkpt lat="46.628360794857144" lon="7.149666091427207"><ele></ele><time>2014-10-30T2:10:14Z</time></trkpt>
<trkpt lat="46.62841628305614" lon="7.149654692038894"><ele></ele><time>2014-10-30T2:10:17Z</time></trkpt>
<trkpt lat="46.6284804046154" lon="7.14961739256978"><ele></ele><time>2014-10-30T2:10:20Z</time></trkpt>
<trkpt lat="46.628542765975" lon="7.149560898542404"><ele></ele><time>2014-10-30T2:10:23Z</time></trkpt>
<trkpt lat="46.62861233577132" lon="7.149502895772457"><ele></ele><time>2014-10-30T2:10:26Z</time></trkpt>
<trkpt lat="46.628687269985676" lon="7.14945562183857"><ele></ele><time>2014-10-30T2:10:29Z</time></trkpt>
<trkpt lat="46.628758097067475" lon="7.149442546069622"><ele></ele><time>2014-10-30T2:10:32Z</time></trkpt>
<trkpt lat="46.62883152253926" lon="7.149447575211525"><ele></ele><time>2014-10-30T2:10:35Z</time></trkpt>
<trkpt lat="46.62891844287515" lon="7.1494370978325605"><ele></ele><time>2014-10-30T2:10:38Z</time></trkpt>
<trkpt lat="46.62900888361037" lon="7.14940675534308"><ele></ele><time>2014-10-30T2:10:41Z</time></trkpt>
<trkpt lat="46.6291022580117" lon="7.149361241608858"><ele></ele><time>2014-10-30T2:10:44Z</time></trkpt>
<trkpt lat="46.629197811707854" lon="7.149302400648594"><ele></ele><time>2014-10-30T2:10:47Z</time></trkpt>
<trkpt lat="46.629297975450754" lon="7.149234591051936"><ele></ele><time>2014-10-30T2:10:50Z</time></trkpt>
<trkpt lat="46.62940341979265" lon="7.149159321561456"><ele></ele><time>2014-10-30T2:10:53Z</time></trkpt>
<trkpt lat="46.629514480009675" lon="7.14907550252974"><ele></ele><time>2014-10-30T2:10:56Z</time></trkpt>
<trkpt lat="46.629636185243726" lon="7.148982128128409"><ele></ele><time>2014-10-30T2:10:59Z</time></trkpt>
<trkpt lat="46.62975604645908" lon="7.148894285783172"><ele></ele><time>2014-10-30T2:11:2Z</time></trkpt>
<trkpt lat="46.62987532094121" lon="7.148812729865313"><ele></ele><time>2014-10-30T2:11:5Z</time></trkpt>
<trkpt lat="46.62999300286174" lon="7.1487300004810095"><ele></ele><time>2014-10-30T2:11:8Z</time></trkpt>
<trkpt lat="46.630111606791615" lon="7.148650120943785"><ele></ele><time>2014-10-30T2:11:11Z</time></trkpt>
<trkpt lat="46.63023021072149" lon="7.148577533662319"><ele></ele><time>2014-10-30T2:11:14Z</time></trkpt>
<trkpt lat="46.6303473059088" lon="7.148519530892372"><ele></ele><time>2014-10-30T2:11:17Z</time></trkpt>
<trkpt lat="46.63046071305871" lon="7.1485017612576485"><ele></ele><time>2014-10-30T2:11:20Z</time></trkpt>
<trkpt lat="46.63055358454585" lon="7.148500084877014"><ele></ele><time>2014-10-30T2:11:23Z</time></trkpt>
<trkpt lat="46.6306115873158" lon="7.148503605276346"><ele></ele><time>2014-10-30T2:11:26Z</time></trkpt>
<trkpt lat="46.63060697726905" lon="7.148520704358816"><ele></ele><time>2014-10-30T2:11:29Z</time></trkpt>
<trkpt lat="46.63054998032749" lon="7.148561105132103"><ele></ele><time>2014-10-30T2:11:32Z</time></trkpt>
<trkpt lat="46.63049549795687" lon="7.148620532825589"><ele></ele><time>2014-10-30T2:11:35Z</time></trkpt>
<trkpt lat="46.630469262599945" lon="7.148700663819909"><ele></ele><time>2014-10-30T2:11:38Z</time></trkpt>
<trkpt lat="46.630453169345856" lon="7.14879110455513"><ele></ele><time>2014-10-30T2:11:41Z</time></trkpt>
<trkpt lat="46.630423832684755" lon="7.148881042376161"><ele></ele><time>2014-10-30T2:11:44Z</time></trkpt>
<trkpt lat="46.630293410271406" lon="7.148961843922734"><ele></ele><time>2014-10-30T2:11:47Z</time></trkpt>
<trkpt lat="46.63025393150747" lon="7.149074748158455"><ele></ele><time>2014-10-30T2:11:50Z</time></trkpt>
<trkpt lat="46.6302281152457" lon="7.1492094453424215"><ele></ele><time>2014-10-30T2:11:53Z</time></trkpt>
<trkpt lat="46.63023934699595" lon="7.149341208860278"><ele></ele><time>2014-10-30T2:11:56Z</time></trkpt>
<trkpt lat="46.63027010858059" lon="7.149480180814862"><ele></ele><time>2014-10-30T2:11:59Z</time></trkpt>
<trkpt lat="46.63030254654586" lon="7.149623511359096"><ele></ele><time>2014-10-30T2:12:2Z</time></trkpt>
<trkpt lat="46.63031721487641" lon="7.149768518283963"><ele></ele><time>2014-10-30T2:12:5Z</time></trkpt>
<trkpt lat="46.6303248424083" lon="7.149905562400818"><ele></ele><time>2014-10-30T2:12:8Z</time></trkpt>
<trkpt lat="46.63032450713217" lon="7.15003757737577"><ele></ele><time>2014-10-30T2:12:11Z</time></trkpt>
<trkpt lat="46.63032861426473" lon="7.150169592350721"><ele></ele><time>2014-10-30T2:12:14Z</time></trkpt>
<trkpt lat="46.63034143857658" lon="7.150287609547377"><ele></ele><time>2014-10-30T2:12:17Z</time></trkpt>
<trkpt lat="46.63036733865738" lon="7.150381486862898"><ele></ele><time>2014-10-30T2:12:20Z</time></trkpt>
<trkpt lat="46.630398351699114" lon="7.150456421077251"><ele></ele><time>2014-10-30T2:12:23Z</time></trkpt>
<trkpt lat="46.63042366504669" lon="7.150525068864226"><ele></ele><time>2014-10-30T2:12:26Z</time></trkpt>
<trkpt lat="46.63044269196689" lon="7.150596650317311"><ele></ele><time>2014-10-30T2:12:29Z</time></trkpt>
<trkpt lat="46.63045811466873" lon="7.150667225942016"><ele></ele><time>2014-10-30T2:12:32Z</time></trkpt>
<trkpt lat="46.63047437556088" lon="7.1507317665964365"><ele></ele><time>2014-10-30T2:12:35Z</time></trkpt>
<trkpt lat="46.63048619404435" lon="7.150783566758037"><ele></ele><time>2014-10-30T2:12:38Z</time></trkpt>
<trkpt lat="46.630500527098775" lon="7.150827152654529"><ele></ele><time>2014-10-30T2:12:41Z</time></trkpt>
<trkpt lat="46.63062298670411" lon="7.151103084906936"><ele></ele><time>2014-10-30T2:12:44Z</time></trkpt>
<trkpt lat="46.63076221011579" lon="7.151360157877207"><ele></ele><time>2014-10-30T2:12:47Z</time></trkpt>
<trkpt lat="46.63081644102931" lon="7.151453867554665"><ele></ele><time>2014-10-30T2:12:50Z</time></trkpt>
<trkpt lat="46.630865558981895" lon="7.15154305100441"><ele></ele><time>2014-10-30T2:12:53Z</time></trkpt>
<trkpt lat="46.630919789895415" lon="7.15164078399539"><ele></ele><time>2014-10-30T2:12:56Z</time></trkpt>
<trkpt lat="46.63096630945802" lon="7.151733655482531"><ele></ele><time>2014-10-30T2:12:59Z</time></trkpt>
<trkpt lat="46.63101299665868" lon="7.1518276166170835"><ele></ele><time>2014-10-30T2:13:2Z</time></trkpt>
<trkpt lat="46.63106161169708" lon="7.151922583580017"><ele></ele><time>2014-10-30T2:13:5Z</time></trkpt>
<trkpt lat="46.631307201460004" lon="7.15244653634727"><ele></ele><time>2014-10-30T2:13:8Z</time></trkpt>
<trkpt lat="46.63134844042361" lon="7.152573354542255"><ele></ele><time>2014-10-30T2:13:11Z</time></trkpt>
<trkpt lat="46.6313867457211" lon="7.152708470821381"><ele></ele><time>2014-10-30T2:13:14Z</time></trkpt>
<trkpt lat="46.631427481770515" lon="7.152842748910189"><ele></ele><time>2014-10-30T2:13:17Z</time></trkpt>
<trkpt lat="46.63147425279021" lon="7.152970405295491"><ele></ele><time>2014-10-30T2:13:20Z</time></trkpt>
<trkpt lat="46.63151373155415" lon="7.153089512139559"><ele></ele><time>2014-10-30T2:13:23Z</time></trkpt>
<trkpt lat="46.63153653033078" lon="7.1532197669148445"><ele></ele><time>2014-10-30T2:13:26Z</time></trkpt>
<trkpt lat="46.63153384812176" lon="7.153367204591632"><ele></ele><time>2014-10-30T2:13:29Z</time></trkpt>
<trkpt lat="46.63151272572577" lon="7.153524197638035"><ele></ele><time>2014-10-30T2:13:32Z</time></trkpt>
<trkpt lat="46.631487580016255" lon="7.153656547889113"><ele></ele><time>2014-10-30T2:13:35Z</time></trkpt>
<trkpt lat="46.6314644459635" lon="7.153774397447705"><ele></ele><time>2014-10-30T2:13:38Z</time></trkpt>
<trkpt lat="46.63144768215716" lon="7.153882272541523"><ele></ele><time>2014-10-30T2:13:41Z</time></trkpt>
<trkpt lat="46.63143980316818" lon="7.153982939198613"><ele></ele><time>2014-10-30T2:13:44Z</time></trkpt>
<trkpt lat="46.6314403899014" lon="7.154076313599944"><ele></ele><time>2014-10-30T2:13:47Z</time></trkpt>
<trkpt lat="46.631444580852985" lon="7.154164407402277"><ele></ele><time>2014-10-30T2:13:50Z</time></trkpt>
<trkpt lat="46.631460171192884" lon="7.154262559488416"><ele></ele><time>2014-10-30T2:13:53Z</time></trkpt>
<trkpt lat="46.63150057196617" lon="7.154373116791248"><ele></ele><time>2014-10-30T2:13:56Z</time></trkpt>
<trkpt lat="46.63155438378453" lon="7.154488367959857"><ele></ele><time>2014-10-30T2:13:59Z</time></trkpt>
<trkpt lat="46.63161599077284" lon="7.154607055708766"><ele></ele><time>2014-10-30T2:14:2Z</time></trkpt>
<trkpt lat="46.631705509498715" lon="7.154735634103417"><ele></ele><time>2014-10-30T2:14:5Z</time></trkpt>
<trkpt lat="46.631796872243285" lon="7.154857506975532"><ele></ele><time>2014-10-30T2:14:8Z</time></trkpt>
<trkpt lat="46.631890749558806" lon="7.154988516122103"><ele></ele><time>2014-10-30T2:14:11Z</time></trkpt>
<trkpt lat="46.631986470893025" lon="7.155129415914416"><ele></ele><time>2014-10-30T2:14:14Z</time></trkpt>
<trkpt lat="46.6320860479027" lon="7.155269142240286"><ele></ele><time>2014-10-30T2:14:17Z</time></trkpt>
<trkpt lat="46.63218696601689" lon="7.15540274977684"><ele></ele><time>2014-10-30T2:14:20Z</time></trkpt>
<trkpt lat="46.63228101097047" lon="7.155529484152794"><ele></ele><time>2014-10-30T2:14:23Z</time></trkpt>
<trkpt lat="46.632363237440586" lon="7.155644400045276"><ele></ele><time>2014-10-30T2:14:26Z</time></trkpt>
<trkpt lat="46.632437417283654" lon="7.1557531133294106"><ele></ele><time>2014-10-30T2:14:29Z</time></trkpt>
<trkpt lat="46.63248997181654" lon="7.155863335356116"><ele></ele><time>2014-10-30T2:14:32Z</time></trkpt>
<trkpt lat="46.63253246806562" lon="7.155984118580818"><ele></ele><time>2014-10-30T2:14:35Z</time></trkpt>
<trkpt lat="46.632570857182145" lon="7.15611957013607"><ele></ele><time>2014-10-30T2:14:38Z</time></trkpt>
<trkpt lat="46.63257940672338" lon="7.156231217086315"><ele></ele><time>2014-10-30T2:14:41Z</time></trkpt>
<trkpt lat="46.63259298540652" lon="7.156314952298999"><ele></ele><time>2014-10-30T2:14:44Z</time></trkpt>
<trkpt lat="46.632583094760776" lon="7.156448727473617"><ele></ele><time>2014-10-30T2:14:47Z</time></trkpt>
<trkpt lat="46.63259600289166" lon="7.156512010842562"><ele></ele><time>2014-10-30T2:14:50Z</time></trkpt>
<trkpt lat="46.63261980749667" lon="7.156550735235214"><ele></ele><time>2014-10-30T2:14:53Z</time></trkpt>
<trkpt lat="46.6326508205384" lon="7.156585603952408"><ele></ele><time>2014-10-30T2:14:56Z</time></trkpt>
<trkpt lat="46.6326835937798" lon="7.156617287546396"><ele></ele><time>2014-10-30T2:14:59Z</time></trkpt>
<trkpt lat="46.632716953754425" lon="7.156648887321353"><ele></ele><time>2014-10-30T2:15:2Z</time></trkpt>
<trkpt lat="46.63282826542854" lon="7.156740836799145"><ele></ele><time>2014-10-30T2:15:5Z</time></trkpt>
<trkpt lat="46.63286916911602" lon="7.156765479594469"><ele></ele><time>2014-10-30T2:15:8Z</time></trkpt>
<trkpt lat="46.63297209888697" lon="7.156799761578441"><ele></ele><time>2014-10-30T2:15:11Z</time></trkpt>
<trkpt lat="46.6330255754292" lon="7.156795738264918"><ele></ele><time>2014-10-30T2:15:14Z</time></trkpt>
<trkpt lat="46.633239313960075" lon="7.156688282266259"><ele></ele><time>2014-10-30T2:15:17Z</time></trkpt>
<trkpt lat="46.63329044356942" lon="7.156648384407163"><ele></ele><time>2014-10-30T2:15:20Z</time></trkpt>
<trkpt lat="46.63334215991199" lon="7.156610582023859"><ele></ele><time>2014-10-30T2:15:23Z</time></trkpt>
<trkpt lat="46.63339538499713" lon="7.15656959451735"><ele></ele><time>2014-10-30T2:15:26Z</time></trkpt>
<trkpt lat="46.63344911299646" lon="7.156528187915683"><ele></ele><time>2014-10-30T2:15:29Z</time></trkpt>
<trkpt lat="46.633502673357725" lon="7.156496504321694"><ele></ele><time>2014-10-30T2:15:32Z</time></trkpt>
<trkpt lat="46.633651200681925" lon="7.156554758548737"><ele></ele><time>2014-10-30T2:15:35Z</time></trkpt>
<trkpt lat="46.63372236303985" lon="7.156760366633534"><ele></ele><time>2014-10-30T2:15:38Z</time></trkpt>
<trkpt lat="46.6337216924876" lon="7.156825577840209"><ele></ele><time>2014-10-30T2:15:41Z</time></trkpt>
<trkpt lat="46.633712304756045" lon="7.156951557844877"><ele></ele><time>2014-10-30T2:15:44Z</time></trkpt>
<trkpt lat="46.63370409049094" lon="7.157016936689615"><ele></ele><time>2014-10-30T2:15:47Z</time></trkpt>
<trkpt lat="46.633697636425495" lon="7.157084411010146"><ele></ele><time>2014-10-30T2:15:50Z</time></trkpt>
<trkpt lat="46.63368824869394" lon="7.157147694379091"><ele></ele><time>2014-10-30T2:15:53Z</time></trkpt>
<trkpt lat="46.63368380628526" lon="7.1572106424719095"><ele></ele><time>2014-10-30T2:15:56Z</time></trkpt>
<trkpt lat="46.63368137553334" lon="7.157271662726998"><ele></ele><time>2014-10-30T2:15:59Z</time></trkpt>
<trkpt lat="46.63366771303117" lon="7.1574565675109625"><ele></ele><time>2014-10-30T2:16:2Z</time></trkpt>
<trkpt lat="46.63365690037608" lon="7.157573159784079"><ele></ele><time>2014-10-30T2:16:5Z</time></trkpt>
<trkpt lat="46.63363913074136" lon="7.157741216942668"><ele></ele><time>2014-10-30T2:16:8Z</time></trkpt>
<trkpt lat="46.63363334722817" lon="7.157798381522298"><ele></ele><time>2014-10-30T2:16:11Z</time></trkpt>
<trkpt lat="46.63362605497241" lon="7.157854624092579"><ele></ele><time>2014-10-30T2:16:14Z</time></trkpt>
<trkpt lat="46.633620439097285" lon="7.15791329741478"><ele></ele><time>2014-10-30T2:16:17Z</time></trkpt>
<trkpt lat="46.6336180921644" lon="7.15797389857471"><ele></ele><time>2014-10-30T2:16:20Z</time></trkpt>
<trkpt lat="46.63364122621715" lon="7.158140866085887"><ele></ele><time>2014-10-30T2:16:23Z</time></trkpt>
<trkpt lat="46.63374281488359" lon="7.158362902700901"><ele></ele><time>2014-10-30T2:16:26Z</time></trkpt>
<trkpt lat="46.6338942758739" lon="7.158637158572674"><ele></ele><time>2014-10-30T2:16:29Z</time></trkpt>
<trkpt lat="46.63410281762481" lon="7.158964974805713"><ele></ele><time>2014-10-30T2:16:32Z</time></trkpt>
<trkpt lat="46.63427330553532" lon="7.1592186111956835"><ele></ele><time>2014-10-30T2:16:35Z</time></trkpt>
<trkpt lat="46.634305492043495" lon="7.159270411357284"><ele></ele><time>2014-10-30T2:16:38Z</time></trkpt>
<trkpt lat="46.634359220042825" lon="7.159380633383989"><ele></ele><time>2014-10-30T2:16:41Z</time></trkpt>
<trkpt lat="46.634389981627464" lon="7.159443246200681"><ele></ele><time>2014-10-30T2:16:44Z</time></trkpt>
<trkpt lat="46.63443876430392" lon="7.159593869000673"><ele></ele><time>2014-10-30T2:16:47Z</time></trkpt>
<trkpt lat="46.634550830349326" lon="7.160038277506828"><ele></ele><time>2014-10-30T2:16:50Z</time></trkpt>
<trkpt lat="46.63458812981844" lon="7.1601321548223495"><ele></ele><time>2014-10-30T2:16:53Z</time></trkpt>
<trkpt lat="46.63462735712528" lon="7.160220835357904"><ele></ele><time>2014-10-30T2:16:56Z</time></trkpt>
<trkpt lat="46.6346696857363" lon="7.160306833684444"><ele></ele><time>2014-10-30T2:16:59Z</time></trkpt>
<trkpt lat="46.6347127687186" lon="7.160393502563238"><ele></ele><time>2014-10-30T2:17:2Z</time></trkpt>
<trkpt lat="46.6347576957196" lon="7.160477573052049"><ele></ele><time>2014-10-30T2:17:5Z</time></trkpt>
<trkpt lat="46.63502021692693" lon="7.160919466987252"><ele></ele><time>2014-10-30T2:17:8Z</time></trkpt>
<trkpt lat="46.63522859103978" lon="7.161284415051341"><ele></ele><time>2014-10-30T2:17:11Z</time></trkpt>
<trkpt lat="46.63525801151991" lon="7.16134057380259"><ele></ele><time>2014-10-30T2:17:14Z</time></trkpt>
<trkpt lat="46.63528650999069" lon="7.161396229639649"><ele></ele><time>2014-10-30T2:17:17Z</time></trkpt>
<trkpt lat="46.6353153437376" lon="7.161451885476708"><ele></ele><time>2014-10-30T2:17:20Z</time></trkpt>
<trkpt lat="46.63534275256097" lon="7.161506032571197"><ele></ele><time>2014-10-30T2:17:23Z</time></trkpt>
<trkpt lat="46.63545062765479" lon="7.1617192681878805"><ele></ele><time>2014-10-30T2:17:26Z</time></trkpt>
<trkpt lat="46.635473342612386" lon="7.161771152168512"><ele></ele><time>2014-10-30T2:17:29Z</time></trkpt>
<trkpt lat="46.635497314855456" lon="7.161822114139795"><ele></ele><time>2014-10-30T2:17:32Z</time></trkpt>
<trkpt lat="46.63551307283342" lon="7.161872740834951"><ele></ele><time>2014-10-30T2:17:35Z</time></trkpt>
<trkpt lat="46.63552924990654" lon="7.161925546824932"><ele></ele><time>2014-10-30T2:17:38Z</time></trkpt>
<trkpt lat="46.63554794155061" lon="7.161978101357818"><ele></ele><time>2014-10-30T2:17:41Z</time></trkpt>
<trkpt lat="46.6356314253062" lon="7.1622066758573055"><ele></ele><time>2014-10-30T2:17:44Z</time></trkpt>
<trkpt lat="46.635673670098186" lon="7.162315808236599"><ele></ele><time>2014-10-30T2:17:47Z</time></trkpt>
<trkpt lat="46.63569328375161" lon="7.162370961159468"><ele></ele><time>2014-10-30T2:17:50Z</time></trkpt>
<trkpt lat="46.635775258764625" lon="7.162643540650606"><ele></ele><time>2014-10-30T2:17:53Z</time></trkpt>
<trkpt lat="46.63579177111387" lon="7.162697520107031"><ele></ele><time>2014-10-30T2:17:56Z</time></trkpt>
<trkpt lat="46.63580987602472" lon="7.162753511220217"><ele></ele><time>2014-10-30T2:17:59Z</time></trkpt>
<trkpt lat="46.635830495506525" lon="7.1628104243427515"><ele></ele><time>2014-10-30T2:18:2Z</time></trkpt>
<trkpt lat="46.6358526237309" lon="7.162864990532398"><ele></ele><time>2014-10-30T2:18:5Z</time></trkpt>
<trkpt lat="46.63602571003139" lon="7.163348961621523"><ele></ele><time>2014-10-30T2:18:8Z</time></trkpt>
<trkpt lat="46.636041048914194" lon="7.163404282182455"><ele></ele><time>2014-10-30T2:18:11Z</time></trkpt>
<trkpt lat="46.63610860705376" lon="7.163560017943382"><ele></ele><time>2014-10-30T2:18:14Z</time></trkpt>
<trkpt lat="46.63612847216427" lon="7.163610477000475"><ele></ele><time>2014-10-30T2:18:17Z</time></trkpt>
<trkpt lat="46.63614984601736" lon="7.163656745105982"><ele></ele><time>2014-10-30T2:18:20Z</time></trkpt>
<trkpt lat="46.636172560974956" lon="7.163702761754394"><ele></ele><time>2014-10-30T2:18:23Z</time></trkpt>
<trkpt lat="46.63619418628514" lon="7.16374802403152"><ele></ele><time>2014-10-30T2:18:26Z</time></trkpt>
<trkpt lat="46.63628370501101" lon="7.163918176665902"><ele></ele><time>2014-10-30T2:18:29Z</time></trkpt>
<trkpt lat="46.63635126315057" lon="7.164037702605128"><ele></ele><time>2014-10-30T2:18:32Z</time></trkpt>
<trkpt lat="46.63637372665107" lon="7.164076426997781"><ele></ele><time>2014-10-30T2:18:35Z</time></trkpt>
<trkpt lat="46.63639702834189" lon="7.16411498375237"><ele></ele><time>2014-10-30T2:18:38Z</time></trkpt>
<trkpt lat="46.63641949184239" lon="7.164149936288595"><ele></ele><time>2014-10-30T2:18:41Z</time></trkpt>
<trkpt lat="46.636443715542555" lon="7.164189666509628"><ele></ele><time>2014-10-30T2:18:44Z</time></trkpt>
<trkpt lat="46.63654119707644" lon="7.164334589615464"><ele></ele><time>2014-10-30T2:18:47Z</time></trkpt>
<trkpt lat="46.636571288108826" lon="7.16437348164618"><ele></ele><time>2014-10-30T2:18:50Z</time></trkpt>
<trkpt lat="46.636604480445385" lon="7.1644137147814035"><ele></ele><time>2014-10-30T2:18:53Z</time></trkpt>
<trkpt lat="46.63663608022034" lon="7.1644501760602"><ele></ele><time>2014-10-30T2:18:56Z</time></trkpt>
<trkpt lat="46.63666491396725" lon="7.164485715329647"><ele></ele><time>2014-10-30T2:18:59Z</time></trkpt>
<trkpt lat="46.636754013597965" lon="7.16459970921278"><ele></ele><time>2014-10-30T2:19:2Z</time></trkpt>
<trkpt lat="46.63681872189045" lon="7.164695346727967"><ele></ele><time>2014-10-30T2:19:5Z</time></trkpt>
<trkpt lat="46.63687546737492" lon="7.16480833478272"><ele></ele><time>2014-10-30T2:19:8Z</time></trkpt>
<trkpt lat="46.63690195418894" lon="7.164869019761682"><ele></ele><time>2014-10-30T2:19:11Z</time></trkpt>
<trkpt lat="46.636977810412645" lon="7.165057277306914"><ele></ele><time>2014-10-30T2:19:14Z</time></trkpt>
<trkpt lat="46.63704645819962" lon="7.165266824886203"><ele></ele><time>2014-10-30T2:19:17Z</time></trkpt>
<trkpt lat="46.63711275905371" lon="7.165487771853805"><ele></ele><time>2014-10-30T2:19:20Z</time></trkpt>
<trkpt lat="46.63717922754586" lon="7.165772169828415"><ele></ele><time>2014-10-30T2:19:23Z</time></trkpt>
<trkpt lat="46.637239744886756" lon="7.166038546711206"><ele></ele><time>2014-10-30T2:19:26Z</time></trkpt>
<trkpt lat="46.6372565086931" lon="7.166103674098849"><ele></ele><time>2014-10-30T2:19:29Z</time></trkpt>
<trkpt lat="46.63729162886739" lon="7.166228732094169"><ele></ele><time>2014-10-30T2:19:32Z</time></trkpt>
<trkpt lat="46.63733881898224" lon="7.166346665471792"><ele></ele><time>2014-10-30T2:19:35Z</time></trkpt>
<trkpt lat="46.6374533995986" lon="7.16654397547245"><ele></ele><time>2014-10-30T2:19:38Z</time></trkpt>
<trkpt lat="46.637554820626974" lon="7.166682276874781"><ele></ele><time>2014-10-30T2:19:41Z</time></trkpt>
<trkpt lat="46.637622714042664" lon="7.166768442839384"><ele></ele><time>2014-10-30T2:19:44Z</time></trkpt>
<trkpt lat="46.637661354616284" lon="7.166809011250734"><ele></ele><time>2014-10-30T2:19:47Z</time></trkpt>
<trkpt lat="46.63769965991378" lon="7.166844801977277"><ele></ele><time>2014-10-30T2:19:50Z</time></trkpt>
<trkpt lat="46.63773545064032" lon="7.166871372610331"><ele></ele><time>2014-10-30T2:19:53Z</time></trkpt>
<trkpt lat="46.63777534849942" lon="7.166893668472767"><ele></ele><time>2014-10-30T2:19:56Z</time></trkpt>
<trkpt lat="46.63781491108239" lon="7.166911689564586"><ele></ele><time>2014-10-30T2:19:59Z</time></trkpt>
<trkpt lat="46.637856904417276" lon="7.166929040104151"><ele></ele><time>2014-10-30T2:20:2Z</time></trkpt>
<trkpt lat="46.63816502317786" lon="7.166992910206318"><ele></ele><time>2014-10-30T2:20:5Z</time></trkpt>
<trkpt lat="46.6382060945034" lon="7.166986204683781"><ele></ele><time>2014-10-30T2:20:8Z</time></trkpt>
<trkpt lat="46.63835269398987" lon="7.166901296004653"><ele></ele><time>2014-10-30T2:20:11Z</time></trkpt>
<trkpt lat="46.63857690989971" lon="7.166676744818687"><ele></ele><time>2014-10-30T2:20:14Z</time></trkpt>
<trkpt lat="46.63864916190505" lon="7.1665930934250355"><ele></ele><time>2014-10-30T2:20:17Z</time></trkpt>
<trkpt lat="46.63868319243193" lon="7.166546741500497"><ele></ele><time>2014-10-30T2:20:20Z</time></trkpt>
<trkpt lat="46.63871571421623" lon="7.166503323242068"><ele></ele><time>2014-10-30T2:20:23Z</time></trkpt>
<trkpt lat="46.638750080019236" lon="7.166460491716862"><ele></ele><time>2014-10-30T2:20:26Z</time></trkpt>
<trkpt lat="46.638786708936095" lon="7.166422018781304"><ele></ele><time>2014-10-30T2:20:29Z</time></trkpt>
<trkpt lat="46.63883230648935" lon="7.166385306045413"><ele></ele><time>2014-10-30T2:20:32Z</time></trkpt>
<trkpt lat="46.63900145329535" lon="7.166270641610026"><ele></ele><time>2014-10-30T2:20:35Z</time></trkpt>
<trkpt lat="46.639231368899345" lon="7.166099147871137"><ele></ele><time>2014-10-30T2:20:38Z</time></trkpt>
<trkpt lat="46.639357432723045" lon="7.166020190343261"><ele></ele><time>2014-10-30T2:20:41Z</time></trkpt>
<trkpt lat="46.639506462961435" lon="7.165989680215716"><ele></ele><time>2014-10-30T2:20:44Z</time></trkpt>
<trkpt lat="46.6397119872272" lon="7.166037624701858"><ele></ele><time>2014-10-30T2:20:47Z</time></trkpt>
<trkpt lat="46.639759596437216" lon="7.166062770411372"><ele></ele><time>2014-10-30T2:20:50Z</time></trkpt>
<trkpt lat="46.640123538672924" lon="7.166231917217374"><ele></ele><time>2014-10-30T2:20:53Z</time></trkpt>
<trkpt lat="46.6402405500412" lon="7.16625614091754"><ele></ele><time>2014-10-30T2:20:56Z</time></trkpt>
<trkpt lat="46.64035940542817" lon="7.166260331869125"><ele></ele><time>2014-10-30T2:20:59Z</time></trkpt>
<trkpt lat="46.64041589945555" lon="7.166249351575971"><ele></ele><time>2014-10-30T2:21:2Z</time></trkpt>
<trkpt lat="46.64047222584486" lon="7.166229821741581"><ele></ele><time>2014-10-30T2:21:5Z</time></trkpt>
<trkpt lat="46.64053123444319" lon="7.166204592213035"><ele></ele><time>2014-10-30T2:21:8Z</time></trkpt>
<trkpt lat="46.64059384725988" lon="7.166172070428729"><ele></ele><time>2014-10-30T2:21:11Z</time></trkpt>
<trkpt lat="46.64070960134268" lon="7.166101997718215"><ele></ele><time>2014-10-30T2:21:14Z</time></trkpt>
<trkpt lat="46.64076064713299" lon="7.166063357144594"><ele></ele><time>2014-10-30T2:21:17Z</time></trkpt>
<trkpt lat="46.64081085473299" lon="7.166028153151274"><ele></ele><time>2014-10-30T2:21:20Z</time></trkpt>
<trkpt lat="46.64085972122848" lon="7.165992110967636"><ele></ele><time>2014-10-30T2:21:23Z</time></trkpt>
<trkpt lat="46.64090531878173" lon="7.165953554213047"><ele></ele><time>2014-10-30T2:21:26Z</time></trkpt>
<trkpt lat="46.64094873704016" lon="7.165917931124568"><ele></ele><time>2014-10-30T2:21:29Z</time></trkpt>
<trkpt lat="46.64099148474634" lon="7.1658797934651375"><ele></ele><time>2014-10-30T2:21:32Z</time></trkpt>
<trkpt lat="46.641173204407096" lon="7.165741575881839"><ele></ele><time>2014-10-30T2:21:35Z</time></trkpt>
<trkpt lat="46.641225423663855" lon="7.165708048269153"><ele></ele><time>2014-10-30T2:21:38Z</time></trkpt>
<trkpt lat="46.641277726739645" lon="7.165673766285181"><ele></ele><time>2014-10-30T2:21:41Z</time></trkpt>
<trkpt lat="46.64133271202445" lon="7.1656435914337635"><ele></ele><time>2014-10-30T2:21:44Z</time></trkpt>
<trkpt lat="46.641383338719606" lon="7.165615847334266"><ele></ele><time>2014-10-30T2:21:47Z</time></trkpt>
<trkpt lat="46.641485346481204" lon="7.1655702497810125"><ele></ele><time>2014-10-30T2:21:50Z</time></trkpt>
<trkpt lat="46.64159154519439" lon="7.165536303073168"><ele></ele><time>2014-10-30T2:21:53Z</time></trkpt>
<trkpt lat="46.64169589988887" lon="7.1654486283659935"><ele></ele><time>2014-10-30T2:21:56Z</time></trkpt>
<trkpt lat="46.641788855195045" lon="7.165340920910239"><ele></ele><time>2014-10-30T2:21:59Z</time></trkpt>
<trkpt lat="46.641837218776345" lon="7.165304124355316"><ele></ele><time>2014-10-30T2:22:2Z</time></trkpt>
<trkpt lat="46.641882145777345" lon="7.165280655026436"><ele></ele><time>2014-10-30T2:22:5Z</time></trkpt>
<trkpt lat="46.6419985704124" lon="7.165241846814752"><ele></ele><time>2014-10-30T2:22:8Z</time></trkpt>
<trkpt lat="46.64201592095196" lon="7.165228603407741"><ele></ele><time>2014-10-30T2:22:11Z</time></trkpt>
<trkpt lat="46.64203335531056" lon="7.165216282010078"><ele></ele><time>2014-10-30T2:22:14Z</time></trkpt>
<trkpt lat="46.64205280132592" lon="7.165210330858827"><ele></ele><time>2014-10-30T2:22:17Z</time></trkpt>
<trkpt lat="46.64207166060805" lon="7.165202535688877"><ele></ele><time>2014-10-30T2:22:20Z</time></trkpt>
<trkpt lat="46.64208767004311" lon="7.165193734690547"><ele></ele><time>2014-10-30T2:22:23Z</time></trkpt>
<trkpt lat="46.64213511161506" lon="7.165166744962335"><ele></ele><time>2014-10-30T2:22:26Z</time></trkpt>
<trkpt lat="46.64215061813593" lon="7.165159536525607"><ele></ele><time>2014-10-30T2:22:29Z</time></trkpt>
<trkpt lat="46.642161682248116" lon="7.165152495726943"><ele></ele><time>2014-10-30T2:22:32Z</time></trkpt>
<trkpt lat="46.642169896513224" lon="7.165143862366676"><ele></ele><time>2014-10-30T2:22:35Z</time></trkpt>
<trkpt lat="46.64222940802574" lon="7.165109748020768"><ele></ele><time>2014-10-30T2:22:38Z</time></trkpt>
<trkpt lat="46.642295122146606" lon="7.165084183216095"><ele></ele><time>2014-10-30T2:22:41Z</time></trkpt>
<trkpt lat="46.642340971156955" lon="7.165074879303575"><ele></ele><time>2014-10-30T2:22:44Z</time></trkpt>
<trkpt lat="46.64236016571522" lon="7.165067000314593"><ele></ele><time>2014-10-30T2:22:47Z</time></trkpt>
<trkpt lat="46.64238564670086" lon="7.165065659210086"><ele></ele><time>2014-10-30T2:22:50Z</time></trkpt>
<trkpt lat="46.642412384971976" lon="7.165060546249151"><ele></ele><time>2014-10-30T2:22:53Z</time></trkpt>
<trkpt lat="46.64244130253792" lon="7.165057025849819"><ele></ele><time>2014-10-30T2:22:56Z</time></trkpt>
<trkpt lat="46.64249083958566" lon="7.165016625076532"><ele></ele><time>2014-10-30T2:22:59Z</time></trkpt>
<trkpt lat="46.64252336136997" lon="7.1649762243032455"><ele></ele><time>2014-10-30T2:23:2Z</time></trkpt>
<trkpt lat="46.642533084377646" lon="7.16496423818171"><ele></ele><time>2014-10-30T2:23:5Z</time></trkpt>
<trkpt lat="46.642544316127896" lon="7.164951078593731"><ele></ele><time>2014-10-30T2:23:8Z</time></trkpt>
<trkpt lat="46.64255479350686" lon="7.164936410263181"><ele></ele><time>2014-10-30T2:23:11Z</time></trkpt>
<trkpt lat="46.642647832632065" lon="7.164847478270531"><ele></ele><time>2014-10-30T2:23:14Z</time></trkpt>
<trkpt lat="46.64269158616662" lon="7.164745554327965"><ele></ele><time>2014-10-30T2:23:17Z</time></trkpt>
<trkpt lat="46.642785212025046" lon="7.164626615121961"><ele></ele><time>2014-10-30T2:23:20Z</time></trkpt>
<trkpt lat="46.6428030654788" lon="7.164607336744666"><ele></ele><time>2014-10-30T2:23:23Z</time></trkpt>
<trkpt lat="46.64282016456127" lon="7.164584370329976"><ele></ele><time>2014-10-30T2:23:26Z</time></trkpt>
<trkpt lat="46.64283483289182" lon="7.164564924314618"><ele></ele><time>2014-10-30T2:23:29Z</time></trkpt>
<trkpt lat="46.64284857921302" lon="7.16454204171896"><ele></ele><time>2014-10-30T2:23:32Z</time></trkpt>
<trkpt lat="46.64290415123105" lon="7.164492420852184"><ele></ele><time>2014-10-30T2:23:35Z</time></trkpt>
<trkpt lat="46.64297162555158" lon="7.164439698681235"><ele></ele><time>2014-10-30T2:23:38Z</time></trkpt>
<trkpt lat="46.64299417287111" lon="7.164422180503607"><ele></ele><time>2014-10-30T2:23:41Z</time></trkpt>
<trkpt lat="46.64301261305809" lon="7.1644078474491835"><ele></ele><time>2014-10-30T2:23:44Z</time></trkpt>
<trkpt lat="46.64302728138864" lon="7.1643930952996016"><ele></ele><time>2014-10-30T2:23:47Z</time></trkpt>
<trkpt lat="46.643040189519525" lon="7.164381192997098"><ele></ele><time>2014-10-30T2:23:50Z</time></trkpt>
<trkpt lat="46.643110597506166" lon="7.164320005103946"><ele></ele><time>2014-10-30T2:23:53Z</time></trkpt>
<trkpt lat="46.64312694221735" lon="7.16430215165019"><ele></ele><time>2014-10-30T2:23:56Z</time></trkpt>
<trkpt lat="46.64313901215792" lon="7.164280274882913"><ele></ele><time>2014-10-30T2:23:59Z</time></trkpt>
<trkpt lat="46.643156949430704" lon="7.164263343438506"><ele></ele><time>2014-10-30T2:24:2Z</time></trkpt>
<trkpt lat="46.643169270828366" lon="7.164240209385753"><ele></ele><time>2014-10-30T2:24:5Z</time></trkpt>
<trkpt lat="46.64318452589214" lon="7.164220344275236"><ele></ele><time>2014-10-30T2:24:8Z</time></trkpt>
<trkpt lat="46.64323288947344" lon="7.164109535515308"><ele></ele><time>2014-10-30T2:24:11Z</time></trkpt>
<trkpt lat="46.64324269630015" lon="7.164091179147363"><ele></ele><time>2014-10-30T2:24:14Z</time></trkpt>
<trkpt lat="46.64325116202235" lon="7.164067625999451"><ele></ele><time>2014-10-30T2:24:17Z</time></trkpt>
<trkpt lat="46.643258119001985" lon="7.164044240489602"><ele></ele><time>2014-10-30T2:24:20Z</time></trkpt>
<trkpt lat="46.643283013254404" lon="7.1639778558164835"><ele></ele><time>2014-10-30T2:24:23Z</time></trkpt>
<trkpt lat="46.643289886415005" lon="7.163952710106969"><ele></ele><time>2014-10-30T2:24:26Z</time></trkpt>
<trkpt lat="46.6432970110327" lon="7.163929240778089"><ele></ele><time>2014-10-30T2:24:29Z</time></trkpt>
<trkpt lat="46.64330430328846" lon="7.163907364010811"><ele></ele><time>2014-10-30T2:24:32Z</time></trkpt>
<trkpt lat="46.643313774839044" lon="7.163888840004802"><ele></ele><time>2014-10-30T2:24:35Z</time></trkpt>
<trkpt lat="46.64333699271083" lon="7.163824383169413"><ele></ele><time>2014-10-30T2:24:38Z</time></trkpt>
<trkpt lat="46.643374375998974" lon="7.163736121729016"><ele></ele><time>2014-10-30T2:24:41Z</time></trkpt>
<trkpt lat="46.64338309317827" lon="7.1637145802378654"><ele></ele><time>2014-10-30T2:24:44Z</time></trkpt>
<trkpt lat="46.643392564728856" lon="7.163691613823175"><ele></ele><time>2014-10-30T2:24:47Z</time></trkpt>
<trkpt lat="46.64340312592685" lon="7.163667306303978"><ele></ele><time>2014-10-30T2:24:50Z</time></trkpt>
<trkpt lat="46.64341486059129" lon="7.163648614659905"><ele></ele><time>2014-10-30T2:24:53Z</time></trkpt>
<trkpt lat="46.643424248322845" lon="7.163623636588454"><ele></ele><time>2014-10-30T2:24:56Z</time></trkpt>
<trkpt lat="46.64343581534922" lon="7.1635982394218445"><ele></ele><time>2014-10-30T2:24:59Z</time></trkpt>
<trkpt lat="46.64346506819129" lon="7.163553396239877"><ele></ele><time>2014-10-30T2:25:2Z</time></trkpt>
<trkpt lat="46.643498092889786" lon="7.1635019313544035"><ele></ele><time>2014-10-30T2:25:5Z</time></trkpt>
<trkpt lat="46.64351393468678" lon="7.163475025445223"><ele></ele><time>2014-10-30T2:25:8Z</time></trkpt>
<trkpt lat="46.64353690110147" lon="7.163454992696643"><ele></ele><time>2014-10-30T2:25:11Z</time></trkpt>
<trkpt lat="46.643557604402304" lon="7.163428422063589"><ele></ele><time>2014-10-30T2:25:14Z</time></trkpt>
<trkpt lat="46.64358098991215" lon="7.163405204191804"><ele></ele><time>2014-10-30T2:25:17Z</time></trkpt>
<trkpt lat="46.643684757873416" lon="7.163250809535384"><ele></ele><time>2014-10-30T2:25:20Z</time></trkpt>
<trkpt lat="46.643797075375915" lon="7.163067581132054"><ele></ele><time>2014-10-30T2:25:23Z</time></trkpt>
<trkpt lat="46.64381995797157" lon="7.163027515634894"><ele></ele><time>2014-10-30T2:25:26Z</time></trkpt>
<trkpt lat="46.64389279671013" lon="7.162953922525048"><ele></ele><time>2014-10-30T2:25:29Z</time></trkpt>
<trkpt lat="46.643931018188596" lon="7.162928357720375"><ele></ele><time>2014-10-30T2:25:32Z</time></trkpt>
<trkpt lat="46.644014082849026" lon="7.162853255867958"><ele></ele><time>2014-10-30T2:25:35Z</time></trkpt>
<trkpt lat="46.64405238814652" lon="7.162805227562785"><ele></ele><time>2014-10-30T2:25:38Z</time></trkpt>
<trkpt lat="46.64408423937857" lon="7.162767760455608"><ele></ele><time>2014-10-30T2:25:41Z</time></trkpt>
<trkpt lat="46.644112318754196" lon="7.1626378409564495"><ele></ele><time>2014-10-30T2:25:44Z</time></trkpt>
<trkpt lat="46.64411751553416" lon="7.16259635053575"><ele></ele><time>2014-10-30T2:25:47Z</time></trkpt>
<trkpt lat="46.644147019833326" lon="7.162556452676654"><ele></ele><time>2014-10-30T2:25:50Z</time></trkpt>
<trkpt lat="46.64421742781997" lon="7.162582436576486"><ele></ele><time>2014-10-30T2:25:53Z</time></trkpt>
<trkpt lat="46.644371738657355" lon="7.162695676088333"><ele></ele><time>2014-10-30T2:25:56Z</time></trkpt>
<trkpt lat="46.64441398344934" lon="7.162759378552437"><ele></ele><time>2014-10-30T2:25:59Z</time></trkpt>
<trkpt lat="46.64442680776119" lon="7.1627927385270596"><ele></ele><time>2014-10-30T2:26:2Z</time></trkpt>
<trkpt lat="46.64443351328373" lon="7.162821153178811"><ele></ele><time>2014-10-30T2:26:5Z</time></trkpt>
<trkpt lat="46.64445145055652" lon="7.1628493163734674"><ele></ele><time>2014-10-30T2:26:8Z</time></trkpt>
<trkpt lat="46.64446318522096" lon="7.162880999967456"><ele></ele><time>2014-10-30T2:26:11Z</time></trkpt>
<trkpt lat="46.64447617717087" lon="7.162909917533398"><ele></ele><time>2014-10-30T2:26:14Z</time></trkpt>
<trkpt lat="46.6445195954293" lon="7.163029108196497"><ele></ele><time>2014-10-30T2:26:17Z</time></trkpt>
<trkpt lat="46.64452898316085" lon="7.1630501467734575"><ele></ele><time>2014-10-30T2:26:20Z</time></trkpt>
<trkpt lat="46.6445386223495" lon="7.163073029369116"><ele></ele><time>2014-10-30T2:26:23Z</time></trkpt>
<trkpt lat="46.644547674804926" lon="7.163098091259599"><ele></ele><time>2014-10-30T2:26:26Z</time></trkpt>
<trkpt lat="46.644552955403924" lon="7.16312256641686"><ele></ele><time>2014-10-30T2:26:29Z</time></trkpt>
<trkpt lat="46.64459821768105" lon="7.163265561684966"><ele></ele><time>2014-10-30T2:26:32Z</time></trkpt>
<trkpt lat="46.64462101645768" lon="7.163330353796482"><ele></ele><time>2014-10-30T2:26:35Z</time></trkpt>
<trkpt lat="46.644624285399914" lon="7.163349548354745"><ele></ele><time>2014-10-30T2:26:38Z</time></trkpt>
<trkpt lat="46.644629649817944" lon="7.163371676579118"><ele></ele><time>2014-10-30T2:26:41Z</time></trkpt>
<trkpt lat="46.64463425986469" lon="7.163391960784793"><ele></ele><time>2014-10-30T2:26:44Z</time></trkpt>
<trkpt lat="46.64463819935918" lon="7.163416100665927"><ele></ele><time>2014-10-30T2:26:47Z</time></trkpt>
<trkpt lat="46.644637025892735" lon="7.1634400729089975"><ele></ele><time>2014-10-30T2:26:50Z</time></trkpt>
<trkpt lat="46.64463300257921" lon="7.1635128278285265"><ele></ele><time>2014-10-30T2:26:53Z</time></trkpt>
<trkpt lat="46.644626297056675" lon="7.163530346006155"><ele></ele><time>2014-10-30T2:26:56Z</time></trkpt>
<trkpt lat="46.64462369866669" lon="7.163557084277272"><ele></ele><time>2014-10-30T2:26:59Z</time></trkpt>
<trkpt lat="46.64461934007704" lon="7.163579296320677"><ele></ele><time>2014-10-30T2:27:2Z</time></trkpt>
<trkpt lat="46.64461732842028" lon="7.163607543334365"><ele></ele><time>2014-10-30T2:27:5Z</time></trkpt>
<trkpt lat="46.644612550735474" lon="7.1636350359767675"><ele></ele><time>2014-10-30T2:27:8Z</time></trkpt>
<trkpt lat="46.64460643194616" lon="7.163656577467918"><ele></ele><time>2014-10-30T2:27:11Z</time></trkpt>
<trkpt lat="46.644599391147494" lon="7.163676023483276"><ele></ele><time>2014-10-30T2:27:14Z</time></trkpt>
<trkpt lat="46.644549602642655" lon="7.163755483925343"><ele></ele><time>2014-10-30T2:27:17Z</time></trkpt>
<trkpt lat="46.64454340003431" lon="7.1637737564742565"><ele></ele><time>2014-10-30T2:27:20Z</time></trkpt>
<trkpt lat="46.644538370892406" lon="7.163798986002803"><ele></ele><time>2014-10-30T2:27:23Z</time></trkpt>
<trkpt lat="46.6445301566273" lon="7.163822371512651"><ele></ele><time>2014-10-30T2:27:26Z</time></trkpt>
<trkpt lat="46.64451817050576" lon="7.163840811699629"><ele></ele><time>2014-10-30T2:27:29Z</time></trkpt>
<trkpt lat="46.644495371729136" lon="7.1639095433056355"><ele></ele><time>2014-10-30T2:27:32Z</time></trkpt>
<trkpt lat="46.64449151605368" lon="7.163998391479254"><ele></ele><time>2014-10-30T2:27:35Z</time></trkpt>
<trkpt lat="46.64449277333915" lon="7.1640201844275"><ele></ele><time>2014-10-30T2:27:38Z</time></trkpt>
<trkpt lat="46.64449319243431" lon="7.164044240489602"><ele></ele><time>2014-10-30T2:27:41Z</time></trkpt>
<trkpt lat="46.644493946805596" lon="7.16406905092299"><ele></ele><time>2014-10-30T2:27:44Z</time></trkpt>
<trkpt lat="46.64449721574783" lon="7.1640947833657265"><ele></ele><time>2014-10-30T2:27:47Z</time></trkpt>
<trkpt lat="46.644507106393576" lon="7.164207017049193"><ele></ele><time>2014-10-30T2:27:50Z</time></trkpt>
<trkpt lat="46.644512470811605" lon="7.1642455738037825"><ele></ele><time>2014-10-30T2:27:53Z</time></trkpt>
<trkpt lat="46.64451749995351" lon="7.1642708871513605"><ele></ele><time>2014-10-30T2:27:56Z</time></trkpt>
<trkpt lat="46.64453141391277" lon="7.164288908243179"><ele></ele><time>2014-10-30T2:27:59Z</time></trkpt>
<trkpt lat="46.64454239420593" lon="7.164306845515966"><ele></ele><time>2014-10-30T2:28:2Z</time></trkpt>
<trkpt lat="46.64455614052713" lon="7.164320759475231"><ele></ele><time>2014-10-30T2:28:5Z</time></trkpt>
<trkpt lat="46.64463920518756" lon="7.164368201047182"><ele></ele><time>2014-10-30T2:28:8Z</time></trkpt>
<trkpt lat="46.64467507973313" lon="7.1643533650785685"><ele></ele><time>2014-10-30T2:28:11Z</time></trkpt>
<trkpt lat="46.644706008955836" lon="7.164330063387752"><ele></ele><time>2014-10-30T2:28:14Z</time></trkpt>
<trkpt lat="46.64472000673413" lon="7.164315143600106"><ele></ele><time>2014-10-30T2:28:17Z</time></trkpt>
<trkpt lat="46.644731406122446" lon="7.164293602108955"><ele></ele><time>2014-10-30T2:28:20Z</time></trkpt>
<trkpt lat="46.64474146440625" lon="7.16427331790328"><ele></ele><time>2014-10-30T2:28:23Z</time></trkpt>
<trkpt lat="46.64474758319557" lon="7.1642502676695585"><ele></ele><time>2014-10-30T2:28:26Z</time></trkpt>
<trkpt lat="46.64475118741393" lon="7.164152534678578"><ele></ele><time>2014-10-30T2:28:29Z</time></trkpt>
<trkpt lat="46.64476074278355" lon="7.164136106148362"><ele></ele><time>2014-10-30T2:28:32Z</time></trkpt>
<trkpt lat="46.64477524347603" lon="7.164091933518648"><ele></ele><time>2014-10-30T2:28:35Z</time></trkpt>
<trkpt lat="46.6447770036757" lon="7.164069302380085"><ele></ele><time>2014-10-30T2:28:38Z</time></trkpt>
<trkpt lat="46.64478010497987" lon="7.164049772545695"><ele></ele><time>2014-10-30T2:28:41Z</time></trkpt>
<trkpt lat="46.64478840306401" lon="7.1640329249203205"><ele></ele><time>2014-10-30T2:28:44Z</time></trkpt>
<trkpt lat="46.644790498539805" lon="7.16401431709528"><ele></ele><time>2014-10-30T2:28:47Z</time></trkpt>
<trkpt lat="46.644803658127785" lon="7.163954470306635"><ele></ele><time>2014-10-30T2:28:50Z</time></trkpt>
<trkpt lat="46.644820086658" lon="7.1639045141637325"><ele></ele><time>2014-10-30T2:28:53Z</time></trkpt>
<trkpt lat="46.64483433589339" lon="7.163868807256222"><ele></ele><time>2014-10-30T2:28:56Z</time></trkpt>
<trkpt lat="46.64484137669206" lon="7.163852630183101"><ele></ele><time>2014-10-30T2:28:59Z</time></trkpt>
<trkpt lat="46.644850093871355" lon="7.163837039843202"><ele></ele><time>2014-10-30T2:29:2Z</time></trkpt>
<trkpt lat="46.644859397783875" lon="7.163816587999463"><ele></ele><time>2014-10-30T2:29:5Z</time></trkpt>
<trkpt lat="46.64486350491643" lon="7.163795884698629"><ele></ele><time>2014-10-30T2:29:8Z</time></trkpt>
<trkpt lat="46.64486928842962" lon="7.16375925578177"><ele></ele><time>2014-10-30T2:29:11Z</time></trkpt>
<trkpt lat="46.644872557371855" lon="7.163740815594792"><ele></ele><time>2014-10-30T2:29:14Z</time></trkpt>
<trkpt lat="46.64488177746534" lon="7.163722543045878"><ele></ele><time>2014-10-30T2:29:17Z</time></trkpt>
<trkpt lat="46.64488730952144" lon="7.163703767582774"><ele></ele><time>2014-10-30T2:29:20Z</time></trkpt>
<trkpt lat="46.64489887654781" lon="7.1636865846812725"><ele></ele><time>2014-10-30T2:29:23Z</time></trkpt>
<trkpt lat="46.64490700699389" lon="7.163666887208819"><ele></ele><time>2014-10-30T2:29:26Z</time></trkpt>
<trkpt lat="46.64491371251643" lon="7.1636465191841125"><ele></ele><time>2014-10-30T2:29:29Z</time></trkpt>
<trkpt lat="46.6449392773211" lon="7.163546774536371"><ele></ele><time>2014-10-30T2:29:32Z</time></trkpt>
<trkpt lat="46.644958052784204" lon="7.163506541401148"><ele></ele><time>2014-10-30T2:29:35Z</time></trkpt>
<trkpt lat="46.64496232755482" lon="7.163486676290631"><ele></ele><time>2014-10-30T2:29:38Z</time></trkpt>
<trkpt lat="46.64496257901192" lon="7.163466727361083"><ele></ele><time>2014-10-30T2:29:41Z</time></trkpt>
<trkpt lat="46.64496475830674" lon="7.163442503660917"><ele></ele><time>2014-10-30T2:29:44Z</time></trkpt>
<trkpt lat="46.64496425539255" lon="7.163423141464591"><ele></ele><time>2014-10-30T2:29:47Z</time></trkpt>
<trkpt lat="46.64496165700257" lon="7.163280481472611"><ele></ele><time>2014-10-30T2:29:50Z</time></trkpt>
<trkpt lat="46.64496140554547" lon="7.163260281085968"><ele></ele><time>2014-10-30T2:29:53Z</time></trkpt>
<trkpt lat="46.64496132172644" lon="7.1632386557757854"><ele></ele><time>2014-10-30T2:29:56Z</time></trkpt>
<trkpt lat="46.644958555698395" lon="7.163215186446905"><ele></ele><time>2014-10-30T2:29:59Z</time></trkpt>
<trkpt lat="46.64495252072811" lon="7.163192303851247"><ele></ele><time>2014-10-30T2:30:2Z</time></trkpt>
<trkpt lat="46.64495285600424" lon="7.163162128999829"><ele></ele><time>2014-10-30T2:30:5Z</time></trkpt>
<trkpt lat="46.64494598284364" lon="7.1631377376616"><ele></ele><time>2014-10-30T2:30:8Z</time></trkpt>
<trkpt lat="46.644946318119764" lon="7.163067329674959"><ele></ele><time>2014-10-30T2:30:11Z</time></trkpt>
<trkpt lat="46.644931733608246" lon="7.162986360490322"><ele></ele><time>2014-10-30T2:30:14Z</time></trkpt>
<trkpt lat="46.644929219037294" lon="7.162963477894664"><ele></ele><time>2014-10-30T2:30:17Z</time></trkpt>
<trkpt lat="46.64492569863796" lon="7.162941349670291"><ele></ele><time>2014-10-30T2:30:20Z</time></trkpt>
<trkpt lat="46.64492502808571" lon="7.162925256416202"><ele></ele><time>2014-10-30T2:30:23Z</time></trkpt>
<trkpt lat="46.644919412210584" lon="7.162898266687989"><ele></ele><time>2014-10-30T2:30:26Z</time></trkpt>
<trkpt lat="46.6449133772403" lon="7.162871779873967"><ele></ele><time>2014-10-30T2:30:29Z</time></trkpt>
<trkpt lat="46.6449080966413" lon="7.162845712155104"><ele></ele><time>2014-10-30T2:30:32Z</time></trkpt>
<trkpt lat="46.6449202504009" lon="7.162668937817216"><ele></ele><time>2014-10-30T2:30:35Z</time></trkpt>
<trkpt lat="46.64492771029472" lon="7.162536503747106"><ele></ele><time>2014-10-30T2:30:38Z</time></trkpt>
<trkpt lat="46.64493190124631" lon="7.162511022761464"><ele></ele><time>2014-10-30T2:30:41Z</time></trkpt>
<trkpt lat="46.64493693038821" lon="7.162486966699362"><ele></ele><time>2014-10-30T2:30:44Z</time></trkpt>
<trkpt lat="46.64494497701526" lon="7.162464000284672"><ele></ele><time>2014-10-30T2:30:47Z</time></trkpt>
<trkpt lat="46.64495201781392" lon="7.162441369146109"><ele></ele><time>2014-10-30T2:30:50Z</time></trkpt>
<trkpt lat="46.64498747326434" lon="7.162346737459302"><ele></ele><time>2014-10-30T2:30:53Z</time></trkpt>
<trkpt lat="46.64502770639956" lon="7.162262080237269"><ele></ele><time>2014-10-30T2:30:56Z</time></trkpt>
<trkpt lat="46.64503977634013" lon="7.162249926477671"><ele></ele><time>2014-10-30T2:30:59Z</time></trkpt>
<trkpt lat="46.64505016990006" lon="7.162232575938106"><ele></ele><time>2014-10-30T2:31:2Z</time></trkpt>
<trkpt lat="46.64505863562226" lon="7.162212375551462"><ele></ele><time>2014-10-30T2:31:5Z</time></trkpt>
<trkpt lat="46.6450637485832" lon="7.162193348631263"><ele></ele><time>2014-10-30T2:31:8Z</time></trkpt>
<trkpt lat="46.64508302696049" lon="7.16213115490973"><ele></ele><time>2014-10-30T2:31:11Z</time></trkpt>
<trkpt lat="46.645086044445634" lon="7.162108104676008"><ele></ele><time>2014-10-30T2:31:14Z</time></trkpt>
<trkpt lat="46.64508797228336" lon="7.1621050871908665"><ele></ele><time>2014-10-30T2:31:17Z</time></trkpt>
<trkpt lat="46.645089061930776" lon="7.1620953641831875"><ele></ele><time>2014-10-30T2:31:20Z</time></trkpt>
<trkpt lat="46.64509082213044" lon="7.162085138261318"><ele></ele><time>2014-10-30T2:31:23Z</time></trkpt>
<trkpt lat="46.645097276195884" lon="7.162071643397212"><ele></ele><time>2014-10-30T2:31:26Z</time></trkpt>
<trkpt lat="46.64514094591141" lon="7.161998972296715"><ele></ele><time>2014-10-30T2:31:29Z</time></trkpt>
<trkpt lat="46.6451586317271" lon="7.1619813703000546"><ele></ele><time>2014-10-30T2:31:32Z</time></trkpt>
<trkpt lat="46.645174054428935" lon="7.161975419148803"><ele></ele><time>2014-10-30T2:31:35Z</time></trkpt>
<trkpt lat="46.64518352597952" lon="7.16195572167635"><ele></ele><time>2014-10-30T2:31:38Z</time></trkpt>
<trkpt lat="46.64518880657852" lon="7.161938957870007"><ele></ele><time>2014-10-30T2:31:41Z</time></trkpt>
<trkpt lat="46.645193165168166" lon="7.161923870444298"><ele></ele><time>2014-10-30T2:31:44Z</time></trkpt>
<trkpt lat="46.64521177299321" lon="7.161827394738793"><ele></ele><time>2014-10-30T2:31:47Z</time></trkpt>
<trkpt lat="46.64522250182927" lon="7.161785988137126"><ele></ele><time>2014-10-30T2:31:50Z</time></trkpt>
<trkpt lat="46.64522325620055" lon="7.16176469810307"><ele></ele><time>2014-10-30T2:31:53Z</time></trkpt>
<trkpt lat="46.64522912353277" lon="7.161747934296727"><ele></ele><time>2014-10-30T2:31:56Z</time></trkpt>
<trkpt lat="46.64523306302726" lon="7.161730583757162"><ele></ele><time>2014-10-30T2:31:59Z</time></trkpt>
<trkpt lat="46.64523825980723" lon="7.161716250702739"><ele></ele><time>2014-10-30T2:32:2Z</time></trkpt>
<trkpt lat="46.64525401778519" lon="7.161639975383878"><ele></ele><time>2014-10-30T2:32:5Z</time></trkpt>
<trkpt lat="46.645265417173505" lon="7.161616841331124"><ele></ele><time>2014-10-30T2:32:8Z</time></trkpt>
<trkpt lat="46.64527606219053" lon="7.161610471084714"><ele></ele><time>2014-10-30T2:32:11Z</time></trkpt>
<trkpt lat="46.64528897032142" lon="7.161601334810257"><ele></ele><time>2014-10-30T2:32:14Z</time></trkpt>
<trkpt lat="46.645296681672335" lon="7.161582726985216"><ele></ele><time>2014-10-30T2:32:17Z</time></trkpt>
<trkpt lat="46.64530782960355" lon="7.161533189937472"><ele></ele><time>2014-10-30T2:32:20Z</time></trkpt>
<trkpt lat="46.64532979018986" lon="7.161487927660346"><ele></ele><time>2014-10-30T2:32:23Z</time></trkpt>
<trkpt lat="46.6453330591321" lon="7.1614668890833855"><ele></ele><time>2014-10-30T2:32:26Z</time></trkpt>
<trkpt lat="46.64533716626465" lon="7.161446185782552"><ele></ele><time>2014-10-30T2:32:29Z</time></trkpt>
<trkpt lat="46.64533691480756" lon="7.161415088921785"><ele></ele><time>2014-10-30T2:32:32Z</time></trkpt>
<trkpt lat="46.64533515460789" lon="7.161381645128131"><ele></ele><time>2014-10-30T2:32:35Z</time></trkpt>
<trkpt lat="46.64533691480756" lon="7.1613435074687"><ele></ele><time>2014-10-30T2:32:38Z</time></trkpt>
<trkpt lat="46.645330376923084" lon="7.161320624873042"><ele></ele><time>2014-10-30T2:32:41Z</time></trkpt>
<trkpt lat="46.645327527076006" lon="7.1613052021712065"><ele></ele><time>2014-10-30T2:32:44Z</time></trkpt>
<trkpt lat="46.645324090495706" lon="7.161283241584897"><ele></ele><time>2014-10-30T2:32:47Z</time></trkpt>
<trkpt lat="46.645318726077676" lon="7.161262622103095"><ele></ele><time>2014-10-30T2:32:50Z</time></trkpt>
<trkpt lat="46.64531755261123" lon="7.161243595182896"><ele></ele><time>2014-10-30T2:32:53Z</time></trkpt>
<trkpt lat="46.64530464448035" lon="7.161169247701764"><ele></ele><time>2014-10-30T2:32:56Z</time></trkpt>
<trkpt lat="46.64530087262392" lon="7.161150639876723"><ele></ele><time>2014-10-30T2:32:59Z</time></trkpt>
<trkpt lat="46.64528779685497" lon="7.161114262416959"><ele></ele><time>2014-10-30T2:33:2Z</time></trkpt>
<trkpt lat="46.64527606219053" lon="7.161100264638662"><ele></ele><time>2014-10-30T2:33:5Z</time></trkpt>
<trkpt lat="46.6452691052109" lon="7.161082327365875"><ele></ele><time>2014-10-30T2:33:8Z</time></trkpt>
<trkpt lat="46.64526768028736" lon="7.161058858036995"><ele></ele><time>2014-10-30T2:33:11Z</time></trkpt>
<trkpt lat="46.645262483507395" lon="7.161040585488081"><ele></ele><time>2014-10-30T2:33:14Z</time></trkpt>
<trkpt lat="46.64524546824396" lon="7.161021223291755"><ele></ele><time>2014-10-30T2:33:17Z</time></trkpt>
<trkpt lat="46.64520758204162" lon="7.160917120054364"><ele></ele><time>2014-10-30T2:33:20Z</time></trkpt>
<trkpt lat="46.645198445767164" lon="7.16090127825737"><ele></ele><time>2014-10-30T2:33:23Z</time></trkpt>
<trkpt lat="46.64519031532109" lon="7.160888202488422"><ele></ele><time>2014-10-30T2:33:26Z</time></trkpt>
<trkpt lat="46.645184280350804" lon="7.160875294357538"><ele></ele><time>2014-10-30T2:33:29Z</time></trkpt>
<trkpt lat="46.64517682045698" lon="7.160858362913132"><ele></ele><time>2014-10-30T2:33:32Z</time></trkpt>
<trkpt lat="46.645171539857984" lon="7.160836653783917"><ele></ele><time>2014-10-30T2:33:35Z</time></trkpt>
<trkpt lat="46.6451670974493" lon="7.1608207281678915"><ele></ele><time>2014-10-30T2:33:38Z</time></trkpt>
<trkpt lat="46.64516827091575" lon="7.16080111451447"><ele></ele><time>2014-10-30T2:33:41Z</time></trkpt>
<trkpt lat="46.645158883184195" lon="7.160761803388596"><ele></ele><time>2014-10-30T2:33:44Z</time></trkpt>
<trkpt lat="46.64514589123428" lon="7.16071997769177"><ele></ele><time>2014-10-30T2:33:47Z</time></trkpt>
<trkpt lat="46.645143292844296" lon="7.160701956599951"><ele></ele><time>2014-10-30T2:33:50Z</time></trkpt>
<trkpt lat="46.64514413103461" lon="7.160684773698449"><ele></ele><time>2014-10-30T2:33:53Z</time></trkpt>
<trkpt lat="46.64514195173979" lon="7.16066918335855"><ele></ele><time>2014-10-30T2:33:56Z</time></trkpt>
<trkpt lat="46.64513331837952" lon="7.160653593018651"><ele></ele><time>2014-10-30T2:33:59Z</time></trkpt>
<trkpt lat="46.64513164199889" lon="7.160638254135847"><ele></ele><time>2014-10-30T2:34:2Z</time></trkpt>
<trkpt lat="46.645121248438954" lon="7.160524427890778"><ele></ele><time>2014-10-30T2:34:5Z</time></trkpt>
<trkpt lat="46.64512300863862" lon="7.160485619679093"><ele></ele><time>2014-10-30T2:34:8Z</time></trkpt>
<trkpt lat="46.64512728340924" lon="7.16046885587275"><ele></ele><time>2014-10-30T2:34:11Z</time></trkpt>
<trkpt lat="46.64513222873211" lon="7.160449493676424"><ele></ele><time>2014-10-30T2:34:14Z</time></trkpt>
<trkpt lat="46.645141365006566" lon="7.160433484241366"><ele></ele><time>2014-10-30T2:34:17Z</time></trkpt>
<trkpt lat="46.64514848962426" lon="7.160419737920165"><ele></ele><time>2014-10-30T2:34:20Z</time></trkpt>
<trkpt lat="46.6451810952276" lon="7.160392832010984"><ele></ele><time>2014-10-30T2:34:23Z</time></trkpt>
<trkpt lat="46.64521177299321" lon="7.16039652004838"><ele></ele><time>2014-10-30T2:34:26Z</time></trkpt>
<trkpt lat="46.645301124081016" lon="7.160430466756225"><ele></ele><time>2014-10-30T2:34:29Z</time></trkpt>
<trkpt lat="46.645315205678344" lon="7.160448404029012"><ele></ele><time>2014-10-30T2:34:32Z</time></trkpt>
<trkpt lat="46.6453314665705" lon="7.16045904904604"><ele></ele><time>2014-10-30T2:34:35Z</time></trkpt>
<trkpt lat="46.645349403843284" lon="7.160468269139528"><ele></ele><time>2014-10-30T2:34:38Z</time></trkpt>
<trkpt lat="46.64536323398352" lon="7.16048201546073"><ele></ele><time>2014-10-30T2:34:41Z</time></trkpt>
<trkpt lat="46.645377818495035" lon="7.1604944206774235"><ele></ele><time>2014-10-30T2:34:44Z</time></trkpt>
<trkpt lat="46.64547027088702" lon="7.160596093162894"><ele></ele><time>2014-10-30T2:34:47Z</time></trkpt>
<trkpt lat="46.64549927227199" lon="7.160624088719487"><ele></ele><time>2014-10-30T2:34:50Z</time></trkpt>
<trkpt lat="46.645516119897366" lon="7.1606372483074665"><ele></ele><time>2014-10-30T2:34:53Z</time></trkpt>
<trkpt lat="46.64552818983793" lon="7.160655688494444"><ele></ele><time>2014-10-30T2:34:56Z</time></trkpt>
<trkpt lat="46.64554176852107" lon="7.160667339339852"><ele></ele><time>2014-10-30T2:34:59Z</time></trkpt>
<trkpt lat="46.645555682480335" lon="7.160677732899785"><ele></ele><time>2014-10-30T2:35:2Z</time></trkpt>
<trkpt lat="46.64556825533509" lon="7.160692485049367"><ele></ele><time>2014-10-30T2:35:5Z</time></trkpt>
<trkpt lat="46.64561469107866" lon="7.160746967419982"><ele></ele><time>2014-10-30T2:35:8Z</time></trkpt>
<trkpt lat="46.645626090466976" lon="7.1607588697224855"><ele></ele><time>2014-10-30T2:35:11Z</time></trkpt>
<trkpt lat="46.64563958533108" lon="7.160772196948528"><ele></ele><time>2014-10-30T2:35:14Z</time></trkpt>
<trkpt lat="46.645650900900364" lon="7.160787032917142"><ele></ele><time>2014-10-30T2:35:17Z</time></trkpt>
<trkpt lat="46.645666658878326" lon="7.160800443962216"><ele></ele><time>2014-10-30T2:35:20Z</time></trkpt>
<trkpt lat="46.64575341157615" lon="7.160851405933499"><ele></ele><time>2014-10-30T2:35:23Z</time></trkpt>
<trkpt lat="46.645769756287336" lon="7.160859117284417"><ele></ele><time>2014-10-30T2:35:26Z</time></trkpt>
<trkpt lat="46.64578652009368" lon="7.160859033465385"><ele></ele><time>2014-10-30T2:35:29Z</time></trkpt>
<trkpt lat="46.64580118842423" lon="7.160866912454367"><ele></ele><time>2014-10-30T2:35:32Z</time></trkpt>
<trkpt lat="46.64581635966897" lon="7.160870935767889"><ele></ele><time>2014-10-30T2:35:35Z</time></trkpt>
<trkpt lat="46.645830776542425" lon="7.160867918282747"><ele></ele><time>2014-10-30T2:35:38Z</time></trkpt>
<trkpt lat="46.64585986174643" lon="7.160858195275068"><ele></ele><time>2014-10-30T2:35:41Z</time></trkpt>
<trkpt lat="46.64592775516212" lon="7.160817375406623"><ele></ele><time>2014-10-30T2:35:44Z</time></trkpt>
<trkpt lat="46.6459530685097" lon="7.1608001086860895"><ele></ele><time>2014-10-30T2:35:47Z</time></trkpt>
<trkpt lat="46.645981734618545" lon="7.160781668499112"><ele></ele><time>2014-10-30T2:35:50Z</time></trkpt>
<trkpt lat="46.645990535616875" lon="7.1607581153512"><ele></ele><time>2014-10-30T2:35:53Z</time></trkpt>
<trkpt lat="46.64598978124559" lon="7.160732802003622"><ele></ele><time>2014-10-30T2:35:56Z</time></trkpt>
<trkpt lat="46.64598827250302" lon="7.16070338152349"><ele></ele><time>2014-10-30T2:35:59Z</time></trkpt>
<trkpt lat="46.64595658890903" lon="7.160615287721157"><ele></ele><time>2014-10-30T2:36:2Z</time></trkpt>
<trkpt lat="46.64594636298716" lon="7.16059684753418"><ele></ele><time>2014-10-30T2:36:5Z</time></trkpt>
<trkpt lat="46.645920714363456" lon="7.160560637712479"><ele></ele><time>2014-10-30T2:36:8Z</time></trkpt>
<trkpt lat="46.645907470956445" lon="7.160545298829675"><ele></ele><time>2014-10-30T2:36:11Z</time></trkpt>
<trkpt lat="46.645897245034575" lon="7.160529121756554"><ele></ele><time>2014-10-30T2:36:14Z</time></trkpt>
<trkpt lat="46.64588852785528" lon="7.160512860864401"><ele></ele><time>2014-10-30T2:36:17Z</time></trkpt>
<trkpt lat="46.64587838575244" lon="7.1604932472109795"><ele></ele><time>2014-10-30T2:36:20Z</time></trkpt>
<trkpt lat="46.64586732164025" lon="7.160471370443702"><ele></ele><time>2014-10-30T2:36:23Z</time></trkpt>
<trkpt lat="46.645811246708035" lon="7.1603733859956264"><ele></ele><time>2014-10-30T2:36:26Z</time></trkpt>
<trkpt lat="46.645800434052944" lon="7.160360394045711"><ele></ele><time>2014-10-30T2:36:29Z</time></trkpt>
<trkpt lat="46.64579037576914" lon="7.160340361297131"><ele></ele><time>2014-10-30T2:36:32Z</time></trkpt>
<trkpt lat="46.64577771909535" lon="7.160326112061739"><ele></ele><time>2014-10-30T2:36:35Z</time></trkpt>
<trkpt lat="46.64576942101121" lon="7.1603103540837765"><ele></ele><time>2014-10-30T2:36:38Z</time></trkpt>
<trkpt lat="46.645746789872646" lon="7.160254782065749"><ele></ele><time>2014-10-30T2:36:41Z</time></trkpt>
<trkpt lat="46.64570261724293" lon="7.160170543938875"><ele></ele><time>2014-10-30T2:36:44Z</time></trkpt>
<trkpt lat="46.64569373242557" lon="7.160159898921847"><ele></ele><time>2014-10-30T2:36:47Z</time></trkpt>
<trkpt lat="46.64568300358951" lon="7.160145146772265"><ele></ele><time>2014-10-30T2:36:50Z</time></trkpt>
<trkpt lat="46.64567814208567" lon="7.160132490098476"><ele></ele><time>2014-10-30T2:36:53Z</time></trkpt>
<trkpt lat="46.645670430734754" lon="7.160114888101816"><ele></ele><time>2014-10-30T2:36:56Z</time></trkpt>
<trkpt lat="46.64565131999552" lon="7.160060238093138"><ele></ele><time>2014-10-30T2:36:59Z</time></trkpt>
<trkpt lat="46.64558485150337" lon="7.159938616678119"><ele></ele><time>2014-10-30T2:37:2Z</time></trkpt>
<trkpt lat="46.64557747542858" lon="7.159920930862427"><ele></ele><time>2014-10-30T2:37:5Z</time></trkpt>
<trkpt lat="46.645569344982505" lon="7.159899892285466"><ele></ele><time>2014-10-30T2:37:8Z</time></trkpt>
<trkpt lat="46.645560627803206" lon="7.159885643050075"><ele></ele><time>2014-10-30T2:37:11Z</time></trkpt>
<trkpt lat="46.64555249735713" lon="7.159868124872446"><ele></ele><time>2014-10-30T2:37:14Z</time></trkpt>
<trkpt lat="46.64551142603159" lon="7.159802075475454"><ele></ele><time>2014-10-30T2:37:17Z</time></trkpt>
<trkpt lat="46.64546733722091" lon="7.159699480980635"><ele></ele><time>2014-10-30T2:37:20Z</time></trkpt>
<trkpt lat="46.64545870386064" lon="7.159677688032389"><ele></ele><time>2014-10-30T2:37:23Z</time></trkpt>
<trkpt lat="46.64545032195747" lon="7.159657403826714"><ele></ele><time>2014-10-30T2:37:26Z</time></trkpt>
<trkpt lat="46.64543950930238" lon="7.1596382930874825"><ele></ele><time>2014-10-30T2:37:29Z</time></trkpt>
<trkpt lat="46.645430540665984" lon="7.159620942547917"><ele></ele><time>2014-10-30T2:37:32Z</time></trkpt>
<trkpt lat="46.64542140439153" lon="7.1596056036651134"><ele></ele><time>2014-10-30T2:37:35Z</time></trkpt>
<trkpt lat="46.64539265446365" lon="7.159534692764282"><ele></ele><time>2014-10-30T2:37:38Z</time></trkpt>
<trkpt lat="46.64538402110338" lon="7.1595196053385735"><ele></ele><time>2014-10-30T2:37:41Z</time></trkpt>
<trkpt lat="46.64538133889437" lon="7.15949890203774"><ele></ele><time>2014-10-30T2:37:44Z</time></trkpt>
<trkpt lat="46.64537161588669" lon="7.159483898431063"><ele></ele><time>2014-10-30T2:37:47Z</time></trkpt>
<trkpt lat="46.64536717347801" lon="7.159465039148927"><ele></ele><time>2014-10-30T2:37:50Z</time></trkpt>
<trkpt lat="46.645358204841614" lon="7.15944274328649"><ele></ele><time>2014-10-30T2:37:53Z</time></trkpt>
<trkpt lat="46.645350912585855" lon="7.15942120179534"><ele></ele><time>2014-10-30T2:37:56Z</time></trkpt>
<trkpt lat="46.64531000889838" lon="7.159298658370972"><ele></ele><time>2014-10-30T2:37:59Z</time></trkpt>
<trkpt lat="46.6453053150326" lon="7.159278290346265"><ele></ele><time>2014-10-30T2:38:2Z</time></trkpt>
<trkpt lat="46.64529458619654" lon="7.159267226234078"><ele></ele><time>2014-10-30T2:38:5Z</time></trkpt>
<trkpt lat="46.64528964087367" lon="7.159242583438754"><ele></ele><time>2014-10-30T2:38:8Z</time></trkpt>
<trkpt lat="46.6452899761498" lon="7.159222969785333"><ele></ele><time>2014-10-30T2:38:11Z</time></trkpt>
<trkpt lat="46.64528922177851" lon="7.1592077147215605"><ele></ele><time>2014-10-30T2:38:14Z</time></trkpt>
<trkpt lat="46.645277151837945" lon="7.159139318391681"><ele></ele><time>2014-10-30T2:38:17Z</time></trkpt>
<trkpt lat="46.645262483507395" lon="7.159085003659129"><ele></ele><time>2014-10-30T2:38:20Z</time></trkpt>
<trkpt lat="46.64526022039354" lon="7.159060696139932"><ele></ele><time>2014-10-30T2:38:23Z</time></trkpt>
<trkpt lat="46.64525921456516" lon="7.159043429419398"><ele></ele><time>2014-10-30T2:38:26Z</time></trkpt>
<trkpt lat="46.645255107432604" lon="7.159022307023406"><ele></ele><time>2014-10-30T2:38:29Z</time></trkpt>
<trkpt lat="46.64525502361357" lon="7.158959107473493"><ele></ele><time>2014-10-30T2:38:32Z</time></trkpt>
<trkpt lat="46.64526030421257" lon="7.158882664516568"><ele></ele><time>2014-10-30T2:38:35Z</time></trkpt>
<trkpt lat="46.6452606394887" lon="7.158860452473164"><ele></ele><time>2014-10-30T2:38:38Z</time></trkpt>
<trkpt lat="46.64525502361357" lon="7.158836983144283"><ele></ele><time>2014-10-30T2:38:41Z</time></trkpt>
<trkpt lat="46.64525502361357" lon="7.158816531300545"><ele></ele><time>2014-10-30T2:38:44Z</time></trkpt>
<trkpt lat="46.64525401778519" lon="7.158793397247791"><ele></ele><time>2014-10-30T2:38:47Z</time></trkpt>
<trkpt lat="46.64527581073344" lon="7.158687952905893"><ele></ele><time>2014-10-30T2:38:50Z</time></trkpt>
<trkpt lat="46.64529098197818" lon="7.158629531040788"><ele></ele><time>2014-10-30T2:38:53Z</time></trkpt>
<trkpt lat="46.645297687500715" lon="7.1586142759770155"><ele></ele><time>2014-10-30T2:38:56Z</time></trkpt>
<trkpt lat="46.6453018784523" lon="7.158594075590372"><ele></ele><time>2014-10-30T2:38:59Z</time></trkpt>
<trkpt lat="46.64530850015581" lon="7.1585724502801895"><ele></ele><time>2014-10-30T2:39:2Z</time></trkpt>
<trkpt lat="46.64531260728836" lon="7.158528696745634"><ele></ele><time>2014-10-30T2:39:5Z</time></trkpt>
<trkpt lat="46.64532786235213" lon="7.1584290359169245"><ele></ele><time>2014-10-30T2:39:8Z</time></trkpt>
<trkpt lat="46.64532677270472" lon="7.15841319411993"><ele></ele><time>2014-10-30T2:39:11Z</time></trkpt>
<trkpt lat="46.64532836526632" lon="7.158390814438462"><ele></ele><time>2014-10-30T2:39:14Z</time></trkpt>
<trkpt lat="46.64532886818051" lon="7.158374050632119"><ele></ele><time>2014-10-30T2:39:17Z</time></trkpt>
<trkpt lat="46.6453330591321" lon="7.158353598788381"><ele></ele><time>2014-10-30T2:39:20Z</time></trkpt>
<trkpt lat="46.64536340162158" lon="7.158252596855164"><ele></ele><time>2014-10-30T2:39:23Z</time></trkpt>
<trkpt lat="46.64537035860121" lon="7.158213118091226"><ele></ele><time>2014-10-30T2:39:26Z</time></trkpt>
<trkpt lat="46.64537547156215" lon="7.158193504437804"><ele></ele><time>2014-10-30T2:39:29Z</time></trkpt>
<trkpt lat="46.64538066834211" lon="7.158169699832797"><ele></ele><time>2014-10-30T2:39:32Z</time></trkpt>
<trkpt lat="46.64538351818919" lon="7.158149164170027"><ele></ele><time>2014-10-30T2:39:35Z</time></trkpt>
<trkpt lat="46.64537890814245" lon="7.158121922984719"><ele></ele><time>2014-10-30T2:39:38Z</time></trkpt>
<trkpt lat="46.64538385346532" lon="7.158104823902249"><ele></ele><time>2014-10-30T2:39:41Z</time></trkpt>
<trkpt lat="46.64538335055113" lon="7.158011365681887"><ele></ele><time>2014-10-30T2:39:44Z</time></trkpt>
<trkpt lat="46.64538309909403" lon="7.157985717058182"><ele></ele><time>2014-10-30T2:39:47Z</time></trkpt>
<trkpt lat="46.645379830151796" lon="7.157959565520287"><ele></ele><time>2014-10-30T2:39:50Z</time></trkpt>
<trkpt lat="46.645381255075336" lon="7.15793676674366"><ele></ele><time>2014-10-30T2:39:53Z</time></trkpt>
<trkpt lat="46.64538209326565" lon="7.157916063442826"><ele></ele><time>2014-10-30T2:39:56Z</time></trkpt>
<trkpt lat="46.64539667777717" lon="7.1578252874314785"><ele></ele><time>2014-10-30T2:39:59Z</time></trkpt>
<trkpt lat="46.64540690369904" lon="7.1577363554388285"><ele></ele><time>2014-10-30T2:40:2Z</time></trkpt>
<trkpt lat="46.6454073227942" lon="7.15771296992898"><ele></ele><time>2014-10-30T2:40:5Z</time></trkpt>
<trkpt lat="46.645411010831594" lon="7.157691931352019"><ele></ele><time>2014-10-30T2:40:8Z</time></trkpt>
<trkpt lat="46.64541805163026" lon="7.157667707651854"><ele></ele><time>2014-10-30T2:40:11Z</time></trkpt>
<trkpt lat="46.645416375249624" lon="7.157647339627147"><ele></ele><time>2014-10-30T2:40:14Z</time></trkpt>
<trkpt lat="46.645424170419574" lon="7.157586989924312"><ele></ele><time>2014-10-30T2:40:17Z</time></trkpt>
<trkpt lat="46.64543582126498" lon="7.1575511153787374"><ele></ele><time>2014-10-30T2:40:20Z</time></trkpt>
<trkpt lat="46.64544998668134" lon="7.157517839223146"><ele></ele><time>2014-10-30T2:40:23Z</time></trkpt>
<trkpt lat="46.645453507080674" lon="7.157500656321645"><ele></ele><time>2014-10-30T2:40:26Z</time></trkpt>
<trkpt lat="46.645455937832594" lon="7.157477857545018"><ele></ele><time>2014-10-30T2:40:29Z</time></trkpt>
<trkpt lat="46.64546029642224" lon="7.157458243891597"><ele></ele><time>2014-10-30T2:40:32Z</time></trkpt>
<trkpt lat="46.64546557702124" lon="7.157439719885588"><ele></ele><time>2014-10-30T2:40:35Z</time></trkpt>
<trkpt lat="46.64546323008835" lon="7.157402420416474"><ele></ele><time>2014-10-30T2:40:38Z</time></trkpt>
<trkpt lat="46.645483346655965" lon="7.157344836741686"><ele></ele><time>2014-10-30T2:40:41Z</time></trkpt>
<trkpt lat="46.64548938162625" lon="7.157327737659216"><ele></ele><time>2014-10-30T2:40:44Z</time></trkpt>
<trkpt lat="46.645496087148786" lon="7.157311728224158"><ele></ele><time>2014-10-30T2:40:47Z</time></trkpt>
<trkpt lat="46.64549541659653" lon="7.157290522009134"><ele></ele><time>2014-10-30T2:40:50Z</time></trkpt>
<trkpt lat="46.645500445738435" lon="7.15727711096406"><ele></ele><time>2014-10-30T2:40:53Z</time></trkpt>
<trkpt lat="46.64550363086164" lon="7.15725808404386"><ele></ele><time>2014-10-30T2:40:56Z</time></trkpt>
<trkpt lat="46.645504804328084" lon="7.157236123457551"><ele></ele><time>2014-10-30T2:40:59Z</time></trkpt>
<trkpt lat="46.64550555869937" lon="7.1572003327310085"><ele></ele><time>2014-10-30T2:41:2Z</time></trkpt>
<trkpt lat="46.64552961476147" lon="7.157173678278923"><ele></ele><time>2014-10-30T2:41:5Z</time></trkpt>
<trkpt lat="46.645541517063975" lon="7.157161021605134"><ele></ele><time>2014-10-30T2:41:8Z</time></trkpt>
<trkpt lat="46.6455540060997" lon="7.157144173979759"><ele></ele><time>2014-10-30T2:41:11Z</time></trkpt>
<trkpt lat="46.645563058555126" lon="7.157124476507306"><ele></ele><time>2014-10-30T2:41:14Z</time></trkpt>
<trkpt lat="46.64557051844895" lon="7.157106203958392"><ele></ele><time>2014-10-30T2:41:17Z</time></trkpt>
<trkpt lat="46.64557244628668" lon="7.157085835933685"><ele></ele><time>2014-10-30T2:41:20Z</time></trkpt>
<trkpt lat="46.645580576732755" lon="7.157069239765406"><ele></ele><time>2014-10-30T2:41:23Z</time></trkpt>
<trkpt lat="46.64562709629536" lon="7.157026743516326"><ele></ele><time>2014-10-30T2:41:26Z</time></trkpt>
<trkpt lat="46.64563992060721" lon="7.157007297500968"><ele></ele><time>2014-10-30T2:41:29Z</time></trkpt>
<trkpt lat="46.64565299637616" lon="7.156995227560401"><ele></ele><time>2014-10-30T2:41:32Z</time></trkpt>
<trkpt lat="46.64565852843225" lon="7.15697854757309"><ele></ele><time>2014-10-30T2:41:35Z</time></trkpt>
<trkpt lat="46.64567168802023" lon="7.156971003860235"><ele></ele><time>2014-10-30T2:41:38Z</time></trkpt>
<trkpt lat="46.64568090811372" lon="7.156952731311321"><ele></ele><time>2014-10-30T2:41:41Z</time></trkpt>
<trkpt lat="46.64569163694978" lon="7.156955664977431"><ele></ele><time>2014-10-30T2:41:44Z</time></trkpt>
<trkpt lat="46.64571217261255" lon="7.156943762674928"><ele></ele><time>2014-10-30T2:41:47Z</time></trkpt>
<trkpt lat="46.64571217261255" lon="7.156943762674928"><ele></ele><time>2014-10-30T2:41:50Z</time></trkpt>
<trkpt lat="46.64571217261255" lon="7.156943762674928"><ele></ele><time>2014-10-30T2:41:53Z</time></trkpt>
<trkpt lat="46.64571217261255" lon="7.156943762674928"><ele></ele><time>2014-10-30T2:41:56Z</time></trkpt>
<trkpt lat="46.64571921341121" lon="7.15694434940815"><ele></ele><time>2014-10-30T2:41:59Z</time></trkpt>
<trkpt lat="46.64573379792273" lon="7.15695122256875"><ele></ele><time>2014-10-30T2:42:2Z</time></trkpt>
<trkpt lat="46.645777970552444" lon="7.1569777093827724"><ele></ele><time>2014-10-30T2:42:5Z</time></trkpt>
<trkpt lat="46.64585256949067" lon="7.156991204246879"><ele></ele><time>2014-10-30T2:42:8Z</time></trkpt>
<trkpt lat="46.645890874788165" lon="7.157002184540033"><ele></ele><time>2014-10-30T2:42:11Z</time></trkpt>
<trkpt lat="46.64592046290636" lon="7.157020708546042"><ele></ele><time>2014-10-30T2:42:14Z</time></trkpt>
<trkpt lat="46.64594577625394" lon="7.157042752951384"><ele></ele><time>2014-10-30T2:42:17Z</time></trkpt>
<trkpt lat="46.645975364372134" lon="7.157060354948044"><ele></ele><time>2014-10-30T2:42:20Z</time></trkpt>
<trkpt lat="46.64606027305126" lon="7.157134115695953"><ele></ele><time>2014-10-30T2:42:23Z</time></trkpt>
<trkpt lat="46.64608818478882" lon="7.157169068232179"><ele></ele><time>2014-10-30T2:42:26Z</time></trkpt>
<trkpt lat="46.6461100615561" lon="7.157189017161727"><ele></ele><time>2014-10-30T2:42:29Z</time></trkpt>
<trkpt lat="46.646120958030224" lon="7.157214414328337"><ele></ele><time>2014-10-30T2:42:32Z</time></trkpt>
<trkpt lat="46.646138643845916" lon="7.157233441248536"><ele></ele><time>2014-10-30T2:42:35Z</time></trkpt>
<trkpt lat="46.646154737100005" lon="7.157250540331006"><ele></ele><time>2014-10-30T2:42:38Z</time></trkpt>
<trkpt lat="46.64623989723623" lon="7.157389177009463"><ele></ele><time>2014-10-30T2:42:41Z</time></trkpt>
<trkpt lat="46.64624576456845" lon="7.157408203929663"><ele></ele><time>2014-10-30T2:42:44Z</time></trkpt>
<trkpt lat="46.646252470090985" lon="7.157421782612801"><ele></ele><time>2014-10-30T2:42:47Z</time></trkpt>
<trkpt lat="46.64626311510801" lon="7.157439300790429"><ele></ele><time>2014-10-30T2:42:50Z</time></trkpt>
<trkpt lat="46.646274430677295" lon="7.157454891130328"><ele></ele><time>2014-10-30T2:42:53Z</time></trkpt>
<trkpt lat="46.646312065422535" lon="7.157524544745684"><ele></ele><time>2014-10-30T2:42:56Z</time></trkpt>
<trkpt lat="46.64634265936911" lon="7.157594533637166"><ele></ele><time>2014-10-30T2:42:59Z</time></trkpt>
<trkpt lat="46.64635439403355" lon="7.157611967995763"><ele></ele><time>2014-10-30T2:43:2Z</time></trkpt>
<trkpt lat="46.64636361412704" lon="7.157628480345011"><ele></ele><time>2014-10-30T2:43:5Z</time></trkpt>
<trkpt lat="46.64637501351535" lon="7.157640215009451"><ele></ele><time>2014-10-30T2:43:8Z</time></trkpt>
<trkpt lat="46.646385826170444" lon="7.157656559720635"><ele></ele><time>2014-10-30T2:43:11Z</time></trkpt>
<trkpt lat="46.6464192699641" lon="7.1577351819723845"><ele></ele><time>2014-10-30T2:43:14Z</time></trkpt>
<trkpt lat="46.646454809233546" lon="7.157834675163031"><ele></ele><time>2014-10-30T2:43:17Z</time></trkpt>
<trkpt lat="46.646463945508" lon="7.157849175855517"><ele></ele><time>2014-10-30T2:43:20Z</time></trkpt>
<trkpt lat="46.6464779432863" lon="7.157863173633814"><ele></ele><time>2014-10-30T2:43:23Z</time></trkpt>
<trkpt lat="46.64649068377912" lon="7.157876081764698"><ele></ele><time>2014-10-30T2:43:26Z</time></trkpt>
<trkpt lat="46.64659277535975" lon="7.157928049564362"><ele></ele><time>2014-10-30T2:43:29Z</time></trkpt>
<trkpt lat="46.64660777896643" lon="7.157927043735981"><ele></ele><time>2014-10-30T2:43:32Z</time></trkpt>
<trkpt lat="46.64662563242018" lon="7.1579301450401545"><ele></ele><time>2014-10-30T2:43:35Z</time></trkpt>
<trkpt lat="46.64663828909397" lon="7.157921427860856"><ele></ele><time>2014-10-30T2:43:38Z</time></trkpt>
<trkpt lat="46.64665195159614" lon="7.157912291586399"><ele></ele><time>2014-10-30T2:43:41Z</time></trkpt>
<trkpt lat="46.64667575620115" lon="7.157886307686567"><ele></ele><time>2014-10-30T2:43:44Z</time></trkpt>
<trkpt lat="46.64676032960415" lon="7.157768709585071"><ele></ele><time>2014-10-30T2:43:47Z</time></trkpt>
<trkpt lat="46.64676385000348" lon="7.1577472519129515"><ele></ele><time>2014-10-30T2:43:50Z</time></trkpt>
<trkpt lat="46.646764520555735" lon="7.157722860574722"><ele></ele><time>2014-10-30T2:43:53Z</time></trkpt>
<trkpt lat="46.64676871150732" lon="7.1577042527496815"><ele></ele><time>2014-10-30T2:43:56Z</time></trkpt>
<trkpt lat="46.64679008536041" lon="7.157632503658533"><ele></ele><time>2014-10-30T2:43:59Z</time></trkpt>
<trkpt lat="46.64681866765022" lon="7.157583050429821"><ele></ele><time>2014-10-30T2:44:2Z</time></trkpt>
<trkpt lat="46.64683165960014" lon="7.157565951347351"><ele></ele><time>2014-10-30T2:44:5Z</time></trkpt>
<trkpt lat="46.64684138260782" lon="7.157549690455198"><ele></ele><time>2014-10-30T2:44:8Z</time></trkpt>
<trkpt lat="46.64684800431132" lon="7.157526975497603"><ele></ele><time>2014-10-30T2:44:11Z</time></trkpt>
<trkpt lat="46.646857894957066" lon="7.1575081162154675"><ele></ele><time>2014-10-30T2:44:14Z</time></trkpt>
<trkpt lat="46.646901397034526" lon="7.157417004927993"><ele></ele><time>2014-10-30T2:44:17Z</time></trkpt>
<trkpt lat="46.64691866375506" lon="7.157386159524322"><ele></ele><time>2014-10-30T2:44:20Z</time></trkpt>
<trkpt lat="46.64692562073469" lon="7.157367132604122"><ele></ele><time>2014-10-30T2:44:23Z</time></trkpt>
<trkpt lat="46.64693517610431" lon="7.15734844096005"><ele></ele><time>2014-10-30T2:44:26Z</time></trkpt>
<trkpt lat="46.64693861268461" lon="7.157327653840184"><ele></ele><time>2014-10-30T2:44:29Z</time></trkpt>
<trkpt lat="46.64694607257843" lon="7.15730887837708"><ele></ele><time>2014-10-30T2:44:32Z</time></trkpt>
<trkpt lat="46.64695202372968" lon="7.157289599999785"><ele></ele><time>2014-10-30T2:44:35Z</time></trkpt>
<trkpt lat="46.64697834290564" lon="7.157227993011475"><ele></ele><time>2014-10-30T2:44:38Z</time></trkpt>
<trkpt lat="46.64699485525489" lon="7.157162446528673"><ele></ele><time>2014-10-30T2:44:41Z</time></trkpt>
<trkpt lat="46.64700239896774" lon="7.15714911930263"><ele></ele><time>2014-10-30T2:44:44Z</time></trkpt>
<trkpt lat="46.647012708708644" lon="7.157139396294951"><ele></ele><time>2014-10-30T2:44:47Z</time></trkpt>
<trkpt lat="46.647022515535355" lon="7.157123554497957"><ele></ele><time>2014-10-30T2:44:50Z</time></trkpt>
<trkpt lat="46.64702972397208" lon="7.157102432101965"><ele></ele><time>2014-10-30T2:44:53Z</time></trkpt>
<trkpt lat="46.64705931209028" lon="7.157068569213152"><ele></ele><time>2014-10-30T2:44:56Z</time></trkpt>
<trkpt lat="46.64710633456707" lon="7.1569886058568954"><ele></ele><time>2014-10-30T2:44:59Z</time></trkpt>
<trkpt lat="46.64711563847959" lon="7.156974859535694"><ele></ele><time>2014-10-30T2:45:2Z</time></trkpt>
<trkpt lat="46.64712133817375" lon="7.156966142356396"><ele></ele><time>2014-10-30T2:45:5Z</time></trkpt>
<trkpt lat="46.647127037867904" lon="7.156953820958734"><ele></ele><time>2014-10-30T2:45:8Z</time></trkpt>
<trkpt lat="46.64712552912533" lon="7.156953318044543"><ele></ele><time>2014-10-30T2:45:11Z</time></trkpt>
<trkpt lat="46.647129552438855" lon="7.156941080465913"><ele></ele><time>2014-10-30T2:45:14Z</time></trkpt>
<trkpt lat="46.64714296348393" lon="7.1569394040852785"><ele></ele><time>2014-10-30T2:45:17Z</time></trkpt>
<trkpt lat="46.64714732207358" lon="7.156940409913659"><ele></ele><time>2014-10-30T2:45:20Z</time></trkpt>
<trkpt lat="46.64716743864119" lon="7.15694242157042"><ele></ele><time>2014-10-30T2:45:23Z</time></trkpt>
<trkpt lat="46.647301549091935" lon="7.156956838443875"><ele></ele><time>2014-10-30T2:45:26Z</time></trkpt>
<trkpt lat="46.64734329096973" lon="7.156968656927347"><ele></ele><time>2014-10-30T2:45:29Z</time></trkpt>
<trkpt lat="46.64746826514602" lon="7.1570430882275105"><ele></ele><time>2014-10-30T2:45:32Z</time></trkpt>
<trkpt lat="46.64748209528625" lon="7.157059768214822"><ele></ele><time>2014-10-30T2:45:35Z</time></trkpt>
<trkpt lat="46.64749961346388" lon="7.157078208401799"><ele></ele><time>2014-10-30T2:45:38Z</time></trkpt>
<trkpt lat="46.647512605413795" lon="7.1570987440645695"><ele></ele><time>2014-10-30T2:45:41Z</time></trkpt>
<trkpt lat="46.64752744138241" lon="7.1571137476712465"><ele></ele><time>2014-10-30T2:45:44Z</time></trkpt>
<trkpt lat="46.647576140239835" lon="7.15713931247592"><ele></ele><time>2014-10-30T2:45:47Z</time></trkpt>
<trkpt lat="46.64762433618307" lon="7.157159261405468"><ele></ele><time>2014-10-30T2:45:50Z</time></trkpt>
<trkpt lat="46.64763020351529" lon="7.157153058797121"><ele></ele><time>2014-10-30T2:45:53Z</time></trkpt>
<trkpt lat="46.647640177980065" lon="7.157149706035852"><ele></ele><time>2014-10-30T2:45:56Z</time></trkpt>
<trkpt lat="46.64764394983649" lon="7.15713931247592"><ele></ele><time>2014-10-30T2:45:59Z</time></trkpt>
<trkpt lat="46.6476315446198" lon="7.15710511431098"><ele></ele><time>2014-10-30T2:46:2Z</time></trkpt>
<trkpt lat="46.647620648145676" lon="7.1570925414562225"><ele></ele><time>2014-10-30T2:46:5Z</time></trkpt>
<trkpt lat="46.64757823571563" lon="7.157030263915658"><ele></ele><time>2014-10-30T2:46:8Z</time></trkpt>
<trkpt lat="46.647554095834494" lon="7.1570053696632385"><ele></ele><time>2014-10-30T2:46:11Z</time></trkpt>
<trkpt lat="46.64755233563483" lon="7.156995143741369"><ele></ele><time>2014-10-30T2:46:14Z</time></trkpt>
<trkpt lat="46.64754210971296" lon="7.156987683847547"><ele></ele><time>2014-10-30T2:46:17Z</time></trkpt>
<trkpt lat="46.64753473363817" lon="7.1569818165153265"><ele></ele><time>2014-10-30T2:46:20Z</time></trkpt>
<trkpt lat="46.64752459153533" lon="7.156976284459233"><ele></ele><time>2014-10-30T2:46:23Z</time></trkpt>
<trkpt lat="46.647695414721966" lon="7.156986594200134"><ele></ele><time>2014-10-30T2:46:26Z</time></trkpt>
<trkpt lat="46.6477610450238" lon="7.156986342743039"><ele></ele><time>2014-10-30T2:46:29Z</time></trkpt>
<trkpt lat="46.64778116159141" lon="7.156988689675927"><ele></ele><time>2014-10-30T2:46:32Z</time></trkpt>
<trkpt lat="46.64780555292964" lon="7.156992796808481"><ele></ele><time>2014-10-30T2:46:35Z</time></trkpt>
<trkpt lat="46.64782449603081" lon="7.15699958615005"><ele></ele><time>2014-10-30T2:46:38Z</time></trkpt>
<trkpt lat="46.6478474624455" lon="7.157004028558731"><ele></ele><time>2014-10-30T2:46:41Z</time></trkpt>
<trkpt lat="46.64818659424782" lon="7.157087009400129"><ele></ele><time>2014-10-30T2:46:44Z</time></trkpt>
<trkpt lat="46.64836253039539" lon="7.15715104714036"><ele></ele><time>2014-10-30T2:46:47Z</time></trkpt>
<trkpt lat="46.64847350679338" lon="7.157229082658887"><ele></ele><time>2014-10-30T2:46:50Z</time></trkpt>
<trkpt lat="46.64849898777902" lon="7.157249702140689"><ele></ele><time>2014-10-30T2:46:53Z</time></trkpt>
<trkpt lat="46.648514745756984" lon="7.157273590564728"><ele></ele><time>2014-10-30T2:46:56Z</time></trkpt>
<trkpt lat="46.648531425744295" lon="7.15730351395905"><ele></ele><time>2014-10-30T2:46:59Z</time></trkpt>
<trkpt lat="46.64854475297034" lon="7.1573349460959435"><ele></ele><time>2014-10-30T2:47:2Z</time></trkpt>
<trkpt lat="46.648632008582354" lon="7.157501745969057"><ele></ele><time>2014-10-30T2:47:5Z</time></trkpt>
<trkpt lat="46.648722449317575" lon="7.157715316861868"><ele></ele><time>2014-10-30T2:47:8Z</time></trkpt>
<trkpt lat="46.648875838145614" lon="7.157935844734311"><ele></ele><time>2014-10-30T2:47:11Z</time></trkpt>
<trkpt lat="46.64898907765746" lon="7.158066350966692"><ele></ele><time>2014-10-30T2:47:14Z</time></trkpt>
<trkpt lat="46.6490597371012" lon="7.1581412851810455"><ele></ele><time>2014-10-30T2:47:17Z</time></trkpt>
<trkpt lat="46.64908471517265" lon="7.158170286566019"><ele></ele><time>2014-10-30T2:47:20Z</time></trkpt>
<trkpt lat="46.64911078289151" lon="7.1581916604191065"><ele></ele><time>2014-10-30T2:47:23Z</time></trkpt>
<trkpt lat="46.649133414030075" lon="7.158213201910257"><ele></ele><time>2014-10-30T2:47:26Z</time></trkpt>
<trkpt lat="46.649156799539924" lon="7.158234240487218"><ele></ele><time>2014-10-30T2:47:29Z</time></trkpt>
<trkpt lat="46.649179346859455" lon="7.158265504986048"><ele></ele><time>2014-10-30T2:47:32Z</time></trkpt>
<trkpt lat="46.64922100491822" lon="7.158305402845144"><ele></ele><time>2014-10-30T2:47:35Z</time></trkpt>
<trkpt lat="46.649381602182984" lon="7.158385282382369"><ele></ele><time>2014-10-30T2:47:38Z</time></trkpt>
<trkpt lat="46.64941068738699" lon="7.158395508304238"><ele></ele><time>2014-10-30T2:47:41Z</time></trkpt>
<trkpt lat="46.64942828938365" lon="7.158400537446141"><ele></ele><time>2014-10-30T2:47:44Z</time></trkpt>
<trkpt lat="46.64945628494024" lon="7.158413948491216"><ele></ele><time>2014-10-30T2:47:47Z</time></trkpt>
<trkpt lat="46.64948218502104" lon="7.158419732004404"><ele></ele><time>2014-10-30T2:47:50Z</time></trkpt>
<trkpt lat="46.649509677663445" lon="7.158434819430113"><ele></ele><time>2014-10-30T2:47:53Z</time></trkpt>
<trkpt lat="46.64966239593923" lon="7.158604972064495"><ele></ele><time>2014-10-30T2:47:56Z</time></trkpt>
<trkpt lat="46.649765660986304" lon="7.15878551825881"><ele></ele><time>2014-10-30T2:47:59Z</time></trkpt>
<trkpt lat="46.64979415945709" lon="7.158814771100879"><ele></ele><time>2014-10-30T2:48:2Z</time></trkpt>
<trkpt lat="46.64982215501368" lon="7.158840503543615"><ele></ele><time>2014-10-30T2:48:5Z</time></trkpt>
<trkpt lat="46.649851659312844" lon="7.158866403624415"><ele></ele><time>2014-10-30T2:48:8Z</time></trkpt>
<trkpt lat="46.649879571050406" lon="7.15889398008585"><ele></ele><time>2014-10-30T2:48:11Z</time></trkpt>
<trkpt lat="46.65001887828112" lon="7.158997161313891"><ele></ele><time>2014-10-30T2:48:14Z</time></trkpt>
<trkpt lat="46.6502183675766" lon="7.159177456051111"><ele></ele><time>2014-10-30T2:48:17Z</time></trkpt>
<trkpt lat="46.65030486881733" lon="7.15924627147615"><ele></ele><time>2014-10-30T2:48:20Z</time></trkpt>
<trkpt lat="46.6503185313195" lon="7.159248115494847"><ele></ele><time>2014-10-30T2:48:23Z</time></trkpt>
<trkpt lat="46.650332026183605" lon="7.159248199313879"><ele></ele><time>2014-10-30T2:48:26Z</time></trkpt>
<trkpt lat="46.650347700342536" lon="7.1592542342841625"><ele></ele><time>2014-10-30T2:48:29Z</time></trkpt>
<trkpt lat="46.65036253631115" lon="7.159260101616383"><ele></ele><time>2014-10-30T2:48:32Z</time></trkpt>
<trkpt lat="46.65037980303168" lon="7.159274099394679"><ele></ele><time>2014-10-30T2:48:35Z</time></trkpt>
<trkpt lat="46.65048868395388" lon="7.159335874021053"><ele></ele><time>2014-10-30T2:48:38Z</time></trkpt>
<trkpt lat="46.65057267062366" lon="7.159352973103523"><ele></ele><time>2014-10-30T2:48:41Z</time></trkpt>
<trkpt lat="46.65063612163067" lon="7.159367809072137"><ele></ele><time>2014-10-30T2:48:44Z</time></trkpt>
<trkpt lat="46.65067174471915" lon="7.159405946731567"><ele></ele><time>2014-10-30T2:48:47Z</time></trkpt>
<trkpt lat="46.650750786066055" lon="7.159431511536241"><ele></ele><time>2014-10-30T2:48:50Z</time></trkpt>
<trkpt lat="46.650820188224316" lon="7.159452131018043"><ele></ele><time>2014-10-30T2:48:53Z</time></trkpt>
<trkpt lat="46.65087651461363" lon="7.159462943673134"><ele></ele><time>2014-10-30T2:48:56Z</time></trkpt>
<trkpt lat="46.650906605646014" lon="7.1594542264938354"><ele></ele><time>2014-10-30T2:48:59Z</time></trkpt>
<trkpt lat="46.65096888318658" lon="7.1594818867743015"><ele></ele><time>2014-10-30T2:49:2Z</time></trkpt>
<trkpt lat="46.65101154707372" lon="7.159517845138907"><ele></ele><time>2014-10-30T2:49:5Z</time></trkpt>
<trkpt lat="46.651030825451016" lon="7.159599736332893"><ele></ele><time>2014-10-30T2:49:8Z</time></trkpt>
<trkpt lat="46.65105538442731" lon="7.1596921887248755"><ele></ele><time>2014-10-30T2:49:11Z</time></trkpt>
<trkpt lat="46.651068376377225" lon="7.1597369480878115"><ele></ele><time>2014-10-30T2:49:14Z</time></trkpt>
<trkpt lat="46.65107097476721" lon="7.159783132374287"><ele></ele><time>2014-10-30T2:49:17Z</time></trkpt>
<trkpt lat="46.651081033051014" lon="7.159824790433049"><ele></ele><time>2014-10-30T2:49:20Z</time></trkpt>
<trkpt lat="46.65109436027706" lon="7.159867202863097"><ele></ele><time>2014-10-30T2:49:23Z</time></trkpt>
<trkpt lat="46.65109637193382" lon="7.159911124035716"><ele></ele><time>2014-10-30T2:49:26Z</time></trkpt>
<trkpt lat="46.65112889371812" lon="7.160126622766256"><ele></ele><time>2014-10-30T2:49:29Z</time></trkpt>
<trkpt lat="46.65114381350577" lon="7.1601722203195095"><ele></ele><time>2014-10-30T2:49:32Z</time></trkpt>
<trkpt lat="46.651166612282395" lon="7.16035301797092"><ele></ele><time>2014-10-30T2:49:35Z</time></trkpt>
<trkpt lat="46.6511785145849" lon="7.160394005477428"><ele></ele><time>2014-10-30T2:49:38Z</time></trkpt>
<trkpt lat="46.651182202622294" lon="7.16044781729579"><ele></ele><time>2014-10-30T2:49:41Z</time></trkpt>
<trkpt lat="46.65120491757989" lon="7.160499952733517"><ele></ele><time>2014-10-30T2:49:44Z</time></trkpt>
<trkpt lat="46.65120843797922" lon="7.160554938018322"><ele></ele><time>2014-10-30T2:49:47Z</time></trkpt>
<trkpt lat="46.65123576298356" lon="7.1606596279889345"><ele></ele><time>2014-10-30T2:49:50Z</time></trkpt>
<trkpt lat="46.65126853622496" lon="7.160958359017968"><ele></ele><time>2014-10-30T2:49:53Z</time></trkpt>
<trkpt lat="46.65128504857421" lon="7.161005297675729"><ele></ele><time>2014-10-30T2:49:56Z</time></trkpt>
<trkpt lat="46.65130105800927" lon="7.161045866087079"><ele></ele><time>2014-10-30T2:49:59Z</time></trkpt>
<trkpt lat="46.65131840854883" lon="7.161088110879064"><ele></ele><time>2014-10-30T2:50:2Z</time></trkpt>
<trkpt lat="46.65134321898222" lon="7.16111971065402"><ele></ele><time>2014-10-30T2:50:5Z</time></trkpt>
<trkpt lat="46.651486633345485" lon="7.16129070147872"><ele></ele><time>2014-10-30T2:50:8Z</time></trkpt>
<trkpt lat="46.651519825682044" lon="7.161495722830296"><ele></ele><time>2014-10-30T2:50:11Z</time></trkpt>
<trkpt lat="46.651479844003916" lon="7.161663360893726"><ele></ele><time>2014-10-30T2:50:14Z</time></trkpt>
<trkpt lat="46.65144237689674" lon="7.161906268447638"><ele></ele><time>2014-10-30T2:50:17Z</time></trkpt>
<trkpt lat="46.65145763196051" lon="7.161986231803894"><ele></ele><time>2014-10-30T2:50:20Z</time></trkpt>
<trkpt lat="46.651483196765184" lon="7.162029650062323"><ele></ele><time>2014-10-30T2:50:23Z</time></trkpt>
<trkpt lat="46.65151563473046" lon="7.162063177675009"><ele></ele><time>2014-10-30T2:50:26Z</time></trkpt>
<trkpt lat="46.65153617039323" lon="7.162113301455975"><ele></ele><time>2014-10-30T2:50:29Z</time></trkpt>
<trkpt lat="46.65153541602194" lon="7.162178009748459"><ele></ele><time>2014-10-30T2:50:32Z</time></trkpt>
<trkpt lat="46.6515271179378" lon="7.162255961447954"><ele></ele><time>2014-10-30T2:50:35Z</time></trkpt>
<trkpt lat="46.651469534263015" lon="7.162384539842606"><ele></ele><time>2014-10-30T2:50:38Z</time></trkpt>
<trkpt lat="46.65144187398255" lon="7.1624652575701475"><ele></ele><time>2014-10-30T2:50:41Z</time></trkpt>
<trkpt lat="46.651435336098075" lon="7.162545807659626"><ele></ele><time>2014-10-30T2:50:44Z</time></trkpt>
<trkpt lat="46.651427038013935" lon="7.162589058279991"><ele></ele><time>2014-10-30T2:50:47Z</time></trkpt>
<trkpt lat="46.65143550373614" lon="7.162710092961788"><ele></ele><time>2014-10-30T2:50:50Z</time></trkpt>
<trkpt lat="46.651449082419276" lon="7.162738423794508"><ele></ele><time>2014-10-30T2:50:53Z</time></trkpt>
<trkpt lat="46.65145176462829" lon="7.1627851109951735"><ele></ele><time>2014-10-30T2:50:56Z</time></trkpt>
<trkpt lat="46.651462744921446" lon="7.162832301110029"><ele></ele><time>2014-10-30T2:50:59Z</time></trkpt>
<trkpt lat="46.65146961808205" lon="7.162866331636906"><ele></ele><time>2014-10-30T2:51:2Z</time></trkpt>
<trkpt lat="46.65148395113647" lon="7.162930117920041"><ele></ele><time>2014-10-30T2:51:5Z</time></trkpt>
<trkpt lat="46.65154807269573" lon="7.163148885592818"><ele></ele><time>2014-10-30T2:51:8Z</time></trkpt>
<trkpt lat="46.65156324394047" lon="7.163185263052583"><ele></ele><time>2014-10-30T2:51:11Z</time></trkpt>
<trkpt lat="46.65157816372812" lon="7.163222227245569"><ele></ele><time>2014-10-30T2:51:14Z</time></trkpt>
<trkpt lat="46.651594676077366" lon="7.163251144811511"><ele></ele><time>2014-10-30T2:51:17Z</time></trkpt>
<trkpt lat="46.651602890342474" lon="7.163278134539723"><ele></ele><time>2014-10-30T2:51:20Z</time></trkpt>
<trkpt lat="46.651624431833625" lon="7.163325911387801"><ele></ele><time>2014-10-30T2:51:23Z</time></trkpt>
<trkpt lat="46.65165586397052" lon="7.163350805640221"><ele></ele><time>2014-10-30T2:51:26Z</time></trkpt>
<trkpt lat="46.65167992003262" lon="7.163388188928366"><ele></ele><time>2014-10-30T2:51:29Z</time></trkpt>
<trkpt lat="46.651705987751484" lon="7.163400761783123"><ele></ele><time>2014-10-30T2:51:32Z</time></trkpt>
<trkpt lat="46.65173130109906" lon="7.16340989805758"><ele></ele><time>2014-10-30T2:51:35Z</time></trkpt>
<trkpt lat="46.651758877560496" lon="7.163413166999817"><ele></ele><time>2014-10-30T2:51:38Z</time></trkpt>
<trkpt lat="46.651770025491714" lon="7.163404868915677"><ele></ele><time>2014-10-30T2:51:41Z</time></trkpt>
<trkpt lat="46.65178393945098" lon="7.1633964870125055"><ele></ele><time>2014-10-30T2:51:44Z</time></trkpt>
<trkpt lat="46.651841439306736" lon="7.163423225283623"><ele></ele><time>2014-10-30T2:51:47Z</time></trkpt>
<trkpt lat="46.65185619145632" lon="7.163426578044891"><ele></ele><time>2014-10-30T2:51:50Z</time></trkpt>
<trkpt lat="46.651889216154814" lon="7.16343873180449"><ele></ele><time>2014-10-30T2:51:53Z</time></trkpt>
<trkpt lat="46.651919055730104" lon="7.163459938019514"><ele></ele><time>2014-10-30T2:51:56Z</time></trkpt>
<trkpt lat="46.65195560082793" lon="7.16347879730165"><ele></ele><time>2014-10-30T2:51:59Z</time></trkpt>
<trkpt lat="46.651970939710736" lon="7.163500674068928"><ele></ele><time>2014-10-30T2:52:2Z</time></trkpt>
<trkpt lat="46.65202911011875" lon="7.163571584969759"><ele></ele><time>2014-10-30T2:52:5Z</time></trkpt>
<trkpt lat="46.652138996869326" lon="7.163617266342044"><ele></ele><time>2014-10-30T2:52:8Z</time></trkpt>
<trkpt lat="46.65219490416348" lon="7.163647441193461"><ele></ele><time>2014-10-30T2:52:11Z</time></trkpt>
<trkpt lat="46.65226380340755" lon="7.163657583296299"><ele></ele><time>2014-10-30T2:52:14Z</time></trkpt>
<trkpt lat="46.6522959060967" lon="7.163655823096633"><ele></ele><time>2014-10-30T2:52:17Z</time></trkpt>
<trkpt lat="46.65232197381556" lon="7.163656409829855"><ele></ele><time>2014-10-30T2:52:20Z</time></trkpt>
<trkpt lat="46.6523474548012" lon="7.163656326010823"><ele></ele><time>2014-10-30T2:52:23Z</time></trkpt>
<trkpt lat="46.65237536653876" lon="7.1636642049998045"><ele></ele><time>2014-10-30T2:52:26Z</time></trkpt>
<trkpt lat="46.65246228687465" lon="7.163690272718668"><ele></ele><time>2014-10-30T2:52:29Z</time></trkpt>
<trkpt lat="46.65255499072373" lon="7.163765542209148"><ele></ele><time>2014-10-30T2:52:32Z</time></trkpt>
<trkpt lat="46.652581142261624" lon="7.163780797272921"><ele></ele><time>2014-10-30T2:52:35Z</time></trkpt>
<trkpt lat="46.652596313506365" lon="7.163798483088613"><ele></ele><time>2014-10-30T2:52:38Z</time></trkpt>
<trkpt lat="46.65261232294142" lon="7.1638167556375265"><ele></ele><time>2014-10-30T2:52:41Z</time></trkpt>
<trkpt lat="46.65269136428833" lon="7.163893533870578"><ele></ele><time>2014-10-30T2:52:44Z</time></trkpt>
<trkpt lat="46.65275749750435" lon="7.163933180272579"><ele></ele><time>2014-10-30T2:52:47Z</time></trkpt>
<trkpt lat="46.652778116986156" lon="7.16395128518343"><ele></ele><time>2014-10-30T2:52:50Z</time></trkpt>
<trkpt lat="46.652795132249594" lon="7.163958325982094"><ele></ele><time>2014-10-30T2:52:53Z</time></trkpt>
<trkpt lat="46.6528205294162" lon="7.163978107273579"><ele></ele><time>2014-10-30T2:52:56Z</time></trkpt>
<trkpt lat="46.65284022688866" lon="7.164004258811474"><ele></ele><time>2014-10-30T2:52:59Z</time></trkpt>
<trkpt lat="46.65285900235176" lon="7.1640214417129755"><ele></ele><time>2014-10-30T2:53:2Z</time></trkpt>
<trkpt lat="46.65287425741553" lon="7.164037199690938"><ele></ele><time>2014-10-30T2:53:5Z</time></trkpt>
<trkpt lat="46.652970062568784" lon="7.16418924741447"><ele></ele><time>2014-10-30T2:53:8Z</time></trkpt>
<trkpt lat="46.65302119217813" lon="7.16426644474268"><ele></ele><time>2014-10-30T2:53:11Z</time></trkpt>
<trkpt lat="46.653035106137395" lon="7.164294607937336"><ele></ele><time>2014-10-30T2:53:14Z</time></trkpt>
<trkpt lat="46.65305153466761" lon="7.164320843294263"><ele></ele><time>2014-10-30T2:53:17Z</time></trkpt>
<trkpt lat="46.65306477807462" lon="7.1643454022705555"><ele></ele><time>2014-10-30T2:53:20Z</time></trkpt>
<trkpt lat="46.65307684801519" lon="7.164377840235829"><ele></ele><time>2014-10-30T2:53:23Z</time></trkpt>
<trkpt lat="46.65309486910701" lon="7.1644016448408365"><ele></ele><time>2014-10-30T2:53:26Z</time></trkpt>
<trkpt lat="46.65309629403055" lon="7.164439866319299"><ele></ele><time>2014-10-30T2:53:29Z</time></trkpt>
<trkpt lat="46.65312881581485" lon="7.164471717551351"><ele></ele><time>2014-10-30T2:53:32Z</time></trkpt>
<trkpt lat="46.653165109455585" lon="7.164506670087576"><ele></ele><time>2014-10-30T2:53:35Z</time></trkpt>
<trkpt lat="46.653217915445566" lon="7.1645438857376575"><ele></ele><time>2014-10-30T2:53:38Z</time></trkpt>
<trkpt lat="46.65322017855942" lon="7.164554446935654"><ele></ele><time>2014-10-30T2:53:41Z</time></trkpt>
<trkpt lat="46.65322738699615" lon="7.164567690342665"><ele></ele><time>2014-10-30T2:53:44Z</time></trkpt>
<trkpt lat="46.65324532426894" lon="7.1645810175687075"><ele></ele><time>2014-10-30T2:53:47Z</time></trkpt>
<trkpt lat="46.65326418355107" lon="7.164589818567038"><ele></ele><time>2014-10-30T2:53:50Z</time></trkpt>
<trkpt lat="46.65327885188162" lon="7.164603061974049"><ele></ele><time>2014-10-30T2:53:53Z</time></trkpt>
<trkpt lat="46.65334188379347" lon="7.164629464969039"><ele></ele><time>2014-10-30T2:53:56Z</time></trkpt>
<trkpt lat="46.65338823571801" lon="7.164667183533311"><ele></ele><time>2014-10-30T2:53:59Z</time></trkpt>
<trkpt lat="46.653397204354405" lon="7.164661819115281"><ele></ele><time>2014-10-30T2:54:2Z</time></trkpt>
<trkpt lat="46.653397204354405" lon="7.164661819115281"><ele></ele><time>2014-10-30T2:54:5Z</time></trkpt>
<trkpt lat="46.653397204354405" lon="7.164661819115281"><ele></ele><time>2014-10-30T2:54:8Z</time></trkpt>
<trkpt lat="46.65342293679714" lon="7.164670955389738"><ele></ele><time>2014-10-30T2:54:11Z</time></trkpt>
<trkpt lat="46.653489572927356" lon="7.164691993966699"><ele></ele><time>2014-10-30T2:54:14Z</time></trkpt>
<trkpt lat="46.653551599010825" lon="7.164681097492576"><ele></ele><time>2014-10-30T2:54:17Z</time></trkpt>
<trkpt lat="46.653587808832526" lon="7.164626782760024"><ele></ele><time>2014-10-30T2:54:20Z</time></trkpt>
<trkpt lat="46.6536012198776" lon="7.164615718647838"><ele></ele><time>2014-10-30T2:54:23Z</time></trkpt>
<trkpt lat="46.65361873805523" lon="7.164612114429474"><ele></ele><time>2014-10-30T2:54:26Z</time></trkpt>
<trkpt lat="46.653632735833526" lon="7.164597613736987"><ele></ele><time>2014-10-30T2:54:29Z</time></trkpt>
<trkpt lat="46.6536564566195" lon="7.164565846323967"><ele></ele><time>2014-10-30T2:54:32Z</time></trkpt>
<trkpt lat="46.65370314382017" lon="7.164546148851514"><ele></ele><time>2014-10-30T2:54:35Z</time></trkpt>
<trkpt lat="46.65373667143285" lon="7.164514716714621"><ele></ele><time>2014-10-30T2:54:38Z</time></trkpt>
<trkpt lat="46.653748489916325" lon="7.1644216775894165"><ele></ele><time>2014-10-30T2:54:41Z</time></trkpt>
<trkpt lat="46.65374354459345" lon="7.164410278201103"><ele></ele><time>2014-10-30T2:54:44Z</time></trkpt>
<trkpt lat="46.653747064992785" lon="7.164393346756697"><ele></ele><time>2014-10-30T2:54:47Z</time></trkpt>
<trkpt lat="46.65374086238444" lon="7.164373649284244"><ele></ele><time>2014-10-30T2:54:50Z</time></trkpt>
<trkpt lat="46.65373122319579" lon="7.164353281259537"><ele></ele><time>2014-10-30T2:54:53Z</time></trkpt>
<trkpt lat="46.65372275747359" lon="7.164328219369054"><ele></ele><time>2014-10-30T2:54:56Z</time></trkpt>
<trkpt lat="46.65371730923653" lon="7.16430215165019"><ele></ele><time>2014-10-30T2:54:59Z</time></trkpt>
<trkpt lat="46.65370071306825" lon="7.164268288761377"><ele></ele><time>2014-10-30T2:55:2Z</time></trkpt>
<trkpt lat="46.6536926664412" lon="7.1642520278692245"><ele></ele><time>2014-10-30T2:55:5Z</time></trkpt>
<trkpt lat="46.65368956513703" lon="7.1642346773296595"><ele></ele><time>2014-10-30T2:55:8Z</time></trkpt>
<trkpt lat="46.65368135087192" lon="7.164212465286255"><ele></ele><time>2014-10-30T2:55:11Z</time></trkpt>
<trkpt lat="46.653679171577096" lon="7.164191426709294"><ele></ele><time>2014-10-30T2:55:14Z</time></trkpt>
<trkpt lat="46.65367539972067" lon="7.164168208837509"><ele></ele><time>2014-10-30T2:55:17Z</time></trkpt>
<trkpt lat="46.6536083444953" lon="7.16400895267725"><ele></ele><time>2014-10-30T2:55:20Z</time></trkpt>
<trkpt lat="46.65360205806792" lon="7.163986824452877"><ele></ele><time>2014-10-30T2:55:23Z</time></trkpt>
<trkpt lat="46.65359292179346" lon="7.1639683842659"><ele></ele><time>2014-10-30T2:55:26Z</time></trkpt>
<trkpt lat="46.653589066118" lon="7.1639475133270025"><ele></ele><time>2014-10-30T2:55:29Z</time></trkpt>
<trkpt lat="46.653575487434864" lon="7.163927648216486"><ele></ele><time>2014-10-30T2:55:32Z</time></trkpt>
<trkpt lat="46.653549419716" lon="7.163891103118658"><ele></ele><time>2014-10-30T2:55:35Z</time></trkpt>
<trkpt lat="46.65350575000048" lon="7.163707539439201"><ele></ele><time>2014-10-30T2:55:38Z</time></trkpt>
<trkpt lat="46.65348529815674" lon="7.1636459324508905"><ele></ele><time>2014-10-30T2:55:41Z</time></trkpt>
<trkpt lat="46.65347984991968" lon="7.163619697093964"><ele></ele><time>2014-10-30T2:55:44Z</time></trkpt>
<trkpt lat="46.653476832434535" lon="7.163590444251895"><ele></ele><time>2014-10-30T2:55:47Z</time></trkpt>
<trkpt lat="46.65346082299948" lon="7.16355306096375"><ele></ele><time>2014-10-30T2:55:50Z</time></trkpt>
<trkpt lat="46.6534508485347" lon="7.163515007123351"><ele></ele><time>2014-10-30T2:55:53Z</time></trkpt>
<trkpt lat="46.6534407902509" lon="7.163494136184454"><ele></ele><time>2014-10-30T2:55:56Z</time></trkpt>
<trkpt lat="46.65341614745557" lon="7.163461027666926"><ele></ele><time>2014-10-30T2:55:59Z</time></trkpt>
<trkpt lat="46.653419667854905" lon="7.163430852815509"><ele></ele><time>2014-10-30T2:56:2Z</time></trkpt>
<trkpt lat="46.65342050604522" lon="7.163430098444223"><ele></ele><time>2014-10-30T2:56:5Z</time></trkpt>
<trkpt lat="46.65340525098145" lon="7.163378801196814"><ele></ele><time>2014-10-30T2:56:8Z</time></trkpt>
<trkpt lat="46.65339024737477" lon="7.163247372955084"><ele></ele><time>2014-10-30T2:56:11Z</time></trkpt>
<trkpt lat="46.653389325365424" lon="7.1632221434265375"><ele></ele><time>2014-10-30T2:56:14Z</time></trkpt>
<trkpt lat="46.653398126363754" lon="7.163076801225543"><ele></ele><time>2014-10-30T2:56:17Z</time></trkpt>
<trkpt lat="46.65339167229831" lon="7.1629974246025085"><ele></ele><time>2014-10-30T2:56:20Z</time></trkpt>
<trkpt lat="46.6534043289721" lon="7.162935063242912"><ele></ele><time>2014-10-30T2:56:23Z</time></trkpt>
<trkpt lat="46.65340877138078" lon="7.1628861129283905"><ele></ele><time>2014-10-30T2:56:26Z</time></trkpt>
<trkpt lat="46.653446070849895" lon="7.162817465141416"><ele></ele><time>2014-10-30T2:56:29Z</time></trkpt>
<trkpt lat="46.6534423828125" lon="7.162765497341752"><ele></ele><time>2014-10-30T2:56:32Z</time></trkpt>
<trkpt lat="46.653490578755736" lon="7.162635242566466"><ele></ele><time>2014-10-30T2:56:35Z</time></trkpt>
<trkpt lat="46.653693253174424" lon="7.16250347904861"><ele></ele><time>2014-10-30T2:56:38Z</time></trkpt>
<trkpt lat="46.653726026415825" lon="7.162469699978828"><ele></ele><time>2014-10-30T2:56:41Z</time></trkpt>
<trkpt lat="46.65376332588494" lon="7.162347408011556"><ele></ele><time>2014-10-30T2:56:44Z</time></trkpt>
<trkpt lat="46.65376542136073" lon="7.162317065522075"><ele></ele><time>2014-10-30T2:56:47Z</time></trkpt>
<trkpt lat="46.653758212924004" lon="7.162292506545782"><ele></ele><time>2014-10-30T2:56:50Z</time></trkpt>
<trkpt lat="46.653758799657226" lon="7.16225721873343"><ele></ele><time>2014-10-30T2:56:53Z</time></trkpt>
<trkpt lat="46.653765588998795" lon="7.162227127701044"><ele></ele><time>2014-10-30T2:56:56Z</time></trkpt>
<trkpt lat="46.65377028286457" lon="7.162204831838608"><ele></ele><time>2014-10-30T2:56:59Z</time></trkpt>
<trkpt lat="46.653823759406805" lon="7.162164514884353"><ele></ele><time>2014-10-30T2:57:2Z</time></trkpt>
<trkpt lat="46.65385913103819" lon="7.1621251199394464"><ele></ele><time>2014-10-30T2:57:5Z</time></trkpt>
<trkpt lat="46.65394973941147" lon="7.1620494313538074"><ele></ele><time>2014-10-30T2:57:8Z</time></trkpt>
<trkpt lat="46.6539450455457" lon="7.162036020308733"><ele></ele><time>2014-10-30T2:57:11Z</time></trkpt>
<trkpt lat="46.65395686402917" lon="7.162026884034276"><ele></ele><time>2014-10-30T2:57:14Z</time></trkpt>
<trkpt lat="46.65396139025688" lon="7.162016406655312"><ele></ele><time>2014-10-30T2:57:17Z</time></trkpt>
<trkpt lat="46.65396139025688" lon="7.162016406655312"><ele></ele><time>2014-10-30T2:57:20Z</time></trkpt>
<trkpt lat="46.65397538803518" lon="7.162024788558483"><ele></ele><time>2014-10-30T2:57:23Z</time></trkpt>
<trkpt lat="46.65398519486189" lon="7.162036607041955"><ele></ele><time>2014-10-30T2:57:26Z</time></trkpt>
<trkpt lat="46.65403221733868" lon="7.162058567628264"><ele></ele><time>2014-10-30T2:57:29Z</time></trkpt>
<trkpt lat="46.65412022732198" lon="7.1621389500796795"><ele></ele><time>2014-10-30T2:57:32Z</time></trkpt>
<trkpt lat="46.654196083545685" lon="7.162165520712733"><ele></ele><time>2014-10-30T2:57:35Z</time></trkpt>
<trkpt lat="46.65424536913633" lon="7.162187146022916"><ele></ele><time>2014-10-30T2:57:38Z</time></trkpt>
<trkpt lat="46.65426230058074" lon="7.162205837666988"><ele></ele><time>2014-10-30T2:57:41Z</time></trkpt>
<trkpt lat="46.65434746071696" lon="7.162245400249958"><ele></ele><time>2014-10-30T2:57:44Z</time></trkpt>
<trkpt lat="46.6544199641794" lon="7.16231488622725"><ele></ele><time>2014-10-30T2:57:47Z</time></trkpt>
<trkpt lat="46.654467741027474" lon="7.162339445203543"><ele></ele><time>2014-10-30T2:57:50Z</time></trkpt>
<trkpt lat="46.65449632331729" lon="7.162361238151789"><ele></ele><time>2014-10-30T2:57:53Z</time></trkpt>
<trkpt lat="46.65453404188156" lon="7.16238277964294"><ele></ele><time>2014-10-30T2:57:56Z</time></trkpt>
<trkpt lat="46.654555164277554" lon="7.162407590076327"><ele></ele><time>2014-10-30T2:57:59Z</time></trkpt>
<trkpt lat="46.65460830554366" lon="7.162551758810878"><ele></ele><time>2014-10-30T2:58:2Z</time></trkpt>
<trkpt lat="46.65463185869157" lon="7.162610683590174"><ele></ele><time>2014-10-30T2:58:5Z</time></trkpt>
<trkpt lat="46.65465700440109" lon="7.162663824856281"><ele></ele><time>2014-10-30T2:58:8Z</time></trkpt>
<trkpt lat="46.65466647595167" lon="7.162711517885327"><ele></ele><time>2014-10-30T2:58:11Z</time></trkpt>
<trkpt lat="46.65466731414199" lon="7.162753762677312"><ele></ele><time>2014-10-30T2:58:14Z</time></trkpt>
<trkpt lat="46.65466932579875" lon="7.162794666364789"><ele></ele><time>2014-10-30T2:58:17Z</time></trkpt>
<trkpt lat="46.654669577255845" lon="7.162831714376807"><ele></ele><time>2014-10-30T2:58:20Z</time></trkpt>
<trkpt lat="46.654666140675545" lon="7.162996418774128"><ele></ele><time>2014-10-30T2:58:23Z</time></trkpt>
<trkpt lat="46.65466781705618" lon="7.163036484271288"><ele></ele><time>2014-10-30T2:58:26Z</time></trkpt>
<trkpt lat="46.6546702478081" lon="7.163076801225543"><ele></ele><time>2014-10-30T2:58:29Z</time></trkpt>
<trkpt lat="46.65467276237905" lon="7.163121392950416"><ele></ele><time>2014-10-30T2:58:32Z</time></trkpt>
<trkpt lat="46.65467812679708" lon="7.163162883371115"><ele></ele><time>2014-10-30T2:58:35Z</time></trkpt>
<trkpt lat="46.65471634827554" lon="7.163309482857585"><ele></ele><time>2014-10-30T2:58:38Z</time></trkpt>
<trkpt lat="46.65480796247721" lon="7.163464045152068"><ele></ele><time>2014-10-30T2:58:41Z</time></trkpt>
<trkpt lat="46.65483000688255" lon="7.163491286337376"><ele></ele><time>2014-10-30T2:58:44Z</time></trkpt>
<trkpt lat="46.65484869852662" lon="7.163523221388459"><ele></ele><time>2014-10-30T2:58:47Z</time></trkpt>
<trkpt lat="46.654865462332964" lon="7.163555156439543"><ele></ele><time>2014-10-30T2:58:50Z</time></trkpt>
<trkpt lat="46.65488004684448" lon="7.1635867562144995"><ele></ele><time>2014-10-30T2:58:53Z</time></trkpt>
<trkpt lat="46.654943665489554" lon="7.163768894970417"><ele></ele><time>2014-10-30T2:58:56Z</time></trkpt>
<trkpt lat="46.65493042208254" lon="7.16398841701448"><ele></ele><time>2014-10-30T2:58:59Z</time></trkpt>
<trkpt lat="46.65493025444448" lon="7.164016412571073"><ele></ele><time>2014-10-30T2:59:2Z</time></trkpt>
<trkpt lat="46.65493226610124" lon="7.164040049538016"><ele></ele><time>2014-10-30T2:59:5Z</time></trkpt>
<trkpt lat="46.65493595413864" lon="7.164066368713975"><ele></ele><time>2014-10-30T2:59:8Z</time></trkpt>
<trkpt lat="46.654940815642476" lon="7.164099644869566"><ele></ele><time>2014-10-30T2:59:11Z</time></trkpt>
<trkpt lat="46.65495380759239" lon="7.164188744500279"><ele></ele><time>2014-10-30T2:59:14Z</time></trkpt>
<trkpt lat="46.65496193803847" lon="7.1642193384468555"><ele></ele><time>2014-10-30T2:59:17Z</time></trkpt>
<trkpt lat="46.654979791492224" lon="7.164223529398441"><ele></ele><time>2014-10-30T2:59:20Z</time></trkpt>
<trkpt lat="46.654982725158334" lon="7.164223864674568"><ele></ele><time>2014-10-30T2:59:23Z</time></trkpt>
<trkpt lat="46.654982725158334" lon="7.164223864674568"><ele></ele><time>2014-10-30T2:59:26Z</time></trkpt>
<trkpt lat="46.654982725158334" lon="7.164223864674568"><ele></ele><time>2014-10-30T2:59:29Z</time></trkpt>
<trkpt lat="46.654982725158334" lon="7.164223864674568"><ele></ele><time>2014-10-30T2:59:32Z</time></trkpt>
<trkpt lat="46.654982725158334" lon="7.164223864674568"><ele></ele><time>2014-10-30T2:59:35Z</time></trkpt>
<trkpt lat="46.65498356334865" lon="7.164224535226822"><ele></ele><time>2014-10-30T2:59:38Z</time></trkpt>
<trkpt lat="46.654959758743644" lon="7.164229229092598"><ele></ele><time>2014-10-30T2:59:41Z</time></trkpt>
<trkpt lat="46.654946599155664" lon="7.164241801947355"><ele></ele><time>2014-10-30T2:59:44Z</time></trkpt>
<trkpt lat="46.654946599155664" lon="7.164241801947355"><ele></ele><time>2014-10-30T2:59:47Z</time></trkpt>
<trkpt lat="46.654946599155664" lon="7.164241801947355"><ele></ele><time>2014-10-30T2:59:50Z</time></trkpt>
<trkpt lat="46.654946599155664" lon="7.164241801947355"><ele></ele><time>2014-10-30T2:59:53Z</time></trkpt>
<trkpt lat="46.654946599155664" lon="7.164241801947355"><ele></ele><time>2014-10-30T2:59:56Z</time></trkpt>
<trkpt lat="46.65494844317436" lon="7.164244903251529"><ele></ele><time>2014-10-30T2:59:59Z</time></trkpt>
<trkpt lat="46.65494844317436" lon="7.164244903251529"><ele></ele><time>2014-10-30T3:0:2Z</time></trkpt>
<trkpt lat="46.65494844317436" lon="7.164244903251529"><ele></ele><time>2014-10-30T3:0:5Z</time></trkpt>
<trkpt lat="46.65494844317436" lon="7.164244903251529"><ele></ele><time>2014-10-30T3:0:8Z</time></trkpt>
<trkpt lat="46.654952550306916" lon="7.164255632087588"><ele></ele><time>2014-10-30T3:0:11Z</time></trkpt>
<trkpt lat="46.654965206980705" lon="7.164314221590757"><ele></ele><time>2014-10-30T3:0:14Z</time></trkpt>
<trkpt lat="46.654977360740304" lon="7.164411284029484"><ele></ele><time>2014-10-30T3:0:17Z</time></trkpt>
<trkpt lat="46.654990101233125" lon="7.164597446098924"><ele></ele><time>2014-10-30T3:0:20Z</time></trkpt>
<trkpt lat="46.6549963876605" lon="7.16465980745852"><ele></ele><time>2014-10-30T3:0:23Z</time></trkpt>
<trkpt lat="46.65499881841242" lon="7.164687719196081"><ele></ele><time>2014-10-30T3:0:26Z</time></trkpt>
<trkpt lat="46.654998902231455" lon="7.164715547114611"><ele></ele><time>2014-10-30T3:0:29Z</time></trkpt>
<trkpt lat="46.65500057861209" lon="7.164744548499584"><ele></ele><time>2014-10-30T3:0:32Z</time></trkpt>
<trkpt lat="46.65500108152628" lon="7.164771454408765"><ele></ele><time>2014-10-30T3:0:35Z</time></trkpt>
<trkpt lat="46.65500745177269" lon="7.1649509109556675"><ele></ele><time>2014-10-30T3:0:38Z</time></trkpt>
<trkpt lat="46.65500661358237" lon="7.164982007816434"><ele></ele><time>2014-10-30T3:0:41Z</time></trkpt>
<trkpt lat="46.654998483136296" lon="7.16506926342845"><ele></ele><time>2014-10-30T3:0:44Z</time></trkpt>
<trkpt lat="46.65499487891793" lon="7.165096420794725"><ele></ele><time>2014-10-30T3:0:47Z</time></trkpt>
<trkpt lat="46.65498943068087" lon="7.1651229076087475"><ele></ele><time>2014-10-30T3:0:50Z</time></trkpt>
<trkpt lat="46.654986245557666" lon="7.165142605081201"><ele></ele><time>2014-10-30T3:0:53Z</time></trkpt>
<trkpt lat="46.654983814805746" lon="7.165165822952986"><ele></ele><time>2014-10-30T3:0:56Z</time></trkpt>
<trkpt lat="46.65498884394765" lon="7.165204295888543"><ele></ele><time>2014-10-30T3:0:59Z</time></trkpt>
<trkpt lat="46.654991107061505" lon="7.165225250646472"><ele></ele><time>2014-10-30T3:1:2Z</time></trkpt>
<trkpt lat="46.65497585199773" lon="7.165266238152981"><ele></ele><time>2014-10-30T3:1:5Z</time></trkpt>
<trkpt lat="46.65497241541743" lon="7.165288869291544"><ele></ele><time>2014-10-30T3:1:8Z</time></trkpt>
<trkpt lat="46.65497174486518" lon="7.165311751887202"><ele></ele><time>2014-10-30T3:1:11Z</time></trkpt>
<trkpt lat="46.65497476235032" lon="7.165333712473512"><ele></ele><time>2014-10-30T3:1:14Z</time></trkpt>
<trkpt lat="46.65498113259673" lon="7.165355337783694"><ele></ele><time>2014-10-30T3:1:17Z</time></trkpt>
<trkpt lat="46.654986245557666" lon="7.1653752867132425"><ele></ele><time>2014-10-30T3:1:20Z</time></trkpt>
<trkpt lat="46.65501474402845" lon="7.165445946156979"><ele></ele><time>2014-10-30T3:1:23Z</time></trkpt>
<trkpt lat="46.655037039890885" lon="7.1655110735446215"><ele></ele><time>2014-10-30T3:1:26Z</time></trkpt>
<trkpt lat="46.65504265576601" lon="7.165518281981349"><ele></ele><time>2014-10-30T3:1:29Z</time></trkpt>
<trkpt lat="46.65505204349756" lon="7.1655398234725"><ele></ele><time>2014-10-30T3:1:32Z</time></trkpt>
<trkpt lat="46.655060509219766" lon="7.165545020252466"><ele></ele><time>2014-10-30T3:1:35Z</time></trkpt>
<trkpt lat="46.655093282461166" lon="7.165644848719239"><ele></ele><time>2014-10-30T3:1:38Z</time></trkpt>
<trkpt lat="46.65512370876968" lon="7.165751131251454"><ele></ele><time>2014-10-30T3:1:41Z</time></trkpt>
<trkpt lat="46.655130330473185" lon="7.165769739076495"><ele></ele><time>2014-10-30T3:1:44Z</time></trkpt>
<trkpt lat="46.65513787418604" lon="7.165790777653456"><ele></ele><time>2014-10-30T3:1:47Z</time></trkpt>
<trkpt lat="46.65514340624213" lon="7.165814749896526"><ele></ele><time>2014-10-30T3:1:50Z</time></trkpt>
<trkpt lat="46.65514826774597" lon="7.1658409014344215"><ele></ele><time>2014-10-30T3:1:53Z</time></trkpt>
<trkpt lat="46.655174335464835" lon="7.1660397201776505"><ele></ele><time>2014-10-30T3:1:56Z</time></trkpt>
<trkpt lat="46.65518539957702" lon="7.166063021868467"><ele></ele><time>2014-10-30T3:1:59Z</time></trkpt>
<trkpt lat="46.65519428439438" lon="7.166092442348599"><ele></ele><time>2014-10-30T3:2:2Z</time></trkpt>
<trkpt lat="46.65520685724914" lon="7.166112056002021"><ele></ele><time>2014-10-30T3:2:5Z</time></trkpt>
<trkpt lat="46.65521968156099" lon="7.166125047951937"><ele></ele><time>2014-10-30T3:2:8Z</time></trkpt>
<trkpt lat="46.65524407289922" lon="7.166148852556944"><ele></ele><time>2014-10-30T3:2:11Z</time></trkpt>
<trkpt lat="46.655267206951976" lon="7.1661511156708"><ele></ele><time>2014-10-30T3:2:14Z</time></trkpt>
<trkpt lat="46.65529235266149" lon="7.166085988283157"><ele></ele><time>2014-10-30T3:2:17Z</time></trkpt>
<trkpt lat="46.6553108766675" lon="7.166042989119887"><ele></ele><time>2014-10-30T3:2:20Z</time></trkpt>
<trkpt lat="46.65532344952226" lon="7.166018849238753"><ele></ele><time>2014-10-30T3:2:23Z</time></trkpt>
<trkpt lat="46.655334178358316" lon="7.165993619710207"><ele></ele><time>2014-10-30T3:2:26Z</time></trkpt>
<trkpt lat="46.655341470614076" lon="7.165968557819724"><ele></ele><time>2014-10-30T3:2:29Z</time></trkpt>
<trkpt lat="46.65535102598369" lon="7.16594492085278"><ele></ele><time>2014-10-30T3:2:32Z</time></trkpt>
<trkpt lat="46.65535915642977" lon="7.165924720466137"><ele></ele><time>2014-10-30T3:2:35Z</time></trkpt>
<trkpt lat="46.65539117529988" lon="7.1658453438431025"><ele></ele><time>2014-10-30T3:2:38Z</time></trkpt>
<trkpt lat="46.65540634654462" lon="7.165736882016063"><ele></ele><time>2014-10-30T3:2:41Z</time></trkpt>
<trkpt lat="46.65540517307818" lon="7.165706707164645"><ele></ele><time>2014-10-30T3:2:44Z</time></trkpt>
<trkpt lat="46.65542973205447" lon="7.1656974870711565"><ele></ele><time>2014-10-30T3:2:47Z</time></trkpt>
<trkpt lat="46.655443981289864" lon="7.165681896731257"><ele></ele><time>2014-10-30T3:2:50Z</time></trkpt>
<trkpt lat="46.655458733439445" lon="7.165633449330926"><ele></ele><time>2014-10-30T3:2:53Z</time></trkpt>
<trkpt lat="46.65548723191023" lon="7.165529178455472"><ele></ele><time>2014-10-30T3:2:56Z</time></trkpt>
<trkpt lat="46.655498798936605" lon="7.165503529831767"><ele></ele><time>2014-10-30T3:2:59Z</time></trkpt>
<trkpt lat="46.65550877340138" lon="7.165480982512236"><ele></ele><time>2014-10-30T3:3:2Z</time></trkpt>
<trkpt lat="46.65551086887717" lon="7.165453741326928"><ele></ele><time>2014-10-30T3:3:5Z</time></trkpt>
<trkpt lat="46.65551271289587" lon="7.16542792506516"><ele></ele><time>2014-10-30T3:3:8Z</time></trkpt>
<trkpt lat="46.65552067570388" lon="7.165407054126263"><ele></ele><time>2014-10-30T3:3:11Z</time></trkpt>
<trkpt lat="46.65551531128585" lon="7.165327174589038"><ele></ele><time>2014-10-30T3:3:14Z</time></trkpt>
<trkpt lat="46.65551128797233" lon="7.165251402184367"><ele></ele><time>2014-10-30T3:3:17Z</time></trkpt>
<trkpt lat="46.6555059235543" lon="7.16522466391325"><ele></ele><time>2014-10-30T3:3:20Z</time></trkpt>
<trkpt lat="46.655499720945954" lon="7.165201110765338"><ele></ele><time>2014-10-30T3:3:23Z</time></trkpt>
<trkpt lat="46.65549368597567" lon="7.165178982540965"><ele></ele><time>2014-10-30T3:3:26Z</time></trkpt>
<trkpt lat="46.65548924356699" lon="7.165154758840799"><ele></ele><time>2014-10-30T3:3:29Z</time></trkpt>
<trkpt lat="46.65550332516432" lon="7.16511226259172"><ele></ele><time>2014-10-30T3:3:32Z</time></trkpt>
<trkpt lat="46.655527632683516" lon="7.165064988657832"><ele></ele><time>2014-10-30T3:3:35Z</time></trkpt>
<trkpt lat="46.65554540231824" lon="7.16501553542912"><ele></ele><time>2014-10-30T3:3:38Z</time></trkpt>
<trkpt lat="46.655554035678506" lon="7.164994580671191"><ele></ele><time>2014-10-30T3:3:41Z</time></trkpt>
<trkpt lat="46.655557891353965" lon="7.164973542094231"><ele></ele><time>2014-10-30T3:3:44Z</time></trkpt>
<trkpt lat="46.65555847808719" lon="7.16494906693697"><ele></ele><time>2014-10-30T3:3:47Z</time></trkpt>
<trkpt lat="46.65556954219937" lon="7.164925765246153"><ele></ele><time>2014-10-30T3:3:50Z</time></trkpt>
<trkpt lat="46.65559125132859" lon="7.164831720292568"><ele></ele><time>2014-10-30T3:3:53Z</time></trkpt>
<trkpt lat="46.65560742840171" lon="7.1647765673696995"><ele></ele><time>2014-10-30T3:3:56Z</time></trkpt>
<trkpt lat="46.65561572648585" lon="7.164751840755343"><ele></ele><time>2014-10-30T3:3:59Z</time></trkpt>
<trkpt lat="46.655621845275164" lon="7.164728455245495"><ele></ele><time>2014-10-30T3:4:2Z</time></trkpt>
<trkpt lat="46.655627712607384" lon="7.164709009230137"><ele></ele><time>2014-10-30T3:4:5Z</time></trkpt>
<trkpt lat="46.655632155016065" lon="7.16468813829124"><ele></ele><time>2014-10-30T3:4:8Z</time></trkpt>
<trkpt lat="46.65564799681306" lon="7.164670201018453"><ele></ele><time>2014-10-30T3:4:11Z</time></trkpt>
<trkpt lat="46.65568462572992" lon="7.164542796090245"><ele></ele><time>2014-10-30T3:4:14Z</time></trkpt>
<trkpt lat="46.65569401346147" lon="7.164522428065538"><ele></ele><time>2014-10-30T3:4:17Z</time></trkpt>
<trkpt lat="46.655702563002706" lon="7.164499210193753"><ele></ele><time>2014-10-30T3:4:20Z</time></trkpt>
<trkpt lat="46.6557096876204" lon="7.164483703672886"><ele></ele><time>2014-10-30T3:4:23Z</time></trkpt>
<trkpt lat="46.65573013946414" lon="7.164467861875892"><ele></ele><time>2014-10-30T3:4:26Z</time></trkpt>
<trkpt lat="46.65576668456197" lon="7.164429891854525"><ele></ele><time>2014-10-30T3:4:29Z</time></trkpt>
<trkpt lat="46.65580012835562" lon="7.164314556866884"><ele></ele><time>2014-10-30T3:4:32Z</time></trkpt>
<trkpt lat="46.65581018663943" lon="7.164291590452194"><ele></ele><time>2014-10-30T3:4:35Z</time></trkpt>
<trkpt lat="46.65582460351288" lon="7.164269546046853"><ele></ele><time>2014-10-30T3:4:38Z</time></trkpt>
<trkpt lat="46.65583382360637" lon="7.164246831089258"><ele></ele><time>2014-10-30T3:4:41Z</time></trkpt>
<trkpt lat="46.65584555827081" lon="7.164226630702615"><ele></ele><time>2014-10-30T3:4:44Z</time></trkpt>
<trkpt lat="46.655861316248775" lon="7.164159743115306"><ele></ele><time>2014-10-30T3:4:47Z</time></trkpt>
<trkpt lat="46.65590540505946" lon="7.164082629606128"><ele></ele><time>2014-10-30T3:4:50Z</time></trkpt>
<trkpt lat="46.65591546334326" lon="7.164065195247531"><ele></ele><time>2014-10-30T3:4:53Z</time></trkpt>
<trkpt lat="46.65593080222607" lon="7.164050275459886"><ele></ele><time>2014-10-30T3:4:56Z</time></trkpt>
<trkpt lat="46.65594371035695" lon="7.164038037881255"><ele></ele><time>2014-10-30T3:4:59Z</time></trkpt>
<trkpt lat="46.65598318912089" lon="7.163962181657553"><ele></ele><time>2014-10-30T3:5:2Z</time></trkpt>
<trkpt lat="46.655998108908534" lon="7.163948435336351"><ele></ele><time>2014-10-30T3:5:5Z</time></trkpt>
<trkpt lat="46.655998108908534" lon="7.163948435336351"><ele></ele><time>2014-10-30T3:5:8Z</time></trkpt>
<trkpt lat="46.655998108908534" lon="7.163948435336351"><ele></ele><time>2014-10-30T3:5:11Z</time></trkpt>
<trkpt lat="46.655998108908534" lon="7.163948435336351"><ele></ele><time>2014-10-30T3:5:14Z</time></trkpt>
<trkpt lat="46.655998108908534" lon="7.163948435336351"><ele></ele><time>2014-10-30T3:5:17Z</time></trkpt>
<trkpt lat="46.65606155991554" lon="7.163924882188439"><ele></ele><time>2014-10-30T3:5:20Z</time></trkpt>
<trkpt lat="46.656128615140915" lon="7.163867382332683"><ele></ele><time>2014-10-30T3:5:23Z</time></trkpt>
<trkpt lat="46.656151162460446" lon="7.163851372897625"><ele></ele><time>2014-10-30T3:5:26Z</time></trkpt>
<trkpt lat="46.6561758890748" lon="7.163837207481265"><ele></ele><time>2014-10-30T3:5:29Z</time></trkpt>
<trkpt lat="46.6561951674521" lon="7.163818012923002"><ele></ele><time>2014-10-30T3:5:32Z</time></trkpt>
<trkpt lat="46.65620690211654" lon="7.163797980174422"><ele></ele><time>2014-10-30T3:5:35Z</time></trkpt>
<trkpt lat="46.6562120988965" lon="7.163776941597462"><ele></ele><time>2014-10-30T3:5:38Z</time></trkpt>
<trkpt lat="46.65629466064274" lon="7.16366152279079"><ele></ele><time>2014-10-30T3:5:41Z</time></trkpt>
<trkpt lat="46.656309915706515" lon="7.163611734285951"><ele></ele><time>2014-10-30T3:5:44Z</time></trkpt>
<trkpt lat="46.656323578208685" lon="7.163583654910326"><ele></ele><time>2014-10-30T3:5:47Z</time></trkpt>
<trkpt lat="46.65634059347212" lon="7.163555407896638"><ele></ele><time>2014-10-30T3:5:50Z</time></trkpt>
<trkpt lat="46.65635601617396" lon="7.163529507815838"><ele></ele><time>2014-10-30T3:5:53Z</time></trkpt>
<trkpt lat="46.65636816993356" lon="7.1635048650205135"><ele></ele><time>2014-10-30T3:5:56Z</time></trkpt>
<trkpt lat="46.656389124691486" lon="7.1634565852582455"><ele></ele><time>2014-10-30T3:5:59Z</time></trkpt>
<trkpt lat="46.65642944164574" lon="7.16339036822319"><ele></ele><time>2014-10-30T3:6:2Z</time></trkpt>
<trkpt lat="46.65644461289048" lon="7.163361115381122"><ele></ele><time>2014-10-30T3:6:5Z</time></trkpt>
<trkpt lat="46.656465316191316" lon="7.16334099881351"><ele></ele><time>2014-10-30T3:6:8Z</time></trkpt>
<trkpt lat="46.65650278329849" lon="7.163305543363094"><ele></ele><time>2014-10-30T3:6:11Z</time></trkpt>
<trkpt lat="46.65651669725776" lon="7.1632851753383875"><ele></ele><time>2014-10-30T3:6:14Z</time></trkpt>
<trkpt lat="46.65653203614056" lon="7.163263550028205"><ele></ele><time>2014-10-30T3:6:17Z</time></trkpt>
<trkpt lat="46.65655290707946" lon="7.163241254165769"><ele></ele><time>2014-10-30T3:6:20Z</time></trkpt>
<trkpt lat="46.65656581521034" lon="7.163225496187806"><ele></ele><time>2014-10-30T3:6:23Z</time></trkpt>
<trkpt lat="46.656575202941895" lon="7.163210492581129"><ele></ele><time>2014-10-30T3:6:26Z</time></trkpt>
<trkpt lat="46.656600683927536" lon="7.163146957755089"><ele></ele><time>2014-10-30T3:6:29Z</time></trkpt>
<trkpt lat="46.656619710847735" lon="7.163129355758429"><ele></ele><time>2014-10-30T3:6:32Z</time></trkpt>
<trkpt lat="46.6566595248878" lon="7.163074035197496"><ele></ele><time>2014-10-30T3:6:35Z</time></trkpt>
<trkpt lat="46.656671511009336" lon="7.163053164258599"><ele></ele><time>2014-10-30T3:6:38Z</time></trkpt>
<trkpt lat="46.65668257512152" lon="7.163031119853258"><ele></ele><time>2014-10-30T3:6:41Z</time></trkpt>
<trkpt lat="46.6566941421479" lon="7.163006644695997"><ele></ele><time>2014-10-30T3:6:44Z</time></trkpt>
<trkpt lat="46.65670168586075" lon="7.16298820450902"><ele></ele><time>2014-10-30T3:6:47Z</time></trkpt>
<trkpt lat="46.65671073831618" lon="7.162935985252261"><ele></ele><time>2014-10-30T3:6:50Z</time></trkpt>
<trkpt lat="46.65672155097127" lon="7.1629223227500916"><ele></ele><time>2014-10-30T3:6:53Z</time></trkpt>
<trkpt lat="46.656785840168595" lon="7.1628351509571075"><ele></ele><time>2014-10-30T3:6:56Z</time></trkpt>
<trkpt lat="46.656798580661416" lon="7.162809921428561"><ele></ele><time>2014-10-30T3:6:59Z</time></trkpt>
<trkpt lat="46.65681341663003" lon="7.162783853709698"><ele></ele><time>2014-10-30T3:7:2Z</time></trkpt>
<trkpt lat="46.656825402751565" lon="7.162760552018881"><ele></ele><time>2014-10-30T3:7:5Z</time></trkpt>
<trkpt lat="46.6568408254534" lon="7.162738004699349"><ele></ele><time>2014-10-30T3:7:8Z</time></trkpt>
<trkpt lat="46.656894301995635" lon="7.162634404376149"><ele></ele><time>2014-10-30T3:7:11Z</time></trkpt>
<trkpt lat="46.656910479068756" lon="7.162593165412545"><ele></ele><time>2014-10-30T3:7:14Z</time></trkpt>
<trkpt lat="46.65692028589547" lon="7.162566930055618"><ele></ele><time>2014-10-30T3:7:17Z</time></trkpt>
<trkpt lat="46.65691617876291" lon="7.162547819316387"><ele></ele><time>2014-10-30T3:7:20Z</time></trkpt>
<trkpt lat="46.656929422169924" lon="7.162530301138759"><ele></ele><time>2014-10-30T3:7:23Z</time></trkpt>
<trkpt lat="46.65694568306208" lon="7.162513118237257"><ele></ele><time>2014-10-30T3:7:26Z</time></trkpt>
<trkpt lat="46.6569565795362" lon="7.162491576746106"><ele></ele><time>2014-10-30T3:7:29Z</time></trkpt>
<trkpt lat="46.65701567195356" lon="7.162401471287012"><ele></ele><time>2014-10-30T3:7:32Z</time></trkpt>
<trkpt lat="46.65704266168177" lon="7.162364758551121"><ele></ele><time>2014-10-30T3:7:35Z</time></trkpt>
<trkpt lat="46.65705422870815" lon="7.162344893440604"><ele></ele><time>2014-10-30T3:7:38Z</time></trkpt>
<trkpt lat="46.65706101804972" lon="7.162324106320739"><ele></ele><time>2014-10-30T3:7:41Z</time></trkpt>
<trkpt lat="46.65706906467676" lon="7.162304911762476"><ele></ele><time>2014-10-30T3:7:44Z</time></trkpt>
<trkpt lat="46.65707719512284" lon="7.16228362172842"><ele></ele><time>2014-10-30T3:7:47Z</time></trkpt>
<trkpt lat="46.65709747932851" lon="7.162245316430926"><ele></ele><time>2014-10-30T3:7:50Z</time></trkpt>
<trkpt lat="46.65713142603636" lon="7.162129394710064"><ele></ele><time>2014-10-30T3:7:53Z</time></trkpt>
<trkpt lat="46.657140562310815" lon="7.162102740257978"><ele></ele><time>2014-10-30T3:7:56Z</time></trkpt>
<trkpt lat="46.65714617818594" lon="7.162074577063322"><ele></ele><time>2014-10-30T3:7:59Z</time></trkpt>
<trkpt lat="46.6571497824043" lon="7.162048509344459"><ele></ele><time>2014-10-30T3:8:2Z</time></trkpt>
<trkpt lat="46.65715305134654" lon="7.162024788558483"><ele></ele><time>2014-10-30T3:8:5Z</time></trkpt>
<trkpt lat="46.657172748818994" lon="7.162000564858317"><ele></ele><time>2014-10-30T3:8:8Z</time></trkpt>
<trkpt lat="46.65718817152083" lon="7.161976592615247"><ele></ele><time>2014-10-30T3:8:11Z</time></trkpt>
<trkpt lat="46.65719261392951" lon="7.1619313303381205"><ele></ele><time>2014-10-30T3:8:14Z</time></trkpt>
<trkpt lat="46.65718138217926" lon="7.161849271506071"><ele></ele><time>2014-10-30T3:8:17Z</time></trkpt>
<trkpt lat="46.65718766860664" lon="7.161697642877698"><ele></ele><time>2014-10-30T3:8:20Z</time></trkpt>
<trkpt lat="46.657191356644034" lon="7.1616709884256124"><ele></ele><time>2014-10-30T3:8:23Z</time></trkpt>
<trkpt lat="46.657182052731514" lon="7.161646345630288"><ele></ele><time>2014-10-30T3:8:26Z</time></trkpt>
<trkpt lat="46.65717115625739" lon="7.161623714491725"><ele></ele><time>2014-10-30T3:8:29Z</time></trkpt>
<trkpt lat="46.65717459283769" lon="7.161595467478037"><ele></ele><time>2014-10-30T3:8:32Z</time></trkpt>
<trkpt lat="46.65715606883168" lon="7.161572333425283"><ele></ele><time>2014-10-30T3:8:35Z</time></trkpt>
<trkpt lat="46.657125893980265" lon="7.16137133538723"><ele></ele><time>2014-10-30T3:8:38Z</time></trkpt>
<trkpt lat="46.65714324451983" lon="7.161259017884731"><ele></ele><time>2014-10-30T3:8:41Z</time></trkpt>
<trkpt lat="46.65714031085372" lon="7.161227585747838"><ele></ele><time>2014-10-30T3:8:44Z</time></trkpt>
<trkpt lat="46.657138634473085" lon="7.161190118640661"><ele></ele><time>2014-10-30T3:8:47Z</time></trkpt>
<trkpt lat="46.65713595226407" lon="7.161155501380563"><ele></ele><time>2014-10-30T3:8:50Z</time></trkpt>
<trkpt lat="46.657132264226675" lon="7.161122560501099"><ele></ele><time>2014-10-30T3:8:53Z</time></trkpt>
<trkpt lat="46.65707878768444" lon="7.160967160016298"><ele></ele><time>2014-10-30T3:8:56Z</time></trkpt>
<trkpt lat="46.657057497650385" lon="7.160821063444018"><ele></ele><time>2014-10-30T3:8:59Z</time></trkpt>
<trkpt lat="46.65705003775656" lon="7.160756690427661"><ele></ele><time>2014-10-30T3:9:2Z</time></trkpt>
<trkpt lat="46.65706344880164" lon="7.160725928843021"><ele></ele><time>2014-10-30T3:9:5Z</time></trkpt>
<trkpt lat="46.65707694366574" lon="7.160695418715477"><ele></ele><time>2014-10-30T3:9:8Z</time></trkpt>
<trkpt lat="46.65708214044571" lon="7.160663483664393"><ele></ele><time>2014-10-30T3:9:11Z</time></trkpt>
<trkpt lat="46.65708859451115" lon="7.16063154861331"><ele></ele><time>2014-10-30T3:9:14Z</time></trkpt>
<trkpt lat="46.65708348155022" lon="7.160418815910816"><ele></ele><time>2014-10-30T3:9:17Z</time></trkpt>
<trkpt lat="46.65707979351282" lon="7.160355197265744"><ele></ele><time>2014-10-30T3:9:20Z</time></trkpt>
<trkpt lat="46.65708281099796" lon="7.160324100404978"><ele></ele><time>2014-10-30T3:9:23Z</time></trkpt>
<trkpt lat="46.65709102526307" lon="7.160292584449053"><ele></ele><time>2014-10-30T3:9:26Z</time></trkpt>
<trkpt lat="46.657096557319164" lon="7.160268779844046"><ele></ele><time>2014-10-30T3:9:29Z</time></trkpt>
<trkpt lat="46.65710317902267" lon="7.160245645791292"><ele></ele><time>2014-10-30T3:9:32Z</time></trkpt>
<trkpt lat="46.65715891867876" lon="7.160132406279445"><ele></ele><time>2014-10-30T3:9:35Z</time></trkpt>
<trkpt lat="46.65718146599829" lon="7.160113379359245"><ele></ele><time>2014-10-30T3:9:38Z</time></trkpt>
<trkpt lat="46.65718473494053" lon="7.1601103618741035"><ele></ele><time>2014-10-30T3:9:41Z</time></trkpt>
<trkpt lat="46.65718825533986" lon="7.160109858959913"><ele></ele><time>2014-10-30T3:9:44Z</time></trkpt>
<trkpt lat="46.657206108793616" lon="7.160103488713503"><ele></ele><time>2014-10-30T3:9:47Z</time></trkpt>
<trkpt lat="46.65721004828811" lon="7.160102818161249"><ele></ele><time>2014-10-30T3:9:50Z</time></trkpt>
<trkpt lat="46.65725271217525" lon="7.1601171512156725"><ele></ele><time>2014-10-30T3:9:53Z</time></trkpt>
<trkpt lat="46.65729906409979" lon="7.160137603059411"><ele></ele><time>2014-10-30T3:9:56Z</time></trkpt>
<trkpt lat="46.65732253342867" lon="7.160146990790963"><ele></ele><time>2014-10-30T3:9:59Z</time></trkpt>
<trkpt lat="46.65734566748142" lon="7.160157300531864"><ele></ele><time>2014-10-30T3:10:2Z</time></trkpt>
<trkpt lat="46.65736804716289" lon="7.160170963034034"><ele></ele><time>2014-10-30T3:10:5Z</time></trkpt>
<trkpt lat="46.65738254785538" lon="7.1601854637265205"><ele></ele><time>2014-10-30T3:10:8Z</time></trkpt>
<trkpt lat="46.657405933365226" lon="7.160196276381612"><ele></ele><time>2014-10-30T3:10:11Z</time></trkpt>
<trkpt lat="46.65746041573584" lon="7.160218488425016"><ele></ele><time>2014-10-30T3:10:14Z</time></trkpt>
<trkpt lat="46.65750492364168" lon="7.160249585285783"><ele></ele><time>2014-10-30T3:10:17Z</time></trkpt>
<trkpt lat="46.657577930018306" lon="7.160331979393959"><ele></ele><time>2014-10-30T3:10:20Z</time></trkpt>
<trkpt lat="46.65758882649243" lon="7.160354442894459"><ele></ele><time>2014-10-30T3:10:23Z</time></trkpt>
<trkpt lat="46.65759813040495" lon="7.16037891805172"><ele></ele><time>2014-10-30T3:10:26Z</time></trkpt>
<trkpt lat="46.65760458447039" lon="7.160400627180934"><ele></ele><time>2014-10-30T3:10:29Z</time></trkpt>
<trkpt lat="46.657614978030324" lon="7.160423593595624"><ele></ele><time>2014-10-30T3:10:32Z</time></trkpt>
<trkpt lat="46.657628724351525" lon="7.160443542525172"><ele></ele><time>2014-10-30T3:10:35Z</time></trkpt>
<trkpt lat="46.65767197497189" lon="7.160512944683433"><ele></ele><time>2014-10-30T3:10:38Z</time></trkpt>
<trkpt lat="46.657689325511456" lon="7.16052358970046"><ele></ele><time>2014-10-30T3:10:41Z</time></trkpt>
<trkpt lat="46.657701479271054" lon="7.160531720146537"><ele></ele><time>2014-10-30T3:10:44Z</time></trkpt>
<trkpt lat="46.65771413594484" lon="7.160535408183932"><ele></ele><time>2014-10-30T3:10:47Z</time></trkpt>
<trkpt lat="46.657724529504776" lon="7.160538677126169"><ele></ele><time>2014-10-30T3:10:50Z</time></trkpt>
<trkpt lat="46.657758140936494" lon="7.160535827279091"><ele></ele><time>2014-10-30T3:10:53Z</time></trkpt>
<trkpt lat="46.65781480260193" lon="7.160517470911145"><ele></ele><time>2014-10-30T3:10:56Z</time></trkpt>
<trkpt lat="46.6578284651041" lon="7.160514201968908"><ele></ele><time>2014-10-30T3:10:59Z</time></trkpt>
<trkpt lat="46.6578458994627" lon="7.160506406798959"><ele></ele><time>2014-10-30T3:11:2Z</time></trkpt>
<trkpt lat="46.657851012423635" lon="7.160504059866071"><ele></ele><time>2014-10-30T3:11:5Z</time></trkpt>
<trkpt lat="46.657851012423635" lon="7.160504059866071"><ele></ele><time>2014-10-30T3:11:8Z</time></trkpt>
<trkpt lat="46.657860316336155" lon="7.160498108714819"><ele></ele><time>2014-10-30T3:11:11Z</time></trkpt>
<trkpt lat="46.65793818421662" lon="7.160460138693452"><ele></ele><time>2014-10-30T3:11:14Z</time></trkpt>
<trkpt lat="46.65795813314617" lon="7.16045661829412"><ele></ele><time>2014-10-30T3:11:17Z</time></trkpt>
<trkpt lat="46.65797498077154" lon="7.160447565838695"><ele></ele><time>2014-10-30T3:11:20Z</time></trkpt>
<trkpt lat="46.657995181158185" lon="7.160440692678094"><ele></ele><time>2014-10-30T3:11:23Z</time></trkpt>
<trkpt lat="46.65801513008773" lon="7.160438681021333"><ele></ele><time>2014-10-30T3:11:26Z</time></trkpt>
<trkpt lat="46.658033318817616" lon="7.160439267754555"><ele></ele><time>2014-10-30T3:11:29Z</time></trkpt>
<trkpt lat="46.65812878869474" lon="7.160450415685773"><ele></ele><time>2014-10-30T3:11:32Z</time></trkpt>
<trkpt lat="46.6581498272717" lon="7.160452678799629"><ele></ele><time>2014-10-30T3:11:35Z</time></trkpt>
<trkpt lat="46.65817296132445" lon="7.160457540303469"><ele></ele><time>2014-10-30T3:11:38Z</time></trkpt>
<trkpt lat="46.65819123387337" lon="7.160463239997625"><ele></ele><time>2014-10-30T3:11:41Z</time></trkpt>
<trkpt lat="46.65820699185133" lon="7.160469442605972"><ele></ele><time>2014-10-30T3:11:44Z</time></trkpt>
<trkpt lat="46.65822367183864" lon="7.160478327423334"><ele></ele><time>2014-10-30T3:11:47Z</time></trkpt>
<trkpt lat="46.658264910802245" lon="7.160491067916155"><ele></ele><time>2014-10-30T3:11:50Z</time></trkpt>
<trkpt lat="46.658379239961505" lon="7.16053381562233"><ele></ele><time>2014-10-30T3:11:53Z</time></trkpt>
<trkpt lat="46.65839600376785" lon="7.16054068878293"><ele></ele><time>2014-10-30T3:11:56Z</time></trkpt>
<trkpt lat="46.65841360576451" lon="7.160548651590943"><ele></ele><time>2014-10-30T3:11:59Z</time></trkpt>
<trkpt lat="46.65842877700925" lon="7.160559883341193"><ele></ele><time>2014-10-30T3:12:2Z</time></trkpt>
<trkpt lat="46.65850865654647" lon="7.160594668239355"><ele></ele><time>2014-10-30T3:12:5Z</time></trkpt>
<trkpt lat="46.65857546031475" lon="7.160609923303127"><ele></ele><time>2014-10-30T3:12:8Z</time></trkpt>
<trkpt lat="46.658589877188206" lon="7.160619897767901"><ele></ele><time>2014-10-30T3:12:11Z</time></trkpt>
<trkpt lat="46.6586075630039" lon="7.16063154861331"><ele></ele><time>2014-10-30T3:12:14Z</time></trkpt>
<trkpt lat="46.6586281824857" lon="7.16064915060997"><ele></ele><time>2014-10-30T3:12:17Z</time></trkpt>
<trkpt lat="46.65865458548069" lon="7.1606675907969475"><ele></ele><time>2014-10-30T3:12:20Z</time></trkpt>
<trkpt lat="46.65868065319955" lon="7.160680498927832"><ele></ele><time>2014-10-30T3:12:23Z</time></trkpt>
<trkpt lat="46.65877293795347" lon="7.160767922177911"><ele></ele><time>2014-10-30T3:12:26Z</time></trkpt>
<trkpt lat="46.65878458879888" lon="7.160780243575573"><ele></ele><time>2014-10-30T3:12:29Z</time></trkpt>
<trkpt lat="46.6587975807488" lon="7.160788793116808"><ele></ele><time>2014-10-30T3:12:32Z</time></trkpt>
<trkpt lat="46.658810153603554" lon="7.1607948280870914"><ele></ele><time>2014-10-30T3:12:35Z</time></trkpt>
<trkpt lat="46.65882079862058" lon="7.160802204161882"><ele></ele><time>2014-10-30T3:12:38Z</time></trkpt>
<trkpt lat="46.65882909670472" lon="7.160826427862048"><ele></ele><time>2014-10-30T3:12:41Z</time></trkpt>
<trkpt lat="46.65889707393944" lon="7.160988366231322"><ele></ele><time>2014-10-30T3:12:44Z</time></trkpt>
<trkpt lat="46.65893571451306" lon="7.161049637943506"><ele></ele><time>2014-10-30T3:12:47Z</time></trkpt>
<trkpt lat="46.65894535370171" lon="7.161070676520467"><ele></ele><time>2014-10-30T3:12:50Z</time></trkpt>
<trkpt lat="46.6589527297765" lon="7.161101773381233"><ele></ele><time>2014-10-30T3:12:53Z</time></trkpt>
<trkpt lat="46.658962117508054" lon="7.161120800301433"><ele></ele><time>2014-10-30T3:12:56Z</time></trkpt>
<trkpt lat="46.65896873921156" lon="7.161149214953184"><ele></ele><time>2014-10-30T3:12:59Z</time></trkpt>
<trkpt lat="46.65898826904595" lon="7.161280559375882"><ele></ele><time>2014-10-30T3:13:2Z</time></trkpt>
<trkpt lat="46.65904845111072" lon="7.161387093365192"><ele></ele><time>2014-10-30T3:13:5Z</time></trkpt>
<trkpt lat="46.65906395763159" lon="7.161408718675375"><ele></ele><time>2014-10-30T3:13:8Z</time></trkpt>
<trkpt lat="46.65907736867666" lon="7.161435456946492"><ele></ele><time>2014-10-30T3:13:11Z</time></trkpt>
<trkpt lat="46.6590891033411" lon="7.161454735323787"><ele></ele><time>2014-10-30T3:13:14Z</time></trkpt>
<trkpt lat="46.65910511277616" lon="7.161496728658676"><ele></ele><time>2014-10-30T3:13:17Z</time></trkpt>
<trkpt lat="46.6591221280396" lon="7.161609968170524"><ele></ele><time>2014-10-30T3:13:20Z</time></trkpt>
<trkpt lat="46.65911190211773" lon="7.161670904606581"><ele></ele><time>2014-10-30T3:13:23Z</time></trkpt>
<trkpt lat="46.65909924544394" lon="7.161725386977196"><ele></ele><time>2014-10-30T3:13:26Z</time></trkpt>
<trkpt lat="46.65909178555012" lon="7.161754472181201"><ele></ele><time>2014-10-30T3:13:29Z</time></trkpt>
<trkpt lat="46.659083403646946" lon="7.161779701709747"><ele></ele><time>2014-10-30T3:13:32Z</time></trkpt>
<trkpt lat="46.65907477028668" lon="7.161804428324103"><ele></ele><time>2014-10-30T3:13:35Z</time></trkpt>
<trkpt lat="46.65906454436481" lon="7.1618282329291105"><ele></ele><time>2014-10-30T3:13:38Z</time></trkpt>
<trkpt lat="46.65905951522291" lon="7.161848936229944"><ele></ele><time>2014-10-30T3:13:41Z</time></trkpt>
<trkpt lat="46.65900846943259" lon="7.162003079429269"><ele></ele><time>2014-10-30T3:13:44Z</time></trkpt>
<trkpt lat="46.65899841114879" lon="7.162029650062323"><ele></ele><time>2014-10-30T3:13:47Z</time></trkpt>
<trkpt lat="46.658985754475" lon="7.162056639790535"><ele></ele><time>2014-10-30T3:13:50Z</time></trkpt>
<trkpt lat="46.65897125378251" lon="7.162084048613906"><ele></ele><time>2014-10-30T3:13:53Z</time></trkpt>
<trkpt lat="46.658946610987186" lon="7.162210280075669"><ele></ele><time>2014-10-30T3:13:56Z</time></trkpt>
<trkpt lat="46.658951472491026" lon="7.162326453253627"><ele></ele><time>2014-10-30T3:13:59Z</time></trkpt>
<trkpt lat="46.65894828736782" lon="7.162353526800871"><ele></ele><time>2014-10-30T3:14:2Z</time></trkpt>
<trkpt lat="46.658939737826586" lon="7.1623751521110535"><ele></ele><time>2014-10-30T3:14:5Z</time></trkpt>
<trkpt lat="46.6589405760169" lon="7.162401136010885"><ele></ele><time>2014-10-30T3:14:8Z</time></trkpt>
<trkpt lat="46.658940156921744" lon="7.162427958101034"><ele></ele><time>2014-10-30T3:14:11Z</time></trkpt>
<trkpt lat="46.6589181125164" lon="7.1625815983861685"><ele></ele><time>2014-10-30T3:14:14Z</time></trkpt>
<trkpt lat="46.658857678994536" lon="7.16266424395144"><ele></ele><time>2014-10-30T3:14:17Z</time></trkpt>
<trkpt lat="46.65884871035814" lon="7.162684947252274"><ele></ele><time>2014-10-30T3:14:20Z</time></trkpt>
<trkpt lat="46.658837562426925" lon="7.162709506228566"><ele></ele><time>2014-10-30T3:14:23Z</time></trkpt>
<trkpt lat="46.65883571840823" lon="7.1627318020910025"><ele></ele><time>2014-10-30T3:14:26Z</time></trkpt>
<trkpt lat="46.658836053684354" lon="7.162784356623888"><ele></ele><time>2014-10-30T3:14:29Z</time></trkpt>
<trkpt lat="46.65883747860789" lon="7.1628384198993444"><ele></ele><time>2014-10-30T3:14:32Z</time></trkpt>
<trkpt lat="46.6588353831321" lon="7.162866163998842"><ele></ele><time>2014-10-30T3:14:35Z</time></trkpt>
<trkpt lat="46.658833706751466" lon="7.162893656641245"><ele></ele><time>2014-10-30T3:14:38Z</time></trkpt>
<trkpt lat="46.658833622932434" lon="7.162916958332062"><ele></ele><time>2014-10-30T3:14:41Z</time></trkpt>
<trkpt lat="46.658838987350464" lon="7.162944199517369"><ele></ele><time>2014-10-30T3:14:44Z</time></trkpt>
<trkpt lat="46.65884426794946" lon="7.162968255579472"><ele></ele><time>2014-10-30T3:14:47Z</time></trkpt>
<trkpt lat="46.65884418413043" lon="7.162990886718035"><ele></ele><time>2014-10-30T3:14:50Z</time></trkpt>
<trkpt lat="46.65884477086365" lon="7.163038579747081"><ele></ele><time>2014-10-30T3:14:53Z</time></trkpt>
<trkpt lat="46.658853739500046" lon="7.1631223149597645"><ele></ele><time>2014-10-30T3:14:56Z</time></trkpt>
<trkpt lat="46.65885541588068" lon="7.163215773180127"><ele></ele><time>2014-10-30T3:14:59Z</time></trkpt>
<trkpt lat="46.65885239839554" lon="7.163245864212513"><ele></ele><time>2014-10-30T3:15:2Z</time></trkpt>
<trkpt lat="46.6588475368917" lon="7.163275284692645"><ele></ele><time>2014-10-30T3:15:5Z</time></trkpt>
<trkpt lat="46.65884267538786" lon="7.1633063815534115"><ele></ele><time>2014-10-30T3:15:8Z</time></trkpt>
<trkpt lat="46.65883965790272" lon="7.163338903337717"><ele></ele><time>2014-10-30T3:15:11Z</time></trkpt>
<trkpt lat="46.65884116664529" lon="7.163432613015175"><ele></ele><time>2014-10-30T3:15:14Z</time></trkpt>
<trkpt lat="46.658851727843285" lon="7.163464548066258"><ele></ele><time>2014-10-30T3:15:17Z</time></trkpt>
<trkpt lat="46.65890973061323" lon="7.16352816671133"><ele></ele><time>2014-10-30T3:15:20Z</time></trkpt>
<trkpt lat="46.65893244557083" lon="7.16352422721684"><ele></ele><time>2014-10-30T3:15:23Z</time></trkpt>
<trkpt lat="46.65894711390138" lon="7.163534956052899"><ele></ele><time>2014-10-30T3:15:26Z</time></trkpt>
<trkpt lat="46.65898583829403" lon="7.163574350997806"><ele></ele><time>2014-10-30T3:15:29Z</time></trkpt>
<trkpt lat="46.65903361514211" lon="7.1635982394218445"><ele></ele><time>2014-10-30T3:15:32Z</time></trkpt>
<trkpt lat="46.659129336476326" lon="7.1636212058365345"><ele></ele><time>2014-10-30T3:15:35Z</time></trkpt>
<trkpt lat="46.6592637822032" lon="7.163677364587784"><ele></ele><time>2014-10-30T3:15:38Z</time></trkpt>
<trkpt lat="46.65930820629001" lon="7.163706449791789"><ele></ele><time>2014-10-30T3:15:41Z</time></trkpt>
<trkpt lat="46.65932798758149" lon="7.163721285760403"><ele></ele><time>2014-10-30T3:15:44Z</time></trkpt>
<trkpt lat="46.65935388766229" lon="7.163734529167414"><ele></ele><time>2014-10-30T3:15:47Z</time></trkpt>
<trkpt lat="46.65937861427665" lon="7.163746682927012"><ele></ele><time>2014-10-30T3:15:50Z</time></trkpt>
<trkpt lat="46.65940350852907" lon="7.163764787837863"><ele></ele><time>2014-10-30T3:15:53Z</time></trkpt>
<trkpt lat="46.65947592817247" lon="7.163845086470246"><ele></ele><time>2014-10-30T3:15:56Z</time></trkpt>
<trkpt lat="46.659552874043584" lon="7.163910297676921"><ele></ele><time>2014-10-30T3:15:59Z</time></trkpt>
<trkpt lat="46.65956838056445" lon="7.16392245143652"><ele></ele><time>2014-10-30T3:16:2Z</time></trkpt>
<trkpt lat="46.65958581492305" lon="7.163938041776419"><ele></ele><time>2014-10-30T3:16:5Z</time></trkpt>
<trkpt lat="46.659603249281645" lon="7.163957990705967"><ele></ele><time>2014-10-30T3:16:8Z</time></trkpt>
<trkpt lat="46.6596192587167" lon="7.163972910493612"><ele></ele><time>2014-10-30T3:16:11Z</time></trkpt>
<trkpt lat="46.659682458266616" lon="7.164023285731673"><ele></ele><time>2014-10-30T3:16:14Z</time></trkpt>
<trkpt lat="46.65978371165693" lon="7.164094615727663"><ele></ele><time>2014-10-30T3:16:17Z</time></trkpt>
<trkpt lat="46.659805001690984" lon="7.164105931296945"><ele></ele><time>2014-10-30T3:16:20Z</time></trkpt>
<trkpt lat="46.65981371887028" lon="7.164119929075241"><ele></ele><time>2014-10-30T3:16:23Z</time></trkpt>
<trkpt lat="46.659826543182135" lon="7.1641304064542055"><ele></ele><time>2014-10-30T3:16:26Z</time></trkpt>
<trkpt lat="46.659844145178795" lon="7.164139207452536"><ele></ele><time>2014-10-30T3:16:29Z</time></trkpt>
<trkpt lat="46.659880774095654" lon="7.164160078391433"><ele></ele><time>2014-10-30T3:16:32Z</time></trkpt>
<trkpt lat="46.659897956997156" lon="7.164171729236841"><ele></ele><time>2014-10-30T3:16:35Z</time></trkpt>
<trkpt lat="46.65991874411702" lon="7.164177428930998"><ele></ele><time>2014-10-30T3:16:38Z</time></trkpt>
<trkpt lat="46.65993785485625" lon="7.164186146110296"><ele></ele><time>2014-10-30T3:16:41Z</time></trkpt>
<trkpt lat="46.659955121576786" lon="7.164199640974402"><ele></ele><time>2014-10-30T3:16:44Z</time></trkpt>
<trkpt lat="46.65997641161084" lon="7.16420978307724"><ele></ele><time>2014-10-30T3:16:47Z</time></trkpt>
<trkpt lat="46.66004313156009" lon="7.164277425035834"><ele></ele><time>2014-10-30T3:16:50Z</time></trkpt>
<trkpt lat="46.6600648406893" lon="7.1643168199807405"><ele></ele><time>2014-10-30T3:16:53Z</time></trkpt>
<trkpt lat="46.6600754018873" lon="7.164348419755697"><ele></ele><time>2014-10-30T3:16:56Z</time></trkpt>
<trkpt lat="46.660079173743725" lon="7.164384126663208"><ele></ele><time>2014-10-30T3:16:59Z</time></trkpt>
<trkpt lat="46.66008244268596" lon="7.16441354714334"><ele></ele><time>2014-10-30T3:17:2Z</time></trkpt>
<trkpt lat="46.66008738800883" lon="7.1644405368715525"><ele></ele><time>2014-10-30T3:17:5Z</time></trkpt>
<trkpt lat="46.66009543463588" lon="7.164462497457862"><ele></ele><time>2014-10-30T3:17:8Z</time></trkpt>
<trkpt lat="46.66011085733771" lon="7.164518740028143"><ele></ele><time>2014-10-30T3:17:11Z</time></trkpt>
<trkpt lat="46.66012938134372" lon="7.164556374773383"><ele></ele><time>2014-10-30T3:17:14Z</time></trkpt>
<trkpt lat="46.6601494140923" lon="7.1645816043019295"><ele></ele><time>2014-10-30T3:17:17Z</time></trkpt>
<trkpt lat="46.660165172070265" lon="7.164597529917955"><ele></ele><time>2014-10-30T3:17:20Z</time></trkpt>
<trkpt lat="46.660166596993804" lon="7.164611779153347"><ele></ele><time>2014-10-30T3:17:23Z</time></trkpt>
<trkpt lat="46.66017472743988" lon="7.164622424170375"><ele></ele><time>2014-10-30T3:17:26Z</time></trkpt>
<trkpt lat="46.660220827907324" lon="7.164635164663196"><ele></ele><time>2014-10-30T3:17:29Z</time></trkpt>
<trkpt lat="46.66023692116141" lon="7.164639690890908"><ele></ele><time>2014-10-30T3:17:32Z</time></trkpt>
<trkpt lat="46.660252092406154" lon="7.164644049480557"><ele></ele><time>2014-10-30T3:17:35Z</time></trkpt>
<trkpt lat="46.660261899232864" lon="7.164642792195082"><ele></ele><time>2014-10-30T3:17:38Z</time></trkpt>
<trkpt lat="46.66027774102986" lon="7.1646413672715425"><ele></ele><time>2014-10-30T3:17:41Z</time></trkpt>
<trkpt lat="46.660289224237204" lon="7.164641115814447"><ele></ele><time>2014-10-30T3:17:44Z</time></trkpt>
<trkpt lat="46.66029995307326" lon="7.164638601243496"><ele></ele><time>2014-10-30T3:17:47Z</time></trkpt>
<trkpt lat="46.660314705222845" lon="7.1646384336054325"><ele></ele><time>2014-10-30T3:17:50Z</time></trkpt>
<trkpt lat="46.66036583483219" lon="7.164654862135649"><ele></ele><time>2014-10-30T3:17:53Z</time></trkpt>
<trkpt lat="46.66038142517209" lon="7.164661483839154"><ele></ele><time>2014-10-30T3:17:56Z</time></trkpt>
<trkpt lat="46.660401625558734" lon="7.164663663133979"><ele></ele><time>2014-10-30T3:17:59Z</time></trkpt>
<trkpt lat="46.66042006574571" lon="7.164663579314947"><ele></ele><time>2014-10-30T3:18:2Z</time></trkpt>
<trkpt lat="46.66043305769563" lon="7.164668356999755"><ele></ele><time>2014-10-30T3:18:5Z</time></trkpt>
<trkpt lat="46.66045133024454" lon="7.164670201018453"><ele></ele><time>2014-10-30T3:18:8Z</time></trkpt>
<trkpt lat="46.660464238375425" lon="7.164677744731307"><ele></ele><time>2014-10-30T3:18:11Z</time></trkpt>
<trkpt lat="46.66052928194404" lon="7.164705321192741"><ele></ele><time>2014-10-30T3:18:14Z</time></trkpt>
<trkpt lat="46.66055979207158" lon="7.164721665903926"><ele></ele><time>2014-10-30T3:18:17Z</time></trkpt>
<trkpt lat="46.6605796571821" lon="7.164727114140987"><ele></ele><time>2014-10-30T3:18:20Z</time></trkpt>
<trkpt lat="46.66060580871999" lon="7.164729712530971"><ele></ele><time>2014-10-30T3:18:23Z</time></trkpt>
<trkpt lat="46.66061754338443" lon="7.164730383083224"><ele></ele><time>2014-10-30T3:18:26Z</time></trkpt>
<trkpt lat="46.6606280207634" lon="7.164732059463859"><ele></ele><time>2014-10-30T3:18:29Z</time></trkpt>
<trkpt lat="46.66067060083151" lon="7.1647432912141085"><ele></ele><time>2014-10-30T3:18:32Z</time></trkpt>
<trkpt lat="46.660751989111304" lon="7.16476533561945"><ele></ele><time>2014-10-30T3:18:35Z</time></trkpt>
<trkpt lat="46.66080345399678" lon="7.164773885160685"><ele></ele><time>2014-10-30T3:18:38Z</time></trkpt>
<trkpt lat="46.66082457639277" lon="7.164783691987395"><ele></ele><time>2014-10-30T3:18:41Z</time></trkpt>
<trkpt lat="46.660847375169396" lon="7.164793498814106"><ele></ele><time>2014-10-30T3:18:44Z</time></trkpt>
<trkpt lat="46.660881070420146" lon="7.164804395288229"><ele></ele><time>2014-10-30T3:18:47Z</time></trkpt>
<trkpt lat="46.660897666588426" lon="7.164808167144656"><ele></ele><time>2014-10-30T3:18:50Z</time></trkpt>
<trkpt lat="46.660935720428824" lon="7.164815878495574"><ele></ele><time>2014-10-30T3:18:53Z</time></trkpt>
<trkpt lat="46.66107100434601" lon="7.164835073053837"><ele></ele><time>2014-10-30T3:18:56Z</time></trkpt>
<trkpt lat="46.66108877398074" lon="7.1648357436060905"><ele></ele><time>2014-10-30T3:18:59Z</time></trkpt>
<trkpt lat="46.66110503487289" lon="7.164838761091232"><ele></ele><time>2014-10-30T3:19:2Z</time></trkpt>
<trkpt lat="46.66111375205219" lon="7.164847813546658"><ele></ele><time>2014-10-30T3:19:5Z</time></trkpt>
<trkpt lat="46.66112800128758" lon="7.164858039468527"><ele></ele><time>2014-10-30T3:19:8Z</time></trkpt>
<trkpt lat="46.66113789193332" lon="7.164861643686891"><ele></ele><time>2014-10-30T3:19:11Z</time></trkpt>
<trkpt lat="46.66115423664451" lon="7.1648717019706964"><ele></ele><time>2014-10-30T3:19:14Z</time></trkpt>
<trkpt lat="46.661263620480895" lon="7.16491780243814"><ele></ele><time>2014-10-30T3:19:17Z</time></trkpt>
<trkpt lat="46.66129262186587" lon="7.164918053895235"><ele></ele><time>2014-10-30T3:19:20Z</time></trkpt>
<trkpt lat="46.661308631300926" lon="7.164920484647155"><ele></ele><time>2014-10-30T3:19:23Z</time></trkpt>
<trkpt lat="46.66132304817438" lon="7.164925932884216"><ele></ele><time>2014-10-30T3:19:26Z</time></trkpt>
<trkpt lat="46.66132950223982" lon="7.164934147149324"><ele></ele><time>2014-10-30T3:19:29Z</time></trkpt>
<trkpt lat="46.661342745646834" lon="7.164941523224115"><ele></ele><time>2014-10-30T3:19:32Z</time></trkpt>
<trkpt lat="46.66143670678139" lon="7.164976308122277"><ele></ele><time>2014-10-30T3:19:35Z</time></trkpt>
<trkpt lat="46.66145103983581" lon="7.164982510730624"><ele></ele><time>2014-10-30T3:19:38Z</time></trkpt>
<trkpt lat="46.66146503761411" lon="7.164990557357669"><ele></ele><time>2014-10-30T3:19:41Z</time></trkpt>
<trkpt lat="46.66148372925818" lon="7.164996089413762"><ele></ele><time>2014-10-30T3:19:44Z</time></trkpt>
<trkpt lat="46.66150141507387" lon="7.165003130212426"><ele></ele><time>2014-10-30T3:19:47Z</time></trkpt>
<trkpt lat="46.6615242138505" lon="7.165011763572693"><ele></ele><time>2014-10-30T3:19:50Z</time></trkpt>
<trkpt lat="46.66154810227454" lon="7.165018888190389"><ele></ele><time>2014-10-30T3:19:53Z</time></trkpt>
<trkpt lat="46.661565536633134" lon="7.165029281750321"><ele></ele><time>2014-10-30T3:19:56Z</time></trkpt>
<trkpt lat="46.66164491325617" lon="7.165066245943308"><ele></ele><time>2014-10-30T3:19:59Z</time></trkpt>
<trkpt lat="46.66166201233864" lon="7.165067000314593"><ele></ele><time>2014-10-30T3:20:2Z</time></trkpt>
<trkpt lat="46.66167232207954" lon="7.1650775615125895"><ele></ele><time>2014-10-30T3:20:5Z</time></trkpt>
<trkpt lat="46.66169830597937" lon="7.165094828233123"><ele></ele><time>2014-10-30T3:20:8Z</time></trkpt>
<trkpt lat="46.66171967983246" lon="7.165103629231453"><ele></ele><time>2014-10-30T3:20:11Z</time></trkpt>
<trkpt lat="46.661741053685546" lon="7.165109412744641"><ele></ele><time>2014-10-30T3:20:14Z</time></trkpt>
<trkpt lat="46.66176561266184" lon="7.165117878466845"><ele></ele><time>2014-10-30T3:20:17Z</time></trkpt>
<trkpt lat="46.66181883774698" lon="7.165143359452486"><ele></ele><time>2014-10-30T3:20:20Z</time></trkpt>
<trkpt lat="46.66187901981175" lon="7.1651349775493145"><ele></ele><time>2014-10-30T3:20:23Z</time></trkpt>
<trkpt lat="46.661896370351315" lon="7.165138749405742"><ele></ele><time>2014-10-30T3:20:26Z</time></trkpt>
<trkpt lat="46.66191187687218" lon="7.1651435270905495"><ele></ele><time>2014-10-30T3:20:29Z</time></trkpt>
<trkpt lat="46.66192738339305" lon="7.165150819346309"><ele></ele><time>2014-10-30T3:20:32Z</time></trkpt>
<trkpt lat="46.66195286437869" lon="7.165146796032786"><ele></ele><time>2014-10-30T3:20:35Z</time></trkpt>
<trkpt lat="46.66197909973562" lon="7.165148388594389"><ele></ele><time>2014-10-30T3:20:38Z</time></trkpt>
<trkpt lat="46.662000892683864" lon="7.165154591202736"><ele></ele><time>2014-10-30T3:20:41Z</time></trkpt>
<trkpt lat="46.66209192015231" lon="7.165150148794055"><ele></ele><time>2014-10-30T3:20:44Z</time></trkpt>
<trkpt lat="46.66215377859771" lon="7.165165655314922"><ele></ele><time>2014-10-30T3:20:47Z</time></trkpt>
<trkpt lat="46.66217724792659" lon="7.165171438828111"><ele></ele><time>2014-10-30T3:20:50Z</time></trkpt>
<trkpt lat="46.66219996288419" lon="7.16518116183579"><ele></ele><time>2014-10-30T3:20:53Z</time></trkpt>
<trkpt lat="46.6622251085937" lon="7.165192812681198"><ele></ele><time>2014-10-30T3:20:56Z</time></trkpt>
<trkpt lat="46.66224799118936" lon="7.16520463116467"><ele></ele><time>2014-10-30T3:20:59Z</time></trkpt>
<trkpt lat="46.662375731393695" lon="7.165266992524266"><ele></ele><time>2014-10-30T3:21:2Z</time></trkpt>
<trkpt lat="46.66242434643209" lon="7.165269926190376"><ele></ele><time>2014-10-30T3:21:5Z</time></trkpt>
<trkpt lat="46.66244010441005" lon="7.1652639750391245"><ele></ele><time>2014-10-30T3:21:8Z</time></trkpt>
<trkpt lat="46.66246105916798" lon="7.165260538458824"><ele></ele><time>2014-10-30T3:21:11Z</time></trkpt>
<trkpt lat="46.662475895136595" lon="7.165251150727272"><ele></ele><time>2014-10-30T3:21:14Z</time></trkpt>
<trkpt lat="46.66249240748584" lon="7.16524813324213"><ele></ele><time>2014-10-30T3:21:17Z</time></trkpt>
<trkpt lat="46.662601539865136" lon="7.165240589529276"><ele></ele><time>2014-10-30T3:21:20Z</time></trkpt>
<trkpt lat="46.66268267668784" lon="7.165238074958324"><ele></ele><time>2014-10-30T3:21:23Z</time></trkpt>
<trkpt lat="46.662700194865465" lon="7.165242098271847"><ele></ele><time>2014-10-30T3:21:26Z</time></trkpt>
<trkpt lat="46.662717293947935" lon="7.165246456861496"><ele></ele><time>2014-10-30T3:21:29Z</time></trkpt>
<trkpt lat="46.6627362370491" lon="7.165244277566671"><ele></ele><time>2014-10-30T3:21:32Z</time></trkpt>
<trkpt lat="46.66275325231254" lon="7.1652445290237665"><ele></ele><time>2014-10-30T3:21:35Z</time></trkpt>
<trkpt lat="46.66277328506112" lon="7.165257269516587"><ele></ele><time>2014-10-30T3:21:38Z</time></trkpt>
<trkpt lat="46.6627933178097" lon="7.165269507095218"><ele></ele><time>2014-10-30T3:21:41Z</time></trkpt>
<trkpt lat="46.662862384691834" lon="7.1653046272695065"><ele></ele><time>2014-10-30T3:21:44Z</time></trkpt>
<trkpt lat="46.66287671774626" lon="7.165324660018086"><ele></ele><time>2014-10-30T3:21:47Z</time></trkpt>
<trkpt lat="46.66289054788649" lon="7.165346536785364"><ele></ele><time>2014-10-30T3:21:50Z</time></trkpt>
<trkpt lat="46.662905467674136" lon="7.165369754657149"><ele></ele><time>2014-10-30T3:21:53Z</time></trkpt>
<trkpt lat="46.6629193816334" lon="7.165389284491539"><ele></ele><time>2014-10-30T3:21:56Z</time></trkpt>
<trkpt lat="46.66296665556729" lon="7.165486263111234"><ele></ele><time>2014-10-30T3:21:59Z</time></trkpt>
<trkpt lat="46.66297009214759" lon="7.16550855897367"><ele></ele><time>2014-10-30T3:22:2Z</time></trkpt>
<trkpt lat="46.66297595947981" lon="7.165532950311899"><ele></ele><time>2014-10-30T3:22:5Z</time></trkpt>
<trkpt lat="46.662979647517204" lon="7.165554156526923"><ele></ele><time>2014-10-30T3:22:8Z</time></trkpt>
<trkpt lat="46.66298300027847" lon="7.1655770391225815"><ele></ele><time>2014-10-30T3:22:11Z</time></trkpt>
<trkpt lat="46.662996243685484" lon="7.165704695507884"><ele></ele><time>2014-10-30T3:22:14Z</time></trkpt>
<trkpt lat="46.662996830418706" lon="7.165729757398367"><ele></ele><time>2014-10-30T3:22:17Z</time></trkpt>
<trkpt lat="46.662999261170626" lon="7.165754735469818"><ele></ele><time>2014-10-30T3:22:20Z</time></trkpt>
<trkpt lat="46.66300479322672" lon="7.1657805517315865"><ele></ele><time>2014-10-30T3:22:23Z</time></trkpt>
<trkpt lat="46.66300688870251" lon="7.16580712236464"><ele></ele><time>2014-10-30T3:22:26Z</time></trkpt>
<trkpt lat="46.663000266999006" lon="7.165890773758292"><ele></ele><time>2014-10-30T3:22:29Z</time></trkpt>
<trkpt lat="46.6629867721349" lon="7.165974173694849"><ele></ele><time>2014-10-30T3:22:32Z</time></trkpt>
<trkpt lat="46.66297704912722" lon="7.165999235585332"><ele></ele><time>2014-10-30T3:22:35Z</time></trkpt>
<trkpt lat="46.66296657174826" lon="7.166019938886166"><ele></ele><time>2014-10-30T3:22:38Z</time></trkpt>
<trkpt lat="46.662951316684484" lon="7.166043575853109"><ele></ele><time>2014-10-30T3:22:41Z</time></trkpt>
<trkpt lat="46.66293404996395" lon="7.16606117784977"><ele></ele><time>2014-10-30T3:22:44Z</time></trkpt>
<trkpt lat="46.66284469887614" lon="7.16622001491487"><ele></ele><time>2014-10-30T3:22:47Z</time></trkpt>
<trkpt lat="46.66284562088549" lon="7.166435848921537"><ele></ele><time>2014-10-30T3:22:50Z</time></trkpt>
<trkpt lat="46.6628591157496" lon="7.166509609669447"><ele></ele><time>2014-10-30T3:22:53Z</time></trkpt>
<trkpt lat="46.662875544279814" lon="7.166581861674786"><ele></ele><time>2014-10-30T3:22:56Z</time></trkpt>
<trkpt lat="46.66289750486612" lon="7.1666572988033295"><ele></ele><time>2014-10-30T3:22:59Z</time></trkpt>
<trkpt lat="46.66292801499367" lon="7.166728042066097"><ele></ele><time>2014-10-30T3:23:2Z</time></trkpt>
<trkpt lat="46.66295592673123" lon="7.166807753965259"><ele></ele><time>2014-10-30T3:23:5Z</time></trkpt>
<trkpt lat="46.662975288927555" lon="7.166898110881448"><ele></ele><time>2014-10-30T3:23:8Z</time></trkpt>
<trkpt lat="46.66299414820969" lon="7.166994418948889"><ele></ele><time>2014-10-30T3:23:11Z</time></trkpt>
<trkpt lat="46.663014851510525" lon="7.167094582691789"><ele></ele><time>2014-10-30T3:23:14Z</time></trkpt>
<trkpt lat="46.66302767582238" lon="7.167207067832351"><ele></ele><time>2014-10-30T3:23:17Z</time></trkpt>
<trkpt lat="46.66303664445877" lon="7.167332042008638"><ele></ele><time>2014-10-30T3:23:20Z</time></trkpt>
<trkpt lat="46.66305525228381" lon="7.16744645498693"><ele></ele><time>2014-10-30T3:23:23Z</time></trkpt>
<trkpt lat="46.66310353204608" lon="7.167540583759546"><ele></ele><time>2014-10-30T3:23:26Z</time></trkpt>
<trkpt lat="46.663167318329215" lon="7.16762088239193"><ele></ele><time>2014-10-30T3:23:29Z</time></trkpt>
<trkpt lat="46.66323311626911" lon="7.1676969062536955"><ele></ele><time>2014-10-30T3:23:32Z</time></trkpt>
<trkpt lat="46.663297824561596" lon="7.167768906801939"><ele></ele><time>2014-10-30T3:23:35Z</time></trkpt>
<trkpt lat="46.66336102411151" lon="7.167846187949181"><ele></ele><time>2014-10-30T3:23:38Z</time></trkpt>
<trkpt lat="46.6634048614651" lon="7.1679492853581905"><ele></ele><time>2014-10-30T3:23:41Z</time></trkpt>
<trkpt lat="46.66342648677528" lon="7.168077444657683"><ele></ele><time>2014-10-30T3:23:44Z</time></trkpt>
<trkpt lat="46.663422798737884" lon="7.168208118528128"><ele></ele><time>2014-10-30T3:23:47Z</time></trkpt>
<trkpt lat="46.66340452618897" lon="7.168342396616936"><ele></ele><time>2014-10-30T3:23:50Z</time></trkpt>
<trkpt lat="46.66337803937495" lon="7.168479356914759"><ele></ele><time>2014-10-30T3:23:53Z</time></trkpt>
<trkpt lat="46.66335138492286" lon="7.168615898117423"><ele></ele><time>2014-10-30T3:23:56Z</time></trkpt>
<trkpt lat="46.66332573629916" lon="7.168754618614912"><ele></ele><time>2014-10-30T3:23:59Z</time></trkpt>
<trkpt lat="46.66330930776894" lon="7.168893422931433"><ele></ele><time>2014-10-30T3:24:2Z</time></trkpt>
<trkpt lat="46.66327804327011" lon="7.169025773182511"><ele></ele><time>2014-10-30T3:24:5Z</time></trkpt>
<trkpt lat="46.663222052156925" lon="7.169115459546447"><ele></ele><time>2014-10-30T3:24:8Z</time></trkpt>
<trkpt lat="46.663168324157596" lon="7.169187292456627"><ele></ele><time>2014-10-30T3:24:11Z</time></trkpt>
<trkpt lat="46.663124738261104" lon="7.169248731806874"><ele></ele><time>2014-10-30T3:24:14Z</time></trkpt>
<trkpt lat="46.663087690249085" lon="7.169299861416221"><ele></ele><time>2014-10-30T3:24:17Z</time></trkpt>
<trkpt lat="46.6630507260561" lon="7.169339004904032"><ele></ele><time>2014-10-30T3:24:20Z</time></trkpt>
<trkpt lat="46.66302256286144" lon="7.169365743175149"><ele></ele><time>2014-10-30T3:24:23Z</time></trkpt>
<trkpt lat="46.663001608103514" lon="7.1693872846663"><ele></ele><time>2014-10-30T3:24:26Z</time></trkpt>
<trkpt lat="46.66298417374492" lon="7.169400779530406"><ele></ele><time>2014-10-30T3:24:29Z</time></trkpt>
<trkpt lat="46.66297252289951" lon="7.169399941340089"><ele></ele><time>2014-10-30T3:24:32Z</time></trkpt>
<trkpt lat="46.6629558429122" lon="7.169393235817552"><ele></ele><time>2014-10-30T3:24:35Z</time></trkpt>
<trkpt lat="46.6629365645349" lon="7.169389547780156"><ele></ele><time>2014-10-30T3:24:38Z</time></trkpt>
<trkpt lat="46.662917202338576" lon="7.169391559436917"><ele></ele><time>2014-10-30T3:24:41Z</time></trkpt>
<trkpt lat="46.662902534008026" lon="7.169391643255949"><ele></ele><time>2014-10-30T3:24:44Z</time></trkpt>
<trkpt lat="46.66288987733424" lon="7.169393487274647"><ele></ele><time>2014-10-30T3:24:47Z</time></trkpt>
<trkpt lat="46.662841932848096" lon="7.169422823935747"><ele></ele><time>2014-10-30T3:24:50Z</time></trkpt>
<trkpt lat="46.66283447295427" lon="7.169438665732741"><ele></ele><time>2014-10-30T3:24:53Z</time></trkpt>
<trkpt lat="46.662824833765626" lon="7.169453082606196"><ele></ele><time>2014-10-30T3:24:56Z</time></trkpt>
<trkpt lat="46.66281871497631" lon="7.169464733451605"><ele></ele><time>2014-10-30T3:24:59Z</time></trkpt>
<trkpt lat="46.66280798614025" lon="7.169474037364125"><ele></ele><time>2014-10-30T3:25:2Z</time></trkpt>
<trkpt lat="46.66279851458967" lon="7.169479988515377"><ele></ele><time>2014-10-30T3:25:5Z</time></trkpt>
<trkpt lat="46.66279566474259" lon="7.169482167810202"><ele></ele><time>2014-10-30T3:25:8Z</time></trkpt>
<trkpt lat="46.66277672164142" lon="7.169520892202854"><ele></ele><time>2014-10-30T3:25:11Z</time></trkpt>
<trkpt lat="46.66275140829384" lon="7.169546540826559"><ele></ele><time>2014-10-30T3:25:14Z</time></trkpt>
<trkpt lat="46.66273665614426" lon="7.169560873880982"><ele></ele><time>2014-10-30T3:25:17Z</time></trkpt>
<trkpt lat="46.66272131726146" lon="7.16957394964993"><ele></ele><time>2014-10-30T3:25:20Z</time></trkpt>
<trkpt lat="46.662702206522226" lon="7.169585097581148"><ele></ele><time>2014-10-30T3:25:23Z</time></trkpt>
<trkpt lat="46.66268192231655" lon="7.169591970741749"><ele></ele><time>2014-10-30T3:25:26Z</time></trkpt>
<trkpt lat="46.662652753293514" lon="7.169611919671297"><ele></ele><time>2014-10-30T3:25:29Z</time></trkpt>
<trkpt lat="46.662601958960295" lon="7.169683501124382"><ele></ele><time>2014-10-30T3:25:32Z</time></trkpt>
<trkpt lat="46.662592235952616" lon="7.169698337092996"><ele></ele><time>2014-10-30T3:25:35Z</time></trkpt>
<trkpt lat="46.66257882490754" lon="7.169725075364113"><ele></ele><time>2014-10-30T3:25:38Z</time></trkpt>
<trkpt lat="46.66256222873926" lon="7.169743347913027"><ele></ele><time>2014-10-30T3:25:41Z</time></trkpt>
<trkpt lat="46.66254881769419" lon="7.169762626290321"><ele></ele><time>2014-10-30T3:25:44Z</time></trkpt>
<trkpt lat="46.662521408870816" lon="7.169802859425545"><ele></ele><time>2014-10-30T3:25:47Z</time></trkpt>
<trkpt lat="46.662477403879166" lon="7.16995314694941"><ele></ele><time>2014-10-30T3:25:50Z</time></trkpt>
<trkpt lat="46.662490144371986" lon="7.1700043603777885"><ele></ele><time>2014-10-30T3:25:53Z</time></trkpt>
<trkpt lat="46.662494000047445" lon="7.170033613219857"><ele></ele><time>2014-10-30T3:25:56Z</time></trkpt>
<trkpt lat="46.66250171139836" lon="7.170062027871609"><ele></ele><time>2014-10-30T3:25:59Z</time></trkpt>
<trkpt lat="46.66251294314861" lon="7.170086670666933"><ele></ele><time>2014-10-30T3:26:2Z</time></trkpt>
<trkpt lat="46.662526689469814" lon="7.170107625424862"><ele></ele><time>2014-10-30T3:26:5Z</time></trkpt>
<trkpt lat="46.66257882490754" lon="7.170215332880616"><ele></ele><time>2014-10-30T3:26:8Z</time></trkpt>
<trkpt lat="46.66260497644544" lon="7.170281047001481"><ele></ele><time>2014-10-30T3:26:11Z</time></trkpt>
<trkpt lat="46.662616124376655" lon="7.17029957100749"><ele></ele><time>2014-10-30T3:26:14Z</time></trkpt>
<trkpt lat="46.66262802667916" lon="7.1703180111944675"><ele></ele><time>2014-10-30T3:26:17Z</time></trkpt>
<trkpt lat="46.6626344807446" lon="7.170333601534367"><ele></ele><time>2014-10-30T3:26:20Z</time></trkpt>
<trkpt lat="46.66264520958066" lon="7.1703512873500586"><ele></ele><time>2014-10-30T3:26:23Z</time></trkpt>
<trkpt lat="46.662703128531575" lon="7.170437537133694"><ele></ele><time>2014-10-30T3:26:26Z</time></trkpt>
<trkpt lat="46.66272475384176" lon="7.170465532690287"><ele></ele><time>2014-10-30T3:26:29Z</time></trkpt>
<trkpt lat="46.66273472830653" lon="7.170487241819501"><ele></ele><time>2014-10-30T3:26:32Z</time></trkpt>
<trkpt lat="46.66274872608483" lon="7.170499647036195"><ele></ele><time>2014-10-30T3:26:35Z</time></trkpt>
<trkpt lat="46.66276431642473" lon="7.17050920240581"><ele></ele><time>2014-10-30T3:26:38Z</time></trkpt>
<trkpt lat="46.66277948766947" lon="7.170518673956394"><ele></ele><time>2014-10-30T3:26:41Z</time></trkpt>
<trkpt lat="46.662796922028065" lon="7.170532001182437"><ele></ele><time>2014-10-30T3:26:44Z</time></trkpt>
<trkpt lat="46.66283447295427" lon="7.170561421662569"><ele></ele><time>2014-10-30T3:26:47Z</time></trkpt>
<trkpt lat="46.662880070507526" lon="7.170580280944705"><ele></ele><time>2014-10-30T3:26:50Z</time></trkpt>
<trkpt lat="46.66289448738098" lon="7.170583298429847"><ele></ele><time>2014-10-30T3:26:53Z</time></trkpt>
<trkpt lat="46.6629090718925" lon="7.170581789687276"><ele></ele><time>2014-10-30T3:26:56Z</time></trkpt>
<trkpt lat="46.662923069670796" lon="7.170582376420498"><ele></ele><time>2014-10-30T3:26:59Z</time></trkpt>
<trkpt lat="46.66292390786111" lon="7.170587740838528"><ele></ele><time>2014-10-30T3:27:2Z</time></trkpt>
<trkpt lat="46.662951819598675" lon="7.1706034149974585"><ele></ele><time>2014-10-30T3:27:5Z</time></trkpt>
<trkpt lat="46.66298056952655" lon="7.170602157711983"><ele></ele><time>2014-10-30T3:27:8Z</time></trkpt>
<trkpt lat="46.66298970580101" lon="7.1706045884639025"><ele></ele><time>2014-10-30T3:27:11Z</time></trkpt>
<trkpt lat="46.66299398057163" lon="7.170609114691615"><ele></ele><time>2014-10-30T3:27:14Z</time></trkpt>
<trkpt lat="46.66300227865577" lon="7.170613389462233"><ele></ele><time>2014-10-30T3:27:17Z</time></trkpt>
<trkpt lat="46.66300496086478" lon="7.170621016994119"><ele></ele><time>2014-10-30T3:27:20Z</time></trkpt>
<trkpt lat="46.663013342767954" lon="7.170636858791113"><ele></ele><time>2014-10-30T3:27:23Z</time></trkpt>
<trkpt lat="46.66301669552922" lon="7.170639541000128"><ele></ele><time>2014-10-30T3:27:26Z</time></trkpt>
<trkpt lat="46.663019796833396" lon="7.170639121904969"><ele></ele><time>2014-10-30T3:27:29Z</time></trkpt>
<trkpt lat="46.66301912628114" lon="7.170643983408809"><ele></ele><time>2014-10-30T3:27:32Z</time></trkpt>
<trkpt lat="46.66306195780635" lon="7.170628309249878"><ele></ele><time>2014-10-30T3:27:35Z</time></trkpt>
<trkpt lat="46.66310395114124" lon="7.170598553493619"><ele></ele><time>2014-10-30T3:27:38Z</time></trkpt>
<trkpt lat="46.663117446005344" lon="7.170592937618494"><ele></ele><time>2014-10-30T3:27:41Z</time></trkpt>
<trkpt lat="46.6631300188601" lon="7.1705839689821005"><ele></ele><time>2014-10-30T3:27:44Z</time></trkpt>
<trkpt lat="46.6631387360394" lon="7.170579861849546"><ele></ele><time>2014-10-30T3:27:47Z</time></trkpt>
<trkpt lat="46.663148207589984" lon="7.170576425269246"><ele></ele><time>2014-10-30T3:27:50Z</time></trkpt>
<trkpt lat="46.66318668052554" lon="7.170570306479931"><ele></ele><time>2014-10-30T3:27:53Z</time></trkpt>
<trkpt lat="46.663231775164604" lon="7.170581119135022"><ele></ele><time>2014-10-30T3:27:56Z</time></trkpt>
<trkpt lat="46.663245018571615" lon="7.170582627877593"><ele></ele><time>2014-10-30T3:27:59Z</time></trkpt>
<trkpt lat="46.663260692730546" lon="7.170582292601466"><ele></ele><time>2014-10-30T3:28:2Z</time></trkpt>
<trkpt lat="46.66327804327011" lon="7.170581957325339"><ele></ele><time>2014-10-30T3:28:5Z</time></trkpt>
<trkpt lat="46.663289023563266" lon="7.170584723353386"><ele></ele><time>2014-10-30T3:28:8Z</time></trkpt>
<trkpt lat="46.66333428584039" lon="7.170590087771416"><ele></ele><time>2014-10-30T3:28:11Z</time></trkpt>
<trkpt lat="46.66334694251418" lon="7.170595284551382"><ele></ele><time>2014-10-30T3:28:14Z</time></trkpt>
<trkpt lat="46.66341827251017" lon="7.170592183247209"><ele></ele><time>2014-10-30T3:28:17Z</time></trkpt>
<trkpt lat="46.663425313308835" lon="7.170585645362735"><ele></ele><time>2014-10-30T3:28:20Z</time></trkpt>
<trkpt lat="46.66344660334289" lon="7.170578939840198"><ele></ele><time>2014-10-30T3:28:23Z</time></trkpt>
<trkpt lat="46.66346428915858" lon="7.170575251802802"><ele></ele><time>2014-10-30T3:28:26Z</time></trkpt>
<trkpt lat="46.66348189115524" lon="7.170575838536024"><ele></ele><time>2014-10-30T3:28:29Z</time></trkpt>
<trkpt lat="46.66349555365741" lon="7.170580867677927"><ele></ele><time>2014-10-30T3:28:32Z</time></trkpt>
<trkpt lat="46.663582641631365" lon="7.170560332015157"><ele></ele><time>2014-10-30T3:28:35Z</time></trkpt>
<trkpt lat="46.66359328664839" lon="7.170548681169748"><ele></ele><time>2014-10-30T3:28:38Z</time></trkpt>
<trkpt lat="46.66360384784639" lon="7.170543987303972"><ele></ele><time>2014-10-30T3:28:41Z</time></trkpt>
<trkpt lat="46.66361432522535" lon="7.170540718361735"><ele></ele><time>2014-10-30T3:28:44Z</time></trkpt>
<trkpt lat="46.663627065718174" lon="7.1705321688205"><ele></ele><time>2014-10-30T3:28:47Z</time></trkpt>
<trkpt lat="46.66364265605807" lon="7.17052043415606"><ele></ele><time>2014-10-30T3:28:50Z</time></trkpt>
<trkpt lat="46.66368808597326" lon="7.170445416122675"><ele></ele><time>2014-10-30T3:28:53Z</time></trkpt>
<trkpt lat="46.66369495913386" lon="7.170428736135364"><ele></ele><time>2014-10-30T3:28:56Z</time></trkpt>
<trkpt lat="46.66369873099029" lon="7.17041046358645"><ele></ele><time>2014-10-30T3:28:59Z</time></trkpt>
<trkpt lat="46.66370929218829" lon="7.170398393645883"><ele></ele><time>2014-10-30T3:29:2Z</time></trkpt>
<trkpt lat="46.66371239349246" lon="7.170386407524347"><ele></ele><time>2014-10-30T3:29:5Z</time></trkpt>
<trkpt lat="46.66372010484338" lon="7.17037727124989"><ele></ele><time>2014-10-30T3:29:8Z</time></trkpt>
<trkpt lat="46.66374952532351" lon="7.170320609584451"><ele></ele><time>2014-10-30T3:29:11Z</time></trkpt>
<trkpt lat="46.66376092471182" lon="7.170302253216505"><ele></ele><time>2014-10-30T3:29:14Z</time></trkpt>
<trkpt lat="46.66376922279596" lon="7.170286746695638"><ele></ele><time>2014-10-30T3:29:17Z</time></trkpt>
<trkpt lat="46.663775593042374" lon="7.170275347307324"><ele></ele><time>2014-10-30T3:29:20Z</time></trkpt>
<trkpt lat="46.663782550022006" lon="7.170268390327692"><ele></ele><time>2014-10-30T3:29:23Z</time></trkpt>
<trkpt lat="46.66381440125406" lon="7.17023360542953"><ele></ele><time>2014-10-30T3:29:26Z</time></trkpt>
<trkpt lat="46.663827979937196" lon="7.170226229354739"><ele></ele><time>2014-10-30T3:29:29Z</time></trkpt>
<trkpt lat="46.663844995200634" lon="7.170213740319014"><ele></ele><time>2014-10-30T3:29:32Z</time></trkpt>
<trkpt lat="46.66386486031115" lon="7.170198569074273"><ele></ele><time>2014-10-30T3:29:35Z</time></trkpt>
<trkpt lat="46.66388422250748" lon="7.170189348980784"><ele></ele><time>2014-10-30T3:29:38Z</time></trkpt>
<trkpt lat="46.66390878148377" lon="7.170175854116678"><ele></ele><time>2014-10-30T3:29:41Z</time></trkpt>
<trkpt lat="46.66395530104637" lon="7.170152049511671"><ele></ele><time>2014-10-30T3:29:44Z</time></trkpt>
<trkpt lat="46.66402554139495" lon="7.170136710628867"><ele></ele><time>2014-10-30T3:29:47Z</time></trkpt>
<trkpt lat="46.664040461182594" lon="7.170141823589802"><ele></ele><time>2014-10-30T3:29:50Z</time></trkpt>
<trkpt lat="46.66405730880797" lon="7.170147355645895"><ele></ele><time>2014-10-30T3:29:53Z</time></trkpt>
<trkpt lat="46.66407004930079" lon="7.1701498702168465"><ele></ele><time>2014-10-30T3:29:56Z</time></trkpt>
<trkpt lat="46.66408094577491" lon="7.170148612931371"><ele></ele><time>2014-10-30T3:29:59Z</time></trkpt>
<trkpt lat="46.66414129547775" lon="7.170155234634876"><ele></ele><time>2014-10-30T3:30:2Z</time></trkpt>
<trkpt lat="46.66416736319661" lon="7.170164454728365"><ele></ele><time>2014-10-30T3:30:5Z</time></trkpt>
<trkpt lat="46.66418236680329" lon="7.170171579346061"><ele></ele><time>2014-10-30T3:30:8Z</time></trkpt>
<trkpt lat="46.664198292419314" lon="7.170177111402154"><ele></ele><time>2014-10-30T3:30:11Z</time></trkpt>
<trkpt lat="46.664217822253704" lon="7.1701831463724375"><ele></ele><time>2014-10-30T3:30:14Z</time></trkpt>
<trkpt lat="46.66423265822232" lon="7.17018767260015"><ele></ele><time>2014-10-30T3:30:17Z</time></trkpt>
<trkpt lat="46.66426165960729" lon="7.170202927663922"><ele></ele><time>2014-10-30T3:30:20Z</time></trkpt>
<trkpt lat="46.66431178338826" lon="7.1702388022094965"><ele></ele><time>2014-10-30T3:30:23Z</time></trkpt>
<trkpt lat="46.66432770900428" lon="7.17024483717978"><ele></ele><time>2014-10-30T3:30:26Z</time></trkpt>
<trkpt lat="46.66434179060161" lon="7.170252380892634"><ele></ele><time>2014-10-30T3:30:29Z</time></trkpt>
<trkpt lat="46.66435142979026" lon="7.170266127213836"><ele></ele><time>2014-10-30T3:30:32Z</time></trkpt>
<trkpt lat="46.66436810977757" lon="7.1702744252979755"><ele></ele><time>2014-10-30T3:30:35Z</time></trkpt>
<trkpt lat="46.6643975302577" lon="7.170287752524018"><ele></ele><time>2014-10-30T3:30:38Z</time></trkpt>
<trkpt lat="46.66441714391112" lon="7.170286076143384"><ele></ele><time>2014-10-30T3:30:41Z</time></trkpt>
<trkpt lat="46.6644287109375" lon="7.17027417384088"><ele></ele><time>2014-10-30T3:30:44Z</time></trkpt>
<trkpt lat="46.66442762129009" lon="7.1702714916318655"><ele></ele><time>2014-10-30T3:30:47Z</time></trkpt>
<trkpt lat="46.66442301124334" lon="7.170275263488293"><ele></ele><time>2014-10-30T3:30:50Z</time></trkpt>
<trkpt lat="46.66442376561463" lon="7.1702703181654215"><ele></ele><time>2014-10-30T3:30:53Z</time></trkpt>
<trkpt lat="46.66444983333349" lon="7.170231929048896"><ele></ele><time>2014-10-30T3:30:56Z</time></trkpt>
<trkpt lat="46.66450247168541" lon="7.170186415314674"><ele></ele><time>2014-10-30T3:30:59Z</time></trkpt>
<trkpt lat="46.664513032883406" lon="7.170171411707997"><ele></ele><time>2014-10-30T3:31:2Z</time></trkpt>
<trkpt lat="46.66452443227172" lon="7.170165712013841"><ele></ele><time>2014-10-30T3:31:5Z</time></trkpt>
<trkpt lat="46.664535412564874" lon="7.170174513012171"><ele></ele><time>2014-10-30T3:31:8Z</time></trkpt>
<trkpt lat="46.66454069316387" lon="7.170166298747063"><ele></ele><time>2014-10-30T3:31:11Z</time></trkpt>
<trkpt lat="46.66460984386504" lon="7.170172417536378"><ele></ele><time>2014-10-30T3:31:14Z</time></trkpt>
<trkpt lat="46.664670780301094" lon="7.170179290696979"><ele></ele><time>2014-10-30T3:31:17Z</time></trkpt>
<trkpt lat="46.664680168032646" lon="7.170185996219516"><ele></ele><time>2014-10-30T3:31:20Z</time></trkpt>
<trkpt lat="46.66468829847872" lon="7.170194294303656"><ele></ele><time>2014-10-30T3:31:23Z</time></trkpt>
<trkpt lat="46.6647017095238" lon="7.170196725055575"><ele></ele><time>2014-10-30T3:31:26Z</time></trkpt>
<trkpt lat="46.66472132317722" lon="7.1701954677701"><ele></ele><time>2014-10-30T3:31:29Z</time></trkpt>
<trkpt lat="46.66477463208139" lon="7.1702181827276945"><ele></ele><time>2014-10-30T3:31:32Z</time></trkpt>
<trkpt lat="46.66484017856419" lon="7.170234443619847"><ele></ele><time>2014-10-30T3:31:35Z</time></trkpt>
<trkpt lat="46.6648811660707" lon="7.17025020159781"><ele></ele><time>2014-10-30T3:31:38Z</time></trkpt>
<trkpt lat="46.664895080029964" lon="7.170254476368427"><ele></ele><time>2014-10-30T3:31:41Z</time></trkpt>
<trkpt lat="46.66490790434182" lon="7.170253386721015"><ele></ele><time>2014-10-30T3:31:44Z</time></trkpt>
<trkpt lat="46.664919052273035" lon="7.170254308730364"><ele></ele><time>2014-10-30T3:31:47Z</time></trkpt>
<trkpt lat="46.664932714775205" lon="7.1702564880251884"><ele></ele><time>2014-10-30T3:31:50Z</time></trkpt>
<trkpt lat="46.66499591432512" lon="7.170275263488293"><ele></ele><time>2014-10-30T3:31:53Z</time></trkpt>
<trkpt lat="46.665029944851995" lon="7.170282304286957"><ele></ele><time>2014-10-30T3:31:56Z</time></trkpt>
<trkpt lat="46.66503849439323" lon="7.170283226296306"><ele></ele><time>2014-10-30T3:31:59Z</time></trkpt>
<trkpt lat="46.66504679247737" lon="7.170286662876606"><ele></ele><time>2014-10-30T3:32:2Z</time></trkpt>
<trkpt lat="46.6650608740747" lon="7.170286495238543"><ele></ele><time>2014-10-30T3:32:5Z</time></trkpt>
<trkpt lat="46.66510940529406" lon="7.170302756130695"><ele></ele><time>2014-10-30T3:32:8Z</time></trkpt>
<trkpt lat="46.66511535644531" lon="7.170305605977774"><ele></ele><time>2014-10-30T3:32:11Z</time></trkpt>
<trkpt lat="46.66512859985232" lon="7.170303091406822"><ele></ele><time>2014-10-30T3:32:14Z</time></trkpt>
<trkpt lat="46.66513413190842" lon="7.170303678140044"><ele></ele><time>2014-10-30T3:32:17Z</time></trkpt>
<trkpt lat="46.665147794410586" lon="7.170299403369427"><ele></ele><time>2014-10-30T3:32:20Z</time></trkpt>
<trkpt lat="46.66516019962728" lon="7.170296553522348"><ele></ele><time>2014-10-30T3:32:23Z</time></trkpt>
<trkpt lat="46.6652353014797" lon="7.170290602371097"><ele></ele><time>2014-10-30T3:32:26Z</time></trkpt>
<trkpt lat="46.66532976552844" lon="7.170278029516339"><ele></ele><time>2014-10-30T3:32:29Z</time></trkpt>
<trkpt lat="46.66534183546901" lon="7.170280376449227"><ele></ele><time>2014-10-30T3:32:32Z</time></trkpt>
<trkpt lat="46.66535600088537" lon="7.170274592936039"><ele></ele><time>2014-10-30T3:32:35Z</time></trkpt>
<trkpt lat="46.66536622680724" lon="7.1702841483056545"><ele></ele><time>2014-10-30T3:32:38Z</time></trkpt>
<trkpt lat="46.66538206860423" lon="7.170286495238543"><ele></ele><time>2014-10-30T3:32:41Z</time></trkpt>
<trkpt lat="46.665392043069005" lon="7.170279957354069"><ele></ele><time>2014-10-30T3:32:44Z</time></trkpt>
<trkpt lat="46.665453063324094" lon="7.1702411491423845"><ele></ele><time>2014-10-30T3:32:47Z</time></trkpt>
<trkpt lat="46.665517603978515" lon="7.170190690085292"><ele></ele><time>2014-10-30T3:32:50Z</time></trkpt>
<trkpt lat="46.665533697232604" lon="7.1701837331056595"><ele></ele><time>2014-10-30T3:32:53Z</time></trkpt>
<trkpt lat="46.66554534807801" lon="7.170172166079283"><ele></ele><time>2014-10-30T3:32:56Z</time></trkpt>
<trkpt lat="46.665557166561484" lon="7.170166214928031"><ele></ele><time>2014-10-30T3:32:59Z</time></trkpt>
<trkpt lat="46.66556462645531" lon="7.170164035633206"><ele></ele><time>2014-10-30T3:33:2Z</time></trkpt>
<trkpt lat="46.66557661257684" lon="7.170166969299316"><ele></ele><time>2014-10-30T3:33:5Z</time></trkpt>
<trkpt lat="46.66558080352843" lon="7.170167053118348"><ele></ele><time>2014-10-30T3:33:8Z</time></trkpt>
<trkpt lat="46.665644170716405" lon="7.170171830803156"><ele></ele><time>2014-10-30T3:33:11Z</time></trkpt>
<trkpt lat="46.665699407458305" lon="7.170170992612839"><ele></ele><time>2014-10-30T3:33:14Z</time></trkpt>
<trkpt lat="46.66570854373276" lon="7.170171411707997"><ele></ele><time>2014-10-30T3:33:17Z</time></trkpt>
<trkpt lat="46.665719440206885" lon="7.170177865773439"><ele></ele><time>2014-10-30T3:33:20Z</time></trkpt>
<trkpt lat="46.66573595255613" lon="7.170180883258581"><ele></ele><time>2014-10-30T3:33:23Z</time></trkpt>
<trkpt lat="46.66574886068702" lon="7.170184152200818"><ele></ele><time>2014-10-30T3:33:26Z</time></trkpt>
<trkpt lat="46.66576595976949" lon="7.170187002047896"><ele></ele><time>2014-10-30T3:33:29Z</time></trkpt>
<trkpt lat="46.665800074115396" lon="7.170200161635876"><ele></ele><time>2014-10-30T3:33:32Z</time></trkpt>
<trkpt lat="46.665913900360465" lon="7.170239137485623"><ele></ele><time>2014-10-30T3:33:35Z</time></trkpt>
<trkpt lat="46.66597726754844" lon="7.1702502854168415"><ele></ele><time>2014-10-30T3:33:38Z</time></trkpt>
<trkpt lat="46.66600073687732" lon="7.1702564880251884"><ele></ele><time>2014-10-30T3:33:41Z</time></trkpt>
<trkpt lat="46.666016997769475" lon="7.170265289023519"><ele></ele><time>2014-10-30T3:33:44Z</time></trkpt>
<trkpt lat="46.66603242047131" lon="7.170268055051565"><ele></ele><time>2014-10-30T3:33:47Z</time></trkpt>
<trkpt lat="46.666124034672976" lon="7.17027023434639"><ele></ele><time>2014-10-30T3:33:50Z</time></trkpt>
<trkpt lat="46.66616342961788" lon="7.170269815251231"><ele></ele><time>2014-10-30T3:33:53Z</time></trkpt>
<trkpt lat="46.666185557842255" lon="7.170270653441548"><ele></ele><time>2014-10-30T3:33:56Z</time></trkpt>
<trkpt lat="46.6662107873708" lon="7.170266043394804"><ele></ele><time>2014-10-30T3:33:59Z</time></trkpt>
<trkpt lat="46.66623207740486" lon="7.170273000374436"><ele></ele><time>2014-10-30T3:34:2Z</time></trkpt>
<trkpt lat="46.66625604964793" lon="7.170279202982783"><ele></ele><time>2014-10-30T3:34:5Z</time></trkpt>
<trkpt lat="46.66635260917246" lon="7.170292194932699"><ele></ele><time>2014-10-30T3:34:8Z</time></trkpt>
<trkpt lat="46.6664023976773" lon="7.1703025046736"><ele></ele><time>2014-10-30T3:34:11Z</time></trkpt>
<trkpt lat="46.66641354560852" lon="7.1703053545206785"><ele></ele><time>2014-10-30T3:34:14Z</time></trkpt>
<trkpt lat="46.66643064469099" lon="7.170315915718675"><ele></ele><time>2014-10-30T3:34:17Z</time></trkpt>
<trkpt lat="46.666446989402175" lon="7.1703284047544"><ele></ele><time>2014-10-30T3:34:20Z</time></trkpt>
<trkpt lat="46.666461657732725" lon="7.170337373390794"><ele></ele><time>2014-10-30T3:34:23Z</time></trkpt>
<trkpt lat="46.6665234323591" lon="7.170359417796135"><ele></ele><time>2014-10-30T3:34:26Z</time></trkpt>
<trkpt lat="46.66660943068564" lon="7.170377606526017"><ele></ele><time>2014-10-30T3:34:29Z</time></trkpt>
<trkpt lat="46.666628289967775" lon="7.170386239886284"><ele></ele><time>2014-10-30T3:34:32Z</time></trkpt>
<trkpt lat="46.66665150783956" lon="7.170388922095299"><ele></ele><time>2014-10-30T3:34:35Z</time></trkpt>
<trkpt lat="46.66666533797979" lon="7.170398058369756"><ele></ele><time>2014-10-30T3:34:38Z</time></trkpt>
<trkpt lat="46.66668478399515" lon="7.170409206300974"><ele></ele><time>2014-10-30T3:34:41Z</time></trkpt>
<trkpt lat="46.666703475639224" lon="7.170424293726683"><ele></ele><time>2014-10-30T3:34:44Z</time></trkpt>
<trkpt lat="46.66671806015074" lon="7.170434854924679"><ele></ele><time>2014-10-30T3:34:47Z</time></trkpt>
<trkpt lat="46.666772458702326" lon="7.170447763055563"><ele></ele><time>2014-10-30T3:34:50Z</time></trkpt>
<trkpt lat="46.666784612461925" lon="7.170452373102307"><ele></ele><time>2014-10-30T3:34:53Z</time></trkpt>
<trkpt lat="46.666802214458585" lon="7.170455139130354"><ele></ele><time>2014-10-30T3:34:56Z</time></trkpt>
<trkpt lat="46.66681855916977" lon="7.17046033591032"><ele></ele><time>2014-10-30T3:34:59Z</time></trkpt>
<trkpt lat="46.666833562776446" lon="7.170461006462574"><ele></ele><time>2014-10-30T3:35:2Z</time></trkpt>
<trkpt lat="46.66687974706292" lon="7.170477183535695"><ele></ele><time>2014-10-30T3:35:5Z</time></trkpt>
<trkpt lat="46.666922410950065" lon="7.1704973839223385"><ele></ele><time>2014-10-30T3:35:8Z</time></trkpt>
<trkpt lat="46.66694160550833" lon="7.170501155778766"><ele></ele><time>2014-10-30T3:35:11Z</time></trkpt>
<trkpt lat="46.6669568605721" lon="7.170502580702305"><ele></ele><time>2014-10-30T3:35:14Z</time></trkpt>
<trkpt lat="46.66697203181684" lon="7.170508615672588"><ele></ele><time>2014-10-30T3:35:17Z</time></trkpt>
<trkpt lat="46.66698762215674" lon="7.170511968433857"><ele></ele><time>2014-10-30T3:35:20Z</time></trkpt>
<trkpt lat="46.66709532961249" lon="7.170542562380433"><ele></ele><time>2014-10-30T3:35:23Z</time></trkpt>
<trkpt lat="46.667110584676266" lon="7.170547759160399"><ele></ele><time>2014-10-30T3:35:26Z</time></trkpt>
<trkpt lat="46.66712609119713" lon="7.1705524530261755"><ele></ele><time>2014-10-30T3:35:29Z</time></trkpt>
<trkpt lat="46.66714461520314" lon="7.1705542132258415"><ele></ele><time>2014-10-30T3:35:32Z</time></trkpt>
<trkpt lat="46.667161881923676" lon="7.170557817444205"><ele></ele><time>2014-10-30T3:35:35Z</time></trkpt>
<trkpt lat="46.66717789135873" lon="7.1705598291009665"><ele></ele><time>2014-10-30T3:35:38Z</time></trkpt>
<trkpt lat="46.66723798960447" lon="7.170581202954054"><ele></ele><time>2014-10-30T3:35:41Z</time></trkpt>
<trkpt lat="46.66729548946023" lon="7.170603917911649"><ele></ele><time>2014-10-30T3:35:44Z</time></trkpt>
<trkpt lat="46.667310744524" lon="7.170614646747708"><ele></ele><time>2014-10-30T3:35:47Z</time></trkpt>
<trkpt lat="46.6673194617033" lon="7.170630320906639"><ele></ele><time>2014-10-30T3:35:50Z</time></trkpt>
<trkpt lat="46.66733605787158" lon="7.170644821599126"><ele></ele><time>2014-10-30T3:35:53Z</time></trkpt>
<trkpt lat="46.66735215112567" lon="7.170663429424167"><ele></ele><time>2014-10-30T3:35:56Z</time></trkpt>
<trkpt lat="46.667451141402125" lon="7.170750014483929"><ele></ele><time>2014-10-30T3:35:59Z</time></trkpt>
<trkpt lat="46.667483327910304" lon="7.170800641179085"><ele></ele><time>2014-10-30T3:36:2Z</time></trkpt>
<trkpt lat="46.66749766096473" lon="7.170811453834176"><ele></ele><time>2014-10-30T3:36:5Z</time></trkpt>
<trkpt lat="46.66750889271498" lon="7.170827127993107"><ele></ele><time>2014-10-30T3:36:8Z</time></trkpt>
<trkpt lat="46.6675181966275" lon="7.170839952304959"><ele></ele><time>2014-10-30T3:36:11Z</time></trkpt>
<trkpt lat="46.66753403842449" lon="7.1708546206355095"><ele></ele><time>2014-10-30T3:36:14Z</time></trkpt>
<trkpt lat="46.667574690654874" lon="7.170910192653537"><ele></ele><time>2014-10-30T3:36:17Z</time></trkpt>
<trkpt lat="46.66759396903217" lon="7.17091279104352"><ele></ele><time>2014-10-30T3:36:20Z</time></trkpt>
<trkpt lat="46.66762858629227" lon="7.1709102764725685"><ele></ele><time>2014-10-30T3:36:23Z</time></trkpt>
<trkpt lat="46.667657336220145" lon="7.170900050550699"><ele></ele><time>2014-10-30T3:36:26Z</time></trkpt>
<trkpt lat="46.66766571812332" lon="7.170883035287261"><ele></ele><time>2014-10-30T3:36:29Z</time></trkpt>
<trkpt lat="46.667674938216805" lon="7.170872306451201"><ele></ele><time>2014-10-30T3:36:32Z</time></trkpt>
<trkpt lat="46.66768147610128" lon="7.170869456604123"><ele></ele><time>2014-10-30T3:36:35Z</time></trkpt>
<trkpt lat="46.66768147610128" lon="7.170869456604123"><ele></ele><time>2014-10-30T3:36:38Z</time></trkpt>
<trkpt lat="46.66768147610128" lon="7.170869456604123"><ele></ele><time>2014-10-30T3:36:41Z</time></trkpt>
<trkpt lat="46.667678877711296" lon="7.170869121327996"><ele></ele><time>2014-10-30T3:36:44Z</time></trkpt>
<trkpt lat="46.667678877711296" lon="7.170869121327996"><ele></ele><time>2014-10-30T3:36:47Z</time></trkpt>
<trkpt lat="46.667678877711296" lon="7.170869121327996"><ele></ele><time>2014-10-30T3:36:50Z</time></trkpt>
<trkpt lat="46.66766580194235" lon="7.170899799093604"><ele></ele><time>2014-10-30T3:36:53Z</time></trkpt>
<trkpt lat="46.66766814887524" lon="7.170900385826826"><ele></ele><time>2014-10-30T3:36:56Z</time></trkpt>
<trkpt lat="46.66767720133066" lon="7.170912707224488"><ele></ele><time>2014-10-30T3:36:59Z</time></trkpt>
<trkpt lat="46.66769388131797" lon="7.170929806306958"><ele></ele><time>2014-10-30T3:37:2Z</time></trkpt>
<trkpt lat="46.66769798845053" lon="7.170930225402117"><ele></ele><time>2014-10-30T3:37:5Z</time></trkpt>
<trkpt lat="46.667704777792096" lon="7.17094749212265"><ele></ele><time>2014-10-30T3:37:8Z</time></trkpt>
<trkpt lat="46.66770779527724" lon="7.170950174331665"><ele></ele><time>2014-10-30T3:37:11Z</time></trkpt>
<trkpt lat="46.667726151645184" lon="7.170947575941682"><ele></ele><time>2014-10-30T3:37:14Z</time></trkpt>
<trkpt lat="46.667751129716635" lon="7.170974230393767"><ele></ele><time>2014-10-30T3:37:17Z</time></trkpt>
<trkpt lat="46.667757919058204" lon="7.1709927543997765"><ele></ele><time>2014-10-30T3:37:20Z</time></trkpt>
<trkpt lat="46.66776202619076" lon="7.171002645045519"><ele></ele><time>2014-10-30T3:37:23Z</time></trkpt>
<trkpt lat="46.66777200065553" lon="7.1710089314728975"><ele></ele><time>2014-10-30T3:37:26Z</time></trkpt>
<trkpt lat="46.66777200065553" lon="7.1710089314728975"><ele></ele><time>2014-10-30T3:37:29Z</time></trkpt>
<trkpt lat="46.66778155602515" lon="7.171002393588424"><ele></ele><time>2014-10-30T3:37:32Z</time></trkpt>
<trkpt lat="46.66778155602515" lon="7.171002393588424"><ele></ele><time>2014-10-30T3:37:35Z</time></trkpt>
<trkpt lat="46.66778155602515" lon="7.171002393588424"><ele></ele><time>2014-10-30T3:37:38Z</time></trkpt>
<trkpt lat="46.66778155602515" lon="7.171002393588424"><ele></ele><time>2014-10-30T3:37:41Z</time></trkpt>
<trkpt lat="46.66778155602515" lon="7.171002393588424"><ele></ele><time>2014-10-30T3:37:44Z</time></trkpt>
<trkpt lat="46.66778155602515" lon="7.171002393588424"><ele></ele><time>2014-10-30T3:37:47Z</time></trkpt>
<trkpt lat="46.66778155602515" lon="7.171002393588424"><ele></ele><time>2014-10-30T3:37:50Z</time></trkpt>
<trkpt lat="46.66779002174735" lon="7.171012200415134"><ele></ele><time>2014-10-30T3:37:53Z</time></trkpt>
<trkpt lat="46.66779840365052" lon="7.171020917594433"><ele></ele><time>2014-10-30T3:37:56Z</time></trkpt>
<trkpt lat="46.667803935706615" lon="7.1710266172885895"><ele></ele><time>2014-10-30T3:37:59Z</time></trkpt>
<trkpt lat="46.667803935706615" lon="7.1710266172885895"><ele></ele><time>2014-10-30T3:38:2Z</time></trkpt>
<trkpt lat="46.667803935706615" lon="7.1710266172885895"><ele></ele><time>2014-10-30T3:38:5Z</time></trkpt>
<trkpt lat="46.66780854575336" lon="7.1710277907550335"><ele></ele><time>2014-10-30T3:38:8Z</time></trkpt>
<trkpt lat="46.66780854575336" lon="7.1710277907550335"><ele></ele><time>2014-10-30T3:38:11Z</time></trkpt>
<trkpt lat="46.667824387550354" lon="7.171029215678573"><ele></ele><time>2014-10-30T3:38:14Z</time></trkpt>
<trkpt lat="46.6678321827203" lon="7.171030975878239"><ele></ele><time>2014-10-30T3:38:17Z</time></trkpt>
<trkpt lat="46.6678321827203" lon="7.171030975878239"><ele></ele><time>2014-10-30T3:38:20Z</time></trkpt>
<trkpt lat="46.6678321827203" lon="7.171030975878239"><ele></ele><time>2014-10-30T3:38:23Z</time></trkpt>
<trkpt lat="46.6678321827203" lon="7.171030975878239"><ele></ele><time>2014-10-30T3:38:26Z</time></trkpt>
<trkpt lat="46.66787484660745" lon="7.171097863465548"><ele></ele><time>2014-10-30T3:38:29Z</time></trkpt>
<trkpt lat="46.667898651212454" lon="7.171137174591422"><ele></ele><time>2014-10-30T3:38:32Z</time></trkpt>
<trkpt lat="46.66790971532464" lon="7.171155866235495"><ele></ele><time>2014-10-30T3:38:35Z</time></trkpt>
<trkpt lat="46.66791264899075" lon="7.171159973368049"><ele></ele><time>2014-10-30T3:38:38Z</time></trkpt>
<trkpt lat="46.6679170075804" lon="7.171157458797097"><ele></ele><time>2014-10-30T3:38:41Z</time></trkpt>
<trkpt lat="46.66792497038841" lon="7.171155782416463"><ele></ele><time>2014-10-30T3:38:44Z</time></trkpt>
<trkpt lat="46.66792497038841" lon="7.171155782416463"><ele></ele><time>2014-10-30T3:38:47Z</time></trkpt>
<trkpt lat="46.66792497038841" lon="7.171155782416463"><ele></ele><time>2014-10-30T3:38:50Z</time></trkpt>
<trkpt lat="46.6679323464632" lon="7.171162404119968"><ele></ele><time>2014-10-30T3:38:53Z</time></trkpt>
<trkpt lat="46.667934861034155" lon="7.171167768537998"><ele></ele><time>2014-10-30T3:38:56Z</time></trkpt>
<trkpt lat="46.667934861034155" lon="7.171167768537998"><ele></ele><time>2014-10-30T3:38:59Z</time></trkpt>
<trkpt lat="46.667934861034155" lon="7.171167768537998"><ele></ele><time>2014-10-30T3:39:2Z</time></trkpt>
<trkpt lat="46.667945170775056" lon="7.171175060793757"><ele></ele><time>2014-10-30T3:39:5Z</time></trkpt>
<trkpt lat="46.66795992292464" lon="7.171184699982405"><ele></ele><time>2014-10-30T3:39:8Z</time></trkpt>
<trkpt lat="46.66797123849392" lon="7.171197021380067"><ele></ele><time>2014-10-30T3:39:11Z</time></trkpt>
<trkpt lat="46.66797953657806" lon="7.171206912025809"><ele></ele><time>2014-10-30T3:39:14Z</time></trkpt>
<trkpt lat="46.667988672852516" lon="7.171213366091251"><ele></ele><time>2014-10-30T3:39:17Z</time></trkpt>
<trkpt lat="46.667988672852516" lon="7.171213366091251"><ele></ele><time>2014-10-30T3:39:20Z</time></trkpt>
<trkpt lat="46.667988672852516" lon="7.171213366091251"><ele></ele><time>2014-10-30T3:39:23Z</time></trkpt>
<trkpt lat="46.66799462400377" lon="7.1712136175483465"><ele></ele><time>2014-10-30T3:39:26Z</time></trkpt>
<trkpt lat="46.668029241263866" lon="7.171229459345341"><ele></ele><time>2014-10-30T3:39:29Z</time></trkpt>
<trkpt lat="46.66808699257672" lon="7.171260472387075"><ele></ele><time>2014-10-30T3:39:32Z</time></trkpt>
<trkpt lat="46.66809872724116" lon="7.171264747157693"><ele></ele><time>2014-10-30T3:39:35Z</time></trkpt>
<trkpt lat="46.668103504925966" lon="7.1712660882622"><ele></ele><time>2014-10-30T3:39:38Z</time></trkpt>
<trkpt lat="46.668103504925966" lon="7.1712660882622"><ele></ele><time>2014-10-30T3:39:41Z</time></trkpt>
<trkpt lat="46.668103504925966" lon="7.1712660882622"><ele></ele><time>2014-10-30T3:39:44Z</time></trkpt>
<trkpt lat="46.66813116520643" lon="7.171292491257191"><ele></ele><time>2014-10-30T3:39:47Z</time></trkpt>
<trkpt lat="46.668158238753676" lon="7.171330796554685"><ele></ele><time>2014-10-30T3:39:50Z</time></trkpt>
<trkpt lat="46.66816175915301" lon="7.171335406601429"><ele></ele><time>2014-10-30T3:39:53Z</time></trkpt>
<trkpt lat="46.66816175915301" lon="7.171335406601429"><ele></ele><time>2014-10-30T3:39:56Z</time></trkpt>
<trkpt lat="46.66816175915301" lon="7.171335406601429"><ele></ele><time>2014-10-30T3:39:59Z</time></trkpt>
<trkpt lat="46.66816175915301" lon="7.171335406601429"><ele></ele><time>2014-10-30T3:40:2Z</time></trkpt>
<trkpt lat="46.6681744158268" lon="7.171358373016119"><ele></ele><time>2014-10-30T3:40:5Z</time></trkpt>
<trkpt lat="46.668181121349335" lon="7.171373460441828"><ele></ele><time>2014-10-30T3:40:8Z</time></trkpt>
<trkpt lat="46.668195286765695" lon="7.1714147832244635"><ele></ele><time>2014-10-30T3:40:11Z</time></trkpt>
<trkpt lat="46.66820676997304" lon="7.171444287523627"><ele></ele><time>2014-10-30T3:40:14Z</time></trkpt>
<trkpt lat="46.66821364313364" lon="7.171466248109937"><ele></ele><time>2014-10-30T3:40:17Z</time></trkpt>
<trkpt lat="46.668214397504926" lon="7.171475635841489"><ele></ele><time>2014-10-30T3:40:20Z</time></trkpt>
<trkpt lat="46.66822386905551" lon="7.17148644849658"><ele></ele><time>2014-10-30T3:40:23Z</time></trkpt>
<trkpt lat="46.66823007166386" lon="7.1715001948177814"><ele></ele><time>2014-10-30T3:40:26Z</time></trkpt>
<trkpt lat="46.66823275387287" lon="7.171509666368365"><ele></ele><time>2014-10-30T3:40:29Z</time></trkpt>
<trkpt lat="46.668247170746326" lon="7.171536907553673"><ele></ele><time>2014-10-30T3:40:32Z</time></trkpt>
<trkpt lat="46.66828153654933" lon="7.171565406024456"><ele></ele><time>2014-10-30T3:40:35Z</time></trkpt>
<trkpt lat="46.66827952489257" lon="7.171567250043154"><ele></ele><time>2014-10-30T3:40:38Z</time></trkpt>
<trkpt lat="46.66829243302345" lon="7.171575799584389"><ele></ele><time>2014-10-30T3:40:41Z</time></trkpt>
<trkpt lat="46.66829369030893" lon="7.171578900888562"><ele></ele><time>2014-10-30T3:40:44Z</time></trkpt>
<trkpt lat="46.66829964146018" lon="7.171580074355006"><ele></ele><time>2014-10-30T3:40:47Z</time></trkpt>
<trkpt lat="46.668319925665855" lon="7.171590970829129"><ele></ele><time>2014-10-30T3:40:50Z</time></trkpt>
<trkpt lat="46.66833870112896" lon="7.171608153730631"><ele></ele><time>2014-10-30T3:40:53Z</time></trkpt>
<trkpt lat="46.668343814089894" lon="7.171611255034804"><ele></ele><time>2014-10-30T3:40:56Z</time></trkpt>
<trkpt lat="46.66834808886051" lon="7.171609662473202"><ele></ele><time>2014-10-30T3:40:59Z</time></trkpt>
<trkpt lat="46.66835295036435" lon="7.171607231721282"><ele></ele><time>2014-10-30T3:41:2Z</time></trkpt>
<trkpt lat="46.66836351156235" lon="7.171614021062851"><ele></ele><time>2014-10-30T3:41:5Z</time></trkpt>
<trkpt lat="46.668395614251494" lon="7.1716477163136005"><ele></ele><time>2014-10-30T3:41:8Z</time></trkpt>
<trkpt lat="46.668425453826785" lon="7.171677723526955"><ele></ele><time>2014-10-30T3:41:11Z</time></trkpt>
<trkpt lat="46.66843106970191" lon="7.171685099601746"><ele></ele><time>2014-10-30T3:41:14Z</time></trkpt>
<trkpt lat="46.66844272054732" lon="7.171695241704583"><ele></ele><time>2014-10-30T3:41:17Z</time></trkpt>
<trkpt lat="46.66844607330859" lon="7.1716980915516615"><ele></ele><time>2014-10-30T3:41:20Z</time></trkpt>
<trkpt lat="46.668453365564346" lon="7.171710915863514"><ele></ele><time>2014-10-30T3:41:23Z</time></trkpt>
<trkpt lat="46.66847859509289" lon="7.171738324686885"><ele></ele><time>2014-10-30T3:41:26Z</time></trkpt>
<trkpt lat="46.66847859509289" lon="7.171738324686885"><ele></ele><time>2014-10-30T3:41:29Z</time></trkpt>
<trkpt lat="46.66847859509289" lon="7.171738324686885"><ele></ele><time>2014-10-30T3:41:32Z</time></trkpt>
<trkpt lat="46.66847859509289" lon="7.171738324686885"><ele></ele><time>2014-10-30T3:41:35Z</time></trkpt>
<trkpt lat="46.66848286986351" lon="7.171749556437135"><ele></ele><time>2014-10-30T3:41:38Z</time></trkpt>
<trkpt lat="46.66848630644381" lon="7.171763805672526"><ele></ele><time>2014-10-30T3:41:41Z</time></trkpt>
<trkpt lat="46.66849150322378" lon="7.171797500923276"><ele></ele><time>2014-10-30T3:41:44Z</time></trkpt>
<trkpt lat="46.66849502362311" lon="7.171829268336296"><ele></ele><time>2014-10-30T3:41:47Z</time></trkpt>
<trkpt lat="46.66849988512695" lon="7.171836728230119"><ele></ele><time>2014-10-30T3:41:50Z</time></trkpt>
<trkpt lat="46.668501226231456" lon="7.171845361590385"><ele></ele><time>2014-10-30T3:41:53Z</time></trkpt>
<trkpt lat="46.668501226231456" lon="7.171845361590385"><ele></ele><time>2014-10-30T3:41:56Z</time></trkpt>
<trkpt lat="46.668501226231456" lon="7.171845361590385"><ele></ele><time>2014-10-30T3:41:59Z</time></trkpt>
<trkpt lat="46.66850541718304" lon="7.171852150931954"><ele></ele><time>2014-10-30T3:42:2Z</time></trkpt>
<trkpt lat="46.66851446963847" lon="7.171865813434124"><ele></ele><time>2014-10-30T3:42:5Z</time></trkpt>
<trkpt lat="46.66851991787553" lon="7.171873776242137"><ele></ele><time>2014-10-30T3:42:8Z</time></trkpt>
<trkpt lat="46.66853140108287" lon="7.171889618039131"><ele></ele><time>2014-10-30T3:42:11Z</time></trkpt>
<trkpt lat="46.66853902861476" lon="7.171903280541301"><ele></ele><time>2014-10-30T3:42:14Z</time></trkpt>
<trkpt lat="46.668542213737965" lon="7.171918200328946"><ele></ele><time>2014-10-30T3:42:17Z</time></trkpt>
<trkpt lat="46.66856643743813" lon="7.171973772346973"><ele></ele><time>2014-10-30T3:42:20Z</time></trkpt>
<trkpt lat="46.66856945492327" lon="7.1719979122281075"><ele></ele><time>2014-10-30T3:42:23Z</time></trkpt>
<trkpt lat="46.66856945492327" lon="7.1719979122281075"><ele></ele><time>2014-10-30T3:42:26Z</time></trkpt>
<trkpt lat="46.66856945492327" lon="7.1719979122281075"><ele></ele><time>2014-10-30T3:42:29Z</time></trkpt>
<trkpt lat="46.668578339740634" lon="7.172002522274852"><ele></ele><time>2014-10-30T3:42:32Z</time></trkpt>
<trkpt lat="46.66858253069222" lon="7.172010652720928"><ele></ele><time>2014-10-30T3:42:35Z</time></trkpt>
<trkpt lat="46.66861371137202" lon="7.172055747359991"><ele></ele><time>2014-10-30T3:42:38Z</time></trkpt>
<trkpt lat="46.66861371137202" lon="7.172055747359991"><ele></ele><time>2014-10-30T3:42:41Z</time></trkpt>
<trkpt lat="46.6686300560832" lon="7.172081731259823"><ele></ele><time>2014-10-30T3:42:44Z</time></trkpt>
<trkpt lat="46.66863583959639" lon="7.1720965672284365"><ele></ele><time>2014-10-30T3:42:47Z</time></trkpt>
<trkpt lat="46.66864053346217" lon="7.172113414853811"><ele></ele><time>2014-10-30T3:42:50Z</time></trkpt>
<trkpt lat="46.66864505968988" lon="7.172133279964328"><ele></ele><time>2014-10-30T3:42:53Z</time></trkpt>
<trkpt lat="46.668643802404404" lon="7.172138560563326"><ele></ele><time>2014-10-30T3:42:56Z</time></trkpt>
<trkpt lat="46.66866173967719" lon="7.172138895839453"><ele></ele><time>2014-10-30T3:42:59Z</time></trkpt>
<trkpt lat="46.66868596337736" lon="7.1721389796584845"><ele></ele><time>2014-10-30T3:43:2Z</time></trkpt>
<trkpt lat="46.668693255633116" lon="7.1721460204571486"><ele></ele><time>2014-10-30T3:43:5Z</time></trkpt>
<trkpt lat="46.668703481554985" lon="7.172147529199719"><ele></ele><time>2014-10-30T3:43:8Z</time></trkpt>
<trkpt lat="46.66870465502143" lon="7.172143338248134"><ele></ele><time>2014-10-30T3:43:11Z</time></trkpt>
<trkpt lat="46.668710270896554" lon="7.1721383929252625"><ele></ele><time>2014-10-30T3:43:14Z</time></trkpt>
<trkpt lat="46.66871588677168" lon="7.172143505886197"><ele></ele><time>2014-10-30T3:43:17Z</time></trkpt>
<trkpt lat="46.66873927228153" lon="7.172158006578684"><ele></ele><time>2014-10-30T3:43:20Z</time></trkpt>
<trkpt lat="46.66874287649989" lon="7.172162029892206"><ele></ele><time>2014-10-30T3:43:23Z</time></trkpt>
<trkpt lat="46.66874723508954" lon="7.172161862254143"><ele></ele><time>2014-10-30T3:43:26Z</time></trkpt>
<trkpt lat="46.66874723508954" lon="7.172161862254143"><ele></ele><time>2014-10-30T3:43:29Z</time></trkpt>
<trkpt lat="46.66875058785081" lon="7.172154821455479"><ele></ele><time>2014-10-30T3:43:32Z</time></trkpt>
<trkpt lat="46.668758215382695" lon="7.17215976677835"><ele></ele><time>2014-10-30T3:43:35Z</time></trkpt>
<trkpt lat="46.6688044834882" lon="7.172174518927932"><ele></ele><time>2014-10-30T3:43:38Z</time></trkpt>
<trkpt lat="46.66882040910423" lon="7.17218616977334"><ele></ele><time>2014-10-30T3:43:41Z</time></trkpt>
<trkpt lat="46.66882342658937" lon="7.172191198915243"><ele></ele><time>2014-10-30T3:43:44Z</time></trkpt>
<trkpt lat="46.668830048292875" lon="7.1721958089619875"><ele></ele><time>2014-10-30T3:43:47Z</time></trkpt>
<trkpt lat="46.66883331723511" lon="7.172201341018081"><ele></ele><time>2014-10-30T3:43:50Z</time></trkpt>
<trkpt lat="46.6688391007483" lon="7.172206034883857"><ele></ele><time>2014-10-30T3:43:53Z</time></trkpt>
<trkpt lat="46.668875478208065" lon="7.172220954671502"><ele></ele><time>2014-10-30T3:43:56Z</time></trkpt>
<trkpt lat="46.66895393282175" lon="7.172262696549296"><ele></ele><time>2014-10-30T3:43:59Z</time></trkpt>
<trkpt lat="46.66896114125848" lon="7.172270575538278"><ele></ele><time>2014-10-30T3:44:2Z</time></trkpt>
<trkpt lat="46.66896231472492" lon="7.172274934127927"><ele></ele><time>2014-10-30T3:44:5Z</time></trkpt>
<trkpt lat="46.66896231472492" lon="7.172274934127927"><ele></ele><time>2014-10-30T3:44:8Z</time></trkpt>
<trkpt lat="46.66896256618202" lon="7.172277197241783"><ele></ele><time>2014-10-30T3:44:11Z</time></trkpt>
<trkpt lat="46.66898813098669" lon="7.172300247475505"><ele></ele><time>2014-10-30T3:44:14Z</time></trkpt>
<trkpt lat="46.66901294142008" lon="7.172354310750961"><ele></ele><time>2014-10-30T3:44:17Z</time></trkpt>
<trkpt lat="46.66901755146682" lon="7.172361686825752"><ele></ele><time>2014-10-30T3:44:20Z</time></trkpt>
<trkpt lat="46.669023502618074" lon="7.1723621897399426"><ele></ele><time>2014-10-30T3:44:23Z</time></trkpt>
<trkpt lat="46.66902970522642" lon="7.1723610162734985"><ele></ele><time>2014-10-30T3:44:26Z</time></trkpt>
<trkpt lat="46.66903926059604" lon="7.172357998788357"><ele></ele><time>2014-10-30T3:44:29Z</time></trkpt>
<trkpt lat="46.66907815262675" lon="7.172359675168991"><ele></ele><time>2014-10-30T3:44:32Z</time></trkpt>
<trkpt lat="46.669093826785684" lon="7.172379791736603"><ele></ele><time>2014-10-30T3:44:35Z</time></trkpt>
<trkpt lat="46.66909759864211" lon="7.172385659068823"><ele></ele><time>2014-10-30T3:44:38Z</time></trkpt>
<trkpt lat="46.669097347185016" lon="7.172391610220075"><ele></ele><time>2014-10-30T3:44:41Z</time></trkpt>
<trkpt lat="46.669097347185016" lon="7.172391610220075"><ele></ele><time>2014-10-30T3:44:44Z</time></trkpt>
<trkpt lat="46.66912936605513" lon="7.172421868890524"><ele></ele><time>2014-10-30T3:44:47Z</time></trkpt>
<trkpt lat="46.66914411820471" lon="7.172452211380005"><ele></ele><time>2014-10-30T3:44:50Z</time></trkpt>
<trkpt lat="46.66914998553693" lon="7.172462521120906"><ele></ele><time>2014-10-30T3:44:53Z</time></trkpt>
<trkpt lat="46.66914998553693" lon="7.172462521120906"><ele></ele><time>2014-10-30T3:44:56Z</time></trkpt>
<trkpt lat="46.66914998553693" lon="7.172462521120906"><ele></ele><time>2014-10-30T3:44:59Z</time></trkpt>
<trkpt lat="46.66914998553693" lon="7.172462521120906"><ele></ele><time>2014-10-30T3:45:2Z</time></trkpt>
<trkpt lat="46.66914998553693" lon="7.172462521120906"><ele></ele><time>2014-10-30T3:45:5Z</time></trkpt>
<trkpt lat="46.66915459558368" lon="7.172486241906881"><ele></ele><time>2014-10-30T3:45:8Z</time></trkpt>
<trkpt lat="46.66915459558368" lon="7.172486241906881"><ele></ele><time>2014-10-30T3:45:11Z</time></trkpt>
<trkpt lat="46.66915778070688" lon="7.172498060390353"><ele></ele><time>2014-10-30T3:45:14Z</time></trkpt>
<trkpt lat="46.66916348040104" lon="7.172503424808383"><ele></ele><time>2014-10-30T3:45:17Z</time></trkpt>
<trkpt lat="46.66916348040104" lon="7.172503424808383"><ele></ele><time>2014-10-30T3:45:20Z</time></trkpt>
<trkpt lat="46.66917127557099" lon="7.172508956864476"><ele></ele><time>2014-10-30T3:45:23Z</time></trkpt>
<trkpt lat="46.66920798830688" lon="7.172582633793354"><ele></ele><time>2014-10-30T3:45:26Z</time></trkpt>
<trkpt lat="46.66920983232558" lon="7.172586238011718"><ele></ele><time>2014-10-30T3:45:29Z</time></trkpt>
<trkpt lat="46.66920983232558" lon="7.172586238011718"><ele></ele><time>2014-10-30T3:45:32Z</time></trkpt>
<trkpt lat="46.66921662166715" lon="7.172602750360966"><ele></ele><time>2014-10-30T3:45:35Z</time></trkpt>
<trkpt lat="46.66921787895262" lon="7.172622699290514"><ele></ele><time>2014-10-30T3:45:38Z</time></trkpt>
<trkpt lat="46.66921787895262" lon="7.172622699290514"><ele></ele><time>2014-10-30T3:45:41Z</time></trkpt>
<trkpt lat="46.66922274045646" lon="7.172637619078159"><ele></ele><time>2014-10-30T3:45:44Z</time></trkpt>
<trkpt lat="46.66925786063075" lon="7.172763850539923"><ele></ele><time>2014-10-30T3:45:47Z</time></trkpt>
<trkpt lat="46.66926322504878" lon="7.1727789379656315"><ele></ele><time>2014-10-30T3:45:50Z</time></trkpt>
<trkpt lat="46.669260961934924" lon="7.17279352247715"><ele></ele><time>2014-10-30T3:45:53Z</time></trkpt>
<trkpt lat="46.66926322504878" lon="7.1728042513132095"><ele></ele><time>2014-10-30T3:45:56Z</time></trkpt>
<trkpt lat="46.66926573961973" lon="7.172815063968301"><ele></ele><time>2014-10-30T3:45:59Z</time></trkpt>
<trkpt lat="46.66927152313292" lon="7.172843897715211"><ele></ele><time>2014-10-30T3:46:2Z</time></trkpt>
<trkpt lat="46.66928510181606" lon="7.17288002371788"><ele></ele><time>2014-10-30T3:46:5Z</time></trkpt>
<trkpt lat="46.66929021477699" lon="7.172883041203022"><ele></ele><time>2014-10-30T3:46:8Z</time></trkpt>
<trkpt lat="46.669296249747276" lon="7.172891926020384"><ele></ele><time>2014-10-30T3:46:11Z</time></trkpt>
<trkpt lat="46.66930764913559" lon="7.172901397570968"><ele></ele><time>2014-10-30T3:46:14Z</time></trkpt>
<trkpt lat="46.66930764913559" lon="7.172901397570968"><ele></ele><time>2014-10-30T3:46:17Z</time></trkpt>
<trkpt lat="46.66930857114494" lon="7.172908103093505"><ele></ele><time>2014-10-30T3:46:20Z</time></trkpt>
<trkpt lat="46.66932625696063" lon="7.172943474724889"><ele></ele><time>2014-10-30T3:46:23Z</time></trkpt>
<trkpt lat="46.669333381578326" lon="7.172952443361282"><ele></ele><time>2014-10-30T3:46:26Z</time></trkpt>
<trkpt lat="46.669333381578326" lon="7.172952443361282"><ele></ele><time>2014-10-30T3:46:29Z</time></trkpt>
<trkpt lat="46.669340590015054" lon="7.172961076721549"><ele></ele><time>2014-10-30T3:46:32Z</time></trkpt>
<trkpt lat="46.66934981010854" lon="7.172968201339245"><ele></ele><time>2014-10-30T3:46:35Z</time></trkpt>
<trkpt lat="46.66935249231756" lon="7.172981025651097"><ele></ele><time>2014-10-30T3:46:38Z</time></trkpt>
<trkpt lat="46.66938191279769" lon="7.173056462779641"><ele></ele><time>2014-10-30T3:46:41Z</time></trkpt>
<trkpt lat="46.66938451118767" lon="7.173059564083815"><ele></ele><time>2014-10-30T3:46:44Z</time></trkpt>
<trkpt lat="46.66938778012991" lon="7.173068532720208"><ele></ele><time>2014-10-30T3:46:47Z</time></trkpt>
<trkpt lat="46.66938778012991" lon="7.173068532720208"><ele></ele><time>2014-10-30T3:46:50Z</time></trkpt>
<trkpt lat="46.66938920505345" lon="7.173084374517202"><ele></ele><time>2014-10-30T3:46:53Z</time></trkpt>
<trkpt lat="46.66938920505345" lon="7.173084374517202"><ele></ele><time>2014-10-30T3:46:56Z</time></trkpt>
<trkpt lat="46.66939071379602" lon="7.173122512176633"><ele></ele><time>2014-10-30T3:46:59Z</time></trkpt>
<trkpt lat="46.66938677430153" lon="7.173156123608351"><ele></ele><time>2014-10-30T3:47:2Z</time></trkpt>
<trkpt lat="46.66938744485378" lon="7.173157883808017"><ele></ele><time>2014-10-30T3:47:5Z</time></trkpt>
<trkpt lat="46.66938962414861" lon="7.173157213255763"><ele></ele><time>2014-10-30T3:47:8Z</time></trkpt>
<trkpt lat="46.669394401833415" lon="7.173157632350922"><ele></ele><time>2014-10-30T3:47:11Z</time></trkpt>
<trkpt lat="46.66939599439502" lon="7.173160398378968"><ele></ele><time>2014-10-30T3:47:14Z</time></trkpt>
<trkpt lat="46.66939599439502" lon="7.173160398378968"><ele></ele><time>2014-10-30T3:47:17Z</time></trkpt>
<trkpt lat="46.6694366466254" lon="7.1731906570494175"><ele></ele><time>2014-10-30T3:47:20Z</time></trkpt>
<trkpt lat="46.6694416757673" lon="7.17320348136127"><ele></ele><time>2014-10-30T3:47:23Z</time></trkpt>
<trkpt lat="46.6694469563663" lon="7.173213372007012"><ele></ele><time>2014-10-30T3:47:26Z</time></trkpt>
<trkpt lat="46.6694469563663" lon="7.173213372007012"><ele></ele><time>2014-10-30T3:47:29Z</time></trkpt>
<trkpt lat="46.66945961304009" lon="7.1732330694794655"><ele></ele><time>2014-10-30T3:47:32Z</time></trkpt>
<trkpt lat="46.669474532827735" lon="7.173258550465107"><ele></ele><time>2014-10-30T3:47:35Z</time></trkpt>
<trkpt lat="46.669524824246764" lon="7.173317475244403"><ele></ele><time>2014-10-30T3:47:38Z</time></trkpt>
<trkpt lat="46.669524824246764" lon="7.173317475244403"><ele></ele><time>2014-10-30T3:47:41Z</time></trkpt>
<trkpt lat="46.669524824246764" lon="7.173317475244403"><ele></ele><time>2014-10-30T3:47:44Z</time></trkpt>
<trkpt lat="46.669524824246764" lon="7.173317475244403"><ele></ele><time>2014-10-30T3:47:47Z</time></trkpt>
<trkpt lat="46.669524824246764" lon="7.173317475244403"><ele></ele><time>2014-10-30T3:47:50Z</time></trkpt>
<trkpt lat="46.66954477317631" lon="7.173353182151914"><ele></ele><time>2014-10-30T3:47:53Z</time></trkpt>
<trkpt lat="46.66955139487982" lon="7.173354858532548"><ele></ele><time>2014-10-30T3:47:56Z</time></trkpt>
<trkpt lat="46.66955064050853" lon="7.173362318426371"><ele></ele><time>2014-10-30T3:47:59Z</time></trkpt>
<trkpt lat="46.66955064050853" lon="7.173362318426371"><ele></ele><time>2014-10-30T3:48:2Z</time></trkpt>
<trkpt lat="46.66955064050853" lon="7.173362318426371"><ele></ele><time>2014-10-30T3:48:5Z</time></trkpt>
<trkpt lat="46.66955064050853" lon="7.173362318426371"><ele></ele><time>2014-10-30T3:48:8Z</time></trkpt>
<trkpt lat="46.6695574298501" lon="7.173369443044066"><ele></ele><time>2014-10-30T3:48:11Z</time></trkpt>
<trkpt lat="46.66957478038967" lon="7.173395762220025"><ele></ele><time>2014-10-30T3:48:14Z</time></trkpt>
<trkpt lat="46.66958877816796" lon="7.173434821888804"><ele></ele><time>2014-10-30T3:48:17Z</time></trkpt>
<trkpt lat="46.66959741152823" lon="7.1734509989619255"><ele></ele><time>2014-10-30T3:48:20Z</time></trkpt>
<trkpt lat="46.66960998438299" lon="7.173454435542226"><ele></ele><time>2014-10-30T3:48:23Z</time></trkpt>
<trkpt lat="46.669611828401685" lon="7.173458626493812"><ele></ele><time>2014-10-30T3:48:26Z</time></trkpt>
<trkpt lat="46.669619120657444" lon="7.173468265682459"><ele></ele><time>2014-10-30T3:48:29Z</time></trkpt>
<trkpt lat="46.66963404044509" lon="7.173489220440388"><ele></ele><time>2014-10-30T3:48:32Z</time></trkpt>
<trkpt lat="46.66964619420469" lon="7.173548899590969"><ele></ele><time>2014-10-30T3:48:35Z</time></trkpt>
<trkpt lat="46.66965491138399" lon="7.173563567921519"><ele></ele><time>2014-10-30T3:48:38Z</time></trkpt>
<trkpt lat="46.66965792886913" lon="7.173583433032036"><ele></ele><time>2014-10-30T3:48:41Z</time></trkpt>
<trkpt lat="46.669661616906524" lon="7.173599191009998"><ele></ele><time>2014-10-30T3:48:44Z</time></trkpt>
<trkpt lat="46.66966153308749" lon="7.173607824370265"><ele></ele><time>2014-10-30T3:48:47Z</time></trkpt>
<trkpt lat="46.669670501723886" lon="7.173630790784955"><ele></ele><time>2014-10-30T3:48:50Z</time></trkpt>
<trkpt lat="46.669710064306855" lon="7.173680160194635"><ele></ele><time>2014-10-30T3:48:53Z</time></trkpt>
<trkpt lat="46.66971425525844" lon="7.17368577606976"><ele></ele><time>2014-10-30T3:48:56Z</time></trkpt>
<trkpt lat="46.66972967796028" lon="7.173683429136872"><ele></ele><time>2014-10-30T3:48:59Z</time></trkpt>
<trkpt lat="46.669739820063114" lon="7.173691727221012"><ele></ele><time>2014-10-30T3:49:2Z</time></trkpt>
<trkpt lat="46.669738395139575" lon="7.173692313954234"><ele></ele><time>2014-10-30T3:49:5Z</time></trkpt>
<trkpt lat="46.66976018808782" lon="7.173712011426687"><ele></ele><time>2014-10-30T3:49:8Z</time></trkpt>
<trkpt lat="46.669780388474464" lon="7.17374780215323"><ele></ele><time>2014-10-30T3:49:11Z</time></trkpt>
<trkpt lat="46.66978701017797" lon="7.1737561002373695"><ele></ele><time>2014-10-30T3:49:14Z</time></trkpt>
<trkpt lat="46.669802935793996" lon="7.173757525160909"><ele></ele><time>2014-10-30T3:49:17Z</time></trkpt>
<trkpt lat="46.6698164306581" lon="7.173766661435366"><ele></ele><time>2014-10-30T3:49:20Z</time></trkpt>
<trkpt lat="46.669826405122876" lon="7.173771858215332"><ele></ele><time>2014-10-30T3:49:23Z</time></trkpt>
<trkpt lat="46.66983780451119" lon="7.173780826851726"><ele></ele><time>2014-10-30T3:49:26Z</time></trkpt>
<trkpt lat="46.66986437514424" lon="7.173796249553561"><ele></ele><time>2014-10-30T3:49:29Z</time></trkpt>
<trkpt lat="46.669883988797665" lon="7.173799267038703"><ele></ele><time>2014-10-30T3:49:32Z</time></trkpt>
<trkpt lat="46.669892286881804" lon="7.173802619799972"><ele></ele><time>2014-10-30T3:49:35Z</time></trkpt>
<trkpt lat="46.669900165870786" lon="7.173807565122843"><ele></ele><time>2014-10-30T3:49:38Z</time></trkpt>
<trkpt lat="46.669905530288815" lon="7.1738064754754305"><ele></ele><time>2014-10-30T3:49:41Z</time></trkpt>
<trkpt lat="46.66990871541202" lon="7.173800943419337"><ele></ele><time>2014-10-30T3:49:44Z</time></trkpt>
<trkpt lat="46.66991810314357" lon="7.173811001703143"><ele></ele><time>2014-10-30T3:49:47Z</time></trkpt>
<trkpt lat="46.66992832906544" lon="7.1738397516310215"><ele></ele><time>2014-10-30T3:49:50Z</time></trkpt>
<trkpt lat="46.66994718834758" lon="7.1738518215715885"><ele></ele><time>2014-10-30T3:49:53Z</time></trkpt>
<trkpt lat="46.669950960204005" lon="7.173857605084777"><ele></ele><time>2014-10-30T3:49:56Z</time></trkpt>
<trkpt lat="46.66995506733656" lon="7.1738644782453775"><ele></ele><time>2014-10-30T3:49:59Z</time></trkpt>
<trkpt lat="46.66996671818197" lon="7.173858191817999"><ele></ele><time>2014-10-30T3:50:2Z</time></trkpt>
<trkpt lat="46.66996940039098" lon="7.173859281465411"><ele></ele><time>2014-10-30T3:50:5Z</time></trkpt>
<trkpt lat="46.66997510008514" lon="7.1738633047789335"><ele></ele><time>2014-10-30T3:50:8Z</time></trkpt>
<trkpt lat="46.66999421082437" lon="7.173908147960901"><ele></ele><time>2014-10-30T3:50:11Z</time></trkpt>
<trkpt lat="46.66999178007245" lon="7.173916529864073"><ele></ele><time>2014-10-30T3:50:14Z</time></trkpt>
<trkpt lat="46.66999462991953" lon="7.173922648653388"><ele></ele><time>2014-10-30T3:50:17Z</time></trkpt>
<trkpt lat="46.66999898850918" lon="7.173930946737528"><ele></ele><time>2014-10-30T3:50:20Z</time></trkpt>
<trkpt lat="46.670001754537225" lon="7.173950392752886"><ele></ele><time>2014-10-30T3:50:23Z</time></trkpt>
<trkpt lat="46.670012986287475" lon="7.1739876084029675"><ele></ele><time>2014-10-30T3:50:26Z</time></trkpt>
<trkpt lat="46.67002187110484" lon="7.174029601737857"><ele></ele><time>2014-10-30T3:50:29Z</time></trkpt>
<trkpt lat="46.67002882808447" lon="7.174046030268073"><ele></ele><time>2014-10-30T3:50:32Z</time></trkpt>
<trkpt lat="46.670032013207674" lon="7.174059860408306"><ele></ele><time>2014-10-30T3:50:35Z</time></trkpt>
<trkpt lat="46.670032097026706" lon="7.174073690548539"><ele></ele><time>2014-10-30T3:50:38Z</time></trkpt>
<trkpt lat="46.67003871873021" lon="7.17408592812717"><ele></ele><time>2014-10-30T3:50:41Z</time></trkpt>
<trkpt lat="46.67004165239632" lon="7.174097998067737"><ele></ele><time>2014-10-30T3:50:44Z</time></trkpt>
<trkpt lat="46.6700426582247" lon="7.174103613942862"><ele></ele><time>2014-10-30T3:50:47Z</time></trkpt>
<trkpt lat="46.67006361298263" lon="7.174161616712809"><ele></ele><time>2014-10-30T3:50:50Z</time></trkpt>
<trkpt lat="46.67006411589682" lon="7.174170333892107"><ele></ele><time>2014-10-30T3:50:53Z</time></trkpt>
<trkpt lat="46.67006101459265" lon="7.174174441024661"><ele></ele><time>2014-10-30T3:50:56Z</time></trkpt>
<trkpt lat="46.67006797157228" lon="7.174177290871739"><ele></ele><time>2014-10-30T3:50:59Z</time></trkpt>
<trkpt lat="46.670083394274116" lon="7.1741860918700695"><ele></ele><time>2014-10-30T3:51:2Z</time></trkpt>
<trkpt lat="46.670095631852746" lon="7.174203358590603"><ele></ele><time>2014-10-30T3:51:5Z</time></trkpt>
<trkpt lat="46.67011843062937" lon="7.174212327226996"><ele></ele><time>2014-10-30T3:51:8Z</time></trkpt>
<trkpt lat="46.67012614198029" lon="7.174207800999284"><ele></ele><time>2014-10-30T3:51:11Z</time></trkpt>
<trkpt lat="46.67015899904072" lon="7.174229258671403"><ele></ele><time>2014-10-30T3:51:14Z</time></trkpt>
<trkpt lat="46.67016218416393" lon="7.174241244792938"><ele></ele><time>2014-10-30T3:51:17Z</time></trkpt>
<trkpt lat="46.67016235180199" lon="7.174254488199949"><ele></ele><time>2014-10-30T3:51:20Z</time></trkpt>
<trkpt lat="46.6701584123075" lon="7.1742653008550406"><ele></ele><time>2014-10-30T3:51:23Z</time></trkpt>
<trkpt lat="46.67016461491585" lon="7.174277370795608"><ele></ele><time>2014-10-30T3:51:26Z</time></trkpt>
<trkpt lat="46.670167967677116" lon="7.1742921229451895"><ele></ele><time>2014-10-30T3:51:29Z</time></trkpt>
<trkpt lat="46.67016377672553" lon="7.174324477091432"><ele></ele><time>2014-10-30T3:51:32Z</time></trkpt>
<trkpt lat="46.670163944363594" lon="7.174335457384586"><ele></ele><time>2014-10-30T3:51:35Z</time></trkpt>
<trkpt lat="46.66999018751085" lon="7.174442410469055"><ele></ele><time>2014-10-30T3:51:38Z</time></trkpt>
<trkpt lat="46.669996809214354" lon="7.17444559559226"><ele></ele><time>2014-10-30T3:51:41Z</time></trkpt>
<trkpt lat="46.669998820871115" lon="7.174440482631326"><ele></ele><time>2014-10-30T3:51:44Z</time></trkpt>
<trkpt lat="46.670000329613686" lon="7.174439392983913"><ele></ele><time>2014-10-30T3:51:47Z</time></trkpt>
<trkpt lat="46.670000748708844" lon="7.174432436004281"><ele></ele><time>2014-10-30T3:51:50Z</time></trkpt>
<trkpt lat="46.670002760365605" lon="7.174426903948188"><ele></ele><time>2014-10-30T3:51:53Z</time></trkpt>
<trkpt lat="46.670003263279796" lon="7.174419527873397"><ele></ele><time>2014-10-30T3:51:56Z</time></trkpt>
<trkpt lat="46.67000653222203" lon="7.174419779330492"><ele></ele><time>2014-10-30T3:51:59Z</time></trkpt>
<trkpt lat="46.670008543878794" lon="7.174419779330492"><ele></ele><time>2014-10-30T3:52:2Z</time></trkpt>
<trkpt lat="46.67000929825008" lon="7.174419611692429"><ele></ele><time>2014-10-30T3:52:5Z</time></trkpt>
<trkpt lat="46.670012064278126" lon="7.17441919259727"><ele></ele><time>2014-10-30T3:52:8Z</time></trkpt>
<trkpt lat="46.67001608759165" lon="7.174421958625317"><ele></ele><time>2014-10-30T3:52:11Z</time></trkpt>
<trkpt lat="46.67001633904874" lon="7.174423132091761"><ele></ele><time>2014-10-30T3:52:14Z</time></trkpt>
<trkpt lat="46.67001768015325" lon="7.17442262917757"><ele></ele><time>2014-10-30T3:52:17Z</time></trkpt>
<trkpt lat="46.67001876980066" lon="7.174422796815634"><ele></ele><time>2014-10-30T3:52:20Z</time></trkpt>
<trkpt lat="46.6700220387429" lon="7.174428245052695"><ele></ele><time>2014-10-30T3:52:23Z</time></trkpt>
<trkpt lat="46.67002346366644" lon="7.174434196203947"><ele></ele><time>2014-10-30T3:52:26Z</time></trkpt>
<trkpt lat="46.67002631351352" lon="7.174437548965216"><ele></ele><time>2014-10-30T3:52:29Z</time></trkpt>
<trkpt lat="46.670029079541564" lon="7.174439309164882"><ele></ele><time>2014-10-30T3:52:32Z</time></trkpt>
<trkpt lat="46.670032013207674" lon="7.174440314993262"><ele></ele><time>2014-10-30T3:52:35Z</time></trkpt>
<trkpt lat="46.67003436014056" lon="7.174442410469055"><ele></ele><time>2014-10-30T3:52:38Z</time></trkpt>
<trkpt lat="46.67003662325442" lon="7.1744446735829115"><ele></ele><time>2014-10-30T3:52:41Z</time></trkpt>
<trkpt lat="46.67003829963505" lon="7.17444752342999"><ele></ele><time>2014-10-30T3:52:44Z</time></trkpt>
<trkpt lat="46.67003880254924" lon="7.174448445439339"><ele></ele><time>2014-10-30T3:52:47Z</time></trkpt>
<trkpt lat="46.67003905400634" lon="7.174449283629656"><ele></ele><time>2014-10-30T3:52:50Z</time></trkpt>
<trkpt lat="46.67003955692053" lon="7.17444995418191"><ele></ele><time>2014-10-30T3:52:53Z</time></trkpt>
<trkpt lat="46.67004014365375" lon="7.174452133476734"><ele></ele><time>2014-10-30T3:52:56Z</time></trkpt>
<trkpt lat="46.67004005983472" lon="7.174453139305115"><ele></ele><time>2014-10-30T3:52:59Z</time></trkpt>
<trkpt lat="46.67004073038697" lon="7.17445632442832"><ele></ele><time>2014-10-30T3:53:2Z</time></trkpt>
<trkpt lat="46.67004022747278" lon="7.1744579169899225"><ele></ele><time>2014-10-30T3:53:5Z</time></trkpt>
<trkpt lat="46.67003930546343" lon="7.174459509551525"><ele></ele><time>2014-10-30T3:53:8Z</time></trkpt>
<trkpt lat="46.670038886368275" lon="7.174462275579572"><ele></ele><time>2014-10-30T3:53:11Z</time></trkpt>
<trkpt lat="46.67003829963505" lon="7.174466634169221"><ele></ele><time>2014-10-30T3:53:14Z</time></trkpt>
<trkpt lat="46.6700376290828" lon="7.174466131255031"><ele></ele><time>2014-10-30T3:53:17Z</time></trkpt>
<trkpt lat="46.670036036521196" lon="7.1744670532643795"><ele></ele><time>2014-10-30T3:53:20Z</time></trkpt>
<trkpt lat="46.67003570124507" lon="7.174464790150523"><ele></ele><time>2014-10-30T3:53:23Z</time></trkpt>
<trkpt lat="46.67003486305475" lon="7.174462359398603"><ele></ele><time>2014-10-30T3:53:26Z</time></trkpt>
<trkpt lat="46.67003285139799" lon="7.174459341913462"><ele></ele><time>2014-10-30T3:53:29Z</time></trkpt>
<trkpt lat="46.67003360576928" lon="7.1744549833238125"><ele></ele><time>2014-10-30T3:53:32Z</time></trkpt>
<trkpt lat="46.67003528214991" lon="7.174450876191258"><ele></ele><time>2014-10-30T3:53:35Z</time></trkpt>
<trkpt lat="46.670035533607006" lon="7.174447188153863"><ele></ele><time>2014-10-30T3:53:38Z</time></trkpt>
<trkpt lat="46.670035533607006" lon="7.174447188153863"><ele></ele><time>2014-10-30T3:53:41Z</time></trkpt>
<trkpt lat="46.670035533607006" lon="7.174447188153863"><ele></ele><time>2014-10-30T3:53:44Z</time></trkpt>
<trkpt lat="46.670035533607006" lon="7.174447188153863"><ele></ele><time>2014-10-30T3:53:47Z</time></trkpt>
<trkpt lat="46.670035533607006" lon="7.174447188153863"><ele></ele><time>2014-10-30T3:53:50Z</time></trkpt>
<trkpt lat="46.670035533607006" lon="7.174447188153863"><ele></ele><time>2014-10-30T3:53:53Z</time></trkpt>
<trkpt lat="46.670035533607006" lon="7.174447188153863"><ele></ele><time>2014-10-30T3:53:56Z</time></trkpt>
<trkpt lat="46.670035533607006" lon="7.174447188153863"><ele></ele><time>2014-10-30T3:53:59Z</time></trkpt>
<trkpt lat="46.670035533607006" lon="7.174447188153863"><ele></ele><time>2014-10-30T3:54:2Z</time></trkpt>
<trkpt lat="46.670035533607006" lon="7.174447188153863"><ele></ele><time>2014-10-30T3:54:5Z</time></trkpt>
<trkpt lat="46.670035533607006" lon="7.174447188153863"><ele></ele><time>2014-10-30T3:54:8Z</time></trkpt>
<trkpt lat="46.670035533607006" lon="7.174447188153863"><ele></ele><time>2014-10-30T3:54:11Z</time></trkpt>
<trkpt lat="46.670035533607006" lon="7.174447188153863"><ele></ele><time>2014-10-30T3:54:14Z</time></trkpt>
<trkpt lat="46.670035533607006" lon="7.174447188153863"><ele></ele><time>2014-10-30T3:54:17Z</time></trkpt>
<trkpt lat="46.670035533607006" lon="7.174447188153863"><ele></ele><time>2014-10-30T3:54:20Z</time></trkpt>
<trkpt lat="46.670035533607006" lon="7.174447188153863"><ele></ele><time>2014-10-30T3:54:23Z</time></trkpt>
<trkpt lat="46.670035533607006" lon="7.174447188153863"><ele></ele><time>2014-10-30T3:54:26Z</time></trkpt>
<trkpt lat="46.670035533607006" lon="7.174447188153863"><ele></ele><time>2014-10-30T3:54:29Z</time></trkpt>
<trkpt lat="46.670035533607006" lon="7.174447188153863"><ele></ele><time>2014-10-30T3:54:32Z</time></trkpt>
<trkpt lat="46.670035533607006" lon="7.174447188153863"><ele></ele><time>2014-10-30T3:54:35Z</time></trkpt>
<trkpt lat="46.670035533607006" lon="7.174447188153863"><ele></ele><time>2014-10-30T3:54:38Z</time></trkpt>
<trkpt lat="46.670035533607006" lon="7.174447188153863"><ele></ele><time>2014-10-30T3:54:41Z</time></trkpt>
<trkpt lat="46.670035533607006" lon="7.174447188153863"><ele></ele><time>2014-10-30T3:54:44Z</time></trkpt>
<trkpt lat="46.670035533607006" lon="7.174447188153863"><ele></ele><time>2014-10-30T3:54:47Z</time></trkpt>
<trkpt lat="46.670035533607006" lon="7.174447188153863"><ele></ele><time>2014-10-30T3:54:50Z</time></trkpt>
<trkpt lat="46.670035533607006" lon="7.174447188153863"><ele></ele><time>2014-10-30T3:54:53Z</time></trkpt>
<trkpt lat="46.670035533607006" lon="7.174447188153863"><ele></ele><time>2014-10-30T3:54:56Z</time></trkpt>
<trkpt lat="46.670035533607006" lon="7.174447188153863"><ele></ele><time>2014-10-30T3:54:59Z</time></trkpt>
<trkpt lat="46.670035533607006" lon="7.174447188153863"><ele></ele><time>2014-10-30T3:55:2Z</time></trkpt>
<trkpt lat="46.670035533607006" lon="7.174447188153863"><ele></ele><time>2014-10-30T3:55:5Z</time></trkpt>
<trkpt lat="46.670035533607006" lon="7.174447188153863"><ele></ele><time>2014-10-30T3:55:8Z</time></trkpt>
<trkpt lat="46.670035533607006" lon="7.174447188153863"><ele></ele><time>2014-10-30T3:55:11Z</time></trkpt>
<trkpt lat="46.670035533607006" lon="7.174447188153863"><ele></ele><time>2014-10-30T3:55:14Z</time></trkpt>
<trkpt lat="46.670035533607006" lon="7.174447188153863"><ele></ele><time>2014-10-30T3:55:17Z</time></trkpt>
<trkpt lat="46.670035533607006" lon="7.174447188153863"><ele></ele><time>2014-10-30T3:55:20Z</time></trkpt>
<trkpt lat="46.670035533607006" lon="7.174447188153863"><ele></ele><time>2014-10-30T3:55:23Z</time></trkpt>
<trkpt lat="46.670035533607006" lon="7.174447188153863"><ele></ele><time>2014-10-30T3:55:26Z</time></trkpt>
<trkpt lat="46.670035533607006" lon="7.174447188153863"><ele></ele><time>2014-10-30T3:55:29Z</time></trkpt>
<trkpt lat="46.670035533607006" lon="7.174447188153863"><ele></ele><time>2014-10-30T3:55:32Z</time></trkpt>
<trkpt lat="46.67003436014056" lon="7.17444852925837"><ele></ele><time>2014-10-30T3:55:35Z</time></trkpt>
<trkpt lat="46.67003436014056" lon="7.17444852925837"><ele></ele><time>2014-10-30T3:55:38Z</time></trkpt>
<trkpt lat="46.67003436014056" lon="7.17444852925837"><ele></ele><time>2014-10-30T3:55:41Z</time></trkpt>
<trkpt lat="46.67003436014056" lon="7.17444852925837"><ele></ele><time>2014-10-30T3:55:44Z</time></trkpt>
<trkpt lat="46.670034527778625" lon="7.17444802634418"><ele></ele><time>2014-10-30T3:55:47Z</time></trkpt>
<trkpt lat="46.67003343813121" lon="7.174458671361208"><ele></ele><time>2014-10-30T3:55:50Z</time></trkpt>
<trkpt lat="46.67003343813121" lon="7.174458671361208"><ele></ele><time>2014-10-30T3:55:53Z</time></trkpt>
<trkpt lat="46.67003343813121" lon="7.174458671361208"><ele></ele><time>2014-10-30T3:55:56Z</time></trkpt>
<trkpt lat="46.67003637179732" lon="7.174457414075732"><ele></ele><time>2014-10-30T3:55:59Z</time></trkpt>
<trkpt lat="46.67003628797829" lon="7.17445976100862"><ele></ele><time>2014-10-30T3:56:2Z</time></trkpt>
<trkpt lat="46.670040395110846" lon="7.174461437389255"><ele></ele><time>2014-10-30T3:56:5Z</time></trkpt>
<trkpt lat="46.6700445022434" lon="7.1744641195982695"><ele></ele><time>2014-10-30T3:56:8Z</time></trkpt>
<trkpt lat="46.6700445022434" lon="7.1744641195982695"><ele></ele><time>2014-10-30T3:56:11Z</time></trkpt>
<trkpt lat="46.6700445022434" lon="7.1744641195982695"><ele></ele><time>2014-10-30T3:56:14Z</time></trkpt>
<trkpt lat="46.6700445022434" lon="7.1744641195982695"><ele></ele><time>2014-10-30T3:56:17Z</time></trkpt>
<trkpt lat="46.6700445022434" lon="7.1744641195982695"><ele></ele><time>2014-10-30T3:56:20Z</time></trkpt>
<trkpt lat="46.6700445022434" lon="7.1744641195982695"><ele></ele><time>2014-10-30T3:56:23Z</time></trkpt>
<trkpt lat="46.6700445022434" lon="7.1744641195982695"><ele></ele><time>2014-10-30T3:56:26Z</time></trkpt>
<trkpt lat="46.6700445022434" lon="7.1744641195982695"><ele></ele><time>2014-10-30T3:56:29Z</time></trkpt>
<trkpt lat="46.6700445022434" lon="7.1744641195982695"><ele></ele><time>2014-10-30T3:56:32Z</time></trkpt>
<trkpt lat="46.6700445022434" lon="7.1744641195982695"><ele></ele><time>2014-10-30T3:56:35Z</time></trkpt>
<trkpt lat="46.6700445022434" lon="7.1744641195982695"><ele></ele><time>2014-10-30T3:56:38Z</time></trkpt>
<trkpt lat="46.6700445022434" lon="7.1744641195982695"><ele></ele><time>2014-10-30T3:56:41Z</time></trkpt>
<trkpt lat="46.6700445022434" lon="7.1744641195982695"><ele></ele><time>2014-10-30T3:56:44Z</time></trkpt>
<trkpt lat="46.6700445022434" lon="7.1744641195982695"><ele></ele><time>2014-10-30T3:56:47Z</time></trkpt>
<trkpt lat="46.6700445022434" lon="7.1744641195982695"><ele></ele><time>2014-10-30T3:56:50Z</time></trkpt>
<trkpt lat="46.6700445022434" lon="7.1744641195982695"><ele></ele><time>2014-10-30T3:56:53Z</time></trkpt>
<trkpt lat="46.6700445022434" lon="7.1744641195982695"><ele></ele><time>2014-10-30T3:56:56Z</time></trkpt>
<trkpt lat="46.6700445022434" lon="7.1744641195982695"><ele></ele><time>2014-10-30T3:56:59Z</time></trkpt>
<trkpt lat="46.670046178624034" lon="7.17446219176054"><ele></ele><time>2014-10-30T3:57:2Z</time></trkpt>
<trkpt lat="46.670046178624034" lon="7.17446219176054"><ele></ele><time>2014-10-30T3:57:5Z</time></trkpt>
<trkpt lat="46.670047268271446" lon="7.174462275579572"><ele></ele><time>2014-10-30T3:57:8Z</time></trkpt>
<trkpt lat="46.67007953859866" lon="7.1744694001972675"><ele></ele><time>2014-10-30T3:57:11Z</time></trkpt>
<trkpt lat="46.67009764350951" lon="7.174472333863378"><ele></ele><time>2014-10-30T3:57:14Z</time></trkpt>
<trkpt lat="46.670121448114514" lon="7.174453558400273"><ele></ele><time>2014-10-30T3:57:17Z</time></trkpt>
<trkpt lat="46.67012698017061" lon="7.174450540915132"><ele></ele><time>2014-10-30T3:57:20Z</time></trkpt>
<trkpt lat="46.67012815363705" lon="7.174447188153863"><ele></ele><time>2014-10-30T3:57:23Z</time></trkpt>
<trkpt lat="46.67015070095658" lon="7.174407038837671"><ele></ele><time>2014-10-30T3:57:26Z</time></trkpt>
<trkpt lat="46.67015640065074" lon="7.1743442583829165"><ele></ele><time>2014-10-30T3:57:29Z</time></trkpt>
<trkpt lat="46.6701618488878" lon="7.174286590889096"><ele></ele><time>2014-10-30T3:57:32Z</time></trkpt>
<trkpt lat="46.67015941813588" lon="7.174248620867729"><ele></ele><time>2014-10-30T3:57:35Z</time></trkpt>
<trkpt lat="46.67014818638563" lon="7.17417192645371"><ele></ele><time>2014-10-30T3:57:38Z</time></trkpt>
<trkpt lat="46.67009596712887" lon="7.174137057736516"><ele></ele><time>2014-10-30T3:57:41Z</time></trkpt>
<trkpt lat="46.6700685583055" lon="7.1741201262921095"><ele></ele><time>2014-10-30T3:57:44Z</time></trkpt>
<trkpt lat="46.67004902847111" lon="7.174079725518823"><ele></ele><time>2014-10-30T3:57:47Z</time></trkpt>
<trkpt lat="46.670037461444736" lon="7.174024488776922"><ele></ele><time>2014-10-30T3:57:50Z</time></trkpt>
<trkpt lat="46.670021284371614" lon="7.173961875960231"><ele></ele><time>2014-10-30T3:57:53Z</time></trkpt>
<trkpt lat="46.67000259272754" lon="7.173894485458732"><ele></ele><time>2014-10-30T3:57:56Z</time></trkpt>
<trkpt lat="46.66999261826277" lon="7.173828016966581"><ele></ele><time>2014-10-30T3:57:59Z</time></trkpt>
<trkpt lat="46.669995971024036" lon="7.173763895407319"><ele></ele><time>2014-10-30T3:58:2Z</time></trkpt>
<trkpt lat="46.670004185289145" lon="7.173700863495469"><ele></ele><time>2014-10-30T3:58:5Z</time></trkpt>
<trkpt lat="46.67001927271485" lon="7.17363690957427"><ele></ele><time>2014-10-30T3:58:8Z</time></trkpt>
<trkpt lat="46.670036455616355" lon="7.1735667530447245"><ele></ele><time>2014-10-30T3:58:11Z</time></trkpt>
<trkpt lat="46.67004760354757" lon="7.1734903100878"><ele></ele><time>2014-10-30T3:58:14Z</time></trkpt>
<trkpt lat="46.670063864439726" lon="7.173411184921861"><ele></ele><time>2014-10-30T3:58:17Z</time></trkpt>
<trkpt lat="46.67008657939732" lon="7.1733391005545855"><ele></ele><time>2014-10-30T3:58:20Z</time></trkpt>
<trkpt lat="46.67011742480099" lon="7.173278834670782"><ele></ele><time>2014-10-30T3:58:23Z</time></trkpt>
<trkpt lat="46.67015003040433" lon="7.17322007752955"><ele></ele><time>2014-10-30T3:58:26Z</time></trkpt>
<trkpt lat="46.67016922496259" lon="7.173161236569285"><ele></ele><time>2014-10-30T3:58:29Z</time></trkpt>
<trkpt lat="46.67017827741802" lon="7.1731011383235455"><ele></ele><time>2014-10-30T3:58:32Z</time></trkpt>
<trkpt lat="46.67018003761768" lon="7.173055540770292"><ele></ele><time>2014-10-30T3:58:35Z</time></trkpt>
<trkpt lat="46.670174673199654" lon="7.173005752265453"><ele></ele><time>2014-10-30T3:58:38Z</time></trkpt>
<trkpt lat="46.670172745361924" lon="7.172946659848094"><ele></ele><time>2014-10-30T3:58:41Z</time></trkpt>
<trkpt lat="46.67017123661935" lon="7.172885136678815"><ele></ele><time>2014-10-30T3:58:44Z</time></trkpt>
<trkpt lat="46.67017123661935" lon="7.172822104766965"><ele></ele><time>2014-10-30T3:58:47Z</time></trkpt>
<trkpt lat="46.67016570456326" lon="7.172760916873813"><ele></ele><time>2014-10-30T3:58:50Z</time></trkpt>
<trkpt lat="46.67015975341201" lon="7.172710290178657"><ele></ele><time>2014-10-30T3:58:53Z</time></trkpt>
<trkpt lat="46.67015430517495" lon="7.1726643573492765"><ele></ele><time>2014-10-30T3:58:56Z</time></trkpt>
<trkpt lat="46.67014902457595" lon="7.172623537480831"><ele></ele><time>2014-10-30T3:58:59Z</time></trkpt>
<trkpt lat="46.67015086859465" lon="7.172582466155291"><ele></ele><time>2014-10-30T3:59:2Z</time></trkpt>
<trkpt lat="46.67015112005174" lon="7.172536868602037"><ele></ele><time>2014-10-30T3:59:5Z</time></trkpt>
<trkpt lat="46.670149862766266" lon="7.172484649345279"><ele></ele><time>2014-10-30T3:59:8Z</time></trkpt>
<trkpt lat="46.67015003040433" lon="7.172426227480173"><ele></ele><time>2014-10-30T3:59:11Z</time></trkpt>
<trkpt lat="46.670151790603995" lon="7.172374092042446"><ele></ele><time>2014-10-30T3:59:14Z</time></trkpt>
<trkpt lat="46.670153215527534" lon="7.17231759801507"><ele></ele><time>2014-10-30T3:59:17Z</time></trkpt>
<trkpt lat="46.670154221355915" lon="7.1722600143402815"><ele></ele><time>2014-10-30T3:59:20Z</time></trkpt>
<trkpt lat="46.670154640451074" lon="7.172204526141286"><ele></ele><time>2014-10-30T3:59:23Z</time></trkpt>
<trkpt lat="46.67015824466944" lon="7.172141997143626"><ele></ele><time>2014-10-30T3:59:26Z</time></trkpt>
<trkpt lat="46.67016830295324" lon="7.172082234174013"><ele></ele><time>2014-10-30T3:59:29Z</time></trkpt>
<trkpt lat="46.67017702013254" lon="7.172021130099893"><ele></ele><time>2014-10-30T3:59:32Z</time></trkpt>
<trkpt lat="46.670185988768935" lon="7.1719705034047365"><ele></ele><time>2014-10-30T3:59:35Z</time></trkpt>
<trkpt lat="46.67018967680633" lon="7.1719216369092464"><ele></ele><time>2014-10-30T3:59:38Z</time></trkpt>
<trkpt lat="46.670198729261756" lon="7.171875536441803"><ele></ele><time>2014-10-30T3:59:41Z</time></trkpt>
<trkpt lat="46.67020828463137" lon="7.171823568642139"><ele></ele><time>2014-10-30T3:59:44Z</time></trkpt>
<trkpt lat="46.670217672362924" lon="7.171762464568019"><ele></ele><time>2014-10-30T3:59:47Z</time></trkpt>
<trkpt lat="46.67022781446576" lon="7.171697923913598"><ele></ele><time>2014-10-30T3:59:50Z</time></trkpt>
<trkpt lat="46.670235861092806" lon="7.171628102660179"><ele></ele><time>2014-10-30T3:59:53Z</time></trkpt>
<trkpt lat="46.67024290189147" lon="7.1715599577873945"><ele></ele><time>2014-10-30T3:59:56Z</time></trkpt>
<trkpt lat="46.67025270871818" lon="7.17149181291461"><ele></ele><time>2014-10-30T3:59:59Z</time></trkpt>
<trkpt lat="46.67026989161968" lon="7.171416208148003"><ele></ele><time>2014-10-30T4:0:2Z</time></trkpt>
<trkpt lat="46.67029378004372" lon="7.171330712735653"><ele></ele><time>2014-10-30T4:0:5Z</time></trkpt>
<trkpt lat="46.67031096294522" lon="7.171233985573053"><ele></ele><time>2014-10-30T4:0:8Z</time></trkpt>
<trkpt lat="46.670321775600314" lon="7.17113952152431"><ele></ele><time>2014-10-30T4:0:11Z</time></trkpt>
<trkpt lat="46.67033317498863" lon="7.171060228720307"><ele></ele><time>2014-10-30T4:0:14Z</time></trkpt>
<trkpt lat="46.67034172452986" lon="7.170997783541679"><ele></ele><time>2014-10-30T4:0:17Z</time></trkpt>
<trkpt lat="46.67034549638629" lon="7.170948833227158"><ele></ele><time>2014-10-30T4:0:20Z</time></trkpt>
<trkpt lat="46.67035580612719" lon="7.17090105637908"><ele></ele><time>2014-10-30T4:0:23Z</time></trkpt>
<trkpt lat="46.67036946862936" lon="7.170848585665226"><ele></ele><time>2014-10-30T4:0:26Z</time></trkpt>
<trkpt lat="46.670378437265754" lon="7.170793600380421"><ele></ele><time>2014-10-30T4:0:29Z</time></trkpt>
<trkpt lat="46.67038363404572" lon="7.1707503497600555"><ele></ele><time>2014-10-30T4:0:32Z</time></trkpt>
<trkpt lat="46.67038748972118" lon="7.170704249292612"><ele></ele><time>2014-10-30T4:0:35Z</time></trkpt>
<trkpt lat="46.670400481671095" lon="7.170657981187105"><ele></ele><time>2014-10-30T4:0:38Z</time></trkpt>
<trkpt lat="46.670414144173265" lon="7.170556727796793"><ele></ele><time>2014-10-30T4:0:41Z</time></trkpt>
<trkpt lat="46.67041791602969" lon="7.170496378093958"><ele></ele><time>2014-10-30T4:0:44Z</time></trkpt>
<trkpt lat="46.670417077839375" lon="7.170437956228852"><ele></ele><time>2014-10-30T4:0:47Z</time></trkpt>
<trkpt lat="46.67041724547744" lon="7.170373080298305"><ele></ele><time>2014-10-30T4:0:50Z</time></trkpt>
<trkpt lat="46.67041942477226" lon="7.170315748080611"><ele></ele><time>2014-10-30T4:0:53Z</time></trkpt>
<trkpt lat="46.67041875422001" lon="7.17026193626225"><ele></ele><time>2014-10-30T4:0:56Z</time></trkpt>
<trkpt lat="46.670405510813" lon="7.170135537162423"><ele></ele><time>2014-10-30T4:0:59Z</time></trkpt>
<trkpt lat="46.670388244092464" lon="7.170050963759422"><ele></ele><time>2014-10-30T4:1:2Z</time></trkpt>
<trkpt lat="46.67038564570248" lon="7.170014837756753"><ele></ele><time>2014-10-30T4:1:5Z</time></trkpt>
<trkpt lat="46.67040626518428" lon="7.169930851086974"><ele></ele><time>2014-10-30T4:1:8Z</time></trkpt>
<trkpt lat="46.67042361572385" lon="7.169839907437563"><ele></ele><time>2014-10-30T4:1:11Z</time></trkpt>
<trkpt lat="46.670407857745886" lon="7.169719710946083"><ele></ele><time>2014-10-30T4:1:14Z</time></trkpt>
<trkpt lat="46.670379526913166" lon="7.169673694297671"><ele></ele><time>2014-10-30T4:1:17Z</time></trkpt>
<trkpt lat="46.67036100290716" lon="7.169618289917707"><ele></ele><time>2014-10-30T4:1:20Z</time></trkpt>
<trkpt lat="46.670372653752565" lon="7.169443694874644"><ele></ele><time>2014-10-30T4:1:23Z</time></trkpt>
<trkpt lat="46.67036226019263" lon="7.169384267181158"><ele></ele><time>2014-10-30T4:1:26Z</time></trkpt>
<trkpt lat="46.67035806924105" lon="7.169357361271977"><ele></ele><time>2014-10-30T4:1:29Z</time></trkpt>
<trkpt lat="46.670367289334536" lon="7.169259209185839"><ele></ele><time>2014-10-30T4:1:32Z</time></trkpt>
<trkpt lat="46.670372653752565" lon="7.169236745685339"><ele></ele><time>2014-10-30T4:1:35Z</time></trkpt>
<trkpt lat="46.67037382721901" lon="7.169213695451617"><ele></ele><time>2014-10-30T4:1:38Z</time></trkpt>
<trkpt lat="46.67038564570248" lon="7.16916399076581"><ele></ele><time>2014-10-30T4:1:41Z</time></trkpt>
<trkpt lat="46.670400062575936" lon="7.169119482859969"><ele></ele><time>2014-10-30T4:1:44Z</time></trkpt>
<trkpt lat="46.670417580753565" lon="7.169094420969486"><ele></ele><time>2014-10-30T4:1:47Z</time></trkpt>
<trkpt lat="46.67043677531183" lon="7.169057624414563"><ele></ele><time>2014-10-30T4:1:50Z</time></trkpt>
<trkpt lat="46.67044322937727" lon="7.169030215591192"><ele></ele><time>2014-10-30T4:1:53Z</time></trkpt>
<trkpt lat="46.670443061739206" lon="7.169005824252963"><ele></ele><time>2014-10-30T4:1:56Z</time></trkpt>
<trkpt lat="46.67044574394822" lon="7.1689841989427805"><ele></ele><time>2014-10-30T4:1:59Z</time></trkpt>
<trkpt lat="46.67044465430081" lon="7.168957879766822"><ele></ele><time>2014-10-30T4:2:2Z</time></trkpt>
<trkpt lat="46.670445157215" lon="7.168933907523751"><ele></ele><time>2014-10-30T4:2:5Z</time></trkpt>
<trkpt lat="46.670441469177604" lon="7.1689114440232515"><ele></ele><time>2014-10-30T4:2:8Z</time></trkpt>
<trkpt lat="46.67044121772051" lon="7.168896356597543"><ele></ele><time>2014-10-30T4:2:11Z</time></trkpt>
<trkpt lat="46.67043585330248" lon="7.168875066563487"><ele></ele><time>2014-10-30T4:2:14Z</time></trkpt>
<trkpt lat="46.6704364400357" lon="7.1688312292099"><ele></ele><time>2014-10-30T4:2:17Z</time></trkpt>
<trkpt lat="46.67043820023537" lon="7.168805412948132"><ele></ele><time>2014-10-30T4:2:20Z</time></trkpt>
<trkpt lat="46.67045152746141" lon="7.168708266690373"><ele></ele><time>2014-10-30T4:2:23Z</time></trkpt>
<trkpt lat="46.67045337148011" lon="7.168626878410578"><ele></ele><time>2014-10-30T4:2:26Z</time></trkpt>
<trkpt lat="46.67038799263537" lon="7.168395118787885"><ele></ele><time>2014-10-30T4:2:29Z</time></trkpt>
<trkpt lat="46.67038128711283" lon="7.168372655287385"><ele></ele><time>2014-10-30T4:2:32Z</time></trkpt>
<trkpt lat="46.6703862324357" lon="7.168348180130124"><ele></ele><time>2014-10-30T4:2:35Z</time></trkpt>
<trkpt lat="46.67038447223604" lon="7.168305516242981"><ele></ele><time>2014-10-30T4:2:38Z</time></trkpt>
<trkpt lat="46.670382879674435" lon="7.168285232037306"><ele></ele><time>2014-10-30T4:2:41Z</time></trkpt>
<trkpt lat="46.67037139646709" lon="7.168182721361518"><ele></ele><time>2014-10-30T4:2:44Z</time></trkpt>
<trkpt lat="46.670367792248726" lon="7.168120862916112"><ele></ele><time>2014-10-30T4:2:47Z</time></trkpt>
<trkpt lat="46.67036251164973" lon="7.1680973097682"><ele></ele><time>2014-10-30T4:2:50Z</time></trkpt>
<trkpt lat="46.670324290171266" lon="7.168008964508772"><ele></ele><time>2014-10-30T4:2:53Z</time></trkpt>
<trkpt lat="46.670313477516174" lon="7.1679663844406605"><ele></ele><time>2014-10-30T4:2:56Z</time></trkpt>
<trkpt lat="46.67030802927911" lon="7.167924474924803"><ele></ele><time>2014-10-30T4:2:59Z</time></trkpt>
<trkpt lat="46.67030400596559" lon="7.167888516560197"><ele></ele><time>2014-10-30T4:3:2Z</time></trkpt>
<trkpt lat="46.67029621079564" lon="7.167850462719798"><ele></ele><time>2014-10-30T4:3:5Z</time></trkpt>
<trkpt lat="46.67028984054923" lon="7.1678344532847404"><ele></ele><time>2014-10-30T4:3:8Z</time></trkpt>
<trkpt lat="46.670260671526194" lon="7.167770750820637"><ele></ele><time>2014-10-30T4:3:11Z</time></trkpt>
<trkpt lat="46.670249942690134" lon="7.16766782104969"><ele></ele><time>2014-10-30T4:3:14Z</time></trkpt>
<trkpt lat="46.67024793103337" lon="7.167553575709462"><ele></ele><time>2014-10-30T4:3:17Z</time></trkpt>
<trkpt lat="46.67027425020933" lon="7.167459195479751"><ele></ele><time>2014-10-30T4:3:20Z</time></trkpt>
<trkpt lat="46.67027902789414" lon="7.167439078912139"><ele></ele><time>2014-10-30T4:3:23Z</time></trkpt>
<trkpt lat="46.67027609422803" lon="7.167417285963893"><ele></ele><time>2014-10-30T4:3:26Z</time></trkpt>
<trkpt lat="46.67026896961033" lon="7.167405802756548"><ele></ele><time>2014-10-30T4:3:29Z</time></trkpt>
<trkpt lat="46.670260252431035" lon="7.167370682582259"><ele></ele><time>2014-10-30T4:3:32Z</time></trkpt>
<trkpt lat="46.670242147520185" lon="7.167341262102127"><ele></ele><time>2014-10-30T4:3:35Z</time></trkpt>
<trkpt lat="46.6702067758888" lon="7.16722073033452"><ele></ele><time>2014-10-30T4:3:38Z</time></trkpt>
<trkpt lat="46.67019730433822" lon="7.16717773117125"><ele></ele><time>2014-10-30T4:3:41Z</time></trkpt>
<trkpt lat="46.67016067542136" lon="7.167021157220006"><ele></ele><time>2014-10-30T4:3:44Z</time></trkpt>
<trkpt lat="46.67012136429548" lon="7.1668964345008135"><ele></ele><time>2014-10-30T4:3:47Z</time></trkpt>
<trkpt lat="46.67011130601168" lon="7.166795767843723"><ele></ele><time>2014-10-30T4:3:50Z</time></trkpt>
<trkpt lat="46.670103846117854" lon="7.166771963238716"><ele></ele><time>2014-10-30T4:3:53Z</time></trkpt>
<trkpt lat="46.670091692358255" lon="7.16674966737628"><ele></ele><time>2014-10-30T4:3:56Z</time></trkpt>
<trkpt lat="46.67004257440567" lon="7.1666281297802925"><ele></ele><time>2014-10-30T4:3:59Z</time></trkpt>
<trkpt lat="46.67003083974123" lon="7.1664623357355595"><ele></ele><time>2014-10-30T4:4:2Z</time></trkpt>
<trkpt lat="46.670020865276456" lon="7.166439788416028"><ele></ele><time>2014-10-30T4:4:5Z</time></trkpt>
<trkpt lat="46.670009046792984" lon="7.166409781202674"><ele></ele><time>2014-10-30T4:4:8Z</time></trkpt>
<trkpt lat="46.670000245794654" lon="7.166381450369954"><ele></ele><time>2014-10-30T4:4:11Z</time></trkpt>
<trkpt lat="46.670003179460764" lon="7.166357981041074"><ele></ele><time>2014-10-30T4:4:14Z</time></trkpt>
<trkpt lat="46.67000410147011" lon="7.166349766775966"><ele></ele><time>2014-10-30T4:4:17Z</time></trkpt>
<trkpt lat="46.66997618973255" lon="7.166312048211694"><ele></ele><time>2014-10-30T4:4:20Z</time></trkpt>
<trkpt lat="46.669976776465774" lon="7.166264774277806"><ele></ele><time>2014-10-30T4:4:23Z</time></trkpt>
<trkpt lat="46.669996809214354" lon="7.166241891682148"><ele></ele><time>2014-10-30T4:4:26Z</time></trkpt>
<trkpt lat="46.670003263279796" lon="7.166232336312532"><ele></ele><time>2014-10-30T4:4:29Z</time></trkpt>
<trkpt lat="46.670007621869445" lon="7.166195455938578"><ele></ele><time>2014-10-30T4:4:32Z</time></trkpt>
<trkpt lat="46.67002824135125" lon="7.16613887809217"><ele></ele><time>2014-10-30T4:4:35Z</time></trkpt>
<trkpt lat="46.67003913782537" lon="7.166070230305195"><ele></ele><time>2014-10-30T4:4:38Z</time></trkpt>
<trkpt lat="46.67004852555692" lon="7.1660249680280685"><ele></ele><time>2014-10-30T4:4:41Z</time></trkpt>
<trkpt lat="46.670051543042064" lon="7.165966713801026"><ele></ele><time>2014-10-30T4:4:44Z</time></trkpt>
<trkpt lat="46.670058500021696" lon="7.165925977751613"><ele></ele><time>2014-10-30T4:4:47Z</time></trkpt>
<trkpt lat="46.670055482536554" lon="7.165788346901536"><ele></ele><time>2014-10-30T4:4:50Z</time></trkpt>
<trkpt lat="46.670048693194985" lon="7.1657478623092175"><ele></ele><time>2014-10-30T4:4:53Z</time></trkpt>
<trkpt lat="46.67004123330116" lon="7.165703689679503"><ele></ele><time>2014-10-30T4:4:56Z</time></trkpt>
<trkpt lat="46.67003880254924" lon="7.165669910609722"><ele></ele><time>2014-10-30T4:4:59Z</time></trkpt>
<trkpt lat="46.6700339410454" lon="7.165634036064148"><ele></ele><time>2014-10-30T4:5:2Z</time></trkpt>
<trkpt lat="46.670036958530545" lon="7.165607465431094"><ele></ele><time>2014-10-30T4:5:5Z</time></trkpt>
<trkpt lat="46.670038467273116" lon="7.165582990273833"><ele></ele><time>2014-10-30T4:5:8Z</time></trkpt>
<trkpt lat="46.67003620415926" lon="7.165520042181015"><ele></ele><time>2014-10-30T4:5:11Z</time></trkpt>
<trkpt lat="46.67003687471151" lon="7.16549925506115"><ele></ele><time>2014-10-30T4:5:14Z</time></trkpt>
<trkpt lat="46.670031091198325" lon="7.165437480434775"><ele></ele><time>2014-10-30T4:5:17Z</time></trkpt>
<trkpt lat="46.670031510293484" lon="7.165412670001388"><ele></ele><time>2014-10-30T4:5:20Z</time></trkpt>
<trkpt lat="46.670017009601" lon="7.1653058007359505"><ele></ele><time>2014-10-30T4:5:23Z</time></trkpt>
<trkpt lat="46.67000058107078" lon="7.165237739682198"><ele></ele><time>2014-10-30T4:5:26Z</time></trkpt>
<trkpt lat="46.66998348198831" lon="7.165179569274187"><ele></ele><time>2014-10-30T4:5:29Z</time></trkpt>
<trkpt lat="46.669981302693486" lon="7.165151154622436"><ele></ele><time>2014-10-30T4:5:32Z</time></trkpt>
<trkpt lat="46.66999094188213" lon="7.165040178224444"><ele></ele><time>2014-10-30T4:5:35Z</time></trkpt>
<trkpt lat="46.66999756358564" lon="7.164956778287888"><ele></ele><time>2014-10-30T4:5:38Z</time></trkpt>
<trkpt lat="46.67000066488981" lon="7.164924424141645"><ele></ele><time>2014-10-30T4:5:41Z</time></trkpt>
<trkpt lat="46.67000552639365" lon="7.16488067060709"><ele></ele><time>2014-10-30T4:5:44Z</time></trkpt>
<trkpt lat="46.670007118955255" lon="7.164845298975706"><ele></ele><time>2014-10-30T4:5:47Z</time></trkpt>
<trkpt lat="46.6700082924217" lon="7.1648230869323015"><ele></ele><time>2014-10-30T4:5:50Z</time></trkpt>
<trkpt lat="46.670031510293484" lon="7.16473700478673"><ele></ele><time>2014-10-30T4:5:53Z</time></trkpt>
<trkpt lat="46.67003142647445" lon="7.164710266515613"><ele></ele><time>2014-10-30T4:5:56Z</time></trkpt>
<trkpt lat="46.670042825862765" lon="7.164624854922295"><ele></ele><time>2014-10-30T4:5:59Z</time></trkpt>
<trkpt lat="46.67005229741335" lon="7.16447020880878"><ele></ele><time>2014-10-30T4:6:2Z</time></trkpt>
<trkpt lat="46.67006612755358" lon="7.164400806650519"><ele></ele><time>2014-10-30T4:6:5Z</time></trkpt>
<trkpt lat="46.670079957693815" lon="7.164274659007788"><ele></ele><time>2014-10-30T4:6:8Z</time></trkpt>
<trkpt lat="46.67006260715425" lon="7.1641413029283285"><ele></ele><time>2014-10-30T4:6:11Z</time></trkpt>
<trkpt lat="46.67005221359432" lon="7.164099896326661"><ele></ele><time>2014-10-30T4:6:14Z</time></trkpt>
<trkpt lat="46.670047184452415" lon="7.164074247702956"><ele></ele><time>2014-10-30T4:6:17Z</time></trkpt>
<trkpt lat="46.670030085369945" lon="7.163950446993113"><ele></ele><time>2014-10-30T4:6:20Z</time></trkpt>
<trkpt lat="46.67001290246844" lon="7.163814157247543"><ele></ele><time>2014-10-30T4:6:23Z</time></trkpt>
<trkpt lat="46.670009633526206" lon="7.163787083700299"><ele></ele><time>2014-10-30T4:6:26Z</time></trkpt>
<trkpt lat="46.669978285208344" lon="7.163722878322005"><ele></ele><time>2014-10-30T4:6:29Z</time></trkpt>
<trkpt lat="46.66996143758297" lon="7.163686333224177"><ele></ele><time>2014-10-30T4:6:32Z</time></trkpt>
<trkpt lat="46.66994299739599" lon="7.163610477000475"><ele></ele><time>2014-10-30T4:6:35Z</time></trkpt>
<trkpt lat="46.66992933489382" lon="7.163560856133699"><ele></ele><time>2014-10-30T4:6:38Z</time></trkpt>
<trkpt lat="46.66991860605776" lon="7.163521712645888"><ele></ele><time>2014-10-30T4:6:41Z</time></trkpt>
<trkpt lat="46.66990854777396" lon="7.163482401520014"><ele></ele><time>2014-10-30T4:6:44Z</time></trkpt>
<trkpt lat="46.6699078772217" lon="7.163441749289632"><ele></ele><time>2014-10-30T4:6:47Z</time></trkpt>
<trkpt lat="46.66991005651653" lon="7.163364719599485"><ele></ele><time>2014-10-30T4:6:50Z</time></trkpt>
<trkpt lat="46.66990729048848" lon="7.163349464535713"><ele></ele><time>2014-10-30T4:6:53Z</time></trkpt>
<trkpt lat="46.66989698074758" lon="7.1633143443614244"><ele></ele><time>2014-10-30T4:6:56Z</time></trkpt>
<trkpt lat="46.66989245451987" lon="7.163282576948404"><ele></ele><time>2014-10-30T4:6:59Z</time></trkpt>
<trkpt lat="46.66989287361503" lon="7.163250558078289"><ele></ele><time>2014-10-30T4:7:2Z</time></trkpt>
<trkpt lat="46.669898238033056" lon="7.1632330399006605"><ele></ele><time>2014-10-30T4:7:5Z</time></trkpt>
<trkpt lat="46.66990368627012" lon="7.163214851170778"><ele></ele><time>2014-10-30T4:7:8Z</time></trkpt>
<trkpt lat="46.66990829631686" lon="7.163178473711014"><ele></ele><time>2014-10-30T4:7:11Z</time></trkpt>
<trkpt lat="46.66993511840701" lon="7.163157854229212"><ele></ele><time>2014-10-30T4:7:14Z</time></trkpt>
<trkpt lat="46.66994819417596" lon="7.1631246618926525"><ele></ele><time>2014-10-30T4:7:17Z</time></trkpt>
<trkpt lat="46.669968478381634" lon="7.163038412109017"><ele></ele><time>2014-10-30T4:7:20Z</time></trkpt>
<trkpt lat="46.66997375898063" lon="7.162999603897333"><ele></ele><time>2014-10-30T4:7:23Z</time></trkpt>
<trkpt lat="46.670003263279796" lon="7.1629411820322275"><ele></ele><time>2014-10-30T4:7:26Z</time></trkpt>
<trkpt lat="46.670026732608676" lon="7.162879323586822"><ele></ele><time>2014-10-30T4:7:29Z</time></trkpt>
<trkpt lat="46.67003653943539" lon="7.162862224504352"><ele></ele><time>2014-10-30T4:7:32Z</time></trkpt>
<trkpt lat="46.670043328776956" lon="7.162796845659614"><ele></ele><time>2014-10-30T4:7:35Z</time></trkpt>
<trkpt lat="46.67001382447779" lon="7.162688132375479"><ele></ele><time>2014-10-30T4:7:38Z</time></trkpt>
<trkpt lat="46.669997395947576" lon="7.16265351511538"><ele></ele><time>2014-10-30T4:7:41Z</time></trkpt>
<trkpt lat="46.66994081810117" lon="7.162548154592514"><ele></ele><time>2014-10-30T4:7:44Z</time></trkpt>
<trkpt lat="46.66988180950284" lon="7.162477746605873"><ele></ele><time>2014-10-30T4:7:47Z</time></trkpt>
<trkpt lat="46.669865380972624" lon="7.162455199286342"><ele></ele><time>2014-10-30T4:7:50Z</time></trkpt>
<trkpt lat="46.66985389776528" lon="7.162430724129081"><ele></ele><time>2014-10-30T4:7:53Z</time></trkpt>
<trkpt lat="46.66985096409917" lon="7.162421755492687"><ele></ele><time>2014-10-30T4:7:56Z</time></trkpt>
<trkpt lat="46.669848365709186" lon="7.162415385246277"><ele></ele><time>2014-10-30T4:7:59Z</time></trkpt>
<trkpt lat="46.669845851138234" lon="7.16241211630404"><ele></ele><time>2014-10-30T4:8:2Z</time></trkpt>
<trkpt lat="46.66984677314758" lon="7.162411194294691"><ele></ele><time>2014-10-30T4:8:5Z</time></trkpt>
<trkpt lat="46.66983939707279" lon="7.162394681945443"><ele></ele><time>2014-10-30T4:8:8Z</time></trkpt>
<trkpt lat="46.669831182807684" lon="7.1623878087848425"><ele></ele><time>2014-10-30T4:8:11Z</time></trkpt>
<trkpt lat="46.6698217112571" lon="7.1623786725103855"><ele></ele><time>2014-10-30T4:8:14Z</time></trkpt>
<trkpt lat="46.66979882866144" lon="7.162359897047281"><ele></ele><time>2014-10-30T4:8:17Z</time></trkpt>
<trkpt lat="46.66978759691119" lon="7.162339193746448"><ele></ele><time>2014-10-30T4:8:20Z</time></trkpt>
<trkpt lat="46.66977443732321" lon="7.16231438331306"><ele></ele><time>2014-10-30T4:8:23Z</time></trkpt>
<trkpt lat="46.66975415311754" lon="7.162293763831258"><ele></ele><time>2014-10-30T4:8:26Z</time></trkpt>
<trkpt lat="46.66974049061537" lon="7.16228261590004"><ele></ele><time>2014-10-30T4:8:29Z</time></trkpt>
<trkpt lat="46.669723307713866" lon="7.162265432998538"><ele></ele><time>2014-10-30T4:8:32Z</time></trkpt>
<trkpt lat="46.66971668601036" lon="7.16226015239954"><ele></ele><time>2014-10-30T4:8:35Z</time></trkpt>
<trkpt lat="46.66971425525844" lon="7.162260236218572"><ele></ele><time>2014-10-30T4:8:38Z</time></trkpt>
<trkpt lat="46.66966522112489" lon="7.162193767726421"><ele></ele><time>2014-10-30T4:8:41Z</time></trkpt>
<trkpt lat="46.66961895301938" lon="7.162109445780516"><ele></ele><time>2014-10-30T4:8:44Z</time></trkpt>
<trkpt lat="46.66954167187214" lon="7.161988662555814"><ele></ele><time>2014-10-30T4:8:47Z</time></trkpt>
<trkpt lat="46.66944335214794" lon="7.1618718188256025"><ele></ele><time>2014-10-30T4:8:50Z</time></trkpt>
<trkpt lat="46.669347463175654" lon="7.161766206845641"><ele></ele><time>2014-10-30T4:8:53Z</time></trkpt>
<trkpt lat="46.669321143999696" lon="7.161747347563505"><ele></ele><time>2014-10-30T4:8:56Z</time></trkpt>
<trkpt lat="46.66929055005312" lon="7.161730835214257"><ele></ele><time>2014-10-30T4:8:59Z</time></trkpt>
<trkpt lat="46.66926431469619" lon="7.161702001467347"><ele></ele><time>2014-10-30T4:9:2Z</time></trkpt>
<trkpt lat="46.66923305019736" lon="7.161665791645646"><ele></ele><time>2014-10-30T4:9:5Z</time></trkpt>
<trkpt lat="46.66920077987015" lon="7.161627821624279"><ele></ele><time>2014-10-30T4:9:8Z</time></trkpt>
<trkpt lat="46.66916582733393" lon="7.161594545468688"><ele></ele><time>2014-10-30T4:9:11Z</time></trkpt>
<trkpt lat="46.669131545349956" lon="7.1615649573504925"><ele></ele><time>2014-10-30T4:9:14Z</time></trkpt>
<trkpt lat="46.66909667663276" lon="7.161541655659676"><ele></ele><time>2014-10-30T4:9:17Z</time></trkpt>
<trkpt lat="46.66906834580004" lon="7.161518856883049"><ele></ele><time>2014-10-30T4:9:20Z</time></trkpt>
<trkpt lat="46.66903993114829" lon="7.161491783335805"><ele></ele><time>2014-10-30T4:9:23Z</time></trkpt>
<trkpt lat="46.66902425698936" lon="7.161473091691732"><ele></ele><time>2014-10-30T4:9:26Z</time></trkpt>
<trkpt lat="46.669008834287524" lon="7.161450460553169"><ele></ele><time>2014-10-30T4:9:29Z</time></trkpt>
<trkpt lat="46.66899332776666" lon="7.161427913233638"><ele></ele><time>2014-10-30T4:9:32Z</time></trkpt>
<trkpt lat="46.66896122507751" lon="7.161385249346495"><ele></ele><time>2014-10-30T4:9:35Z</time></trkpt>
<trkpt lat="46.66893624700606" lon="7.161352224647999"><ele></ele><time>2014-10-30T4:9:38Z</time></trkpt>
<trkpt lat="46.66890598833561" lon="7.161311991512775"><ele></ele><time>2014-10-30T4:9:41Z</time></trkpt>
<trkpt lat="46.66887413710356" lon="7.161279637366533"><ele></ele><time>2014-10-30T4:9:44Z</time></trkpt>
<trkpt lat="46.66883071884513" lon="7.161248037591577"><ele></ele><time>2014-10-30T4:9:47Z</time></trkpt>
<trkpt lat="46.668795850127935" lon="7.161215264350176"><ele></ele><time>2014-10-30T4:9:50Z</time></trkpt>
<trkpt lat="46.668776320293546" lon="7.161190873011947"><ele></ele><time>2014-10-30T4:9:53Z</time></trkpt>
<trkpt lat="46.668755784630775" lon="7.16115390881896"><ele></ele><time>2014-10-30T4:9:56Z</time></trkpt>
<trkpt lat="46.668736170977354" lon="7.161126332357526"><ele></ele><time>2014-10-30T4:9:59Z</time></trkpt>
<trkpt lat="46.66871169582009" lon="7.1610872726887465"><ele></ele><time>2014-10-30T4:10:2Z</time></trkpt>
<trkpt lat="46.6686821077019" lon="7.161066234111786"><ele></ele><time>2014-10-30T4:10:5Z</time></trkpt>
<trkpt lat="46.66866417042911" lon="7.161045949906111"><ele></ele><time>2014-10-30T4:10:8Z</time></trkpt>
<trkpt lat="46.66864765807986" lon="7.16102440841496"><ele></ele><time>2014-10-30T4:10:11Z</time></trkpt>
<trkpt lat="46.668627290055156" lon="7.1610012743622065"><ele></ele><time>2014-10-30T4:10:14Z</time></trkpt>
<trkpt lat="46.668602814897895" lon="7.1609732788056135"><ele></ele><time>2014-10-30T4:10:17Z</time></trkpt>
<trkpt lat="46.6685922536999" lon="7.1609582751989365"><ele></ele><time>2014-10-30T4:10:20Z</time></trkpt>
<trkpt lat="46.66857766918838" lon="7.160939751192927"><ele></ele><time>2014-10-30T4:10:23Z</time></trkpt>
<trkpt lat="46.66856191121042" lon="7.1609199699014425"><ele></ele><time>2014-10-30T4:10:26Z</time></trkpt>
<trkpt lat="46.66853659786284" lon="7.160907564684749"><ele></ele><time>2014-10-30T4:10:29Z</time></trkpt>
<trkpt lat="46.66850826703012" lon="7.160893986001611"><ele></ele><time>2014-10-30T4:10:32Z</time></trkpt>
<trkpt lat="46.6684817802161" lon="7.160888286307454"><ele></ele><time>2014-10-30T4:10:35Z</time></trkpt>
<trkpt lat="46.66844959370792" lon="7.160869594663382"><ele></ele><time>2014-10-30T4:10:38Z</time></trkpt>
<trkpt lat="46.66842168197036" lon="7.1608510706573725"><ele></ele><time>2014-10-30T4:10:41Z</time></trkpt>
<trkpt lat="46.668401984497905" lon="7.160836067050695"><ele></ele><time>2014-10-30T4:10:44Z</time></trkpt>
<trkpt lat="46.668381448835135" lon="7.160815699025989"><ele></ele><time>2014-10-30T4:10:47Z</time></trkpt>
<trkpt lat="46.668360494077206" lon="7.160801365971565"><ele></ele><time>2014-10-30T4:10:50Z</time></trkpt>
<trkpt lat="46.66831120848656" lon="7.160767167806625"><ele></ele><time>2014-10-30T4:10:53Z</time></trkpt>
<trkpt lat="46.6682951990515" lon="7.160766329616308"><ele></ele><time>2014-10-30T4:10:56Z</time></trkpt>
<trkpt lat="46.668277932330966" lon="7.16075761243701"><ele></ele><time>2014-10-30T4:10:59Z</time></trkpt>
<trkpt lat="46.66825823485851" lon="7.1607518289238214"><ele></ele><time>2014-10-30T4:11:2Z</time></trkpt>
<trkpt lat="46.66824230924249" lon="7.160753253847361"><ele></ele><time>2014-10-30T4:11:5Z</time></trkpt>
<trkpt lat="46.66821548715234" lon="7.1607576962560415"><ele></ele><time>2014-10-30T4:11:8Z</time></trkpt>
<trkpt lat="46.668187910690904" lon="7.1607546787709"><ele></ele><time>2014-10-30T4:11:11Z</time></trkpt>
<trkpt lat="46.668163100257516" lon="7.160739675164223"><ele></ele><time>2014-10-30T4:11:14Z</time></trkpt>
<trkpt lat="46.66813116520643" lon="7.1606991067528725"><ele></ele><time>2014-10-30T4:11:17Z</time></trkpt>
<trkpt lat="46.668114233762026" lon="7.160665327683091"><ele></ele><time>2014-10-30T4:11:20Z</time></trkpt>
<trkpt lat="46.668100487440825" lon="7.160649066790938"><ele></ele><time>2014-10-30T4:11:23Z</time></trkpt>
<trkpt lat="46.66809797286987" lon="7.16065208427608"><ele></ele><time>2014-10-30T4:11:26Z</time></trkpt>
<trkpt lat="46.668092692270875" lon="7.160645127296448"><ele></ele><time>2014-10-30T4:11:29Z</time></trkpt>
<trkpt lat="46.66808648966253" lon="7.160635069012642"><ele></ele><time>2014-10-30T4:11:32Z</time></trkpt>
<trkpt lat="46.668076012283564" lon="7.16061981394887"><ele></ele><time>2014-10-30T4:11:35Z</time></trkpt>
<trkpt lat="46.66803485713899" lon="7.16056851670146"><ele></ele><time>2014-10-30T4:11:38Z</time></trkpt>
<trkpt lat="46.66796981357038" lon="7.160552255809307"><ele></ele><time>2014-10-30T4:11:41Z</time></trkpt>
<trkpt lat="46.66794491931796" lon="7.160539934411645"><ele></ele><time>2014-10-30T4:11:44Z</time></trkpt>
<trkpt lat="46.667918767780066" lon="7.160519817844033"><ele></ele><time>2014-10-30T4:11:47Z</time></trkpt>
<trkpt lat="46.66788482107222" lon="7.160498779267073"><ele></ele><time>2014-10-30T4:11:50Z</time></trkpt>
<trkpt lat="46.66779982857406" lon="7.16044245287776"><ele></ele><time>2014-10-30T4:11:53Z</time></trkpt>
<trkpt lat="46.667787255719304" lon="7.160425940528512"><ele></ele><time>2014-10-30T4:11:56Z</time></trkpt>
<trkpt lat="46.66773235425353" lon="7.160396184772253"><ele></ele><time>2014-10-30T4:11:59Z</time></trkpt>
<trkpt lat="46.66772003285587" lon="7.160390065982938"><ele></ele><time>2014-10-30T4:12:2Z</time></trkpt>
<trkpt lat="46.6677082143724" lon="7.160388557240367"><ele></ele><time>2014-10-30T4:12:5Z</time></trkpt>
<trkpt lat="46.66769966483116" lon="7.160387970507145"><ele></ele><time>2014-10-30T4:12:8Z</time></trkpt>
<trkpt lat="46.667686589062214" lon="7.160390820354223"><ele></ele><time>2014-10-30T4:12:11Z</time></trkpt>
<trkpt lat="46.66766940616071" lon="7.160393502563238"><ele></ele><time>2014-10-30T4:12:14Z</time></trkpt>
<trkpt lat="46.667591370642185" lon="7.160379337146878"><ele></ele><time>2014-10-30T4:12:17Z</time></trkpt>
<trkpt lat="46.66758039034903" lon="7.160379588603973"><ele></ele><time>2014-10-30T4:12:20Z</time></trkpt>
<trkpt lat="46.66750805452466" lon="7.160359974950552"><ele></ele><time>2014-10-30T4:12:23Z</time></trkpt>
<trkpt lat="46.66749321855605" lon="7.160362908616662"><ele></ele><time>2014-10-30T4:12:26Z</time></trkpt>
<trkpt lat="46.66747863404453" lon="7.16036232188344"><ele></ele><time>2014-10-30T4:12:29Z</time></trkpt>
<trkpt lat="46.667461451143026" lon="7.160362908616662"><ele></ele><time>2014-10-30T4:12:32Z</time></trkpt>
<trkpt lat="46.66741920635104" lon="7.16036181896925"><ele></ele><time>2014-10-30T4:12:35Z</time></trkpt>
<trkpt lat="46.66737595573068" lon="7.160346899181604"><ele></ele><time>2014-10-30T4:12:38Z</time></trkpt>
<trkpt lat="46.66733027435839" lon="7.160356538370252"><ele></ele><time>2014-10-30T4:12:41Z</time></trkpt>
<trkpt lat="46.66731803677976" lon="7.16036181896925"><ele></ele><time>2014-10-30T4:12:44Z</time></trkpt>
<trkpt lat="46.66730429045856" lon="7.160368608310819"><ele></ele><time>2014-10-30T4:12:47Z</time></trkpt>
<trkpt lat="46.66728953830898" lon="7.160371877253056"><ele></ele><time>2014-10-30T4:12:50Z</time></trkpt>
<trkpt lat="46.667269421741366" lon="7.1603860426694155"><ele></ele><time>2014-10-30T4:12:53Z</time></trkpt>
<trkpt lat="46.66726020164788" lon="7.160372715443373"><ele></ele><time>2014-10-30T4:12:56Z</time></trkpt>
<trkpt lat="46.667251735925674" lon="7.160362657159567"><ele></ele><time>2014-10-30T4:12:59Z</time></trkpt>
<trkpt lat="46.6672158613801" lon="7.160347402095795"><ele></ele><time>2014-10-30T4:13:2Z</time></trkpt>
<trkpt lat="46.66719197295606" lon="7.16033399105072"><ele></ele><time>2014-10-30T4:13:5Z</time></trkpt>
<trkpt lat="46.66718074120581" lon="7.1603281237185"><ele></ele><time>2014-10-30T4:13:8Z</time></trkpt>
<trkpt lat="46.667155511677265" lon="7.160326782613993"><ele></ele><time>2014-10-30T4:13:11Z</time></trkpt>
<trkpt lat="46.66713464073837" lon="7.160324268043041"><ele></ele><time>2014-10-30T4:13:14Z</time></trkpt>
<trkpt lat="46.66711821220815" lon="7.160321418195963"><ele></ele><time>2014-10-30T4:13:17Z</time></trkpt>
<trkpt lat="46.66710253804922" lon="7.160322004929185"><ele></ele><time>2014-10-30T4:13:20Z</time></trkpt>
<trkpt lat="46.667009834200144" lon="7.16031345538795"><ele></ele><time>2014-10-30T4:13:23Z</time></trkpt>
<trkpt lat="46.666975636035204" lon="7.160306498408318"><ele></ele><time>2014-10-30T4:13:26Z</time></trkpt>
<trkpt lat="46.6669550165534" lon="7.160322340205312"><ele></ele><time>2014-10-30T4:13:29Z</time></trkpt>
<trkpt lat="46.66692894883454" lon="7.160327536985278"><ele></ele><time>2014-10-30T4:13:32Z</time></trkpt>
<trkpt lat="46.66690891608596" lon="7.1603344939649105"><ele></ele><time>2014-10-30T4:13:35Z</time></trkpt>
<trkpt lat="46.66689240373671" lon="7.160328878089786"><ele></ele><time>2014-10-30T4:13:38Z</time></trkpt>
<trkpt lat="46.66687530465424" lon="7.16032862663269"><ele></ele><time>2014-10-30T4:13:41Z</time></trkpt>
<trkpt lat="46.66685778647661" lon="7.160324351862073"><ele></ele><time>2014-10-30T4:13:44Z</time></trkpt>
<trkpt lat="46.66680062189698" lon="7.160299876704812"><ele></ele><time>2014-10-30T4:13:47Z</time></trkpt>
<trkpt lat="46.666737254709005" lon="7.160225361585617"><ele></ele><time>2014-10-30T4:13:50Z</time></trkpt>
<trkpt lat="46.66667782701552" lon="7.160159898921847"><ele></ele><time>2014-10-30T4:13:53Z</time></trkpt>
<trkpt lat="46.666608676314354" lon="7.160076247528195"><ele></ele><time>2014-10-30T4:13:56Z</time></trkpt>
<trkpt lat="46.66659249924123" lon="7.16006375849247"><ele></ele><time>2014-10-30T4:13:59Z</time></trkpt>
<trkpt lat="46.66658160276711" lon="7.160054035484791"><ele></ele><time>2014-10-30T4:14:2Z</time></trkpt>
<trkpt lat="46.66656785644591" lon="7.1600420493632555"><ele></ele><time>2014-10-30T4:14:5Z</time></trkpt>
<trkpt lat="46.66655226610601" lon="7.160031236708164"><ele></ele><time>2014-10-30T4:14:8Z</time></trkpt>
<trkpt lat="46.666525611653924" lon="7.160013802349567"><ele></ele><time>2014-10-30T4:14:11Z</time></trkpt>
<trkpt lat="46.666502729058266" lon="7.159996870905161"><ele></ele><time>2014-10-30T4:14:14Z</time></trkpt>
<trkpt lat="46.666472386568785" lon="7.15993819758296"><ele></ele><time>2014-10-30T4:14:17Z</time></trkpt>
<trkpt lat="46.66644472628832" lon="7.159855300560594"><ele></ele><time>2014-10-30T4:14:20Z</time></trkpt>
<trkpt lat="46.66642243042588" lon="7.159814732149243"><ele></ele><time>2014-10-30T4:14:23Z</time></trkpt>
<trkpt lat="46.666413797065616" lon="7.1597926039248705"><ele></ele><time>2014-10-30T4:14:26Z</time></trkpt>
<trkpt lat="46.66641547344625" lon="7.159775923937559"><ele></ele><time>2014-10-30T4:14:29Z</time></trkpt>
<trkpt lat="46.66641262359917" lon="7.15975153259933"><ele></ele><time>2014-10-30T4:14:32Z</time></trkpt>
<trkpt lat="46.66641195304692" lon="7.159729823470116"><ele></ele><time>2014-10-30T4:14:35Z</time></trkpt>
<trkpt lat="46.66641446761787" lon="7.1597133949398994"><ele></ele><time>2014-10-30T4:14:38Z</time></trkpt>
<trkpt lat="46.66641044430435" lon="7.159664276987314"><ele></ele><time>2014-10-30T4:14:41Z</time></trkpt>
<trkpt lat="46.666406001895666" lon="7.159645417705178"><ele></ele><time>2014-10-30T4:14:44Z</time></trkpt>
<trkpt lat="46.6663904953748" lon="7.159566543996334"><ele></ele><time>2014-10-30T4:14:47Z</time></trkpt>
<trkpt lat="46.66638798080385" lon="7.159543661400676"><ele></ele><time>2014-10-30T4:14:50Z</time></trkpt>
<trkpt lat="46.6663783416152" lon="7.159468224272132"><ele></ele><time>2014-10-30T4:14:53Z</time></trkpt>
<trkpt lat="46.666381526738405" lon="7.159448694437742"><ele></ele><time>2014-10-30T4:14:56Z</time></trkpt>
<trkpt lat="46.66638454422355" lon="7.159430757164955"><ele></ele><time>2014-10-30T4:14:59Z</time></trkpt>
<trkpt lat="46.66638655588031" lon="7.1594153344631195"><ele></ele><time>2014-10-30T4:15:2Z</time></trkpt>
<trkpt lat="46.66637037880719" lon="7.159307207912207"><ele></ele><time>2014-10-30T4:15:5Z</time></trkpt>
<trkpt lat="46.66636752896011" lon="7.1592003386467695"><ele></ele><time>2014-10-30T4:15:8Z</time></trkpt>
<trkpt lat="46.66637917980552" lon="7.159098917618394"><ele></ele><time>2014-10-30T4:15:11Z</time></trkpt>
<trkpt lat="46.66639636270702" lon="7.159045524895191"><ele></ele><time>2014-10-30T4:15:14Z</time></trkpt>
<trkpt lat="46.66640281677246" lon="7.159031108021736"><ele></ele><time>2014-10-30T4:15:17Z</time></trkpt>
<trkpt lat="46.66640776209533" lon="7.159015350043774"><ele></ele><time>2014-10-30T4:15:20Z</time></trkpt>
<trkpt lat="46.666414216160774" lon="7.159003196284175"><ele></ele><time>2014-10-30T4:15:23Z</time></trkpt>
<trkpt lat="46.666417652741075" lon="7.158990623429418"><ele></ele><time>2014-10-30T4:15:26Z</time></trkpt>
<trkpt lat="46.66642586700618" lon="7.158924238756299"><ele></ele><time>2014-10-30T4:15:29Z</time></trkpt>
<trkpt lat="46.666451347991824" lon="7.158823907375336"><ele></ele><time>2014-10-30T4:15:32Z</time></trkpt>
<trkpt lat="46.66645268909633" lon="7.15877034701407"><ele></ele><time>2014-10-30T4:15:35Z</time></trkpt>
<trkpt lat="46.66642268188298" lon="7.1586876176297665"><ele></ele><time>2014-10-30T4:15:38Z</time></trkpt>
<trkpt lat="46.66636233218014" lon="7.158601954579353"><ele></ele><time>2014-10-30T4:15:41Z</time></trkpt>
<trkpt lat="46.66633794084191" lon="7.158579574897885"><ele></ele><time>2014-10-30T4:15:44Z</time></trkpt>
<trkpt lat="46.66625462472439" lon="7.158478824421763"><ele></ele><time>2014-10-30T4:15:47Z</time></trkpt>
<trkpt lat="46.66624942794442" lon="7.158435489982367"><ele></ele><time>2014-10-30T4:15:50Z</time></trkpt>
<trkpt lat="46.666242722421885" lon="7.1583998668938875"><ele></ele><time>2014-10-30T4:15:53Z</time></trkpt>
<trkpt lat="46.666223695501685" lon="7.158345552161336"><ele></ele><time>2014-10-30T4:15:56Z</time></trkpt>
<trkpt lat="46.66621212847531" lon="7.15829785913229"><ele></ele><time>2014-10-30T4:15:59Z</time></trkpt>
<trkpt lat="46.66619762778282" lon="7.158150337636471"><ele></ele><time>2014-10-30T4:16:2Z</time></trkpt>
<trkpt lat="46.66619611904025" lon="7.158098453655839"><ele></ele><time>2014-10-30T4:16:5Z</time></trkpt>
<trkpt lat="46.666196789592505" lon="7.158072553575039"><ele></ele><time>2014-10-30T4:16:8Z</time></trkpt>
<trkpt lat="46.666195364668965" lon="7.15803156606853"><ele></ele><time>2014-10-30T4:16:11Z</time></trkpt>
<trkpt lat="46.666192347183824" lon="7.157997619360685"><ele></ele><time>2014-10-30T4:16:14Z</time></trkpt>
<trkpt lat="46.666193353012204" lon="7.157949926331639"><ele></ele><time>2014-10-30T4:16:17Z</time></trkpt>
<trkpt lat="46.666211457923055" lon="7.157901395112276"><ele></ele><time>2014-10-30T4:16:20Z</time></trkpt>
<trkpt lat="46.66621481068432" lon="7.157877506688237"><ele></ele><time>2014-10-30T4:16:23Z</time></trkpt>
<trkpt lat="46.66622696444392" lon="7.157839201390743"><ele></ele><time>2014-10-30T4:16:26Z</time></trkpt>
<trkpt lat="46.66623551398516" lon="7.1577920112758875"><ele></ele><time>2014-10-30T4:16:29Z</time></trkpt>
<trkpt lat="46.666251020506024" lon="7.157748593017459"><ele></ele><time>2014-10-30T4:16:32Z</time></trkpt>
<trkpt lat="46.666253032162786" lon="7.1576326712965965"><ele></ele><time>2014-10-30T4:16:35Z</time></trkpt>
<trkpt lat="46.66623626835644" lon="7.157485401257873"><ele></ele><time>2014-10-30T4:16:38Z</time></trkpt>
<trkpt lat="46.6662142239511" lon="7.157426979392767"><ele></ele><time>2014-10-30T4:16:41Z</time></trkpt>
<trkpt lat="46.66619461029768" lon="7.157368557527661"><ele></ele><time>2014-10-30T4:16:44Z</time></trkpt>
<trkpt lat="46.666173404082656" lon="7.157315332442522"><ele></ele><time>2014-10-30T4:16:47Z</time></trkpt>
<trkpt lat="46.66614473797381" lon="7.1572629455477"><ele></ele><time>2014-10-30T4:16:50Z</time></trkpt>
<trkpt lat="46.66608363389969" lon="7.1571911964565516"><ele></ele><time>2014-10-30T4:16:53Z</time></trkpt>
<trkpt lat="46.6660588234663" lon="7.15716571547091"><ele></ele><time>2014-10-30T4:16:56Z</time></trkpt>
<trkpt lat="46.666033091023564" lon="7.157140653580427"><ele></ele><time>2014-10-30T4:16:59Z</time></trkpt>
<trkpt lat="46.66600467637181" lon="7.15710804797709"><ele></ele><time>2014-10-30T4:17:2Z</time></trkpt>
<trkpt lat="46.6659742500633" lon="7.15706798247993"><ele></ele><time>2014-10-30T4:17:5Z</time></trkpt>
<trkpt lat="46.66594969108701" lon="7.157034371048212"><ele></ele><time>2014-10-30T4:17:8Z</time></trkpt>
<trkpt lat="46.665901662781835" lon="7.157007548958063"><ele></ele><time>2014-10-30T4:17:11Z</time></trkpt>
<trkpt lat="46.66587199084461" lon="7.157002938911319"><ele></ele><time>2014-10-30T4:17:14Z</time></trkpt>
<trkpt lat="46.66574198752642" lon="7.156889867037535"><ele></ele><time>2014-10-30T4:17:17Z</time></trkpt>
<trkpt lat="46.66570317931473" lon="7.15681635774672"><ele></ele><time>2014-10-30T4:17:20Z</time></trkpt>
<trkpt lat="46.6656843200326" lon="7.156777968630195"><ele></ele><time>2014-10-30T4:17:23Z</time></trkpt>
<trkpt lat="46.66566646657884" lon="7.156749973073602"><ele></ele><time>2014-10-30T4:17:26Z</time></trkpt>
<trkpt lat="46.66565456427634" lon="7.156716277822852"><ele></ele><time>2014-10-30T4:17:29Z</time></trkpt>
<trkpt lat="46.66564500890672" lon="7.156667411327362"><ele></ele><time>2014-10-30T4:17:32Z</time></trkpt>
<trkpt lat="46.6656253952533" lon="7.156568421050906"><ele></ele><time>2014-10-30T4:17:35Z</time></trkpt>
<trkpt lat="46.66554283350706" lon="7.156327441334724"><ele></ele><time>2014-10-30T4:17:38Z</time></trkpt>
<trkpt lat="46.66551919654012" lon="7.156274802982807"><ele></ele><time>2014-10-30T4:17:41Z</time></trkpt>
<trkpt lat="46.66546521708369" lon="7.156163239851594"><ele></ele><time>2014-10-30T4:17:44Z</time></trkpt>
<trkpt lat="46.66542598977685" lon="7.156102638691664"><ele></ele><time>2014-10-30T4:17:47Z</time></trkpt>
<trkpt lat="46.665385253727436" lon="7.156031643971801"><ele></ele><time>2014-10-30T4:17:50Z</time></trkpt>
<trkpt lat="46.665346529334784" lon="7.155974730849266"><ele></ele><time>2014-10-30T4:17:53Z</time></trkpt>
<trkpt lat="46.66530294343829" lon="7.155917985364795"><ele></ele><time>2014-10-30T4:17:56Z</time></trkpt>
<trkpt lat="46.66527486406267" lon="7.155876997858286"><ele></ele><time>2014-10-30T4:17:59Z</time></trkpt>
<trkpt lat="46.66524921543896" lon="7.15584053657949"><ele></ele><time>2014-10-30T4:18:2Z</time></trkpt>
<trkpt lat="46.66523194871843" lon="7.155795190483332"><ele></ele><time>2014-10-30T4:18:5Z</time></trkpt>
<trkpt lat="46.6652162745595" lon="7.155731739476323"><ele></ele><time>2014-10-30T4:18:8Z</time></trkpt>
<trkpt lat="46.66521199978888" lon="7.155669294297695"><ele></ele><time>2014-10-30T4:18:11Z</time></trkpt>
<trkpt lat="46.6652144305408" lon="7.155532753095031"><ele></ele><time>2014-10-30T4:18:14Z</time></trkpt>
<trkpt lat="46.665206383913755" lon="7.155463434755802"><ele></ele><time>2014-10-30T4:18:17Z</time></trkpt>
<trkpt lat="46.66520135477185" lon="7.155401660129428"><ele></ele><time>2014-10-30T4:18:20Z</time></trkpt>
<trkpt lat="46.66518299840391" lon="7.155338963493705"><ele></ele><time>2014-10-30T4:18:23Z</time></trkpt>
<trkpt lat="46.66517771780491" lon="7.155292863026261"><ele></ele><time>2014-10-30T4:18:26Z</time></trkpt>
<trkpt lat="46.66517713107169" lon="7.1552598383277655"><ele></ele><time>2014-10-30T4:18:29Z</time></trkpt>
<trkpt lat="46.66515835560858" lon="7.155221113935113"><ele></ele><time>2014-10-30T4:18:32Z</time></trkpt>
<trkpt lat="46.66515123099089" lon="7.155217677354813"><ele></ele><time>2014-10-30T4:18:35Z</time></trkpt>
<trkpt lat="46.66513865813613" lon="7.155178869143128"><ele></ele><time>2014-10-30T4:18:38Z</time></trkpt>
<trkpt lat="46.66512851603329" lon="7.155157243832946"><ele></ele><time>2014-10-30T4:18:41Z</time></trkpt>
<trkpt lat="46.66512206196785" lon="7.155149197205901"><ele></ele><time>2014-10-30T4:18:44Z</time></trkpt>
<trkpt lat="46.66511636227369" lon="7.15514425188303"><ele></ele><time>2014-10-30T4:18:47Z</time></trkpt>
<trkpt lat="46.66511418297887" lon="7.155143329873681"><ele></ele><time>2014-10-30T4:18:50Z</time></trkpt>
<trkpt lat="46.66511418297887" lon="7.155143329873681"><ele></ele><time>2014-10-30T4:18:53Z</time></trkpt>
<trkpt lat="46.66510345414281" lon="7.155142407864332"><ele></ele><time>2014-10-30T4:18:56Z</time></trkpt>
<trkpt lat="46.66509088128805" lon="7.1551354508847"><ele></ele><time>2014-10-30T4:18:59Z</time></trkpt>
<trkpt lat="46.665015360340476" lon="7.155104605481029"><ele></ele><time>2014-10-30T4:19:2Z</time></trkpt>
<trkpt lat="46.66497931815684" lon="7.15509882196784"><ele></ele><time>2014-10-30T4:19:5Z</time></trkpt>
<trkpt lat="46.66495149023831" lon="7.155077112838626"><ele></ele><time>2014-10-30T4:19:8Z</time></trkpt>
<trkpt lat="46.664920477196574" lon="7.155047608539462"><ele></ele><time>2014-10-30T4:19:11Z</time></trkpt>
<trkpt lat="46.664889212697744" lon="7.155020199716091"><ele></ele><time>2014-10-30T4:19:14Z</time></trkpt>
<trkpt lat="46.66486104950309" lon="7.15498105622828"><ele></ele><time>2014-10-30T4:19:17Z</time></trkpt>
<trkpt lat="46.66483883745968" lon="7.154960688203573"><ele></ele><time>2014-10-30T4:19:20Z</time></trkpt>
<trkpt lat="46.66480388492346" lon="7.154941912740469"><ele></ele><time>2014-10-30T4:19:23Z</time></trkpt>
<trkpt lat="46.66477077640593" lon="7.154930932447314"><ele></ele><time>2014-10-30T4:19:26Z</time></trkpt>
<trkpt lat="46.66473205201328" lon="7.154920874163508"><ele></ele><time>2014-10-30T4:19:29Z</time></trkpt>
<trkpt lat="46.66469240561128" lon="7.154893213883042"><ele></ele><time>2014-10-30T4:19:32Z</time></trkpt>
<trkpt lat="46.664645466953516" lon="7.154865637421608"><ele></ele><time>2014-10-30T4:19:35Z</time></trkpt>
<trkpt lat="46.66459567844868" lon="7.154822135344148"><ele></ele><time>2014-10-30T4:19:38Z</time></trkpt>
<trkpt lat="46.66455024853349" lon="7.154764216393232"><ele></ele><time>2014-10-30T4:19:41Z</time></trkpt>
<trkpt lat="46.66451864875853" lon="7.154703866690397"><ele></ele><time>2014-10-30T4:19:44Z</time></trkpt>
<trkpt lat="46.664498867467046" lon="7.1546346321702"><ele></ele><time>2014-10-30T4:19:47Z</time></trkpt>
<trkpt lat="46.664499873295426" lon="7.1545936446636915"><ele></ele><time>2014-10-30T4:19:50Z</time></trkpt>
<trkpt lat="46.66448964737356" lon="7.154548382386565"><ele></ele><time>2014-10-30T4:19:53Z</time></trkpt>
<trkpt lat="46.66447808034718" lon="7.1544864401221275"><ele></ele><time>2014-10-30T4:19:56Z</time></trkpt>
<trkpt lat="46.66446869261563" lon="7.154414020478725"><ele></ele><time>2014-10-30T4:19:59Z</time></trkpt>
<trkpt lat="46.66446575894952" lon="7.15434386394918"><ele></ele><time>2014-10-30T4:20:2Z</time></trkpt>
<trkpt lat="46.66446089744568" lon="7.154272366315126"><ele></ele><time>2014-10-30T4:20:5Z</time></trkpt>
<trkpt lat="46.66445134207606" lon="7.1542012039572"><ele></ele><time>2014-10-30T4:20:8Z</time></trkpt>
<trkpt lat="46.664451425895095" lon="7.154108081012964"><ele></ele><time>2014-10-30T4:20:11Z</time></trkpt>
<trkpt lat="46.66444681584835" lon="7.153972713276744"><ele></ele><time>2014-10-30T4:20:14Z</time></trkpt>
<trkpt lat="46.66444379836321" lon="7.153939688578248"><ele></ele><time>2014-10-30T4:20:17Z</time></trkpt>
<trkpt lat="46.6644371766597" lon="7.153865676373243"><ele></ele><time>2014-10-30T4:20:20Z</time></trkpt>
<trkpt lat="46.66443994268775" lon="7.153836004436016"><ele></ele><time>2014-10-30T4:20:23Z</time></trkpt>
<trkpt lat="46.66443005204201" lon="7.153782108798623"><ele></ele><time>2014-10-30T4:20:26Z</time></trkpt>
<trkpt lat="46.66441890411079" lon="7.153752101585269"><ele></ele><time>2014-10-30T4:20:29Z</time></trkpt>
<trkpt lat="46.664421586319804" lon="7.1537453122437"><ele></ele><time>2014-10-30T4:20:32Z</time></trkpt>
<trkpt lat="46.66442636400461" lon="7.15373701415956"><ele></ele><time>2014-10-30T4:20:35Z</time></trkpt>
<trkpt lat="46.66442636400461" lon="7.15373701415956"><ele></ele><time>2014-10-30T4:20:38Z</time></trkpt>
<trkpt lat="46.66442636400461" lon="7.15373701415956"><ele></ele><time>2014-10-30T4:20:41Z</time></trkpt>
<trkpt lat="46.66442192159593" lon="7.153732907027006"><ele></ele><time>2014-10-30T4:20:44Z</time></trkpt>
<trkpt lat="46.66439350694418" lon="7.153697703033686"><ele></ele><time>2014-10-30T4:20:47Z</time></trkpt>
<trkpt lat="46.66438847780228" lon="7.153677083551884"><ele></ele><time>2014-10-30T4:20:50Z</time></trkpt>
<trkpt lat="46.66438680142164" lon="7.153669539839029"><ele></ele><time>2014-10-30T4:20:53Z</time></trkpt>
<trkpt lat="46.66436433792114" lon="7.153598628938198"><ele></ele><time>2014-10-30T4:20:56Z</time></trkpt>
<trkpt lat="46.664272053167224" lon="7.153562754392624"><ele></ele><time>2014-10-30T4:20:59Z</time></trkpt>
<trkpt lat="46.66417448781431" lon="7.153583960607648"><ele></ele><time>2014-10-30T4:21:2Z</time></trkpt>
<trkpt lat="46.664121095091105" lon="7.153581278398633"><ele></ele><time>2014-10-30T4:21:5Z</time></trkpt>
<trkpt lat="46.66407507844269" lon="7.1535540372133255"><ele></ele><time>2014-10-30T4:21:8Z</time></trkpt>
<trkpt lat="46.66402327828109" lon="7.153516989201307"><ele></ele><time>2014-10-30T4:21:11Z</time></trkpt>
<trkpt lat="46.663978099823" lon="7.153460830450058"><ele></ele><time>2014-10-30T4:21:14Z</time></trkpt>
<trkpt lat="46.663923701271415" lon="7.153405090793967"><ele></ele><time>2014-10-30T4:21:17Z</time></trkpt>
<trkpt lat="46.663873409852386" lon="7.153346333652735"><ele></ele><time>2014-10-30T4:21:20Z</time></trkpt>
<trkpt lat="46.663823537528515" lon="7.153284726664424"><ele></ele><time>2014-10-30T4:21:23Z</time></trkpt>
<trkpt lat="46.66376763023436" lon="7.153224712237716"><ele></ele><time>2014-10-30T4:21:26Z</time></trkpt>
<trkpt lat="46.663720440119505" lon="7.1531841438263655"><ele></ele><time>2014-10-30T4:21:29Z</time></trkpt>
<trkpt lat="46.66367777623236" lon="7.153148856014013"><ele></ele><time>2014-10-30T4:21:32Z</time></trkpt>
<trkpt lat="46.66364056058228" lon="7.153115579858422"><ele></ele><time>2014-10-30T4:21:35Z</time></trkpt>
<trkpt lat="46.66360275819898" lon="7.153084818273783"><ele></ele><time>2014-10-30T4:21:38Z</time></trkpt>
<trkpt lat="46.66351650841534" lon="7.153004268184304"><ele></ele><time>2014-10-30T4:21:41Z</time></trkpt>
<trkpt lat="46.66332087479532" lon="7.152825985103846"><ele></ele><time>2014-10-30T4:21:44Z</time></trkpt>
<trkpt lat="46.66328785009682" lon="7.152797402814031"><ele></ele><time>2014-10-30T4:21:47Z</time></trkpt>
<trkpt lat="46.663145357742906" lon="7.152657508850098"><ele></ele><time>2014-10-30T4:21:50Z</time></trkpt>
<trkpt lat="46.6630938090384" lon="7.152594644576311"><ele></ele><time>2014-10-30T4:21:53Z</time></trkpt>
<trkpt lat="46.663086181506515" lon="7.1525803953409195"><ele></ele><time>2014-10-30T4:21:56Z</time></trkpt>
<trkpt lat="46.663057850673795" lon="7.15256136842072"><ele></ele><time>2014-10-30T4:21:59Z</time></trkpt>
<trkpt lat="46.663031950592995" lon="7.152531277388334"><ele></ele><time>2014-10-30T4:22:2Z</time></trkpt>
<trkpt lat="46.662973277270794" lon="7.152460785582662"><ele></ele><time>2014-10-30T4:22:5Z</time></trkpt>
<trkpt lat="46.66295005939901" lon="7.152428263798356"><ele></ele><time>2014-10-30T4:22:8Z</time></trkpt>
<trkpt lat="46.66285442188382" lon="7.152280490845442"><ele></ele><time>2014-10-30T4:22:11Z</time></trkpt>
<trkpt lat="46.6627848520875" lon="7.152112098410726"><ele></ele><time>2014-10-30T4:22:14Z</time></trkpt>
<trkpt lat="46.662770099937916" lon="7.152042696252465"><ele></ele><time>2014-10-30T4:22:17Z</time></trkpt>
<trkpt lat="46.662765657529235" lon="7.152016963809729"><ele></ele><time>2014-10-30T4:22:20Z</time></trkpt>
<trkpt lat="46.66275476105511" lon="7.1519898902624846"><ele></ele><time>2014-10-30T4:22:23Z</time></trkpt>
<trkpt lat="46.662737326696515" lon="7.151956195011735"><ele></ele><time>2014-10-30T4:22:26Z</time></trkpt>
<trkpt lat="46.662727100774646" lon="7.151925014331937"><ele></ele><time>2014-10-30T4:22:29Z</time></trkpt>
<trkpt lat="46.6627140250057" lon="7.151822838932276"><ele></ele><time>2014-10-30T4:22:32Z</time></trkpt>
<trkpt lat="46.66268385015428" lon="7.151712533086538"><ele></ele><time>2014-10-30T4:22:35Z</time></trkpt>
<trkpt lat="46.66267027147114" lon="7.151688393205404"><ele></ele><time>2014-10-30T4:22:38Z</time></trkpt>
<trkpt lat="46.6626535076648" lon="7.151660984382033"><ele></ele><time>2014-10-30T4:22:41Z</time></trkpt>
<trkpt lat="46.66264001280069" lon="7.151632905006409"><ele></ele><time>2014-10-30T4:22:44Z</time></trkpt>
<trkpt lat="46.66263204999268" lon="7.151597198098898"><ele></ele><time>2014-10-30T4:22:47Z</time></trkpt>
<trkpt lat="46.66261998005211" lon="7.1515625808387995"><ele></ele><time>2014-10-30T4:22:50Z</time></trkpt>
<trkpt lat="46.662598103284836" lon="7.151520922780037"><ele></ele><time>2014-10-30T4:22:53Z</time></trkpt>
<trkpt lat="46.662578573450446" lon="7.1514650993049145"><ele></ele><time>2014-10-30T4:22:56Z</time></trkpt>
<trkpt lat="46.662565330043435" lon="7.151435427367687"><ele></ele><time>2014-10-30T4:22:59Z</time></trkpt>
<trkpt lat="46.6624999511987" lon="7.151329983025789"><ele></ele><time>2014-10-30T4:23:2Z</time></trkpt>
<trkpt lat="46.66248243302107" lon="7.15129972435534"><ele></ele><time>2014-10-30T4:23:5Z</time></trkpt>
<trkpt lat="46.66247170418501" lon="7.151280026882887"><ele></ele><time>2014-10-30T4:23:8Z</time></trkpt>
<trkpt lat="46.66244991123676" lon="7.151234010234475"><ele></ele><time>2014-10-30T4:23:11Z</time></trkpt>
<trkpt lat="46.66242250241339" lon="7.151170140132308"><ele></ele><time>2014-10-30T4:23:14Z</time></trkpt>
<trkpt lat="46.662371875718236" lon="7.151083471253514"><ele></ele><time>2014-10-30T4:23:17Z</time></trkpt>
<trkpt lat="46.66235385462642" lon="7.151051871478558"><ele></ele><time>2014-10-30T4:23:20Z</time></trkpt>
<trkpt lat="46.66232854127884" lon="7.151031335815787"><ele></ele><time>2014-10-30T4:23:23Z</time></trkpt>
<trkpt lat="46.662314627319574" lon="7.151003759354353"><ele></ele><time>2014-10-30T4:23:26Z</time></trkpt>
<trkpt lat="46.6623012162745" lon="7.150976350530982"><ele></ele><time>2014-10-30T4:23:29Z</time></trkpt>
<trkpt lat="46.66226668283343" lon="7.150934441015124"><ele></ele><time>2014-10-30T4:23:32Z</time></trkpt>
<trkpt lat="46.66223047301173" lon="7.150882305577397"><ele></ele><time>2014-10-30T4:23:35Z</time></trkpt>
<trkpt lat="46.66221127845347" lon="7.150859925895929"><ele></ele><time>2014-10-30T4:23:38Z</time></trkpt>
<trkpt lat="46.66219501756132" lon="7.150847604498267"><ele></ele><time>2014-10-30T4:23:41Z</time></trkpt>
<trkpt lat="46.662184204906225" lon="7.150829751044512"><ele></ele><time>2014-10-30T4:23:44Z</time></trkpt>
<trkpt lat="46.662164591252804" lon="7.150811059400439"><ele></ele><time>2014-10-30T4:23:47Z</time></trkpt>
<trkpt lat="46.662151431664824" lon="7.1507897693663836"><ele></ele><time>2014-10-30T4:23:50Z</time></trkpt>
<trkpt lat="46.66209736838937" lon="7.150739813223481"><ele></ele><time>2014-10-30T4:23:53Z</time></trkpt>
<trkpt lat="46.66205579414964" lon="7.150721121579409"><ele></ele><time>2014-10-30T4:23:56Z</time></trkpt>
<trkpt lat="46.66195034980774" lon="7.150621963664889"><ele></ele><time>2014-10-30T4:23:59Z</time></trkpt>
<trkpt lat="46.66190014220774" lon="7.15060343965888"><ele></ele><time>2014-10-30T4:24:2Z</time></trkpt>
<trkpt lat="46.661862256005406" lon="7.1505877654999495"><ele></ele><time>2014-10-30T4:24:5Z</time></trkpt>
<trkpt lat="46.66183987632394" lon="7.150575444102287"><ele></ele><time>2014-10-30T4:24:8Z</time></trkpt>
<trkpt lat="46.66181749664247" lon="7.150558680295944"><ele></ele><time>2014-10-30T4:24:11Z</time></trkpt>
<trkpt lat="46.66180123575032" lon="7.150535210967064"><ele></ele><time>2014-10-30T4:24:14Z</time></trkpt>
<trkpt lat="46.66178019717336" lon="7.1505035273730755"><ele></ele><time>2014-10-30T4:24:17Z</time></trkpt>
<trkpt lat="46.66175538673997" lon="7.150487517938018"><ele></ele><time>2014-10-30T4:24:20Z</time></trkpt>
<trkpt lat="46.66173107922077" lon="7.1504617016762495"><ele></ele><time>2014-10-30T4:24:23Z</time></trkpt>
<trkpt lat="46.661710292100906" lon="7.15043974108994"><ele></ele><time>2014-10-30T4:24:26Z</time></trkpt>
<trkpt lat="46.66168942116201" lon="7.150413757190108"><ele></ele><time>2014-10-30T4:24:29Z</time></trkpt>
<trkpt lat="46.66166955605149" lon="7.1504036989063025"><ele></ele><time>2014-10-30T4:24:32Z</time></trkpt>
<trkpt lat="46.66164357215166" lon="7.150397077202797"><ele></ele><time>2014-10-30T4:24:35Z</time></trkpt>
<trkpt lat="46.66161675006151" lon="7.150386851280928"><ele></ele><time>2014-10-30T4:24:38Z</time></trkpt>
<trkpt lat="46.66159763932228" lon="7.150365058332682"><ele></ele><time>2014-10-30T4:24:41Z</time></trkpt>
<trkpt lat="46.6615741699934" lon="7.1503465343266726"><ele></ele><time>2014-10-30T4:24:44Z</time></trkpt>
<trkpt lat="46.66155606508255" lon="7.150318957865238"><ele></ele><time>2014-10-30T4:24:47Z</time></trkpt>
<trkpt lat="46.66153661906719" lon="7.150283418595791"><ele></ele><time>2014-10-30T4:24:50Z</time></trkpt>
<trkpt lat="46.661514826118946" lon="7.150251315906644"><ele></ele><time>2014-10-30T4:24:53Z</time></trkpt>
<trkpt lat="46.66149563156068" lon="7.15022474527359"><ele></ele><time>2014-10-30T4:24:56Z</time></trkpt>
<trkpt lat="46.66148029267788" lon="7.150197336450219"><ele></ele><time>2014-10-30T4:24:59Z</time></trkpt>
<trkpt lat="46.66145238094032" lon="7.150150649249554"><ele></ele><time>2014-10-30T4:25:2Z</time></trkpt>
<trkpt lat="46.661409717053175" lon="7.150088623166084"><ele></ele><time>2014-10-30T4:25:5Z</time></trkpt>
<trkpt lat="46.66138490661979" lon="7.1500682551413774"><ele></ele><time>2014-10-30T4:25:8Z</time></trkpt>
<trkpt lat="46.66135624051094" lon="7.1500293631106615"><ele></ele><time>2014-10-30T4:25:11Z</time></trkpt>
<trkpt lat="46.66131994687021" lon="7.149985861033201"><ele></ele><time>2014-10-30T4:25:14Z</time></trkpt>
<trkpt lat="46.66128591634333" lon="7.149952417239547"><ele></ele><time>2014-10-30T4:25:17Z</time></trkpt>
<trkpt lat="46.66126093827188" lon="7.149924002587795"><ele></ele><time>2014-10-30T4:25:20Z</time></trkpt>
<trkpt lat="46.66123998351395" lon="7.149900617077947"><ele></ele><time>2014-10-30T4:25:23Z</time></trkpt>
<trkpt lat="46.66122313588858" lon="7.149888211861253"><ele></ele><time>2014-10-30T4:25:26Z</time></trkpt>
<trkpt lat="46.661194721236825" lon="7.149856444448233"><ele></ele><time>2014-10-30T4:25:29Z</time></trkpt>
<trkpt lat="46.66116278618574" lon="7.149827107787132"><ele></ele><time>2014-10-30T4:25:32Z</time></trkpt>
<trkpt lat="46.661129258573055" lon="7.149795843288302"><ele></ele><time>2014-10-30T4:25:35Z</time></trkpt>
<trkpt lat="46.66110520251095" lon="7.149755526334047"><ele></ele><time>2014-10-30T4:25:38Z</time></trkpt>
<trkpt lat="46.66108994744718" lon="7.149715377017856"><ele></ele><time>2014-10-30T4:25:41Z</time></trkpt>
<trkpt lat="46.661073518916965" lon="7.149679670110345"><ele></ele><time>2014-10-30T4:25:44Z</time></trkpt>
<trkpt lat="46.66105382144451" lon="7.1496485732495785"><ele></ele><time>2014-10-30T4:25:47Z</time></trkpt>
<trkpt lat="46.6610062122345" lon="7.149607250466943"><ele></ele><time>2014-10-30T4:25:50Z</time></trkpt>
<trkpt lat="46.660987101495266" lon="7.149577746167779"><ele></ele><time>2014-10-30T4:25:53Z</time></trkpt>
<trkpt lat="46.66096966713667" lon="7.149542877450585"><ele></ele><time>2014-10-30T4:25:56Z</time></trkpt>
<trkpt lat="46.66094494052231" lon="7.149499375373125"><ele></ele><time>2014-10-30T4:25:59Z</time></trkpt>
<trkpt lat="46.66090856306255" lon="7.1494419593364"><ele></ele><time>2014-10-30T4:26:2Z</time></trkpt>
<trkpt lat="46.660886853933334" lon="7.149414047598839"><ele></ele><time>2014-10-30T4:26:5Z</time></trkpt>
<trkpt lat="46.66087453253567" lon="7.1493911650031805"><ele></ele><time>2014-10-30T4:26:8Z</time></trkpt>
<trkpt lat="46.66086355224252" lon="7.149373395368457"><ele></ele><time>2014-10-30T4:26:11Z</time></trkpt>
<trkpt lat="46.66084175929427" lon="7.149354619905353"><ele></ele><time>2014-10-30T4:26:14Z</time></trkpt>
<trkpt lat="46.66082507930696" lon="7.149338610470295"><ele></ele><time>2014-10-30T4:26:17Z</time></trkpt>
<trkpt lat="46.66072835214436" lon="7.14921866543591"><ele></ele><time>2014-10-30T4:26:20Z</time></trkpt>
<trkpt lat="46.66068200021982" lon="7.1491458266973495"><ele></ele><time>2014-10-30T4:26:23Z</time></trkpt>
<trkpt lat="46.660659117624164" lon="7.149108191952109"><ele></ele><time>2014-10-30T4:26:26Z</time></trkpt>
<trkpt lat="46.660636151209474" lon="7.149083549156785"><ele></ele><time>2014-10-30T4:26:29Z</time></trkpt>
<trkpt lat="46.66060807183385" lon="7.149044908583164"><ele></ele><time>2014-10-30T4:26:32Z</time></trkpt>
<trkpt lat="46.66057848371565" lon="7.14901247061789"><ele></ele><time>2014-10-30T4:26:35Z</time></trkpt>
<trkpt lat="46.66049265302718" lon="7.148901661857963"><ele></ele><time>2014-10-30T4:26:38Z</time></trkpt>
<trkpt lat="46.66042945347726" lon="7.148813400417566"><ele></ele><time>2014-10-30T4:26:41Z</time></trkpt>
<trkpt lat="46.66040388867259" lon="7.148789009079337"><ele></ele><time>2014-10-30T4:26:44Z</time></trkpt>
<trkpt lat="46.66036885231733" lon="7.148761600255966"><ele></ele><time>2014-10-30T4:26:47Z</time></trkpt>
<trkpt lat="46.66033750399947" lon="7.148743327707052"><ele></ele><time>2014-10-30T4:26:50Z</time></trkpt>
<trkpt lat="46.66031395085156" lon="7.148731676861644"><ele></ele><time>2014-10-30T4:26:53Z</time></trkpt>
<trkpt lat="46.660264832898974" lon="7.14869580231607"><ele></ele><time>2014-10-30T4:26:56Z</time></trkpt>
<trkpt lat="46.660243291407824" lon="7.148664286360145"><ele></ele><time>2014-10-30T4:26:59Z</time></trkpt>
<trkpt lat="46.66020783595741" lon="7.148627070710063"><ele></ele><time>2014-10-30T4:27:2Z</time></trkpt>
<trkpt lat="46.660161819308996" lon="7.14859270490706"><ele></ele><time>2014-10-30T4:27:5Z</time></trkpt>
<trkpt lat="46.66010867804289" lon="7.148583149537444"><ele></ele><time>2014-10-30T4:27:8Z</time></trkpt>
<trkpt lat="46.66006861254573" lon="7.14855850674212"><ele></ele><time>2014-10-30T4:27:11Z</time></trkpt>
<trkpt lat="46.66004120372236" lon="7.14851844124496"><ele></ele><time>2014-10-30T4:27:14Z</time></trkpt>
<trkpt lat="46.660017650574446" lon="7.148477705195546"><ele></ele><time>2014-10-30T4:27:17Z</time></trkpt>
<trkpt lat="46.659997534006834" lon="7.148432107642293"><ele></ele><time>2014-10-30T4:27:20Z</time></trkpt>
<trkpt lat="46.65994397364557" lon="7.148296153172851"><ele></ele><time>2014-10-30T4:27:23Z</time></trkpt>
<trkpt lat="46.659865686669946" lon="7.1481692511588335"><ele></ele><time>2014-10-30T4:27:26Z</time></trkpt>
<trkpt lat="46.65982780046761" lon="7.148145781829953"><ele></ele><time>2014-10-30T4:27:29Z</time></trkpt>
<trkpt lat="46.65969184599817" lon="7.148080989718437"><ele></ele><time>2014-10-30T4:27:32Z</time></trkpt>
<trkpt lat="46.65957869030535" lon="7.148025501519442"><ele></ele><time>2014-10-30T4:27:35Z</time></trkpt>
<trkpt lat="46.65949051268399" lon="7.148004798218608"><ele></ele><time>2014-10-30T4:27:38Z</time></trkpt>
<trkpt lat="46.659459080547094" lon="7.147995745763183"><ele></ele><time>2014-10-30T4:27:41Z</time></trkpt>
<trkpt lat="46.65942890569568" lon="7.147983256727457"><ele></ele><time>2014-10-30T4:27:44Z</time></trkpt>
<trkpt lat="46.65940753184259" lon="7.147970935329795"><ele></ele><time>2014-10-30T4:27:47Z</time></trkpt>
<trkpt lat="46.65937886573374" lon="7.147969342768192"><ele></ele><time>2014-10-30T4:27:50Z</time></trkpt>
<trkpt lat="46.65934349410236" lon="7.147968839854002"><ele></ele><time>2014-10-30T4:27:53Z</time></trkpt>
<trkpt lat="46.65923452936113" lon="7.14796825312078"><ele></ele><time>2014-10-30T4:27:56Z</time></trkpt>
<trkpt lat="46.65915967896581" lon="7.147958446294069"><ele></ele><time>2014-10-30T4:27:59Z</time></trkpt>
<trkpt lat="46.6591184400022" lon="7.147949812933803"><ele></ele><time>2014-10-30T4:28:2Z</time></trkpt>
<trkpt lat="46.65908214636147" lon="7.147948555648327"><ele></ele><time>2014-10-30T4:28:5Z</time></trkpt>
<trkpt lat="46.65904643945396" lon="7.147940844297409"><ele></ele><time>2014-10-30T4:28:8Z</time></trkpt>
<trkpt lat="46.659013414755464" lon="7.147928522899747"><ele></ele><time>2014-10-30T4:28:11Z</time></trkpt>
<trkpt lat="46.658981731161475" lon="7.147910753265023"><ele></ele><time>2014-10-30T4:28:14Z</time></trkpt>
<trkpt lat="46.65890336036682" lon="7.1478573605418205"><ele></ele><time>2014-10-30T4:28:17Z</time></trkpt>
<trkpt lat="46.65888383053243" lon="7.14785635471344"><ele></ele><time>2014-10-30T4:28:20Z</time></trkpt>
<trkpt lat="46.65885457769036" lon="7.147813271731138"><ele></ele><time>2014-10-30T4:28:23Z</time></trkpt>
<trkpt lat="46.65880562737584" lon="7.147733056917787"><ele></ele><time>2014-10-30T4:28:26Z</time></trkpt>
<trkpt lat="46.65875290520489" lon="7.147662648931146"><ele></ele><time>2014-10-30T4:28:29Z</time></trkpt>
<trkpt lat="46.658726753667" lon="7.147634821012616"><ele></ele><time>2014-10-30T4:28:32Z</time></trkpt>
<trkpt lat="46.65870068594813" lon="7.1475993655622005"><ele></ele><time>2014-10-30T4:28:35Z</time></trkpt>
<trkpt lat="46.65867201983929" lon="7.147563323378563"><ele></ele><time>2014-10-30T4:28:38Z</time></trkpt>
<trkpt lat="46.65864150971174" lon="7.147520324215293"><ele></ele><time>2014-10-30T4:28:41Z</time></trkpt>
<trkpt lat="46.65861242450774" lon="7.14747816324234"><ele></ele><time>2014-10-30T4:28:44Z</time></trkpt>
<trkpt lat="46.65846976451576" lon="7.147310106083751"><ele></ele><time>2014-10-30T4:28:47Z</time></trkpt>
<trkpt lat="46.65843967348337" lon="7.14728076942265"><ele></ele><time>2014-10-30T4:28:50Z</time></trkpt>
<trkpt lat="46.658409498631954" lon="7.147250175476074"><ele></ele><time>2014-10-30T4:28:53Z</time></trkpt>
<trkpt lat="46.658381251618266" lon="7.147220000624657"><ele></ele><time>2014-10-30T4:28:56Z</time></trkpt>
<trkpt lat="46.65835375897586" lon="7.1471876464784145"><ele></ele><time>2014-10-30T4:28:59Z</time></trkpt>
<trkpt lat="46.65826817974448" lon="7.147082705050707"><ele></ele><time>2014-10-30T4:29:2Z</time></trkpt>
<trkpt lat="46.658237501978874" lon="7.147048423066735"><ele></ele><time>2014-10-30T4:29:5Z</time></trkpt>
<trkpt lat="46.65817874483764" lon="7.146990755572915"><ele></ele><time>2014-10-30T4:29:8Z</time></trkpt>
<trkpt lat="46.65814504958689" lon="7.146952450275421"><ele></ele><time>2014-10-30T4:29:11Z</time></trkpt>
<trkpt lat="46.658110432326794" lon="7.146904170513153"><ele></ele><time>2014-10-30T4:29:14Z</time></trkpt>
<trkpt lat="46.65807908400893" lon="7.146856812760234"><ele></ele><time>2014-10-30T4:29:17Z</time></trkpt>
<trkpt lat="46.658056788146496" lon="7.146817501634359"><ele></ele><time>2014-10-30T4:29:20Z</time></trkpt>
<trkpt lat="46.65803885087371" lon="7.1467667911201715"><ele></ele><time>2014-10-30T4:29:23Z</time></trkpt>
<trkpt lat="46.658029379323125" lon="7.146713146939874"><ele></ele><time>2014-10-30T4:29:26Z</time></trkpt>
<trkpt lat="46.658022589981556" lon="7.146700909361243"><ele></ele><time>2014-10-30T4:29:29Z</time></trkpt>
<trkpt lat="46.65801152586937" lon="7.146688923239708"><ele></ele><time>2014-10-30T4:29:32Z</time></trkpt>
<trkpt lat="46.65800875984132" lon="7.146670902147889"><ele></ele><time>2014-10-30T4:29:35Z</time></trkpt>
<trkpt lat="46.65800758637488" lon="7.146659838035703"><ele></ele><time>2014-10-30T4:29:38Z</time></trkpt>
<trkpt lat="46.65801253169775" lon="7.1465659607201815"><ele></ele><time>2014-10-30T4:29:41Z</time></trkpt>
<trkpt lat="46.65800373069942" lon="7.146542323753238"><ele></ele><time>2014-10-30T4:29:44Z</time></trkpt>
<trkpt lat="46.657991241663694" lon="7.146504353731871"><ele></ele><time>2014-10-30T4:29:47Z</time></trkpt>
<trkpt lat="46.65796936489642" lon="7.146470155566931"><ele></ele><time>2014-10-30T4:29:50Z</time></trkpt>
<trkpt lat="46.65790054947138" lon="7.146395891904831"><ele></ele><time>2014-10-30T4:29:53Z</time></trkpt>
<trkpt lat="46.657857382670045" lon="7.146290196105838"><ele></ele><time>2014-10-30T4:29:56Z</time></trkpt>
<trkpt lat="46.65783257223666" lon="7.146245604380965"><ele></ele><time>2014-10-30T4:29:59Z</time></trkpt>
<trkpt lat="46.65781966410577" lon="7.146233702078462"><ele></ele><time>2014-10-30T4:30:2Z</time></trkpt>
<trkpt lat="46.657805582508445" lon="7.146212412044406"><ele></ele><time>2014-10-30T4:30:5Z</time></trkpt>
<trkpt lat="46.657775240018964" lon="7.146224230527878"><ele></ele><time>2014-10-30T4:30:8Z</time></trkpt>
<trkpt lat="46.65776761248708" lon="7.146220291033387"><ele></ele><time>2014-10-30T4:30:11Z</time></trkpt>
<trkpt lat="46.65775638073683" lon="7.146171675994992"><ele></ele><time>2014-10-30T4:30:14Z</time></trkpt>
<trkpt lat="46.657706927508116" lon="7.146048964932561"><ele></ele><time>2014-10-30T4:30:17Z</time></trkpt>
<trkpt lat="46.65765177458525" lon="7.145932791754603"><ele></ele><time>2014-10-30T4:30:20Z</time></trkpt>
<trkpt lat="46.65760743431747" lon="7.145829778164625"><ele></ele><time>2014-10-30T4:30:23Z</time></trkpt>
<trkpt lat="46.65754096582532" lon="7.145786946639419"><ele></ele><time>2014-10-30T4:30:26Z</time></trkpt>
<trkpt lat="46.6575126349926" lon="7.14574009180069"><ele></ele><time>2014-10-30T4:30:29Z</time></trkpt>
<trkpt lat="46.6574227809906" lon="7.1455649100244045"><ele></ele><time>2014-10-30T4:30:32Z</time></trkpt>
<trkpt lat="46.65736955590546" lon="7.1454518381506205"><ele></ele><time>2014-10-30T4:30:35Z</time></trkpt>
<trkpt lat="46.6573141515255" lon="7.145368438214064"><ele></ele><time>2014-10-30T4:30:38Z</time></trkpt>
<trkpt lat="46.6572258900851" lon="7.145305993035436"><ele></ele><time>2014-10-30T4:30:41Z</time></trkpt>
<trkpt lat="46.65718758478761" lon="7.145259892567992"><ele></ele><time>2014-10-30T4:30:44Z</time></trkpt>
<trkpt lat="46.65712170302868" lon="7.1452047396451235"><ele></ele><time>2014-10-30T4:30:47Z</time></trkpt>
<trkpt lat="46.65707543492317" lon="7.145072473213077"><ele></ele><time>2014-10-30T4:30:50Z</time></trkpt>
<trkpt lat="46.65706168860197" lon="7.145036766305566"><ele></ele><time>2014-10-30T4:30:53Z</time></trkpt>
<trkpt lat="46.65703922510147" lon="7.14501011185348"><ele></ele><time>2014-10-30T4:30:56Z</time></trkpt>
<trkpt lat="46.65702514350414" lon="7.144983289763331"><ele></ele><time>2014-10-30T4:30:59Z</time></trkpt>
<trkpt lat="46.65700502693653" lon="7.144957473501563"><ele></ele><time>2014-10-30T4:31:2Z</time></trkpt>
<trkpt lat="46.65698985569179" lon="7.144931992515922"><ele></ele><time>2014-10-30T4:31:5Z</time></trkpt>
<trkpt lat="46.65692246519029" lon="7.144852532073855"><ele></ele><time>2014-10-30T4:31:8Z</time></trkpt>
<trkpt lat="46.65690184570849" lon="7.144822357222438"><ele></ele><time>2014-10-30T4:31:11Z</time></trkpt>
<trkpt lat="46.65683990344405" lon="7.14474918320775"><ele></ele><time>2014-10-30T4:31:14Z</time></trkpt>
<trkpt lat="46.656799083575606" lon="7.14470274746418"><ele></ele><time>2014-10-30T4:31:17Z</time></trkpt>
<trkpt lat="46.6567060444504" lon="7.144585819914937"><ele></ele><time>2014-10-30T4:31:20Z</time></trkpt>
<trkpt lat="46.656629936769605" lon="7.144458498805761"><ele></ele><time>2014-10-30T4:31:23Z</time></trkpt>
<trkpt lat="46.656596744433045" lon="7.144417427480221"><ele></ele><time>2014-10-30T4:31:26Z</time></trkpt>
<trkpt lat="46.65651326067746" lon="7.144325897097588"><ele></ele><time>2014-10-30T4:31:29Z</time></trkpt>
<trkpt lat="46.65644830092788" lon="7.144275773316622"><ele></ele><time>2014-10-30T4:31:32Z</time></trkpt>
<trkpt lat="46.656411588191986" lon="7.1442449279129505"><ele></ele><time>2014-10-30T4:31:35Z</time></trkpt>
<trkpt lat="46.656370516866446" lon="7.144201677292585"><ele></ele><time>2014-10-30T4:31:38Z</time></trkpt>
<trkpt lat="46.65634285658598" lon="7.144181057810783"><ele></ele><time>2014-10-30T4:31:41Z</time></trkpt>
<trkpt lat="46.65632684715092" lon="7.144149374216795"><ele></ele><time>2014-10-30T4:31:44Z</time></trkpt>
<trkpt lat="46.656305054202676" lon="7.144120540469885"><ele></ele><time>2014-10-30T4:31:47Z</time></trkpt>
<trkpt lat="46.65628141723573" lon="7.144083743914962"><ele></ele><time>2014-10-30T4:31:50Z</time></trkpt>
<trkpt lat="46.65626809000969" lon="7.144050886854529"><ele></ele><time>2014-10-30T4:31:53Z</time></trkpt>
<trkpt lat="46.65624369867146" lon="7.144024316221476"><ele></ele><time>2014-10-30T4:31:56Z</time></trkpt>
<trkpt lat="46.656183851882815" lon="7.1439839992672205"><ele></ele><time>2014-10-30T4:31:59Z</time></trkpt>
<trkpt lat="46.65613272227347" lon="7.143881404772401"><ele></ele><time>2014-10-30T4:32:2Z</time></trkpt>
<trkpt lat="46.656079329550266" lon="7.143796076998115"><ele></ele><time>2014-10-30T4:32:5Z</time></trkpt>
<trkpt lat="46.65601093322039" lon="7.143719969317317"><ele></ele><time>2014-10-30T4:32:8Z</time></trkpt>
<trkpt lat="46.65599928237498" lon="7.1437047980725765"><ele></ele><time>2014-10-30T4:32:11Z</time></trkpt>
<trkpt lat="46.655976651236415" lon="7.143653500825167"><ele></ele><time>2014-10-30T4:32:14Z</time></trkpt>
<trkpt lat="46.65595829486847" lon="7.1436462085694075"><ele></ele><time>2014-10-30T4:32:17Z</time></trkpt>
<trkpt lat="46.65594270452857" lon="7.143636401742697"><ele></ele><time>2014-10-30T4:32:20Z</time></trkpt>
<trkpt lat="46.65592812001705" lon="7.143621230497956"><ele></ele><time>2014-10-30T4:32:23Z</time></trkpt>
<trkpt lat="46.65591177530587" lon="7.1436043828725815"><ele></ele><time>2014-10-30T4:32:26Z</time></trkpt>
<trkpt lat="46.65589978918433" lon="7.143604047596455"><ele></ele><time>2014-10-30T4:32:29Z</time></trkpt>
<trkpt lat="46.655880343168974" lon="7.143600191920996"><ele></ele><time>2014-10-30T4:32:32Z</time></trkpt>
<trkpt lat="46.65581454522908" lon="7.143567837774754"><ele></ele><time>2014-10-30T4:32:35Z</time></trkpt>
<trkpt lat="46.6557926684618" lon="7.143524335697293"><ele></ele><time>2014-10-30T4:32:38Z</time></trkpt>
<trkpt lat="46.65576928295195" lon="7.143487371504307"><ele></ele><time>2014-10-30T4:32:41Z</time></trkpt>
<trkpt lat="46.655740616843104" lon="7.143436996266246"><ele></ele><time>2014-10-30T4:32:44Z</time></trkpt>
<trkpt lat="46.65572511032224" lon="7.143393661826849"><ele></ele><time>2014-10-30T4:32:47Z</time></trkpt>
<trkpt lat="46.65570667013526" lon="7.143362313508987"><ele></ele><time>2014-10-30T4:32:50Z</time></trkpt>
<trkpt lat="46.655615055933595" lon="7.143241614103317"><ele></ele><time>2014-10-30T4:32:53Z</time></trkpt>
<trkpt lat="46.655568704009056" lon="7.143173133954406"><ele></ele><time>2014-10-30T4:32:56Z</time></trkpt>
<trkpt lat="46.65556157939136" lon="7.143162153661251"><ele></ele><time>2014-10-30T4:32:59Z</time></trkpt>
<trkpt lat="46.65554841980338" lon="7.143141031265259"><ele></ele><time>2014-10-30T4:33:2Z</time></trkpt>
<trkpt lat="46.655538361519575" lon="7.143102893605828"><ele></ele><time>2014-10-30T4:33:5Z</time></trkpt>
<trkpt lat="46.655500223860145" lon="7.143018236383796"><ele></ele><time>2014-10-30T4:33:8Z</time></trkpt>
<trkpt lat="46.65547591634095" lon="7.1429965272545815"><ele></ele><time>2014-10-30T4:33:11Z</time></trkpt>
<trkpt lat="46.655468540266156" lon="7.142982948571444"><ele></ele><time>2014-10-30T4:33:14Z</time></trkpt>
<trkpt lat="46.655463175848126" lon="7.142947996035218"><ele></ele><time>2014-10-30T4:33:17Z</time></trkpt>
<trkpt lat="46.6554350964725" lon="7.142914133146405"><ele></ele><time>2014-10-30T4:33:20Z</time></trkpt>
<trkpt lat="46.655420092865825" lon="7.142852609977126"><ele></ele><time>2014-10-30T4:33:23Z</time></trkpt>
<trkpt lat="46.65539000183344" lon="7.142816316336393"><ele></ele><time>2014-10-30T4:33:26Z</time></trkpt>
<trkpt lat="46.65536041371524" lon="7.1427971217781305"><ele></ele><time>2014-10-30T4:33:29Z</time></trkpt>
<trkpt lat="46.65526930242777" lon="7.142751859501004"><ele></ele><time>2014-10-30T4:33:32Z</time></trkpt>
<trkpt lat="46.65525429882109" lon="7.142738867551088"><ele></ele><time>2014-10-30T4:33:35Z</time></trkpt>
<trkpt lat="46.65524457581341" lon="7.142727132886648"><ele></ele><time>2014-10-30T4:33:38Z</time></trkpt>
<trkpt lat="46.65524457581341" lon="7.142727132886648"><ele></ele><time>2014-10-30T4:33:41Z</time></trkpt>
<trkpt lat="46.65524457581341" lon="7.142727132886648"><ele></ele><time>2014-10-30T4:33:44Z</time></trkpt>
<trkpt lat="46.65524457581341" lon="7.142727132886648"><ele></ele><time>2014-10-30T4:33:47Z</time></trkpt>
<trkpt lat="46.65524457581341" lon="7.142727132886648"><ele></ele><time>2014-10-30T4:33:50Z</time></trkpt>
<trkpt lat="46.65524457581341" lon="7.142727132886648"><ele></ele><time>2014-10-30T4:33:53Z</time></trkpt>
<trkpt lat="46.65524457581341" lon="7.142727132886648"><ele></ele><time>2014-10-30T4:33:56Z</time></trkpt>
<trkpt lat="46.65524457581341" lon="7.142727132886648"><ele></ele><time>2014-10-30T4:33:59Z</time></trkpt>
<trkpt lat="46.65524457581341" lon="7.142727132886648"><ele></ele><time>2014-10-30T4:34:2Z</time></trkpt>
<trkpt lat="46.655205180868506" lon="7.142711794003844"><ele></ele><time>2014-10-30T4:34:5Z</time></trkpt>
<trkpt lat="46.65511893108487" lon="7.142671141773462"><ele></ele><time>2014-10-30T4:34:8Z</time></trkpt>
<trkpt lat="46.65505204349756" lon="7.142658988013864"><ele></ele><time>2014-10-30T4:34:11Z</time></trkpt>
<trkpt lat="46.655042907223105" lon="7.142653539776802"><ele></ele><time>2014-10-30T4:34:14Z</time></trkpt>
<trkpt lat="46.65501122362912" lon="7.142664436250925"><ele></ele><time>2014-10-30T4:34:17Z</time></trkpt>
<trkpt lat="46.65499630384147" lon="7.142666447907686"><ele></ele><time>2014-10-30T4:34:20Z</time></trkpt>
<trkpt lat="46.654986161738634" lon="7.142666280269623"><ele></ele><time>2014-10-30T4:34:23Z</time></trkpt>
<trkpt lat="46.654983228072524" lon="7.142667202278972"><ele></ele><time>2014-10-30T4:34:26Z</time></trkpt>
<trkpt lat="46.65497870184481" lon="7.142666280269623"><ele></ele><time>2014-10-30T4:34:29Z</time></trkpt>
<trkpt lat="46.65497870184481" lon="7.142666280269623"><ele></ele><time>2014-10-30T4:34:32Z</time></trkpt>
<trkpt lat="46.65497316978872" lon="7.142663262784481"><ele></ele><time>2014-10-30T4:34:35Z</time></trkpt>
<trkpt lat="46.65495967492461" lon="7.142665358260274"><ele></ele><time>2014-10-30T4:34:38Z</time></trkpt>
<trkpt lat="46.654905108734965" lon="7.142634345218539"><ele></ele><time>2014-10-30T4:34:41Z</time></trkpt>
<trkpt lat="46.65486998856068" lon="7.14261238463223"><ele></ele><time>2014-10-30T4:34:44Z</time></trkpt>
<trkpt lat="46.65483361110091" lon="7.1425930224359035"><ele></ele><time>2014-10-30T4:34:47Z</time></trkpt>
<trkpt lat="46.65480226278305" lon="7.142577935010195"><ele></ele><time>2014-10-30T4:34:50Z</time></trkpt>
<trkpt lat="46.65477845817804" lon="7.142557902261615"><ele></ele><time>2014-10-30T4:34:53Z</time></trkpt>
<trkpt lat="46.654750211164355" lon="7.142545245587826"><ele></ele><time>2014-10-30T4:34:56Z</time></trkpt>
<trkpt lat="46.65472908876836" lon="7.142544826492667"><ele></ele><time>2014-10-30T4:34:59Z</time></trkpt>
<trkpt lat="46.654662201181054" lon="7.142546586692333"><ele></ele><time>2014-10-30T4:35:2Z</time></trkpt>
<trkpt lat="46.654640911147" lon="7.142551196739078"><ele></ele><time>2014-10-30T4:35:5Z</time></trkpt>
<trkpt lat="46.65462154895067" lon="7.142549771815538"><ele></ele><time>2014-10-30T4:35:8Z</time></trkpt>
<trkpt lat="46.654608557000756" lon="7.142573073506355"><ele></ele><time>2014-10-30T4:35:11Z</time></trkpt>
<trkpt lat="46.654587937518954" lon="7.142595620825887"><ele></ele><time>2014-10-30T4:35:14Z</time></trkpt>
<trkpt lat="46.65457268245518" lon="7.142595369368792"><ele></ele><time>2014-10-30T4:35:17Z</time></trkpt>
<trkpt lat="46.65456706658006" lon="7.142592268064618"><ele></ele><time>2014-10-30T4:35:20Z</time></trkpt>
<trkpt lat="46.65454569272697" lon="7.142588496208191"><ele></ele><time>2014-10-30T4:35:23Z</time></trkpt>
<trkpt lat="46.654518032446504" lon="7.1425659488886595"><ele></ele><time>2014-10-30T4:35:26Z</time></trkpt>
<trkpt lat="46.65446614846587" lon="7.142522027716041"><ele></ele><time>2014-10-30T4:35:29Z</time></trkpt>
<trkpt lat="46.6544181201607" lon="7.142502497881651"><ele></ele><time>2014-10-30T4:35:32Z</time></trkpt>
<trkpt lat="46.654376462101936" lon="7.14246628805995"><ele></ele><time>2014-10-30T4:35:35Z</time></trkpt>
<trkpt lat="46.654306976124644" lon="7.142413146793842"><ele></ele><time>2014-10-30T4:35:38Z</time></trkpt>
<trkpt lat="46.65429113432765" lon="7.142383558675647"><ele></ele><time>2014-10-30T4:35:41Z</time></trkpt>
<trkpt lat="46.65426540188491" lon="7.142359334975481"><ele></ele><time>2014-10-30T4:35:44Z</time></trkpt>
<trkpt lat="46.654247129336" lon="7.1423435769975185"><ele></ele><time>2014-10-30T4:35:47Z</time></trkpt>
<trkpt lat="46.65422726422548" lon="7.142332764342427"><ele></ele><time>2014-10-30T4:35:50Z</time></trkpt>
<trkpt lat="46.654205387458205" lon="7.1423285733908415"><ele></ele><time>2014-10-30T4:35:53Z</time></trkpt>
<trkpt lat="46.65418200194836" lon="7.142320862039924"><ele></ele><time>2014-10-30T4:35:56Z</time></trkpt>
<trkpt lat="46.65415350347757" lon="7.142308373004198"><ele></ele><time>2014-10-30T4:35:59Z</time></trkpt>
<trkpt lat="46.65411712601781" lon="7.14231382124126"><ele></ele><time>2014-10-30T4:36:2Z</time></trkpt>
<trkpt lat="46.65408678352833" lon="7.142297141253948"><ele></ele><time>2014-10-30T4:36:5Z</time></trkpt>
<trkpt lat="46.654060799628496" lon="7.142287585884333"><ele></ele><time>2014-10-30T4:36:8Z</time></trkpt>
<trkpt lat="46.654037833213806" lon="7.14226939715445"><ele></ele><time>2014-10-30T4:36:11Z</time></trkpt>
<trkpt lat="46.65401662699878" lon="7.142248023301363"><ele></ele><time>2014-10-30T4:36:14Z</time></trkpt>
<trkpt lat="46.65399257093668" lon="7.1422328520566225"><ele></ele><time>2014-10-30T4:36:17Z</time></trkpt>
<trkpt lat="46.65397153235972" lon="7.142207119613886"><ele></ele><time>2014-10-30T4:36:20Z</time></trkpt>
<trkpt lat="46.65395728312433" lon="7.142187422141433"><ele></ele><time>2014-10-30T4:36:23Z</time></trkpt>
<trkpt lat="46.65394068695605" lon="7.1421804651618"><ele></ele><time>2014-10-30T4:36:26Z</time></trkpt>
<trkpt lat="46.65391830727458" lon="7.142162527889013"><ele></ele><time>2014-10-30T4:36:29Z</time></trkpt>
<trkpt lat="46.65391009300947" lon="7.142159258946776"><ele></ele><time>2014-10-30T4:36:32Z</time></trkpt>
<trkpt lat="46.653889724984765" lon="7.142154732719064"><ele></ele><time>2014-10-30T4:36:35Z</time></trkpt>
<trkpt lat="46.65387715213001" lon="7.1421421598643064"><ele></ele><time>2014-10-30T4:36:38Z</time></trkpt>
<trkpt lat="46.65386801585555" lon="7.142126988619566"><ele></ele><time>2014-10-30T4:36:41Z</time></trkpt>
<trkpt lat="46.653851587325335" lon="7.142118439078331"><ele></ele><time>2014-10-30T4:36:44Z</time></trkpt>
<trkpt lat="46.65383121930063" lon="7.1421159245073795"><ele></ele><time>2014-10-30T4:36:47Z</time></trkpt>
<trkpt lat="46.65380749851465" lon="7.142100082710385"><ele></ele><time>2014-10-30T4:36:50Z</time></trkpt>
<trkpt lat="46.653791991993785" lon="7.142093377187848"><ele></ele><time>2014-10-30T4:36:53Z</time></trkpt>
<trkpt lat="46.6537928301841" lon="7.142095472663641"><ele></ele><time>2014-10-30T4:36:56Z</time></trkpt>
<trkpt lat="46.6537928301841" lon="7.142095472663641"><ele></ele><time>2014-10-30T4:36:59Z</time></trkpt>
<trkpt lat="46.6537928301841" lon="7.142095472663641"><ele></ele><time>2014-10-30T4:37:2Z</time></trkpt>
<trkpt lat="46.65379207581282" lon="7.142083905637264"><ele></ele><time>2014-10-30T4:37:5Z</time></trkpt>
<trkpt lat="46.65378478355706" lon="7.142060184851289"><ele></ele><time>2014-10-30T4:37:8Z</time></trkpt>
<trkpt lat="46.65376919321716" lon="7.142031015828252"><ele></ele><time>2014-10-30T4:37:11Z</time></trkpt>
<trkpt lat="46.65374438278377" lon="7.141950549557805"><ele></ele><time>2014-10-30T4:37:14Z</time></trkpt>
<trkpt lat="46.65373214520514" lon="7.14191953651607"><ele></ele><time>2014-10-30T4:37:17Z</time></trkpt>
<trkpt lat="46.65372250601649" lon="7.1418990008533"><ele></ele><time>2014-10-30T4:37:20Z</time></trkpt>
<trkpt lat="46.65370347909629" lon="7.1418658923357725"><ele></ele><time>2014-10-30T4:37:23Z</time></trkpt>
<trkpt lat="46.65368319489062" lon="7.141814678907394"><ele></ele><time>2014-10-30T4:37:26Z</time></trkpt>
<trkpt lat="46.65367464534938" lon="7.141782995313406"><ele></ele><time>2014-10-30T4:37:29Z</time></trkpt>
<trkpt lat="46.65366089902818" lon="7.141763884574175"><ele></ele><time>2014-10-30T4:37:32Z</time></trkpt>
<trkpt lat="46.653649248182774" lon="7.1417460311204195"><ele></ele><time>2014-10-30T4:37:35Z</time></trkpt>
<trkpt lat="46.653628796339035" lon="7.1417168620973825"><ele></ele><time>2014-10-30T4:37:38Z</time></trkpt>
<trkpt lat="46.65360759012401" lon="7.141683250665665"><ele></ele><time>2014-10-30T4:37:41Z</time></trkpt>
<trkpt lat="46.65360063314438" lon="7.141658188775182"><ele></ele><time>2014-10-30T4:37:44Z</time></trkpt>
<trkpt lat="46.65358470752835" lon="7.141641592606902"><ele></ele><time>2014-10-30T4:37:47Z</time></trkpt>
<trkpt lat="46.65356442332268" lon="7.141626253724098"><ele></ele><time>2014-10-30T4:37:50Z</time></trkpt>
<trkpt lat="46.65355218574405" lon="7.141619129106402"><ele></ele><time>2014-10-30T4:37:53Z</time></trkpt>
<trkpt lat="46.653529051691294" lon="7.141610914841294"><ele></ele><time>2014-10-30T4:37:56Z</time></trkpt>
<trkpt lat="46.653509018942714" lon="7.141599263995886"><ele></ele><time>2014-10-30T4:37:59Z</time></trkpt>
<trkpt lat="46.653492003679276" lon="7.141584008932114"><ele></ele><time>2014-10-30T4:38:2Z</time></trkpt>
<trkpt lat="46.6534717194736" lon="7.1415643114596605"><ele></ele><time>2014-10-30T4:38:5Z</time></trkpt>
<trkpt lat="46.65345327928662" lon="7.141569005325437"><ele></ele><time>2014-10-30T4:38:8Z</time></trkpt>
<trkpt lat="46.65342687629163" lon="7.141545368358493"><ele></ele><time>2014-10-30T4:38:11Z</time></trkpt>
<trkpt lat="46.65341396816075" lon="7.141535812988877"><ele></ele><time>2014-10-30T4:38:14Z</time></trkpt>
<trkpt lat="46.65339318104088" lon="7.141518546268344"><ele></ele><time>2014-10-30T4:38:17Z</time></trkpt>
<trkpt lat="46.6533905826509" lon="7.141506727784872"><ele></ele><time>2014-10-30T4:38:20Z</time></trkpt>
<trkpt lat="46.65337926708162" lon="7.141495915129781"><ele></ele><time>2014-10-30T4:38:23Z</time></trkpt>
<trkpt lat="46.653365353122354" lon="7.141468757763505"><ele></ele><time>2014-10-30T4:38:26Z</time></trkpt>
<trkpt lat="46.65333744138479" lon="7.141443360596895"><ele></ele><time>2014-10-30T4:38:29Z</time></trkpt>
<trkpt lat="46.65331841446459" lon="7.1414135210216045"><ele></ele><time>2014-10-30T4:38:32Z</time></trkpt>
<trkpt lat="46.653305757790804" lon="7.141403378918767"><ele></ele><time>2014-10-30T4:38:35Z</time></trkpt>
<trkpt lat="46.653295699507" lon="7.14137127622962"><ele></ele><time>2014-10-30T4:38:38Z</time></trkpt>
<trkpt lat="46.65328321047127" lon="7.141347136348486"><ele></ele><time>2014-10-30T4:38:41Z</time></trkpt>
<trkpt lat="46.65328991599381" lon="7.141329785808921"><ele></ele><time>2014-10-30T4:38:44Z</time></trkpt>
<trkpt lat="46.65329863317311" lon="7.141327355057001"><ele></ele><time>2014-10-30T4:38:47Z</time></trkpt>
<trkpt lat="46.65329628624022" lon="7.1413263492286205"><ele></ele><time>2014-10-30T4:38:50Z</time></trkpt>
<trkpt lat="46.65330274030566" lon="7.1413434483110905"><ele></ele><time>2014-10-30T4:38:53Z</time></trkpt>
<trkpt lat="46.65330357849598" lon="7.141340179368854"><ele></ele><time>2014-10-30T4:38:56Z</time></trkpt>
<trkpt lat="46.65330357849598" lon="7.141340179368854"><ele></ele><time>2014-10-30T4:38:59Z</time></trkpt>
<trkpt lat="46.65330357849598" lon="7.141340179368854"><ele></ele><time>2014-10-30T4:39:2Z</time></trkpt>
<trkpt lat="46.65330357849598" lon="7.141340179368854"><ele></ele><time>2014-10-30T4:39:5Z</time></trkpt>
<trkpt lat="46.65330357849598" lon="7.141340179368854"><ele></ele><time>2014-10-30T4:39:8Z</time></trkpt>
<trkpt lat="46.65330357849598" lon="7.141340179368854"><ele></ele><time>2014-10-30T4:39:11Z</time></trkpt>
<trkpt lat="46.653307266533375" lon="7.14134001173079"><ele></ele><time>2014-10-30T4:39:14Z</time></trkpt>
<trkpt lat="46.653307266533375" lon="7.14134001173079"><ele></ele><time>2014-10-30T4:39:17Z</time></trkpt>
<trkpt lat="46.653307266533375" lon="7.14134001173079"><ele></ele><time>2014-10-30T4:39:20Z</time></trkpt>
<trkpt lat="46.65331522934139" lon="7.141343951225281"><ele></ele><time>2014-10-30T4:39:23Z</time></trkpt>
<trkpt lat="46.65331690572202" lon="7.141346214339137"><ele></ele><time>2014-10-30T4:39:26Z</time></trkpt>
<trkpt lat="46.653330735862255" lon="7.141325091943145"><ele></ele><time>2014-10-30T4:39:29Z</time></trkpt>
<trkpt lat="46.65334481745958" lon="7.141314195469022"><ele></ele><time>2014-10-30T4:39:32Z</time></trkpt>
<trkpt lat="46.65335143916309" lon="7.14129600673914"><ele></ele><time>2014-10-30T4:39:35Z</time></trkpt>
<trkpt lat="46.65335797704756" lon="7.141284607350826"><ele></ele><time>2014-10-30T4:39:38Z</time></trkpt>
<trkpt lat="46.65336845442653" lon="7.141268262639642"><ele></ele><time>2014-10-30T4:39:41Z</time></trkpt>
<trkpt lat="46.653385469689965" lon="7.141257785260677"><ele></ele><time>2014-10-30T4:39:44Z</time></trkpt>
<trkpt lat="46.65339888073504" lon="7.14125057682395"><ele></ele><time>2014-10-30T4:39:47Z</time></trkpt>
<trkpt lat="46.65340608917177" lon="7.141243787482381"><ele></ele><time>2014-10-30T4:39:50Z</time></trkpt>
<trkpt lat="46.653415812179446" lon="7.141226269304752"><ele></ele><time>2014-10-30T4:39:53Z</time></trkpt>
<trkpt lat="46.65342318825424" lon="7.141198944300413"><ele></ele><time>2014-10-30T4:39:56Z</time></trkpt>
<trkpt lat="46.65342561900616" lon="7.141184359788895"><ele></ele><time>2014-10-30T4:39:59Z</time></trkpt>
<trkpt lat="46.65342737920582" lon="7.1411623153835535"><ele></ele><time>2014-10-30T4:40:2Z</time></trkpt>
<trkpt lat="46.65343081578612" lon="7.141145467758179"><ele></ele><time>2014-10-30T4:40:5Z</time></trkpt>
<trkpt lat="46.6534389462322" lon="7.141130547970533"><ele></ele><time>2014-10-30T4:40:8Z</time></trkpt>
<trkpt lat="46.65344825014472" lon="7.141117053106427"><ele></ele><time>2014-10-30T4:40:11Z</time></trkpt>
<trkpt lat="46.653467612341046" lon="7.141079837456346"><ele></ele><time>2014-10-30T4:40:14Z</time></trkpt>
<trkpt lat="46.65346618741751" lon="7.1410836931318045"><ele></ele><time>2014-10-30T4:40:17Z</time></trkpt>
<trkpt lat="46.6534632537514" lon="7.1410872135311365"><ele></ele><time>2014-10-30T4:40:20Z</time></trkpt>
<trkpt lat="46.6534632537514" lon="7.1410872135311365"><ele></ele><time>2014-10-30T4:40:23Z</time></trkpt>
<trkpt lat="46.6534632537514" lon="7.1410872135311365"><ele></ele><time>2014-10-30T4:40:26Z</time></trkpt>
<trkpt lat="46.65346518158913" lon="7.141080088913441"><ele></ele><time>2014-10-30T4:40:29Z</time></trkpt>
<trkpt lat="46.6534733120352" lon="7.141054105013609"><ele></ele><time>2014-10-30T4:40:32Z</time></trkpt>
<trkpt lat="46.65347808972001" lon="7.141048908233643"><ele></ele><time>2014-10-30T4:40:35Z</time></trkpt>
<trkpt lat="46.65347574278712" lon="7.141016134992242"><ele></ele><time>2014-10-30T4:40:38Z</time></trkpt>
<trkpt lat="46.653492003679276" lon="7.141014793887734"><ele></ele><time>2014-10-30T4:40:41Z</time></trkpt>
<trkpt lat="46.65349678136408" lon="7.141005573794246"><ele></ele><time>2014-10-30T4:40:44Z</time></trkpt>
<trkpt lat="46.65350382216275" lon="7.140994928777218"><ele></ele><time>2014-10-30T4:40:47Z</time></trkpt>
<trkpt lat="46.653505163267255" lon="7.140979086980224"><ele></ele><time>2014-10-30T4:40:50Z</time></trkpt>
<trkpt lat="46.65350331924856" lon="7.140945140272379"><ele></ele><time>2014-10-30T4:40:53Z</time></trkpt>
<trkpt lat="46.65349862538278" lon="7.140937931835651"><ele></ele><time>2014-10-30T4:40:56Z</time></trkpt>
<trkpt lat="46.653492506593466" lon="7.14092762209475"><ele></ele><time>2014-10-30T4:40:59Z</time></trkpt>
<trkpt lat="46.65348278358579" lon="7.140909601002932"><ele></ele><time>2014-10-30T4:41:2Z</time></trkpt>
<trkpt lat="46.65348395705223" lon="7.140887388959527"><ele></ele><time>2014-10-30T4:41:5Z</time></trkpt>
<trkpt lat="46.65349015966058" lon="7.140865931287408"><ele></ele><time>2014-10-30T4:41:8Z</time></trkpt>
<trkpt lat="46.65349611081183" lon="7.140830894932151"><ele></ele><time>2014-10-30T4:41:11Z</time></trkpt>
<trkpt lat="46.65350331924856" lon="7.140840785577893"><ele></ele><time>2014-10-30T4:41:14Z</time></trkpt>
<trkpt lat="46.65349988266826" lon="7.140819747000933"><ele></ele><time>2014-10-30T4:41:17Z</time></trkpt>
<trkpt lat="46.65350927039981" lon="7.140804911032319"><ele></ele><time>2014-10-30T4:41:20Z</time></trkpt>
<trkpt lat="46.65350843220949" lon="7.140805246308446"><ele></ele><time>2014-10-30T4:41:23Z</time></trkpt>
<trkpt lat="46.65350801311433" lon="7.140786470845342"><ele></ele><time>2014-10-30T4:41:26Z</time></trkpt>
<trkpt lat="46.65350013412535" lon="7.1407712157815695"><ele></ele><time>2014-10-30T4:41:29Z</time></trkpt>
<trkpt lat="46.65349041111767" lon="7.140740705654025"><ele></ele><time>2014-10-30T4:41:32Z</time></trkpt>
<trkpt lat="46.65348035283387" lon="7.140738274902105"><ele></ele><time>2014-10-30T4:41:35Z</time></trkpt>
<trkpt lat="46.65348974056542" lon="7.1407391130924225"><ele></ele><time>2014-10-30T4:41:38Z</time></trkpt>
<trkpt lat="46.65350239723921" lon="7.140739448368549"><ele></ele><time>2014-10-30T4:41:41Z</time></trkpt>
<trkpt lat="46.65351036004722" lon="7.140723187476397"><ele></ele><time>2014-10-30T4:41:44Z</time></trkpt>
<trkpt lat="46.6535528562963" lon="7.140711452811956"><ele></ele><time>2014-10-30T4:41:47Z</time></trkpt>
<trkpt lat="46.65356392040849" lon="7.140705166384578"><ele></ele><time>2014-10-30T4:41:50Z</time></trkpt>
<trkpt lat="46.65357833728194" lon="7.140704831108451"><ele></ele><time>2014-10-30T4:41:53Z</time></trkpt>
<trkpt lat="46.65359744802117" lon="7.140703490003943"><ele></ele><time>2014-10-30T4:41:56Z</time></trkpt>
<trkpt lat="46.65361102670431" lon="7.140693347901106"><ele></ele><time>2014-10-30T4:41:59Z</time></trkpt>
<trkpt lat="46.653653774410486" lon="7.140664849430323"><ele></ele><time>2014-10-30T4:42:2Z</time></trkpt>
<trkpt lat="46.65366366505623" lon="7.140663843601942"><ele></ele><time>2014-10-30T4:42:5Z</time></trkpt>
<trkpt lat="46.65367187932134" lon="7.140660658478737"><ele></ele><time>2014-10-30T4:42:8Z</time></trkpt>
<trkpt lat="46.65368042886257" lon="7.140655713155866"><ele></ele><time>2014-10-30T4:42:11Z</time></trkpt>
<trkpt lat="46.65369057096541" lon="7.140632830560207"><ele></ele><time>2014-10-30T4:42:14Z</time></trkpt>
<trkpt lat="46.65370339527726" lon="7.140615228563547"><ele></ele><time>2014-10-30T4:42:17Z</time></trkpt>
<trkpt lat="46.653731893748045" lon="7.140611121430993"><ele></ele><time>2014-10-30T4:42:20Z</time></trkpt>
<trkpt lat="46.65374438278377" lon="7.14061145670712"><ele></ele><time>2014-10-30T4:42:23Z</time></trkpt>
<trkpt lat="46.65375519543886" lon="7.140609193593264"><ele></ele><time>2014-10-30T4:42:26Z</time></trkpt>
<trkpt lat="46.65376500226557" lon="7.140600560232997"><ele></ele><time>2014-10-30T4:42:29Z</time></trkpt>
<trkpt lat="46.65376734919846" lon="7.140589077025652"><ele></ele><time>2014-10-30T4:42:32Z</time></trkpt>
<trkpt lat="46.65377086959779" lon="7.14058362878859"><ele></ele><time>2014-10-30T4:42:35Z</time></trkpt>
<trkpt lat="46.65380381047726" lon="7.140552951022983"><ele></ele><time>2014-10-30T4:42:38Z</time></trkpt>
<trkpt lat="46.65380431339145" lon="7.140558483079076"><ele></ele><time>2014-10-30T4:42:41Z</time></trkpt>
<trkpt lat="46.6538065765053" lon="7.140570385381579"><ele></ele><time>2014-10-30T4:42:44Z</time></trkpt>
<trkpt lat="46.65380934253335" lon="7.140565272420645"><ele></ele><time>2014-10-30T4:42:47Z</time></trkpt>
<trkpt lat="46.653811605647206" lon="7.140557561069727"><ele></ele><time>2014-10-30T4:42:50Z</time></trkpt>
<trkpt lat="46.653827698901296" lon="7.140525123104453"><ele></ele><time>2014-10-30T4:42:53Z</time></trkpt>
<trkpt lat="46.65383188985288" lon="7.140525374561548"><ele></ele><time>2014-10-30T4:42:56Z</time></trkpt>
<trkpt lat="46.6538414452225" lon="7.140512382611632"><ele></ele><time>2014-10-30T4:42:59Z</time></trkpt>
<trkpt lat="46.653851084411144" lon="7.140503078699112"><ele></ele><time>2014-10-30T4:43:2Z</time></trkpt>
<trkpt lat="46.65385879576206" lon="7.140492685139179"><ele></ele><time>2014-10-30T4:43:5Z</time></trkpt>
<trkpt lat="46.653869189321995" lon="7.14049612171948"><ele></ele><time>2014-10-30T4:43:8Z</time></trkpt>
<trkpt lat="46.653881426900625" lon="7.140488410368562"><ele></ele><time>2014-10-30T4:43:11Z</time></trkpt>
<trkpt lat="46.65388855151832" lon="7.140474747866392"><ele></ele><time>2014-10-30T4:43:14Z</time></trkpt>
<trkpt lat="46.653893161565065" lon="7.140462594106793"><ele></ele><time>2014-10-30T4:43:17Z</time></trkpt>
<trkpt lat="46.653902465477586" lon="7.1404616720974445"><ele></ele><time>2014-10-30T4:43:20Z</time></trkpt>
<trkpt lat="46.65391478687525" lon="7.140453038737178"><ele></ele><time>2014-10-30T4:43:23Z</time></trkpt>
<trkpt lat="46.65391193702817" lon="7.140455050393939"><ele></ele><time>2014-10-30T4:43:26Z</time></trkpt>
<trkpt lat="46.653939513489604" lon="7.140448931604624"><ele></ele><time>2014-10-30T4:43:29Z</time></trkpt>
<trkpt lat="46.65394856594503" lon="7.140432251617312"><ele></ele><time>2014-10-30T4:43:32Z</time></trkpt>
<trkpt lat="46.65396482683718" lon="7.140431413426995"><ele></ele><time>2014-10-30T4:43:35Z</time></trkpt>
<trkpt lat="46.653971280902624" lon="7.140434179455042"><ele></ele><time>2014-10-30T4:43:38Z</time></trkpt>
<trkpt lat="46.65397404693067" lon="7.140432838350534"><ele></ele><time>2014-10-30T4:43:41Z</time></trkpt>
<trkpt lat="46.65397044271231" lon="7.1404311619699"><ele></ele><time>2014-10-30T4:43:44Z</time></trkpt>
<trkpt lat="46.65399299003184" lon="7.140405094251037"><ele></ele><time>2014-10-30T4:43:47Z</time></trkpt>
<trkpt lat="46.65401461534202" lon="7.140402412042022"><ele></ele><time>2014-10-30T4:43:50Z</time></trkpt>
<trkpt lat="46.654016710817814" lon="7.140407441183925"><ele></ele><time>2014-10-30T4:43:53Z</time></trkpt>
<trkpt lat="46.654025511816144" lon="7.140405848622322"><ele></ele><time>2014-10-30T4:43:56Z</time></trkpt>
<trkpt lat="46.654046634212136" lon="7.140409620478749"><ele></ele><time>2014-10-30T4:43:59Z</time></trkpt>
<trkpt lat="46.65405501611531" lon="7.140395790338516"><ele></ele><time>2014-10-30T4:44:2Z</time></trkpt>
<trkpt lat="46.65407136082649" lon="7.140382546931505"><ele></ele><time>2014-10-30T4:44:5Z</time></trkpt>
<trkpt lat="46.65407806634903" lon="7.140378020703793"><ele></ele><time>2014-10-30T4:44:8Z</time></trkpt>
<trkpt lat="46.654098853468895" lon="7.140382127836347"><ele></ele><time>2014-10-30T4:44:11Z</time></trkpt>
<trkpt lat="46.654117377474904" lon="7.14038179256022"><ele></ele><time>2014-10-30T4:44:14Z</time></trkpt>
<trkpt lat="46.654129195958376" lon="7.140375422313809"><ele></ele><time>2014-10-30T4:44:17Z</time></trkpt>
<trkpt lat="46.65413372218609" lon="7.140371650457382"><ele></ele><time>2014-10-30T4:44:20Z</time></trkpt>
<trkpt lat="46.654155598953366" lon="7.140339128673077"><ele></ele><time>2014-10-30T4:44:23Z</time></trkpt>
<trkpt lat="46.65415182709694" lon="7.1403273940086365"><ele></ele><time>2014-10-30T4:44:26Z</time></trkpt>
<trkpt lat="46.654161885380745" lon="7.140323286876082"><ele></ele><time>2014-10-30T4:44:29Z</time></trkpt>
<trkpt lat="46.65416859090328" lon="7.140314569696784"><ele></ele><time>2014-10-30T4:44:32Z</time></trkpt>
<trkpt lat="46.654171105474234" lon="7.140313647687435"><ele></ele><time>2014-10-30T4:44:35Z</time></trkpt>
<trkpt lat="46.654171105474234" lon="7.140313647687435"><ele></ele><time>2014-10-30T4:44:38Z</time></trkpt>
<trkpt lat="46.65418359450996" lon="7.140306523069739"><ele></ele><time>2014-10-30T4:44:41Z</time></trkpt>
<trkpt lat="46.654193149879575" lon="7.14029872789979"><ele></ele><time>2014-10-30T4:44:44Z</time></trkpt>
<trkpt lat="46.65420454926789" lon="7.140295207500458"><ele></ele><time>2014-10-30T4:44:47Z</time></trkpt>
<trkpt lat="46.65421837940812" lon="7.1402958780527115"><ele></ele><time>2014-10-30T4:44:50Z</time></trkpt>
<trkpt lat="46.65422558784485" lon="7.140281042084098"><ele></ele><time>2014-10-30T4:44:53Z</time></trkpt>
<trkpt lat="46.654237573966384" lon="7.140274336561561"><ele></ele><time>2014-10-30T4:44:56Z</time></trkpt>
<trkpt lat="46.654252242296934" lon="7.1402643620967865"><ele></ele><time>2014-10-30T4:44:59Z</time></trkpt>
<trkpt lat="46.654262552037835" lon="7.140265284106135"><ele></ele><time>2014-10-30T4:45:2Z</time></trkpt>
<trkpt lat="46.65427319705486" lon="7.140252962708473"><ele></ele><time>2014-10-30T4:45:5Z</time></trkpt>
<trkpt lat="46.65427680127323" lon="7.140237791463733"><ele></ele><time>2014-10-30T4:45:8Z</time></trkpt>
<trkpt lat="46.65428585372865" lon="7.140224045142531"><ele></ele><time>2014-10-30T4:45:11Z</time></trkpt>
<trkpt lat="46.6542970854789" lon="7.140199234709144"><ele></ele><time>2014-10-30T4:45:14Z</time></trkpt>
<trkpt lat="46.654303623363376" lon="7.140206778421998"><ele></ele><time>2014-10-30T4:45:17Z</time></trkpt>
<trkpt lat="46.65431166999042" lon="7.1402201894670725"><ele></ele><time>2014-10-30T4:45:20Z</time></trkpt>
<trkpt lat="46.65431066416204" lon="7.140194373205304"><ele></ele><time>2014-10-30T4:45:23Z</time></trkpt>
<trkpt lat="46.65431058034301" lon="7.140180207788944"><ele></ele><time>2014-10-30T4:45:26Z</time></trkpt>
<trkpt lat="46.65431175380945" lon="7.140169143676758"><ele></ele><time>2014-10-30T4:45:29Z</time></trkpt>
<trkpt lat="46.654317704960704" lon="7.1401692274957895"><ele></ele><time>2014-10-30T4:45:32Z</time></trkpt>
<trkpt lat="46.65432935580611" lon="7.140171490609646"><ele></ele><time>2014-10-30T4:45:35Z</time></trkpt>
<trkpt lat="46.65433798916638" lon="7.140153469517827"><ele></ele><time>2014-10-30T4:45:38Z</time></trkpt>
<trkpt lat="46.65433606132865" lon="7.1401312574744225"><ele></ele><time>2014-10-30T4:45:41Z</time></trkpt>
<trkpt lat="46.65434251539409" lon="7.140127317979932"><ele></ele><time>2014-10-30T4:45:44Z</time></trkpt>
<trkpt lat="46.654346035793424" lon="7.140119438990951"><ele></ele><time>2014-10-30T4:45:47Z</time></trkpt>
<trkpt lat="46.654352489858866" lon="7.140107955783606"><ele></ele><time>2014-10-30T4:45:50Z</time></trkpt>
<trkpt lat="46.654350981116295" lon="7.140096640214324"><ele></ele><time>2014-10-30T4:45:53Z</time></trkpt>
<trkpt lat="46.65435475297272" lon="7.140078032389283"><ele></ele><time>2014-10-30T4:45:56Z</time></trkpt>
<trkpt lat="46.65436254814267" lon="7.140088761225343"><ele></ele><time>2014-10-30T4:45:59Z</time></trkpt>
<trkpt lat="46.654364224523306" lon="7.1400826424360275"><ele></ele><time>2014-10-30T4:46:2Z</time></trkpt>
<trkpt lat="46.65436388924718" lon="7.1400735061615705"><ele></ele><time>2014-10-30T4:46:5Z</time></trkpt>
<trkpt lat="46.654359363019466" lon="7.140060011297464"><ele></ele><time>2014-10-30T4:46:8Z</time></trkpt>
<trkpt lat="46.654356429353356" lon="7.140013491734862"><ele></ele><time>2014-10-30T4:46:11Z</time></trkpt>
<trkpt lat="46.65436699055135" lon="7.140010306611657"><ele></ele><time>2014-10-30T4:46:14Z</time></trkpt>
<trkpt lat="46.65436212904751" lon="7.139961272478104"><ele></ele><time>2014-10-30T4:46:17Z</time></trkpt>
<trkpt lat="46.65436145849526" lon="7.139930594712496"><ele></ele><time>2014-10-30T4:46:20Z</time></trkpt>
<trkpt lat="46.65436774492264" lon="7.1398985758423805"><ele></ele><time>2014-10-30T4:46:23Z</time></trkpt>
<trkpt lat="46.65437260642648" lon="7.139873346313834"><ele></ele><time>2014-10-30T4:46:26Z</time></trkpt>
<trkpt lat="46.65437562391162" lon="7.139874938875437"><ele></ele><time>2014-10-30T4:46:29Z</time></trkpt>
<trkpt lat="46.654382245615125" lon="7.13984627276659"><ele></ele><time>2014-10-30T4:46:32Z</time></trkpt>
<trkpt lat="46.65438635274768" lon="7.139848535880446"><ele></ele><time>2014-10-30T4:46:35Z</time></trkpt>
<trkpt lat="46.654388615861535" lon="7.139826659113169"><ele></ele><time>2014-10-30T4:46:38Z</time></trkpt>
<trkpt lat="46.65438844822347" lon="7.139815092086792"><ele></ele><time>2014-10-30T4:46:41Z</time></trkpt>
<trkpt lat="46.65438635274768" lon="7.139781899750233"><ele></ele><time>2014-10-30T4:46:44Z</time></trkpt>
<trkpt lat="46.654396411031485" lon="7.139775529503822"><ele></ele><time>2014-10-30T4:46:47Z</time></trkpt>
<trkpt lat="46.654397919774055" lon="7.139774858951569"><ele></ele><time>2014-10-30T4:46:50Z</time></trkpt>
<trkpt lat="46.65440152399242" lon="7.139770081266761"><ele></ele><time>2014-10-30T4:46:53Z</time></trkpt>
<trkpt lat="46.65440948680043" lon="7.13976027444005"><ele></ele><time>2014-10-30T4:46:56Z</time></trkpt>
<trkpt lat="46.65442105382681" lon="7.139768740162253"><ele></ele><time>2014-10-30T4:46:59Z</time></trkpt>
<trkpt lat="46.654432620853186" lon="7.139762537553906"><ele></ele><time>2014-10-30T4:47:2Z</time></trkpt>
<trkpt lat="46.654432620853186" lon="7.139762537553906"><ele></ele><time>2014-10-30T4:47:5Z</time></trkpt>
<trkpt lat="46.65443572215736" lon="7.13975097052753"><ele></ele><time>2014-10-30T4:47:8Z</time></trkpt>
<trkpt lat="46.65443287231028" lon="7.139728842303157"><ele></ele><time>2014-10-30T4:47:11Z</time></trkpt>
<trkpt lat="46.65443245321512" lon="7.139717023819685"><ele></ele><time>2014-10-30T4:47:14Z</time></trkpt>
<trkpt lat="46.654439494013786" lon="7.139695482328534"><ele></ele><time>2014-10-30T4:47:17Z</time></trkpt>
<trkpt lat="46.654444355517626" lon="7.139675701037049"><ele></ele><time>2014-10-30T4:47:20Z</time></trkpt>
<trkpt lat="46.65444016456604" lon="7.139658601954579"><ele></ele><time>2014-10-30T4:47:23Z</time></trkpt>
<trkpt lat="46.654434045776725" lon="7.139651980251074"><ele></ele><time>2014-10-30T4:47:26Z</time></trkpt>
<trkpt lat="46.65443480014801" lon="7.139647286385298"><ele></ele><time>2014-10-30T4:47:29Z</time></trkpt>
<trkpt lat="46.65443438105285" lon="7.139629013836384"><ele></ele><time>2014-10-30T4:47:32Z</time></trkpt>
<trkpt lat="46.654409067705274" lon="7.139596156775951"><ele></ele><time>2014-10-30T4:47:35Z</time></trkpt>
<trkpt lat="46.65439465083182" lon="7.139549804851413"><ele></ele><time>2014-10-30T4:47:38Z</time></trkpt>
<trkpt lat="46.65438635274768" lon="7.1395395789295435"><ele></ele><time>2014-10-30T4:47:41Z</time></trkpt>
<trkpt lat="46.65438584983349" lon="7.139529604464769"><ele></ele><time>2014-10-30T4:47:44Z</time></trkpt>
<trkpt lat="46.65437755174935" lon="7.139531280845404"><ele></ele><time>2014-10-30T4:47:47Z</time></trkpt>
<trkpt lat="46.65437310934067" lon="7.139512002468109"><ele></ele><time>2014-10-30T4:47:50Z</time></trkpt>
<trkpt lat="46.65434737689793" lon="7.139463219791651"><ele></ele><time>2014-10-30T4:47:53Z</time></trkpt>
<trkpt lat="46.654322650283575" lon="7.139400774613023"><ele></ele><time>2014-10-30T4:47:56Z</time></trkpt>
<trkpt lat="46.65430228225887" lon="7.13938501663506"><ele></ele><time>2014-10-30T4:47:59Z</time></trkpt>
<trkpt lat="46.65429306216538" lon="7.139381160959601"><ele></ele><time>2014-10-30T4:48:2Z</time></trkpt>
<trkpt lat="46.65429054759443" lon="7.139374203979969"><ele></ele><time>2014-10-30T4:48:5Z</time></trkpt>
<trkpt lat="46.65429054759443" lon="7.139374203979969"><ele></ele><time>2014-10-30T4:48:8Z</time></trkpt>
<trkpt lat="46.654278226196766" lon="7.139360625296831"><ele></ele><time>2014-10-30T4:48:11Z</time></trkpt>
<trkpt lat="46.65427411906421" lon="7.139360876753926"><ele></ele><time>2014-10-30T4:48:14Z</time></trkpt>
<trkpt lat="46.65426422841847" lon="7.139357607811689"><ele></ele><time>2014-10-30T4:48:17Z</time></trkpt>
<trkpt lat="46.65426422841847" lon="7.139354422688484"><ele></ele><time>2014-10-30T4:48:20Z</time></trkpt>
<trkpt lat="46.65426422841847" lon="7.139354422688484"><ele></ele><time>2014-10-30T4:48:23Z</time></trkpt>
<trkpt lat="46.65425701998174" lon="7.139334389939904"><ele></ele><time>2014-10-30T4:48:26Z</time></trkpt>
<trkpt lat="46.65425090119243" lon="7.1393245831131935"><ele></ele><time>2014-10-30T4:48:29Z</time></trkpt>
<trkpt lat="46.65424193255603" lon="7.139318631961942"><ele></ele><time>2014-10-30T4:48:32Z</time></trkpt>
<trkpt lat="46.65423137135804" lon="7.139317961409688"><ele></ele><time>2014-10-30T4:48:35Z</time></trkpt>
<trkpt lat="46.65422458201647" lon="7.139308489859104"><ele></ele><time>2014-10-30T4:48:38Z</time></trkpt>
<trkpt lat="46.654217541217804" lon="7.139297509565949"><ele></ele><time>2014-10-30T4:48:41Z</time></trkpt>
<trkpt lat="46.65419080294669" lon="7.139304466545582"><ele></ele><time>2014-10-30T4:48:44Z</time></trkpt>
<trkpt lat="46.65417479351163" lon="7.139294324442744"><ele></ele><time>2014-10-30T4:48:47Z</time></trkpt>
<trkpt lat="46.654162891209126" lon="7.1392889600247145"><ele></ele><time>2014-10-30T4:48:50Z</time></trkpt>
<trkpt lat="46.65416205301881" lon="7.139289630576968"><ele></ele><time>2014-10-30T4:48:53Z</time></trkpt>
<trkpt lat="46.65415819734335" lon="7.13928091339767"><ele></ele><time>2014-10-30T4:48:56Z</time></trkpt>
<trkpt lat="46.65414252318442" lon="7.139271022751927"><ele></ele><time>2014-10-30T4:48:59Z</time></trkpt>
<trkpt lat="46.65411863476038" lon="7.139222826808691"><ele></ele><time>2014-10-30T4:49:2Z</time></trkpt>
<trkpt lat="46.65411804802716" lon="7.139200866222382"><ele></ele><time>2014-10-30T4:49:5Z</time></trkpt>
<trkpt lat="46.65411310270429" lon="7.139169182628393"><ele></ele><time>2014-10-30T4:49:8Z</time></trkpt>
<trkpt lat="46.65411016903818" lon="7.139135906472802"><ele></ele><time>2014-10-30T4:49:11Z</time></trkpt>
<trkpt lat="46.65410840883851" lon="7.139111431315541"><ele></ele><time>2014-10-30T4:49:14Z</time></trkpt>
<trkpt lat="46.65410120040178" lon="7.139099696651101"><ele></ele><time>2014-10-30T4:49:17Z</time></trkpt>
<trkpt lat="46.65409726090729" lon="7.139076981693506"><ele></ele><time>2014-10-30T4:49:20Z</time></trkpt>
<trkpt lat="46.654078820720315" lon="7.139031970873475"><ele></ele><time>2014-10-30T4:49:23Z</time></trkpt>
<trkpt lat="46.65406993590295" lon="7.139012608677149"><ele></ele><time>2014-10-30T4:49:26Z</time></trkpt>
<trkpt lat="46.65406993590295" lon="7.139012608677149"><ele></ele><time>2014-10-30T4:49:29Z</time></trkpt>
<trkpt lat="46.654070522636175" lon="7.13900288566947"><ele></ele><time>2014-10-30T4:49:32Z</time></trkpt>
<trkpt lat="46.654072450473905" lon="7.13899701833725"><ele></ele><time>2014-10-30T4:49:35Z</time></trkpt>
<trkpt lat="46.65407337248325" lon="7.13897162117064"><ele></ele><time>2014-10-30T4:49:38Z</time></trkpt>
<trkpt lat="46.65406750515103" lon="7.138965837657452"><ele></ele><time>2014-10-30T4:49:41Z</time></trkpt>
<trkpt lat="46.65408049710095" lon="7.138921916484833"><ele></ele><time>2014-10-30T4:49:44Z</time></trkpt>
<trkpt lat="46.65407999418676" lon="7.138920910656452"><ele></ele><time>2014-10-30T4:49:47Z</time></trkpt>
<trkpt lat="46.654093991965055" lon="7.1388945914804935"><ele></ele><time>2014-10-30T4:49:50Z</time></trkpt>
<trkpt lat="46.65409876964986" lon="7.138898782432079"><ele></ele><time>2014-10-30T4:49:53Z</time></trkpt>
<trkpt lat="46.6541001945734" lon="7.138909427449107"><ele></ele><time>2014-10-30T4:49:56Z</time></trkpt>
<trkpt lat="46.6541004460305" lon="7.138905068859458"><ele></ele><time>2014-10-30T4:49:59Z</time></trkpt>
<trkpt lat="46.65411192923784" lon="7.138897608965635"><ele></ele><time>2014-10-30T4:50:2Z</time></trkpt>
<trkpt lat="46.65411871857941" lon="7.138902302831411"><ele></ele><time>2014-10-30T4:50:5Z</time></trkpt>
<trkpt lat="46.65412349626422" lon="7.138885958120227"><ele></ele><time>2014-10-30T4:50:8Z</time></trkpt>
<trkpt lat="46.65413422510028" lon="7.1388554479926825"><ele></ele><time>2014-10-30T4:50:11Z</time></trkpt>
<trkpt lat="46.65413908660412" lon="7.13884212076664"><ele></ele><time>2014-10-30T4:50:14Z</time></trkpt>
<trkpt lat="46.65413908660412" lon="7.13884212076664"><ele></ele><time>2014-10-30T4:50:17Z</time></trkpt>
<trkpt lat="46.65413422510028" lon="7.138833235949278"><ele></ele><time>2014-10-30T4:50:20Z</time></trkpt>
<trkpt lat="46.65413615293801" lon="7.1388389356434345"><ele></ele><time>2014-10-30T4:50:23Z</time></trkpt>
<trkpt lat="46.654145792126656" lon="7.138847736641765"><ele></ele><time>2014-10-30T4:50:26Z</time></trkpt>
<trkpt lat="46.65414227172732" lon="7.13884555734694"><ele></ele><time>2014-10-30T4:50:29Z</time></trkpt>
<trkpt lat="46.654163310304284" lon="7.13881965726614"><ele></ele><time>2014-10-30T4:50:32Z</time></trkpt>
<trkpt lat="46.65416356176138" lon="7.138764252886176"><ele></ele><time>2014-10-30T4:50:35Z</time></trkpt>
<trkpt lat="46.65419482626021" lon="7.138725696131587"><ele></ele><time>2014-10-30T4:50:38Z</time></trkpt>
<trkpt lat="46.6541987657547" lon="7.138729467988014"><ele></ele><time>2014-10-30T4:50:41Z</time></trkpt>
<trkpt lat="46.65419960394502" lon="7.13871899060905"><ele></ele><time>2014-10-30T4:50:44Z</time></trkpt>
<trkpt lat="46.65419960394502" lon="7.13871899060905"><ele></ele><time>2014-10-30T4:50:47Z</time></trkpt>
<trkpt lat="46.654211170971394" lon="7.138739777728915"><ele></ele><time>2014-10-30T4:50:50Z</time></trkpt>
<trkpt lat="46.654205806553364" lon="7.138710021972656"><ele></ele><time>2014-10-30T4:50:53Z</time></trkpt>
<trkpt lat="46.65420597419143" lon="7.138701640069485"><ele></ele><time>2014-10-30T4:50:56Z</time></trkpt>
<trkpt lat="46.654207399114966" lon="7.138695102185011"><ele></ele><time>2014-10-30T4:50:59Z</time></trkpt>
<trkpt lat="46.65421100333333" lon="7.138679847121239"><ele></ele><time>2014-10-30T4:51:2Z</time></trkpt>
<trkpt lat="46.65420714765787" lon="7.138657299801707"><ele></ele><time>2014-10-30T4:51:5Z</time></trkpt>
<trkpt lat="46.65420857258141" lon="7.138656796887517"><ele></ele><time>2014-10-30T4:51:8Z</time></trkpt>
<trkpt lat="46.654209746047854" lon="7.138644810765982"><ele></ele><time>2014-10-30T4:51:11Z</time></trkpt>
<trkpt lat="46.65421502664685" lon="7.13865889236331"><ele></ele><time>2014-10-30T4:51:14Z</time></trkpt>
<trkpt lat="46.65421402081847" lon="7.13863885961473"><ele></ele><time>2014-10-30T4:51:17Z</time></trkpt>
<trkpt lat="46.65421133860946" lon="7.138590579852462"><ele></ele><time>2014-10-30T4:51:20Z</time></trkpt>
<trkpt lat="46.65421494282782" lon="7.138568200170994"><ele></ele><time>2014-10-30T4:51:23Z</time></trkpt>
<trkpt lat="46.65421678684652" lon="7.138560153543949"><ele></ele><time>2014-10-30T4:51:26Z</time></trkpt>
<trkpt lat="46.65421527810395" lon="7.1385597344487906"><ele></ele><time>2014-10-30T4:51:29Z</time></trkpt>
<trkpt lat="46.6542143560946" lon="7.138559566810727"><ele></ele><time>2014-10-30T4:51:32Z</time></trkpt>
<trkpt lat="46.65421452373266" lon="7.138529811054468"><ele></ele><time>2014-10-30T4:51:35Z</time></trkpt>
<trkpt lat="46.654214104637504" lon="7.1385355945676565"><ele></ele><time>2014-10-30T4:51:38Z</time></trkpt>
<trkpt lat="46.65422231890261" lon="7.138500977307558"><ele></ele><time>2014-10-30T4:51:41Z</time></trkpt>
<trkpt lat="46.654201531782746" lon="7.138439202681184"><ele></ele><time>2014-10-30T4:51:44Z</time></trkpt>
<trkpt lat="46.65418669581413" lon="7.138425288721919"><ele></ele><time>2014-10-30T4:51:47Z</time></trkpt>
<trkpt lat="46.65419180877507" lon="7.138421516865492"><ele></ele><time>2014-10-30T4:51:50Z</time></trkpt>
<trkpt lat="46.65419197641313" lon="7.138398215174675"><ele></ele><time>2014-10-30T4:51:53Z</time></trkpt>
<trkpt lat="46.6541900485754" lon="7.138392683118582"><ele></ele><time>2014-10-30T4:51:56Z</time></trkpt>
<trkpt lat="46.654183845967054" lon="7.138368710875511"><ele></ele><time>2014-10-30T4:51:59Z</time></trkpt>
<trkpt lat="46.65418258868158" lon="7.138311797752976"><ele></ele><time>2014-10-30T4:52:2Z</time></trkpt>
<trkpt lat="46.65418325923383" lon="7.138291848823428"><ele></ele><time>2014-10-30T4:52:5Z</time></trkpt>
<trkpt lat="46.65418812073767" lon="7.138251196593046"><ele></ele><time>2014-10-30T4:52:8Z</time></trkpt>
<trkpt lat="46.65418812073767" lon="7.138202413916588"><ele></ele><time>2014-10-30T4:52:11Z</time></trkpt>
<trkpt lat="46.65419155731797" lon="7.138214064761996"><ele></ele><time>2014-10-30T4:52:14Z</time></trkpt>
<trkpt lat="46.65420362725854" lon="7.138202916830778"><ele></ele><time>2014-10-30T4:52:17Z</time></trkpt>
<trkpt lat="46.65421100333333" lon="7.13818246498704"><ele></ele><time>2014-10-30T4:52:20Z</time></trkpt>
<trkpt lat="46.654215194284916" lon="7.138164360076189"><ele></ele><time>2014-10-30T4:52:23Z</time></trkpt>
<trkpt lat="46.65422173216939" lon="7.13813946582377"><ele></ele><time>2014-10-30T4:52:26Z</time></trkpt>
<trkpt lat="46.6542265098542" lon="7.138134269043803"><ele></ele><time>2014-10-30T4:52:29Z</time></trkpt>
<trkpt lat="46.65422609075904" lon="7.138131586834788"><ele></ele><time>2014-10-30T4:52:32Z</time></trkpt>
<trkpt lat="46.65422474965453" lon="7.138131922110915"><ele></ele><time>2014-10-30T4:52:35Z</time></trkpt>
<trkpt lat="46.65422676131129" lon="7.138134855777025"><ele></ele><time>2014-10-30T4:52:38Z</time></trkpt>
<trkpt lat="46.65422173216939" lon="7.13813946582377"><ele></ele><time>2014-10-30T4:52:41Z</time></trkpt>
<trkpt lat="46.654271353036165" lon="7.138083726167679"><ele></ele><time>2014-10-30T4:52:44Z</time></trkpt>
<trkpt lat="46.65429063141346" lon="7.138031590729952"><ele></ele><time>2014-10-30T4:52:47Z</time></trkpt>
<trkpt lat="46.654318207874894" lon="7.137986579909921"><ele></ele><time>2014-10-30T4:52:50Z</time></trkpt>
<trkpt lat="46.65434536524117" lon="7.1379398088902235"><ele></ele><time>2014-10-30T4:52:53Z</time></trkpt>
<trkpt lat="46.65436087176204" lon="7.137904269620776"><ele></ele><time>2014-10-30T4:52:56Z</time></trkpt>
<trkpt lat="46.65437411516905" lon="7.137885577976704"><ele></ele><time>2014-10-30T4:52:59Z</time></trkpt>
<trkpt lat="46.65437277406454" lon="7.137885829433799"><ele></ele><time>2014-10-30T4:53:2Z</time></trkpt>
<trkpt lat="46.65437621064484" lon="7.137876944616437"><ele></ele><time>2014-10-30T4:53:5Z</time></trkpt>
<trkpt lat="46.65438442490995" lon="7.137867724522948"><ele></ele><time>2014-10-30T4:53:8Z</time></trkpt>
<trkpt lat="46.65437947958708" lon="7.137858169153333"><ele></ele><time>2014-10-30T4:53:11Z</time></trkpt>
<trkpt lat="46.654387693852186" lon="7.1378382202237844"><ele></ele><time>2014-10-30T4:53:14Z</time></trkpt>
<trkpt lat="46.65439557284117" lon="7.137835286557674"><ele></ele><time>2014-10-30T4:53:17Z</time></trkpt>
<trkpt lat="46.65442449040711" lon="7.137834448367357"><ele></ele><time>2014-10-30T4:53:20Z</time></trkpt>
<trkpt lat="46.65443706326187" lon="7.137800753116608"><ele></ele><time>2014-10-30T4:53:23Z</time></trkpt>
<trkpt lat="46.65443614125252" lon="7.137783151119947"><ele></ele><time>2014-10-30T4:53:26Z</time></trkpt>
<trkpt lat="46.65443538688123" lon="7.137766890227795"><ele></ele><time>2014-10-30T4:53:29Z</time></trkpt>
<trkpt lat="46.65443764999509" lon="7.137753563001752"><ele></ele><time>2014-10-30T4:53:32Z</time></trkpt>
<trkpt lat="46.65443614125252" lon="7.137756161391735"><ele></ele><time>2014-10-30T4:53:35Z</time></trkpt>
<trkpt lat="46.65444368496537" lon="7.137728333473206"><ele></ele><time>2014-10-30T4:53:38Z</time></trkpt>
<trkpt lat="46.65444200858474" lon="7.137699751183391"><ele></ele><time>2014-10-30T4:53:41Z</time></trkpt>
<trkpt lat="46.654433542862535" lon="7.137661026790738"><ele></ele><time>2014-10-30T4:53:44Z</time></trkpt>
<trkpt lat="46.65443169884384" lon="7.137644682079554"><ele></ele><time>2014-10-30T4:53:47Z</time></trkpt>
<trkpt lat="46.6544300224632" lon="7.137626325711608"><ele></ele><time>2014-10-30T4:53:50Z</time></trkpt>
<trkpt lat="46.65442884899676" lon="7.137618698179722"><ele></ele><time>2014-10-30T4:53:53Z</time></trkpt>
<trkpt lat="46.65442884899676" lon="7.137618698179722"><ele></ele><time>2014-10-30T4:53:56Z</time></trkpt>
<trkpt lat="46.654437985271215" lon="7.137581231072545"><ele></ele><time>2014-10-30T4:53:59Z</time></trkpt>
<trkpt lat="46.65444896556437" lon="7.1375625394284725"><ele></ele><time>2014-10-30T4:54:2Z</time></trkpt>
<trkpt lat="46.65445667691529" lon="7.137491796165705"><ele></ele><time>2014-10-30T4:54:5Z</time></trkpt>
<trkpt lat="46.65445927530527" lon="7.137467237189412"><ele></ele><time>2014-10-30T4:54:8Z</time></trkpt>
<trkpt lat="46.65445424616337" lon="7.137456256896257"><ele></ele><time>2014-10-30T4:54:11Z</time></trkpt>
<trkpt lat="46.65444846265018" lon="7.1374471206218"><ele></ele><time>2014-10-30T4:54:14Z</time></trkpt>
<trkpt lat="46.65445189923048" lon="7.13742314837873"><ele></ele><time>2014-10-30T4:54:17Z</time></trkpt>
<trkpt lat="46.65445692837238" lon="7.137399259954691"><ele></ele><time>2014-10-30T4:54:20Z</time></trkpt>
<trkpt lat="46.654466316103935" lon="7.137360451743007"><ele></ele><time>2014-10-30T4:54:23Z</time></trkpt>
<trkpt lat="46.65446505881846" lon="7.137327427044511"><ele></ele><time>2014-10-30T4:54:26Z</time></trkpt>
<trkpt lat="46.65443664416671" lon="7.137262215837836"><ele></ele><time>2014-10-30T4:54:29Z</time></trkpt>
<trkpt lat="46.65442097000778" lon="7.137218462303281"><ele></ele><time>2014-10-30T4:54:32Z</time></trkpt>
<trkpt lat="46.65440311655402" lon="7.137159034609795"><ele></ele><time>2014-10-30T4:54:35Z</time></trkpt>
<trkpt lat="46.65439900942147" lon="7.1371307875961065"><ele></ele><time>2014-10-30T4:54:38Z</time></trkpt>
<trkpt lat="46.654382329434156" lon="7.137109832838178"><ele></ele><time>2014-10-30T4:54:41Z</time></trkpt>
<trkpt lat="46.65436212904751" lon="7.137087369337678"><ele></ele><time>2014-10-30T4:54:44Z</time></trkpt>
<trkpt lat="46.654346119612455" lon="7.137068593874574"><ele></ele><time>2014-10-30T4:54:47Z</time></trkpt>
<trkpt lat="46.65432625450194" lon="7.13704445399344"><ele></ele><time>2014-10-30T4:54:50Z</time></trkpt>
<trkpt lat="46.65430781431496" lon="7.137027522549033"><ele></ele><time>2014-10-30T4:54:53Z</time></trkpt>
<trkpt lat="46.65429004468024" lon="7.137017464265227"><ele></ele><time>2014-10-30T4:54:56Z</time></trkpt>
<trkpt lat="46.654277723282576" lon="7.136992234736681"><ele></ele><time>2014-10-30T4:54:59Z</time></trkpt>
<trkpt lat="46.65427923202515" lon="7.136997347697616"><ele></ele><time>2014-10-30T4:55:2Z</time></trkpt>
<trkpt lat="46.654281159862876" lon="7.136997012421489"><ele></ele><time>2014-10-30T4:55:5Z</time></trkpt>
<trkpt lat="46.65426364168525" lon="7.136982260271907"><ele></ele><time>2014-10-30T4:55:8Z</time></trkpt>
<trkpt lat="46.65422324091196" lon="7.136914366856217"><ele></ele><time>2014-10-30T4:55:11Z</time></trkpt>
<trkpt lat="46.65421502664685" lon="7.136895507574081"><ele></ele><time>2014-10-30T4:55:14Z</time></trkpt>
<trkpt lat="46.65418652817607" lon="7.136812526732683"><ele></ele><time>2014-10-30T4:55:17Z</time></trkpt>
<trkpt lat="46.65418359450996" lon="7.136786291375756"><ele></ele><time>2014-10-30T4:55:20Z</time></trkpt>
<trkpt lat="46.654185773804784" lon="7.136759217828512"><ele></ele><time>2014-10-30T4:55:23Z</time></trkpt>
<trkpt lat="46.654195580631495" lon="7.136736502870917"><ele></ele><time>2014-10-30T4:55:26Z</time></trkpt>
<trkpt lat="46.65419834665954" lon="7.1367075853049755"><ele></ele><time>2014-10-30T4:55:29Z</time></trkpt>
<trkpt lat="46.654186779633164" lon="7.136643212288618"><ele></ele><time>2014-10-30T4:55:32Z</time></trkpt>
<trkpt lat="46.65417345240712" lon="7.136613791808486"><ele></ele><time>2014-10-30T4:55:35Z</time></trkpt>
<trkpt lat="46.65416372939944" lon="7.136576492339373"><ele></ele><time>2014-10-30T4:55:38Z</time></trkpt>
<trkpt lat="46.65415476076305" lon="7.136542880907655"><ele></ele><time>2014-10-30T4:55:41Z</time></trkpt>
<trkpt lat="46.65415090508759" lon="7.136523267254233"><ele></ele><time>2014-10-30T4:55:44Z</time></trkpt>
<trkpt lat="46.654148725792766" lon="7.136507844552398"><ele></ele><time>2014-10-30T4:55:47Z</time></trkpt>
<trkpt lat="46.654140427708626" lon="7.136485045775771"><ele></ele><time>2014-10-30T4:55:50Z</time></trkpt>
<trkpt lat="46.65413523092866" lon="7.136470293626189"><ele></ele><time>2014-10-30T4:55:53Z</time></trkpt>
<trkpt lat="46.65413388982415" lon="7.136462917551398"><ele></ele><time>2014-10-30T4:55:56Z</time></trkpt>
<trkpt lat="46.65413422510028" lon="7.136456295847893"><ele></ele><time>2014-10-30T4:55:59Z</time></trkpt>
<trkpt lat="46.65413422510028" lon="7.136455625295639"><ele></ele><time>2014-10-30T4:56:2Z</time></trkpt>
<trkpt lat="46.65413196198642" lon="7.1364478301256895"><ele></ele><time>2014-10-30T4:56:5Z</time></trkpt>
<trkpt lat="46.65413330309093" lon="7.136436430737376"><ele></ele><time>2014-10-30T4:56:8Z</time></trkpt>
<trkpt lat="46.65412743575871" lon="7.13636820204556"><ele></ele><time>2014-10-30T4:56:11Z</time></trkpt>
<trkpt lat="46.654124753549695" lon="7.136322185397148"><ele></ele><time>2014-10-30T4:56:14Z</time></trkpt>
<trkpt lat="46.654128106310964" lon="7.136282538995147"><ele></ele><time>2014-10-30T4:56:17Z</time></trkpt>
<trkpt lat="46.65413003414869" lon="7.136253705248237"><ele></ele><time>2014-10-30T4:56:20Z</time></trkpt>
<trkpt lat="46.65413196198642" lon="7.13622554205358"><ele></ele><time>2014-10-30T4:56:23Z</time></trkpt>
<trkpt lat="46.654133973643184" lon="7.136195534840226"><ele></ele><time>2014-10-30T4:56:26Z</time></trkpt>
<trkpt lat="46.65413908660412" lon="7.136049019172788"><ele></ele><time>2014-10-30T4:56:29Z</time></trkpt>
<trkpt lat="46.65413330309093" lon="7.135873585939407"><ele></ele><time>2014-10-30T4:56:32Z</time></trkpt>
<trkpt lat="46.65413338690996" lon="7.13583561591804"><ele></ele><time>2014-10-30T4:56:35Z</time></trkpt>
<trkpt lat="46.65413028560579" lon="7.135793119668961"><ele></ele><time>2014-10-30T4:56:38Z</time></trkpt>
<trkpt lat="46.6541245020926" lon="7.135747941210866"><ele></ele><time>2014-10-30T4:56:41Z</time></trkpt>
<trkpt lat="46.654116874560714" lon="7.135699242353439"><ele></ele><time>2014-10-30T4:56:44Z</time></trkpt>
<trkpt lat="46.65411067195237" lon="7.13565138168633"><ele></ele><time>2014-10-30T4:56:47Z</time></trkpt>
<trkpt lat="46.65411335416138" lon="7.135607376694679"><ele></ele><time>2014-10-30T4:56:50Z</time></trkpt>
<trkpt lat="46.65412902832031" lon="7.1353893633931875"><ele></ele><time>2014-10-30T4:56:53Z</time></trkpt>
<trkpt lat="46.65412844158709" lon="7.135341418907046"><ele></ele><time>2014-10-30T4:56:56Z</time></trkpt>
<trkpt lat="46.65411285124719" lon="7.13509582914412"><ele></ele><time>2014-10-30T4:56:59Z</time></trkpt>
<trkpt lat="46.6541141923517" lon="7.135045873001218"><ele></ele><time>2014-10-30T4:57:2Z</time></trkpt>
<trkpt lat="46.65411310270429" lon="7.134997509419918"><ele></ele><time>2014-10-30T4:57:5Z</time></trkpt>
<trkpt lat="46.65411335416138" lon="7.134950067847967"><ele></ele><time>2014-10-30T4:57:8Z</time></trkpt>
<trkpt lat="46.65411167778075" lon="7.134899944067001"><ele></ele><time>2014-10-30T4:57:11Z</time></trkpt>
<trkpt lat="46.654105642810464" lon="7.1348457131534815"><ele></ele><time>2014-10-30T4:57:14Z</time></trkpt>
<trkpt lat="46.654102792963386" lon="7.134789554402232"><ele></ele><time>2014-10-30T4:57:17Z</time></trkpt>
<trkpt lat="46.65409030392766" lon="7.134620575234294"><ele></ele><time>2014-10-30T4:57:20Z</time></trkpt>
<trkpt lat="46.654085693880916" lon="7.134571876376867"><ele></ele><time>2014-10-30T4:57:23Z</time></trkpt>
<trkpt lat="46.65408544242382" lon="7.134534325450659"><ele></ele><time>2014-10-30T4:57:26Z</time></trkpt>
<trkpt lat="46.65408343076706" lon="7.1345085091888905"><ele></ele><time>2014-10-30T4:57:29Z</time></trkpt>
<trkpt lat="46.65408351458609" lon="7.134493002668023"><ele></ele><time>2014-10-30T4:57:32Z</time></trkpt>
<trkpt lat="46.65407462976873" lon="7.134490069001913"><ele></ele><time>2014-10-30T4:57:35Z</time></trkpt>
<trkpt lat="46.654071025550365" lon="7.134482525289059"><ele></ele><time>2014-10-30T4:57:38Z</time></trkpt>
<trkpt lat="46.65406993590295" lon="7.13447087444365"><ele></ele><time>2014-10-30T4:57:41Z</time></trkpt>
<trkpt lat="46.65406993590295" lon="7.13447087444365"><ele></ele><time>2014-10-30T4:57:44Z</time></trkpt>
<trkpt lat="46.6540708579123" lon="7.134449500590563"><ele></ele><time>2014-10-30T4:57:47Z</time></trkpt>
<trkpt lat="46.654097428545356" lon="7.134419661015272"><ele></ele><time>2014-10-30T4:57:50Z</time></trkpt>
<trkpt lat="46.654110588133335" lon="7.134399292990565"><ele></ele><time>2014-10-30T4:57:53Z</time></trkpt>
<trkpt lat="46.65412886068225" lon="7.1343262027949095"><ele></ele><time>2014-10-30T4:57:56Z</time></trkpt>
<trkpt lat="46.65413380600512" lon="7.134293345734477"><ele></ele><time>2014-10-30T4:57:59Z</time></trkpt>
<trkpt lat="46.65413129143417" lon="7.134259147569537"><ele></ele><time>2014-10-30T4:58:2Z</time></trkpt>
<trkpt lat="46.65413095615804" lon="7.134235259145498"><ele></ele><time>2014-10-30T4:58:5Z</time></trkpt>
<trkpt lat="46.65412986651063" lon="7.134212041273713"><ele></ele><time>2014-10-30T4:58:8Z</time></trkpt>
<trkpt lat="46.65413045324385" lon="7.134190583601594"><ele></ele><time>2014-10-30T4:58:11Z</time></trkpt>
<trkpt lat="46.6541313752532" lon="7.134169042110443"><ele></ele><time>2014-10-30T4:58:14Z</time></trkpt>
<trkpt lat="46.65413070470095" lon="7.134139705449343"><ele></ele><time>2014-10-30T4:58:17Z</time></trkpt>
<trkpt lat="46.654132632538676" lon="7.134104082360864"><ele></ele><time>2014-10-30T4:58:20Z</time></trkpt>
<trkpt lat="46.65413715876639" lon="7.134067788720131"><ele></ele><time>2014-10-30T4:58:23Z</time></trkpt>
<trkpt lat="46.65413673967123" lon="7.13403744623065"><ele></ele><time>2014-10-30T4:58:26Z</time></trkpt>
<trkpt lat="46.654131123796105" lon="7.13401104323566"><ele></ele><time>2014-10-30T4:58:29Z</time></trkpt>
<trkpt lat="46.65412458591163" lon="7.13398614898324"><ele></ele><time>2014-10-30T4:58:32Z</time></trkpt>
<trkpt lat="46.65412299335003" lon="7.133967624977231"><ele></ele><time>2014-10-30T4:58:35Z</time></trkpt>
<trkpt lat="46.65412165224552" lon="7.133963769301772"><ele></ele><time>2014-10-30T4:58:38Z</time></trkpt>
<trkpt lat="46.654128190129995" lon="7.133954046294093"><ele></ele><time>2014-10-30T4:58:41Z</time></trkpt>
<trkpt lat="46.65411368943751" lon="7.133939880877733"><ele></ele><time>2014-10-30T4:58:44Z</time></trkpt>
<trkpt lat="46.654105726629496" lon="7.133928732946515"><ele></ele><time>2014-10-30T4:58:47Z</time></trkpt>
<trkpt lat="46.65411184541881" lon="7.13392211124301"><ele></ele><time>2014-10-30T4:58:50Z</time></trkpt>
<trkpt lat="46.654126681387424" lon="7.13392311707139"><ele></ele><time>2014-10-30T4:58:53Z</time></trkpt>
<trkpt lat="46.65417672134936" lon="7.133927894756198"><ele></ele><time>2014-10-30T4:58:56Z</time></trkpt>
<trkpt lat="46.654209243133664" lon="7.133932253345847"><ele></ele><time>2014-10-30T4:58:59Z</time></trkpt>
<trkpt lat="46.65432373993099" lon="7.133965194225311"><ele></ele><time>2014-10-30T4:59:2Z</time></trkpt>
<trkpt lat="46.65435852482915" lon="7.1339672058820724"><ele></ele><time>2014-10-30T4:59:5Z</time></trkpt>
<trkpt lat="46.65438920259476" lon="7.133957985788584"><ele></ele><time>2014-10-30T4:59:8Z</time></trkpt>
<trkpt lat="46.65441183373332" lon="7.1339386235922575"><ele></ele><time>2014-10-30T4:59:11Z</time></trkpt>
<trkpt lat="46.65442876517773" lon="7.133906856179237"><ele></ele><time>2014-10-30T4:59:14Z</time></trkpt>
<trkpt lat="46.65444410406053" lon="7.133866287767887"><ele></ele><time>2014-10-30T4:59:17Z</time></trkpt>
<trkpt lat="46.65445986203849" lon="7.133820690214634"><ele></ele><time>2014-10-30T4:59:20Z</time></trkpt>
<trkpt lat="46.65447536855936" lon="7.133770817890763"><ele></ele><time>2014-10-30T4:59:23Z</time></trkpt>
<trkpt lat="46.654481906443834" lon="7.133716335520148"><ele></ele><time>2014-10-30T4:59:26Z</time></trkpt>
<trkpt lat="46.65447251871228" lon="7.1336697321385145"><ele></ele><time>2014-10-30T4:59:29Z</time></trkpt>
<trkpt lat="46.65446497499943" lon="7.133650202304125"><ele></ele><time>2014-10-30T4:59:32Z</time></trkpt>
<trkpt lat="46.654497077688575" lon="7.133626816794276"><ele></ele><time>2014-10-30T4:59:35Z</time></trkpt>
<trkpt lat="46.65453772991896" lon="7.133604772388935"><ele></ele><time>2014-10-30T4:59:38Z</time></trkpt>
<trkpt lat="46.65453772991896" lon="7.133604772388935"><ele></ele><time>2014-10-30T4:59:41Z</time></trkpt>
<trkpt lat="46.654540579766035" lon="7.1336020063608885"><ele></ele><time>2014-10-30T4:59:44Z</time></trkpt>
<trkpt lat="46.65453932248056" lon="7.133573172613978"><ele></ele><time>2014-10-30T4:59:47Z</time></trkpt>
<trkpt lat="46.65454518981278" lon="7.133491113781929"><ele></ele><time>2014-10-30T4:59:50Z</time></trkpt>
<trkpt lat="46.65454426780343" lon="7.13346186093986"><ele></ele><time>2014-10-30T4:59:53Z</time></trkpt>
<trkpt lat="46.654540998861194" lon="7.133436547592282"><ele></ele><time>2014-10-30T4:59:56Z</time></trkpt>
<trkpt lat="46.65453772991896" lon="7.133414335548878"><ele></ele><time>2014-10-30T4:59:59Z</time></trkpt>
<trkpt lat="46.65453488007188" lon="7.1333996672183275"><ele></ele><time>2014-10-30T5:0:2Z</time></trkpt>
<trkpt lat="46.65453974157572" lon="7.133373934775591"><ele></ele><time>2014-10-30T5:0:5Z</time></trkpt>
<trkpt lat="46.65454753674567" lon="7.133341580629349"><ele></ele><time>2014-10-30T5:0:8Z</time></trkpt>
<trkpt lat="46.6545544937253" lon="7.13330696336925"><ele></ele><time>2014-10-30T5:0:11Z</time></trkpt>
<trkpt lat="46.65456438437104" lon="7.133271927013993"><ele></ele><time>2014-10-30T5:0:14Z</time></trkpt>
<trkpt lat="46.6545663960278" lon="7.1332326997071505"><ele></ele><time>2014-10-30T5:0:17Z</time></trkpt>
<trkpt lat="46.65455508045852" lon="7.133204033598304"><ele></ele><time>2014-10-30T5:0:20Z</time></trkpt>
<trkpt lat="46.65454091504216" lon="7.133173607289791"><ele></ele><time>2014-10-30T5:0:23Z</time></trkpt>
<trkpt lat="46.65453295223415" lon="7.133155334740877"><ele></ele><time>2014-10-30T5:0:26Z</time></trkpt>
<trkpt lat="46.65451845154166" lon="7.133137062191963"><ele></ele><time>2014-10-30T5:0:29Z</time></trkpt>
<trkpt lat="46.654547872021794" lon="7.133150640875101"><ele></ele><time>2014-10-30T5:0:32Z</time></trkpt>
<trkpt lat="46.65457209572196" lon="7.133158436045051"><ele></ele><time>2014-10-30T5:0:35Z</time></trkpt>
<trkpt lat="46.654582656919956" lon="7.13315156288445"><ele></ele><time>2014-10-30T5:0:38Z</time></trkpt>
<trkpt lat="46.65458668023348" lon="7.133142678067088"><ele></ele><time>2014-10-30T5:0:41Z</time></trkpt>
<trkpt lat="46.654589865356684" lon="7.133137313649058"><ele></ele><time>2014-10-30T5:0:44Z</time></trkpt>
<trkpt lat="46.654616855084896" lon="7.133092135190964"><ele></ele><time>2014-10-30T5:0:47Z</time></trkpt>
<trkpt lat="46.65465750731528" lon="7.1330660674721"><ele></ele><time>2014-10-30T5:0:50Z</time></trkpt>
<trkpt lat="46.654677372425795" lon="7.133028348907828"><ele></ele><time>2014-10-30T5:0:53Z</time></trkpt>
<trkpt lat="46.65468106046319" lon="7.132988702505827"><ele></ele><time>2014-10-30T5:0:56Z</time></trkpt>
<trkpt lat="46.65469279512763" lon="7.132949642837048"><ele></ele><time>2014-10-30T5:0:59Z</time></trkpt>
<trkpt lat="46.65470318868756" lon="7.132915444672108"><ele></ele><time>2014-10-30T5:1:2Z</time></trkpt>
<trkpt lat="46.65470603853464" lon="7.132885856553912"><ele></ele><time>2014-10-30T5:1:5Z</time></trkpt>
<trkpt lat="46.65470511652529" lon="7.132855514064431"><ele></ele><time>2014-10-30T5:1:8Z</time></trkpt>
<trkpt lat="46.65470268577337" lon="7.132820896804333"><ele></ele><time>2014-10-30T5:1:11Z</time></trkpt>
<trkpt lat="46.65470092557371" lon="7.132773036137223"><ele></ele><time>2014-10-30T5:1:14Z</time></trkpt>
<trkpt lat="46.654697908088565" lon="7.132720900699496"><ele></ele><time>2014-10-30T5:1:17Z</time></trkpt>
<trkpt lat="46.65469673462212" lon="7.132672118023038"><ele></ele><time>2014-10-30T5:1:20Z</time></trkpt>
<trkpt lat="46.65468701161444" lon="7.132621491327882"><ele></ele><time>2014-10-30T5:1:23Z</time></trkpt>
<trkpt lat="46.6546755284071" lon="7.1325670927762985"><ele></ele><time>2014-10-30T5:1:26Z</time></trkpt>
<trkpt lat="46.65466647595167" lon="7.13251193985343"><ele></ele><time>2014-10-30T5:1:29Z</time></trkpt>
<trkpt lat="46.65466002188623" lon="7.132465168833733"><ele></ele><time>2014-10-30T5:1:32Z</time></trkpt>
<trkpt lat="46.65465893223882" lon="7.132420660927892"><ele></ele><time>2014-10-30T5:1:35Z</time></trkpt>
<trkpt lat="46.65464946068823" lon="7.132366178557277"><ele></ele><time>2014-10-30T5:1:38Z</time></trkpt>
<trkpt lat="46.65463211014867" lon="7.132297530770302"><ele></ele><time>2014-10-30T5:1:41Z</time></trkpt>
<trkpt lat="46.65461643598974" lon="7.1322275418788195"><ele></ele><time>2014-10-30T5:1:44Z</time></trkpt>
<trkpt lat="46.654603108763695" lon="7.132158894091845"><ele></ele><time>2014-10-30T5:1:47Z</time></trkpt>
<trkpt lat="46.65458642877638" lon="7.132090916857123"><ele></ele><time>2014-10-30T5:1:50Z</time></trkpt>
<trkpt lat="46.654574358835816" lon="7.132034506648779"><ele></ele><time>2014-10-30T5:1:53Z</time></trkpt>
<trkpt lat="46.6545579303056" lon="7.131985472515225"><ele></ele><time>2014-10-30T5:1:56Z</time></trkpt>
<trkpt lat="46.65453605353832" lon="7.1319197583943605"><ele></ele><time>2014-10-30T5:1:59Z</time></trkpt>
<trkpt lat="46.65450864471495" lon="7.131861671805382"><ele></ele><time>2014-10-30T5:2:2Z</time></trkpt>
<trkpt lat="46.654435554519296" lon="7.131730662658811"><ele></ele><time>2014-10-30T5:2:5Z</time></trkpt>
<trkpt lat="46.654404709115624" lon="7.131684897467494"><ele></ele><time>2014-10-30T5:2:8Z</time></trkpt>
<trkpt lat="46.65438149124384" lon="7.1316485200077295"><ele></ele><time>2014-10-30T5:2:11Z</time></trkpt>
<trkpt lat="46.654360285028815" lon="7.1316128969192505"><ele></ele><time>2014-10-30T5:2:14Z</time></trkpt>
<trkpt lat="46.65433413349092" lon="7.131571574136615"><ele></ele><time>2014-10-30T5:2:17Z</time></trkpt>
<trkpt lat="46.65430823341012" lon="7.131534442305565"><ele></ele><time>2014-10-30T5:2:20Z</time></trkpt>
<trkpt lat="46.654286440461874" lon="7.131495214998722"><ele></ele><time>2014-10-30T5:2:23Z</time></trkpt>
<trkpt lat="46.654264982789755" lon="7.131451545283198"><ele></ele><time>2014-10-30T5:2:26Z</time></trkpt>
<trkpt lat="46.654247464612126" lon="7.1314105577766895"><ele></ele><time>2014-10-30T5:2:29Z</time></trkpt>
<trkpt lat="46.65423430502415" lon="7.13137149810791"><ele></ele><time>2014-10-30T5:2:32Z</time></trkpt>
<trkpt lat="46.65421829558909" lon="7.131340149790049"><ele></ele><time>2014-10-30T5:2:35Z</time></trkpt>
<trkpt lat="46.65420278906822" lon="7.13130746036768"><ele></ele><time>2014-10-30T5:2:38Z</time></trkpt>
<trkpt lat="46.654178984463215" lon="7.131267562508583"><ele></ele><time>2014-10-30T5:2:41Z</time></trkpt>
<trkpt lat="46.65415132418275" lon="7.131227245554328"><ele></ele><time>2014-10-30T5:2:44Z</time></trkpt>
<trkpt lat="46.65411813184619" lon="7.131196819245815"><ele></ele><time>2014-10-30T5:2:47Z</time></trkpt>
<trkpt lat="46.654085107147694" lon="7.131165219470859"><ele></ele><time>2014-10-30T5:2:50Z</time></trkpt>
<trkpt lat="46.654056860134006" lon="7.1311404928565025"><ele></ele><time>2014-10-30T5:2:53Z</time></trkpt>
<trkpt lat="46.65403263643384" lon="7.131102774292231"><ele></ele><time>2014-10-30T5:2:56Z</time></trkpt>
<trkpt lat="46.65400170721114" lon="7.131059691309929"><ele></ele><time>2014-10-30T5:2:59Z</time></trkpt>
<trkpt lat="46.65396532975137" lon="7.131023816764355"><ele></ele><time>2014-10-30T5:3:2Z</time></trkpt>
<trkpt lat="46.653921995311975" lon="7.130994396284223"><ele></ele><time>2014-10-30T5:3:5Z</time></trkpt>
<trkpt lat="46.65387522429228" lon="7.1309667360037565"><ele></ele><time>2014-10-30T5:3:8Z</time></trkpt>
<trkpt lat="46.653828201815486" lon="7.130936561152339"><ele></ele><time>2014-10-30T5:3:11Z</time></trkpt>
<trkpt lat="46.65377531200647" lon="7.1309069730341434"><ele></ele><time>2014-10-30T5:3:14Z</time></trkpt>
<trkpt lat="46.65372141636908" lon="7.1308754570782185"><ele></ele><time>2014-10-30T5:3:17Z</time></trkpt>
<trkpt lat="46.65368118323386" lon="7.130844779312611"><ele></ele><time>2014-10-30T5:3:20Z</time></trkpt>
<trkpt lat="46.65365410968661" lon="7.130822064355016"><ele></ele><time>2014-10-30T5:3:23Z</time></trkpt>
<trkpt lat="46.653632652014494" lon="7.1308090724051"><ele></ele><time>2014-10-30T5:3:26Z</time></trkpt>
<trkpt lat="46.653619492426515" lon="7.1308050490915775"><ele></ele><time>2014-10-30T5:3:29Z</time></trkpt>
<trkpt lat="46.65361253544688" lon="7.130808150395751"><ele></ele><time>2014-10-30T5:3:32Z</time></trkpt>
<trkpt lat="46.653609182685614" lon="7.130815694108605"><ele></ele><time>2014-10-30T5:3:35Z</time></trkpt>
<trkpt lat="46.65360742248595" lon="7.1308221481740475"><ele></ele><time>2014-10-30T5:3:38Z</time></trkpt>
<trkpt lat="46.65359929203987" lon="7.1308233216404915"><ele></ele><time>2014-10-30T5:3:41Z</time></trkpt>
<trkpt lat="46.65359484963119" lon="7.130825249478221"><ele></ele><time>2014-10-30T5:3:44Z</time></trkpt>
<trkpt lat="46.65359468199313" lon="7.130809910595417"><ele></ele><time>2014-10-30T5:3:47Z</time></trkpt>
<trkpt lat="46.65359535254538" lon="7.1308090724051"><ele></ele><time>2014-10-30T5:3:50Z</time></trkpt>
<trkpt lat="46.65360080078244" lon="7.130796751007438"><ele></ele><time>2014-10-30T5:3:53Z</time></trkpt>
<trkpt lat="46.65360080078244" lon="7.130796751007438"><ele></ele><time>2014-10-30T5:3:56Z</time></trkpt>
<trkpt lat="46.65360080078244" lon="7.130796751007438"><ele></ele><time>2014-10-30T5:3:59Z</time></trkpt>
<trkpt lat="46.65360080078244" lon="7.130796751007438"><ele></ele><time>2014-10-30T5:4:2Z</time></trkpt>
<trkpt lat="46.65360080078244" lon="7.130796751007438"><ele></ele><time>2014-10-30T5:4:5Z</time></trkpt>
<trkpt lat="46.65360080078244" lon="7.130796751007438"><ele></ele><time>2014-10-30T5:4:8Z</time></trkpt>
<trkpt lat="46.65360080078244" lon="7.130795493721962"><ele></ele><time>2014-10-30T5:4:11Z</time></trkpt>
<trkpt lat="46.65363734588027" lon="7.130649900063872"><ele></ele><time>2014-10-30T5:4:14Z</time></trkpt>
<trkpt lat="46.653653187677264" lon="7.130575971677899"><ele></ele><time>2014-10-30T5:4:17Z</time></trkpt>
<trkpt lat="46.65367213077843" lon="7.130498522892594"><ele></ele><time>2014-10-30T5:4:20Z</time></trkpt>
<trkpt lat="46.65369166061282" lon="7.13043138384819"><ele></ele><time>2014-10-30T5:4:23Z</time></trkpt>
<trkpt lat="46.65370968170464" lon="7.130353599786758"><ele></ele><time>2014-10-30T5:4:26Z</time></trkpt>
<trkpt lat="46.65372485294938" lon="7.130271540954709"><ele></ele><time>2014-10-30T5:4:29Z</time></trkpt>
<trkpt lat="46.653738683089614" lon="7.130191074684262"><ele></ele><time>2014-10-30T5:4:32Z</time></trkpt>
<trkpt lat="46.6537550278008" lon="7.130116811022162"><ele></ele><time>2014-10-30T5:4:35Z</time></trkpt>
<trkpt lat="46.65376919321716" lon="7.130046905949712"><ele></ele><time>2014-10-30T5:4:38Z</time></trkpt>
<trkpt lat="46.653778245672584" lon="7.129980186000466"><ele></ele><time>2014-10-30T5:4:41Z</time></trkpt>
<trkpt lat="46.65378503501415" lon="7.129922267049551"><ele></ele><time>2014-10-30T5:4:44Z</time></trkpt>
<trkpt lat="46.65378721430898" lon="7.129877926781774"><ele></ele><time>2014-10-30T5:4:47Z</time></trkpt>
<trkpt lat="46.653762236237526" lon="7.129824366420507"><ele></ele><time>2014-10-30T5:4:50Z</time></trkpt>
<trkpt lat="46.65368855930865" lon="7.129783295094967"><ele></ele><time>2014-10-30T5:4:53Z</time></trkpt>
<trkpt lat="46.6536376811564" lon="7.129749013110995"><ele></ele><time>2014-10-30T5:4:56Z</time></trkpt>
<trkpt lat="46.653590742498636" lon="7.129705846309662"><ele></ele><time>2014-10-30T5:4:59Z</time></trkpt>
<trkpt lat="46.653554700315" lon="7.129662344232202"><ele></ele><time>2014-10-30T5:5:2Z</time></trkpt>
<trkpt lat="46.65352217853069" lon="7.129626553505659"><ele></ele><time>2014-10-30T5:5:5Z</time></trkpt>
<trkpt lat="46.65348772890866" lon="7.129587410017848"><ele></ele><time>2014-10-30T5:5:8Z</time></trkpt>
<trkpt lat="46.65346191264689" lon="7.129560252651572"><ele></ele><time>2014-10-30T5:5:11Z</time></trkpt>
<trkpt lat="46.6534183267504" lon="7.129508536309004"><ele></ele><time>2014-10-30T5:5:14Z</time></trkpt>
<trkpt lat="46.65334314107895" lon="7.129443325102329"><ele></ele><time>2014-10-30T5:5:17Z</time></trkpt>
<trkpt lat="46.65331589989364" lon="7.129426142200828"><ele></ele><time>2014-10-30T5:5:20Z</time></trkpt>
<trkpt lat="46.65325831621885" lon="7.129385154694319"><ele></ele><time>2014-10-30T5:5:23Z</time></trkpt>
<trkpt lat="46.65319302119315" lon="7.129347771406174"><ele></ele><time>2014-10-30T5:5:26Z</time></trkpt>
<trkpt lat="46.653161672875285" lon="7.129321536049247"><ele></ele><time>2014-10-30T5:5:29Z</time></trkpt>
<trkpt lat="46.653103083372116" lon="7.129264287650585"><ele></ele><time>2014-10-30T5:5:32Z</time></trkpt>
<trkpt lat="46.65303686633706" lon="7.129177702590823"><ele></ele><time>2014-10-30T5:5:35Z</time></trkpt>
<trkpt lat="46.65294332429767" lon="7.12908374145627"><ele></ele><time>2014-10-30T5:5:38Z</time></trkpt>
<trkpt lat="46.65293427184224" lon="7.1290365513414145"><ele></ele><time>2014-10-30T5:5:41Z</time></trkpt>
<trkpt lat="46.652962351217866" lon="7.128855669870973"><ele></ele><time>2014-10-30T5:5:44Z</time></trkpt>
<trkpt lat="46.65300400927663" lon="7.128693396225572"><ele></ele><time>2014-10-30T5:5:47Z</time></trkpt>
<trkpt lat="46.653033597394824" lon="7.128603709861636"><ele></ele><time>2014-10-30T5:5:50Z</time></trkpt>
<trkpt lat="46.65306570008397" lon="7.128521902486682"><ele></ele><time>2014-10-30T5:5:53Z</time></trkpt>
<trkpt lat="46.653105514124036" lon="7.128454428166151"><ele></ele><time>2014-10-30T5:5:56Z</time></trkpt>
<trkpt lat="46.65315605700016" lon="7.128412267193198"><ele></ele><time>2014-10-30T5:5:59Z</time></trkpt>
<trkpt lat="46.65321565233171" lon="7.1284012869000435"><ele></ele><time>2014-10-30T5:6:2Z</time></trkpt>
<trkpt lat="46.653276002034545" lon="7.128403717651963"><ele></ele><time>2014-10-30T5:6:5Z</time></trkpt>
<trkpt lat="46.65333601646125" lon="7.1284121833741665"><ele></ele><time>2014-10-30T5:6:8Z</time></trkpt>
<trkpt lat="46.65339494124055" lon="7.12843582034111"><ele></ele><time>2014-10-30T5:6:11Z</time></trkpt>
<trkpt lat="46.65344540029764" lon="7.128493068739772"><ele></ele><time>2014-10-30T5:6:14Z</time></trkpt>
<trkpt lat="46.65348085574806" lon="7.128559285774827"><ele></ele><time>2014-10-30T5:6:17Z</time></trkpt>
<trkpt lat="46.65351698175073" lon="7.128615360707045"><ele></ele><time>2014-10-30T5:6:20Z</time></trkpt>
<trkpt lat="46.653552018105984" lon="7.12865668348968"><ele></ele><time>2014-10-30T5:6:23Z</time></trkpt>
<trkpt lat="46.653584875166416" lon="7.128681829199195"><ele></ele><time>2014-10-30T5:6:26Z</time></trkpt>
<trkpt lat="46.65363005362451" lon="7.128692474216223"><ele></ele><time>2014-10-30T5:6:29Z</time></trkpt>
<trkpt lat="46.653633238747716" lon="7.128686774522066"><ele></ele><time>2014-10-30T5:6:32Z</time></trkpt>
<trkpt lat="46.653633657842875" lon="7.1286834217607975"><ele></ele><time>2014-10-30T5:6:35Z</time></trkpt>
<trkpt lat="46.653633657842875" lon="7.1286834217607975"><ele></ele><time>2014-10-30T5:6:38Z</time></trkpt>
<trkpt lat="46.6536324005574" lon="7.128684092313051"><ele></ele><time>2014-10-30T5:6:41Z</time></trkpt>
<trkpt lat="46.653628796339035" lon="7.128681745380163"><ele></ele><time>2014-10-30T5:6:44Z</time></trkpt>
<trkpt lat="46.653642542660236" lon="7.128674620762467"><ele></ele><time>2014-10-30T5:6:47Z</time></trkpt>
<trkpt lat="46.65365427732468" lon="7.128674704581499"><ele></ele><time>2014-10-30T5:6:50Z</time></trkpt>
<trkpt lat="46.65367053821683" lon="7.128655593842268"><ele></ele><time>2014-10-30T5:6:53Z</time></trkpt>
<trkpt lat="46.653675232082605" lon="7.128628017380834"><ele></ele><time>2014-10-30T5:6:56Z</time></trkpt>
<trkpt lat="46.65367632173002" lon="7.128595998510718"><ele></ele><time>2014-10-30T5:6:59Z</time></trkpt>
<trkpt lat="46.65367171168327" lon="7.128561548888683"><ele></ele><time>2014-10-30T5:7:2Z</time></trkpt>
<trkpt lat="46.6536635812372" lon="7.128522740676999"><ele></ele><time>2014-10-30T5:7:5Z</time></trkpt>
<trkpt lat="46.65366073139012" lon="7.128474125638604"><ele></ele><time>2014-10-30T5:7:8Z</time></trkpt>
<trkpt lat="46.653660060837865" lon="7.128422660753131"><ele></ele><time>2014-10-30T5:7:11Z</time></trkpt>
<trkpt lat="46.65365771390498" lon="7.128359712660313"><ele></ele><time>2014-10-30T5:7:14Z</time></trkpt>
<trkpt lat="46.653658635914326" lon="7.128289137035608"><ele></ele><time>2014-10-30T5:7:17Z</time></trkpt>
<trkpt lat="46.653668358922005" lon="7.128231134265661"><ele></ele><time>2014-10-30T5:7:20Z</time></trkpt>
<trkpt lat="46.65368118323386" lon="7.128171622753143"><ele></ele><time>2014-10-30T5:7:23Z</time></trkpt>
<trkpt lat="46.65368914604187" lon="7.12811378762126"><ele></ele><time>2014-10-30T5:7:26Z</time></trkpt>
<trkpt lat="46.65369878523052" lon="7.1280602272599936"><ele></ele><time>2014-10-30T5:7:29Z</time></trkpt>
<trkpt lat="46.65370590984821" lon="7.128012785688043"><ele></ele><time>2014-10-30T5:7:32Z</time></trkpt>
<trkpt lat="46.65370582602918" lon="7.1279580518603325"><ele></ele><time>2014-10-30T5:7:35Z</time></trkpt>
<trkpt lat="46.653704065829515" lon="7.127899546176195"><ele></ele><time>2014-10-30T5:7:38Z</time></trkpt>
<trkpt lat="46.653701635077596" lon="7.12783969938755"><ele></ele><time>2014-10-30T5:7:41Z</time></trkpt>
<trkpt lat="46.65369853377342" lon="7.127794353291392"><ele></ele><time>2014-10-30T5:7:44Z</time></trkpt>
<trkpt lat="46.653696773573756" lon="7.127757892012596"><ele></ele><time>2014-10-30T5:7:47Z</time></trkpt>
<trkpt lat="46.65369459427893" lon="7.12772780098021"><ele></ele><time>2014-10-30T5:7:50Z</time></trkpt>
<trkpt lat="46.65369392372668" lon="7.127717575058341"><ele></ele><time>2014-10-30T5:7:53Z</time></trkpt>
<trkpt lat="46.65369392372668" lon="7.1277195028960705"><ele></ele><time>2014-10-30T5:7:56Z</time></trkpt>
<trkpt lat="46.65369191206992" lon="7.127727549523115"><ele></ele><time>2014-10-30T5:7:59Z</time></trkpt>
<trkpt lat="46.65369149297476" lon="7.127731153741479"><ele></ele><time>2014-10-30T5:8:2Z</time></trkpt>
<trkpt lat="46.65369149297476" lon="7.127731153741479"><ele></ele><time>2014-10-30T5:8:5Z</time></trkpt>
<trkpt lat="46.65369149297476" lon="7.127731153741479"><ele></ele><time>2014-10-30T5:8:8Z</time></trkpt>
<trkpt lat="46.65369149297476" lon="7.127731153741479"><ele></ele><time>2014-10-30T5:8:11Z</time></trkpt>
<trkpt lat="46.65368227288127" lon="7.127735763788223"><ele></ele><time>2014-10-30T5:8:14Z</time></trkpt>
<trkpt lat="46.653676657006145" lon="7.127710450440645"><ele></ele><time>2014-10-30T5:8:17Z</time></trkpt>
<trkpt lat="46.653674226254225" lon="7.1276971232146025"><ele></ele><time>2014-10-30T5:8:20Z</time></trkpt>
<trkpt lat="46.65367254987359" lon="7.127701649442315"><ele></ele><time>2014-10-30T5:8:23Z</time></trkpt>
<trkpt lat="46.65367146022618" lon="7.127700727432966"><ele></ele><time>2014-10-30T5:8:26Z</time></trkpt>
<trkpt lat="46.65367146022618" lon="7.127700727432966"><ele></ele><time>2014-10-30T5:8:29Z</time></trkpt>
<trkpt lat="46.65367146022618" lon="7.127700727432966"><ele></ele><time>2014-10-30T5:8:32Z</time></trkpt>
<trkpt lat="46.653667856007814" lon="7.1276885736733675"><ele></ele><time>2014-10-30T5:8:35Z</time></trkpt>
<trkpt lat="46.653657127171755" lon="7.127617746591568"><ele></ele><time>2014-10-30T5:8:38Z</time></trkpt>
<trkpt lat="46.65361404418945" lon="7.127477936446667"><ele></ele><time>2014-10-30T5:8:41Z</time></trkpt>
<trkpt lat="46.65359149686992" lon="7.127379113808274"><ele></ele><time>2014-10-30T5:8:44Z</time></trkpt>
<trkpt lat="46.653570123016834" lon="7.127277944236994"><ele></ele><time>2014-10-30T5:8:47Z</time></trkpt>
<trkpt lat="46.65354791097343" lon="7.127181217074394"><ele></ele><time>2014-10-30T5:8:50Z</time></trkpt>
<trkpt lat="46.653527123853564" lon="7.12707887403667"><ele></ele><time>2014-10-30T5:8:53Z</time></trkpt>
<trkpt lat="46.65351631119847" lon="7.126974267885089"><ele></ele><time>2014-10-30T5:8:56Z</time></trkpt>
<trkpt lat="46.65351522155106" lon="7.126873517408967"><ele></ele><time>2014-10-30T5:8:59Z</time></trkpt>
<trkpt lat="46.653515975922346" lon="7.126772766932845"><ele></ele><time>2014-10-30T5:9:2Z</time></trkpt>
<trkpt lat="46.653518909588456" lon="7.126674028113484"><ele></ele><time>2014-10-30T5:9:5Z</time></trkpt>
<trkpt lat="46.65352251380682" lon="7.126581743359566"><ele></ele><time>2014-10-30T5:9:8Z</time></trkpt>
<trkpt lat="46.653518322855234" lon="7.126501780003309"><ele></ele><time>2014-10-30T5:9:11Z</time></trkpt>
<trkpt lat="46.653513545170426" lon="7.126431539654732"><ele></ele><time>2014-10-30T5:9:14Z</time></trkpt>
<trkpt lat="46.653520250692964" lon="7.126388875767589"><ele></ele><time>2014-10-30T5:9:17Z</time></trkpt>
<trkpt lat="46.653521843254566" lon="7.126374877989292"><ele></ele><time>2014-10-30T5:9:20Z</time></trkpt>
<trkpt lat="46.653515975922346" lon="7.12637186050415"><ele></ele><time>2014-10-30T5:9:23Z</time></trkpt>
<trkpt lat="46.65351228788495" lon="7.1263726986944675"><ele></ele><time>2014-10-30T5:9:26Z</time></trkpt>
<trkpt lat="46.653510024771094" lon="7.1263732854276896"><ele></ele><time>2014-10-30T5:9:29Z</time></trkpt>
<trkpt lat="46.65350826457143" lon="7.126371441408992"><ele></ele><time>2014-10-30T5:9:32Z</time></trkpt>
<trkpt lat="46.65350826457143" lon="7.126371441408992"><ele></ele><time>2014-10-30T5:9:35Z</time></trkpt>
<trkpt lat="46.65350507944822" lon="7.1263576950877905"><ele></ele><time>2014-10-30T5:9:38Z</time></trkpt>
<trkpt lat="46.65351388044655" lon="7.126330453902483"><ele></ele><time>2014-10-30T5:9:41Z</time></trkpt>
<trkpt lat="46.65352058596909" lon="7.126321066170931"><ele></ele><time>2014-10-30T5:9:44Z</time></trkpt>
<trkpt lat="46.653519831597805" lon="7.126297429203987"><ele></ele><time>2014-10-30T5:9:47Z</time></trkpt>
<trkpt lat="46.65352251380682" lon="7.126297261565924"><ele></ele><time>2014-10-30T5:9:50Z</time></trkpt>
<trkpt lat="46.65352251380682" lon="7.126297261565924"><ele></ele><time>2014-10-30T5:9:53Z</time></trkpt>
<trkpt lat="46.65352385491133" lon="7.126302793622017"><ele></ele><time>2014-10-30T5:9:56Z</time></trkpt>
<trkpt lat="46.653524776920676" lon="7.1263084933161736"><ele></ele><time>2014-10-30T5:9:59Z</time></trkpt>
<trkpt lat="46.65352494455874" lon="7.1263129357248545"><ele></ele><time>2014-10-30T5:10:2Z</time></trkpt>
<trkpt lat="46.65352586656809" lon="7.12630782276392"><ele></ele><time>2014-10-30T5:10:5Z</time></trkpt>
<trkpt lat="46.65351991541684" lon="7.126285023987293"><ele></ele><time>2014-10-30T5:10:8Z</time></trkpt>
<trkpt lat="46.6535079292953" lon="7.126240348443389"><ele></ele><time>2014-10-30T5:10:11Z</time></trkpt>
<trkpt lat="46.65349024347961" lon="7.126204976812005"><ele></ele><time>2014-10-30T5:10:14Z</time></trkpt>
<trkpt lat="46.65347616188228" lon="7.126149656251073"><ele></ele><time>2014-10-30T5:10:17Z</time></trkpt>
<trkpt lat="46.65348244830966" lon="7.126087713986635"><ele></ele><time>2014-10-30T5:10:20Z</time></trkpt>
<trkpt lat="46.65350725874305" lon="7.126017305999994"><ele></ele><time>2014-10-30T5:10:23Z</time></trkpt>
<trkpt lat="46.65354833006859" lon="7.125954777002335"><ele></ele><time>2014-10-30T5:10:26Z</time></trkpt>
<trkpt lat="46.65359057486057" lon="7.125893505290151"><ele></ele><time>2014-10-30T5:10:29Z</time></trkpt>
<trkpt lat="46.65362477302551" lon="7.125831479206681"><ele></ele><time>2014-10-30T5:10:32Z</time></trkpt>
<trkpt lat="46.65363340638578" lon="7.125768279656768"><ele></ele><time>2014-10-30T5:10:35Z</time></trkpt>
<trkpt lat="46.653626868501306" lon="7.125704577192664"><ele></ele><time>2014-10-30T5:10:38Z</time></trkpt>
<trkpt lat="46.65362007915974" lon="7.125650933012366"><ele></ele><time>2014-10-30T5:10:41Z</time></trkpt>
<trkpt lat="46.653610272333026" lon="7.125587398186326"><ele></ele><time>2014-10-30T5:10:44Z</time></trkpt>
<trkpt lat="46.653597531840205" lon="7.125517660751939"><ele></ele><time>2014-10-30T5:10:47Z</time></trkpt>
<trkpt lat="46.65358210913837" lon="7.125459657981992"><ele></ele><time>2014-10-30T5:10:50Z</time></trkpt>
<trkpt lat="46.65356836281717" lon="7.125421520322561"><ele></ele><time>2014-10-30T5:10:53Z</time></trkpt>
<trkpt lat="46.65355662815273" lon="7.125388327986002"><ele></ele><time>2014-10-30T5:10:56Z</time></trkpt>
<trkpt lat="46.653541876003146" lon="7.12535941042006"><ele></ele><time>2014-10-30T5:10:59Z</time></trkpt>
<trkpt lat="46.65352335199714" lon="7.125334683805704"><ele></ele><time>2014-10-30T5:11:2Z</time></trkpt>
<trkpt lat="46.65349502116442" lon="7.125305850058794"><ele></ele><time>2014-10-30T5:11:5Z</time></trkpt>
<trkpt lat="46.6534682828933" lon="7.1252574026584625"><ele></ele><time>2014-10-30T5:11:8Z</time></trkpt>
<trkpt lat="46.65344984270632" lon="7.125211972743273"><ele></ele><time>2014-10-30T5:11:11Z</time></trkpt>
<trkpt lat="46.653437688946724" lon="7.125176098197699"><ele></ele><time>2014-10-30T5:11:14Z</time></trkpt>
<trkpt lat="46.65342100895941" lon="7.125150449573994"><ele></ele><time>2014-10-30T5:11:17Z</time></trkpt>
<trkpt lat="46.65340541861951" lon="7.125137792900205"><ele></ele><time>2014-10-30T5:11:20Z</time></trkpt>
<trkpt lat="46.65339024737477" lon="7.125128153711557"><ele></ele><time>2014-10-30T5:11:23Z</time></trkpt>
<trkpt lat="46.65337256155908" lon="7.125116502866149"><ele></ele><time>2014-10-30T5:11:26Z</time></trkpt>
<trkpt lat="46.653355630114675" lon="7.125096553936601"><ele></ele><time>2014-10-30T5:11:29Z</time></trkpt>
<trkpt lat="46.65334121324122" lon="7.125071827322245"><ele></ele><time>2014-10-30T5:11:32Z</time></trkpt>
<trkpt lat="46.653334591537714" lon="7.125050034373999"><ele></ele><time>2014-10-30T5:11:35Z</time></trkpt>
<trkpt lat="46.65332838892937" lon="7.125036120414734"><ele></ele><time>2014-10-30T5:11:38Z</time></trkpt>
<trkpt lat="46.65332260541618" lon="7.125017428770661"><ele></ele><time>2014-10-30T5:11:41Z</time></trkpt>
<trkpt lat="46.65330735035241" lon="7.124980548396707"><ele></ele><time>2014-10-30T5:11:44Z</time></trkpt>
<trkpt lat="46.65329184383154" lon="7.124949870631099"><ele></ele><time>2014-10-30T5:11:47Z</time></trkpt>
<trkpt lat="46.65327097289264" lon="7.124915504828095"><ele></ele><time>2014-10-30T5:11:50Z</time></trkpt>
<trkpt lat="46.65326124988496" lon="7.124888179823756"><ele></ele><time>2014-10-30T5:11:53Z</time></trkpt>
<trkpt lat="46.65324641391635" lon="7.124856999143958"><ele></ele><time>2014-10-30T5:11:56Z</time></trkpt>
<trkpt lat="46.65322923101485" lon="7.124834451824427"><ele></ele><time>2014-10-30T5:11:59Z</time></trkpt>
<trkpt lat="46.65320676751435" lon="7.124814335256815"><ele></ele><time>2014-10-30T5:12:2Z</time></trkpt>
<trkpt lat="46.65318790823221" lon="7.124810898676515"><ele></ele><time>2014-10-30T5:12:5Z</time></trkpt>
<trkpt lat="46.6531659476459" lon="7.124804779887199"><ele></ele><time>2014-10-30T5:12:8Z</time></trkpt>
<trkpt lat="46.653135772794485" lon="7.124800169840455"><ele></ele><time>2014-10-30T5:12:11Z</time></trkpt>
<trkpt lat="46.65309704840183" lon="7.124793045222759"><ele></ele><time>2014-10-30T5:12:14Z</time></trkpt>
<trkpt lat="46.653048768639565" lon="7.124789021909237"><ele></ele><time>2014-10-30T5:12:17Z</time></trkpt>
<trkpt lat="46.65299328044057" lon="7.124762451276183"><ele></ele><time>2014-10-30T5:12:20Z</time></trkpt>
<trkpt lat="46.65293670259416" lon="7.124731857329607"><ele></ele><time>2014-10-30T5:12:23Z</time></trkpt>
<trkpt lat="46.6528707370162" lon="7.124701347202063"><ele></ele><time>2014-10-30T5:12:26Z</time></trkpt>
<trkpt lat="46.65281700901687" lon="7.1246828231960535"><ele></ele><time>2014-10-30T5:12:29Z</time></trkpt>
<trkpt lat="46.652772249653935" lon="7.124669244512916"><ele></ele><time>2014-10-30T5:12:32Z</time></trkpt>
<trkpt lat="46.65273142978549" lon="7.124656168743968"><ele></ele><time>2014-10-30T5:12:35Z</time></trkpt>
<trkpt lat="46.65269932709634" lon="7.1246392372995615"><ele></ele><time>2014-10-30T5:12:38Z</time></trkpt>
<trkpt lat="46.65262598544359" lon="7.124592382460833"><ele></ele><time>2014-10-30T5:12:41Z</time></trkpt>
<trkpt lat="46.652581226080656" lon="7.124555418267846"><ele></ele><time>2014-10-30T5:12:44Z</time></trkpt>
<trkpt lat="46.65253839455545" lon="7.12450135499239"><ele></ele><time>2014-10-30T5:12:47Z</time></trkpt>
<trkpt lat="46.65249003097415" lon="7.124429941177368"><ele></ele><time>2014-10-30T5:12:50Z</time></trkpt>
<trkpt lat="46.65244560688734" lon="7.124352157115936"><ele></ele><time>2014-10-30T5:12:53Z</time></trkpt>
<trkpt lat="46.6524132527411" lon="7.124265823513269"><ele></ele><time>2014-10-30T5:12:56Z</time></trkpt>
<trkpt lat="46.65239665657282" lon="7.124178819358349"><ele></ele><time>2014-10-30T5:12:59Z</time></trkpt>
<trkpt lat="46.65239221416414" lon="7.1240985207259655"><ele></ele><time>2014-10-30T5:13:2Z</time></trkpt>
<trkpt lat="46.65237729437649" lon="7.124024927616119"><ele></ele><time>2014-10-30T5:13:5Z</time></trkpt>
<trkpt lat="46.65236430242658" lon="7.123961476609111"><ele></ele><time>2014-10-30T5:13:8Z</time></trkpt>
<trkpt lat="46.65235650725663" lon="7.12390867061913"><ele></ele><time>2014-10-30T5:13:11Z</time></trkpt>
<trkpt lat="46.65234234184027" lon="7.123815966770053"><ele></ele><time>2014-10-30T5:13:14Z</time></trkpt>
<trkpt lat="46.65233328938484" lon="7.123775985091925"><ele></ele><time>2014-10-30T5:13:17Z</time></trkpt>
<trkpt lat="46.6523249913007" lon="7.123736841604114"><ele></ele><time>2014-10-30T5:13:20Z</time></trkpt>
<trkpt lat="46.65232063271105" lon="7.1236909087747335"><ele></ele><time>2014-10-30T5:13:23Z</time></trkpt>
<trkpt lat="46.6523096524179" lon="7.123593678697944"><ele></ele><time>2014-10-30T5:13:26Z</time></trkpt>
<trkpt lat="46.65229707956314" lon="7.123539866879582"><ele></ele><time>2014-10-30T5:13:29Z</time></trkpt>
<trkpt lat="46.65227880701423" lon="7.123474236577749"><ele></ele><time>2014-10-30T5:13:32Z</time></trkpt>
<trkpt lat="46.65227520279586" lon="7.123408606275916"><ele></ele><time>2014-10-30T5:13:35Z</time></trkpt>
<trkpt lat="46.652273861691356" lon="7.1233622543513775"><ele></ele><time>2014-10-30T5:13:38Z</time></trkpt>
<trkpt lat="46.65227176621556" lon="7.123318919911981"><ele></ele><time>2014-10-30T5:13:41Z</time></trkpt>
<trkpt lat="46.65225366130471" lon="7.123220097273588"><ele></ele><time>2014-10-30T5:13:44Z</time></trkpt>
<trkpt lat="46.65225357748568" lon="7.123175002634525"><ele></ele><time>2014-10-30T5:13:47Z</time></trkpt>
<trkpt lat="46.65226221084595" lon="7.123157065361738"><ele></ele><time>2014-10-30T5:13:50Z</time></trkpt>
<trkpt lat="46.65236874483526" lon="7.123113479465246"><ele></ele><time>2014-10-30T5:13:53Z</time></trkpt>
<trkpt lat="46.65241710841656" lon="7.123122699558735"><ele></ele><time>2014-10-30T5:13:56Z</time></trkpt>
<trkpt lat="46.652466394007206" lon="7.123130410909653"><ele></ele><time>2014-10-30T5:13:59Z</time></trkpt>
<trkpt lat="46.65250562131405" lon="7.123127980157733"><ele></ele><time>2014-10-30T5:14:2Z</time></trkpt>
<trkpt lat="46.65253680199385" lon="7.1231219451874495"><ele></ele><time>2014-10-30T5:14:5Z</time></trkpt>
<trkpt lat="46.65256831794977" lon="7.123121609911323"><ele></ele><time>2014-10-30T5:14:8Z</time></trkpt>
<trkpt lat="46.652600253000855" lon="7.123127393424511"><ele></ele><time>2014-10-30T5:14:11Z</time></trkpt>
<trkpt lat="46.652626153081656" lon="7.1231242921203375"><ele></ele><time>2014-10-30T5:14:14Z</time></trkpt>
<trkpt lat="46.652648197487" lon="7.1231175865978"><ele></ele><time>2014-10-30T5:14:17Z</time></trkpt>
<trkpt lat="46.65266638621688" lon="7.123107863590121"><ele></ele><time>2014-10-30T5:14:20Z</time></trkpt>
<trkpt lat="46.65268449112773" lon="7.123090093955398"><ele></ele><time>2014-10-30T5:14:23Z</time></trkpt>
<trkpt lat="46.65270217694342" lon="7.123059835284948"><ele></ele><time>2014-10-30T5:14:26Z</time></trkpt>
<trkpt lat="46.652719946578145" lon="7.1230353601276875"><ele></ele><time>2014-10-30T5:14:29Z</time></trkpt>
<trkpt lat="46.652738470584154" lon="7.123017003759742"><ele></ele><time>2014-10-30T5:14:32Z</time></trkpt>
<trkpt lat="46.65276361629367" lon="7.122985236346722"><ele></ele><time>2014-10-30T5:14:35Z</time></trkpt>
<trkpt lat="46.65278607979417" lon="7.122948691248894"><ele></ele><time>2014-10-30T5:14:38Z</time></trkpt>
<trkpt lat="46.65280669927597" lon="7.122917678207159"><ele></ele><time>2014-10-30T5:14:41Z</time></trkpt>
<trkpt lat="46.652826899662614" lon="7.122895801439881"><ele></ele><time>2014-10-30T5:14:44Z</time></trkpt>
<trkpt lat="46.65284223854542" lon="7.122883228585124"><ele></ele><time>2014-10-30T5:14:47Z</time></trkpt>
<trkpt lat="46.652884567156434" lon="7.122878534719348"><ele></ele><time>2014-10-30T5:14:50Z</time></trkpt>
<trkpt lat="46.65291507728398" lon="7.122884066775441"><ele></ele><time>2014-10-30T5:14:53Z</time></trkpt>
<trkpt lat="46.652970146387815" lon="7.122870152816176"><ele></ele><time>2014-10-30T5:14:56Z</time></trkpt>
<trkpt lat="46.65302513167262" lon="7.122843749821186"><ele></ele><time>2014-10-30T5:14:59Z</time></trkpt>
<trkpt lat="46.65314465761185" lon="7.122827656567097"><ele></ele><time>2014-10-30T5:15:2Z</time></trkpt>
<trkpt lat="46.653184136375785" lon="7.122832685709"><ele></ele><time>2014-10-30T5:15:5Z</time></trkpt>
<trkpt lat="46.65322839282453" lon="7.122829081490636"><ele></ele><time>2014-10-30T5:15:8Z</time></trkpt>
<trkpt lat="46.65326485410333" lon="7.1228215377777815"><ele></ele><time>2014-10-30T5:15:11Z</time></trkpt>
<trkpt lat="46.65329771116376" lon="7.122802175581455"><ele></ele><time>2014-10-30T5:15:14Z</time></trkpt>
<trkpt lat="46.653321515768766" lon="7.122781723737717"><ele></ele><time>2014-10-30T5:15:17Z</time></trkpt>
<trkpt lat="46.65334817022085" lon="7.122771413996816"><ele></ele><time>2014-10-30T5:15:20Z</time></trkpt>
<trkpt lat="46.65337189100683" lon="7.122751213610172"><ele></ele><time>2014-10-30T5:15:23Z</time></trkpt>
<trkpt lat="46.65340474806726" lon="7.122723553329706"><ele></ele><time>2014-10-30T5:15:26Z</time></trkpt>
<trkpt lat="46.65343224070966" lon="7.122692707926035"><ele></ele><time>2014-10-30T5:15:29Z</time></trkpt>
<trkpt lat="46.6534614097327" lon="7.1226530615240335"><ele></ele><time>2014-10-30T5:15:32Z</time></trkpt>
<trkpt lat="46.65349326096475" lon="7.122601345181465"><ele></ele><time>2014-10-30T5:15:35Z</time></trkpt>
<trkpt lat="46.653523771092296" lon="7.122544180601835"><ele></ele><time>2014-10-30T5:15:38Z</time></trkpt>
<trkpt lat="46.65355327539146" lon="7.122485926374793"><ele></ele><time>2014-10-30T5:15:41Z</time></trkpt>
<trkpt lat="46.653599459677935" lon="7.122370256111026"><ele></ele><time>2014-10-30T5:15:44Z</time></trkpt>
<trkpt lat="46.65363231673837" lon="7.122321054339409"><ele></ele><time>2014-10-30T5:15:47Z</time></trkpt>
<trkpt lat="46.65366626344621" lon="7.12226296775043"><ele></ele><time>2014-10-30T5:15:50Z</time></trkpt>
<trkpt lat="46.653701635077596" lon="7.122199181467295"><ele></ele><time>2014-10-30T5:15:53Z</time></trkpt>
<trkpt lat="46.653735246509314" lon="7.122134389355779"><ele></ele><time>2014-10-30T5:15:56Z</time></trkpt>
<trkpt lat="46.65375745855272" lon="7.1220652386546135"><ele></ele><time>2014-10-30T5:15:59Z</time></trkpt>
<trkpt lat="46.65377028286457" lon="7.122000195086002"><ele></ele><time>2014-10-30T5:16:2Z</time></trkpt>
<trkpt lat="46.6537774913013" lon="7.121943701058626"><ele></ele><time>2014-10-30T5:16:5Z</time></trkpt>
<trkpt lat="46.65379333309829" lon="7.121908077970147"><ele></ele><time>2014-10-30T5:16:8Z</time></trkpt>
<trkpt lat="46.653817892074585" lon="7.121881255879998"><ele></ele><time>2014-10-30T5:16:11Z</time></trkpt>
<trkpt lat="46.65387690067291" lon="7.121847812086344"><ele></ele><time>2014-10-30T5:16:14Z</time></trkpt>
<trkpt lat="46.65395149961114" lon="7.121819816529751"><ele></ele><time>2014-10-30T5:16:17Z</time></trkpt>
<trkpt lat="46.65403372608125" lon="7.121803555637598"><ele></ele><time>2014-10-30T5:16:20Z</time></trkpt>
<trkpt lat="46.65410589426756" lon="7.121795509010553"><ele></ele><time>2014-10-30T5:16:23Z</time></trkpt>
<trkpt lat="46.65415836498141" lon="7.1218019630759954"><ele></ele><time>2014-10-30T5:16:26Z</time></trkpt>
<trkpt lat="46.65419549681246" lon="7.121818391606212"><ele></ele><time>2014-10-30T5:16:29Z</time></trkpt>
<trkpt lat="46.65422516874969" lon="7.12183197028935"><ele></ele><time>2014-10-30T5:16:32Z</time></trkpt>
<trkpt lat="46.65424134582281" lon="7.121843537315726"><ele></ele><time>2014-10-30T5:16:35Z</time></trkpt>
<trkpt lat="46.65425500832498" lon="7.1218284498900175"><ele></ele><time>2014-10-30T5:16:38Z</time></trkpt>
<trkpt lat="46.65425450541079" lon="7.121805399656296"><ele></ele><time>2014-10-30T5:16:41Z</time></trkpt>
<trkpt lat="46.65424679405987" lon="7.121770698577166"><ele></ele><time>2014-10-30T5:16:44Z</time></trkpt>
<trkpt lat="46.65423447266221" lon="7.121726023033261"><ele></ele><time>2014-10-30T5:16:47Z</time></trkpt>
<trkpt lat="46.65422273799777" lon="7.121669361367822"><ele></ele><time>2014-10-30T5:16:50Z</time></trkpt>
<trkpt lat="46.65419574826956" lon="7.121532317250967"><ele></ele><time>2014-10-30T5:16:53Z</time></trkpt>
<trkpt lat="46.65418619289994" lon="7.121455203741789"><ele></ele><time>2014-10-30T5:16:56Z</time></trkpt>
<trkpt lat="46.65417688898742" lon="7.121377419680357"><ele></ele><time>2014-10-30T5:16:59Z</time></trkpt>
<trkpt lat="46.654168758541346" lon="7.12130181491375"><ele></ele><time>2014-10-30T5:17:2Z</time></trkpt>
<trkpt lat="46.65416372939944" lon="7.12124171666801"><ele></ele><time>2014-10-30T5:17:5Z</time></trkpt>
<trkpt lat="46.65416590869427" lon="7.121198382228613"><ele></ele><time>2014-10-30T5:17:8Z</time></trkpt>
<trkpt lat="46.65418074466288" lon="7.1211690455675125"><ele></ele><time>2014-10-30T5:17:11Z</time></trkpt>
<trkpt lat="46.654194071888924" lon="7.121145660057664"><ele></ele><time>2014-10-30T5:17:14Z</time></trkpt>
<trkpt lat="46.65421083569527" lon="7.121125543490052"><ele></ele><time>2014-10-30T5:17:17Z</time></trkpt>
<trkpt lat="46.654240088537335" lon="7.121133171021938"><ele></ele><time>2014-10-30T5:17:20Z</time></trkpt>
<trkpt lat="46.654268922284245" lon="7.121227886527777"><ele></ele><time>2014-10-30T5:17:23Z</time></trkpt>
<trkpt lat="46.65430345572531" lon="7.121280943974853"><ele></ele><time>2014-10-30T5:17:26Z</time></trkpt>
<trkpt lat="46.6543335467577" lon="7.121335845440626"><ele></ele><time>2014-10-30T5:17:29Z</time></trkpt>
<trkpt lat="46.65436866693199" lon="7.121356800198555"><ele></ele><time>2014-10-30T5:17:32Z</time></trkpt>
<trkpt lat="46.65441778488457" lon="7.121380101889372"><ele></ele><time>2014-10-30T5:17:35Z</time></trkpt>
<trkpt lat="46.654446702450514" lon="7.1213696245104074"><ele></ele><time>2014-10-30T5:17:38Z</time></trkpt>
<trkpt lat="46.65447670966387" lon="7.1213628351688385"><ele></ele><time>2014-10-30T5:17:41Z</time></trkpt>
<trkpt lat="46.65450403466821" lon="7.121372139081359"><ele></ele><time>2014-10-30T5:17:44Z</time></trkpt>
<trkpt lat="46.65452138520777" lon="7.121393429115415"><ele></ele><time>2014-10-30T5:17:47Z</time></trkpt>
<trkpt lat="46.6545336227864" lon="7.121406756341457"><ele></ele><time>2014-10-30T5:17:50Z</time></trkpt>
<trkpt lat="46.65456186980009" lon="7.121428716927767"><ele></ele><time>2014-10-30T5:17:53Z</time></trkpt>
<trkpt lat="46.65462045930326" lon="7.121463418006897"><ele></ele><time>2014-10-30T5:17:56Z</time></trkpt>
<trkpt lat="46.65468139573932" lon="7.1215101052075624"><ele></ele><time>2014-10-30T5:17:59Z</time></trkpt>
<trkpt lat="46.65471634827554" lon="7.121538100764155"><ele></ele><time>2014-10-30T5:18:2Z</time></trkpt>
<trkpt lat="46.654752139002085" lon="7.121563078835607"><ele></ele><time>2014-10-30T5:18:5Z</time></trkpt>
<trkpt lat="46.65478063747287" lon="7.1215813513845205"><ele></ele><time>2014-10-30T5:18:8Z</time></trkpt>
<trkpt lat="46.65480670519173" lon="7.121594259515405"><ele></ele><time>2014-10-30T5:18:11Z</time></trkpt>
<trkpt lat="46.65483218617737" lon="7.1215984504669905"><ele></ele><time>2014-10-30T5:18:14Z</time></trkpt>
<trkpt lat="46.654860265553" lon="7.12159208022058"><ele></ele><time>2014-10-30T5:18:17Z</time></trkpt>
<trkpt lat="46.65488373488188" lon="7.1215801779180765"><ele></ele><time>2014-10-30T5:18:20Z</time></trkpt>
<trkpt lat="46.65496252477169" lon="7.121513206511736"><ele></ele><time>2014-10-30T5:18:23Z</time></trkpt>
<trkpt lat="46.65498741902411" lon="7.121482444927096"><ele></ele><time>2014-10-30T5:18:26Z</time></trkpt>
<trkpt lat="46.65501323528588" lon="7.121442463248968"><ele></ele><time>2014-10-30T5:18:29Z</time></trkpt>
<trkpt lat="46.65503050200641" lon="7.121406588703394"><ele></ele><time>2014-10-30T5:18:32Z</time></trkpt>
<trkpt lat="46.655048690736294" lon="7.121370462700725"><ele></ele><time>2014-10-30T5:18:35Z</time></trkpt>
<trkpt lat="46.65506076067686" lon="7.121334001421928"><ele></ele><time>2014-10-30T5:18:38Z</time></trkpt>
<trkpt lat="46.65507626719773" lon="7.121298713609576"><ele></ele><time>2014-10-30T5:18:41Z</time></trkpt>
<trkpt lat="46.65508892387152" lon="7.1212568040937185"><ele></ele><time>2014-10-30T5:18:44Z</time></trkpt>
<trkpt lat="46.65511700324714" lon="7.121231574565172"><ele></ele><time>2014-10-30T5:18:47Z</time></trkpt>
<trkpt lat="46.65513971820474" lon="7.121214307844639"><ele></ele><time>2014-10-30T5:18:50Z</time></trkpt>
<trkpt lat="46.65516142733395" lon="7.121195280924439"><ele></ele><time>2014-10-30T5:18:53Z</time></trkpt>
<trkpt lat="46.65517944842577" lon="7.121167620643973"><ele></ele><time>2014-10-30T5:18:56Z</time></trkpt>
<trkpt lat="46.65518833324313" lon="7.1211495995521545"><ele></ele><time>2014-10-30T5:18:59Z</time></trkpt>
<trkpt lat="46.65519897826016" lon="7.121145576238632"><ele></ele><time>2014-10-30T5:19:2Z</time></trkpt>
<trkpt lat="46.655212389305234" lon="7.121144067496061"><ele></ele><time>2014-10-30T5:19:5Z</time></trkpt>
<trkpt lat="46.65522278286517" lon="7.121135015040636"><ele></ele><time>2014-10-30T5:19:8Z</time></trkpt>
<trkpt lat="46.65523275732994" lon="7.121128560975194"><ele></ele><time>2014-10-30T5:19:11Z</time></trkpt>
<trkpt lat="46.655242228880525" lon="7.121114144101739"><ele></ele><time>2014-10-30T5:19:14Z</time></trkpt>
<trkpt lat="46.65526703931391" lon="7.121090004220605"><ele></ele><time>2014-10-30T5:19:17Z</time></trkpt>
<trkpt lat="46.65528908371925" lon="7.121081119403243"><ele></ele><time>2014-10-30T5:19:20Z</time></trkpt>
<trkpt lat="46.655311211943626" lon="7.121070474386215"><ele></ele><time>2014-10-30T5:19:23Z</time></trkpt>
<trkpt lat="46.655329233035445" lon="7.121058152988553"><ele></ele><time>2014-10-30T5:19:26Z</time></trkpt>
<trkpt lat="46.65534608066082" lon="7.121038790792227"><ele></ele><time>2014-10-30T5:19:29Z</time></trkpt>
<trkpt lat="46.655358485877514" lon="7.121023032814264"><ele></ele><time>2014-10-30T5:19:32Z</time></trkpt>
<trkpt lat="46.65537290275097" lon="7.121009537950158"><ele></ele><time>2014-10-30T5:19:35Z</time></trkpt>
<trkpt lat="46.655388409271836" lon="7.1209964621812105"><ele></ele><time>2014-10-30T5:19:38Z</time></trkpt>
<trkpt lat="46.65539503097534" lon="7.120991097763181"><ele></ele><time>2014-10-30T5:19:41Z</time></trkpt>
<trkpt lat="46.65540701709688" lon="7.121005514636636"><ele></ele><time>2014-10-30T5:19:44Z</time></trkpt>
<trkpt lat="46.655427385121584" lon="7.121032755821943"><ele></ele><time>2014-10-30T5:19:47Z</time></trkpt>
<trkpt lat="46.65544968098402" lon="7.121044490486383"><ele></ele><time>2014-10-30T5:19:50Z</time></trkpt>
<trkpt lat="46.65546594187617" lon="7.121044741943479"><ele></ele><time>2014-10-30T5:19:53Z</time></trkpt>
<trkpt lat="46.65548379532993" lon="7.121048094704747"><ele></ele><time>2014-10-30T5:19:56Z</time></trkpt>
<trkpt lat="46.655502486974" lon="7.121025463566184"><ele></ele><time>2014-10-30T5:19:59Z</time></trkpt>
<trkpt lat="46.65551028214395" lon="7.121001072227955"><ele></ele><time>2014-10-30T5:20:2Z</time></trkpt>
<trkpt lat="46.655522268265486" lon="7.120973579585552"><ele></ele><time>2014-10-30T5:20:5Z</time></trkpt>
<trkpt lat="46.655537858605385" lon="7.120933346450329"><ele></ele><time>2014-10-30T5:20:8Z</time></trkpt>
<trkpt lat="46.65555034764111" lon="7.120896298438311"><ele></ele><time>2014-10-30T5:20:11Z</time></trkpt>
<trkpt lat="46.65555948391557" lon="7.120875343680382"><ele></ele><time>2014-10-30T5:20:14Z</time></trkpt>
<trkpt lat="46.65556996129453" lon="7.12086352519691"><ele></ele><time>2014-10-30T5:20:17Z</time></trkpt>
<trkpt lat="46.65558119304478" lon="7.120828991755843"><ele></ele><time>2014-10-30T5:20:20Z</time></trkpt>
<trkpt lat="46.655599884688854" lon="7.120782807469368"><ele></ele><time>2014-10-30T5:20:23Z</time></trkpt>
<trkpt lat="46.655597453936934" lon="7.120724553242326"><ele></ele><time>2014-10-30T5:20:26Z</time></trkpt>
<trkpt lat="46.65561245754361" lon="7.120663532987237"><ele></ele><time>2014-10-30T5:20:29Z</time></trkpt>
<trkpt lat="46.65562218055129" lon="7.120622377842665"><ele></ele><time>2014-10-30T5:20:32Z</time></trkpt>
<trkpt lat="46.65562846697867" lon="7.120577786117792"><ele></ele><time>2014-10-30T5:20:35Z</time></trkpt>
<trkpt lat="46.655637267977" lon="7.120541492477059"><ele></ele><time>2014-10-30T5:20:38Z</time></trkpt>
<trkpt lat="46.65564171038568" lon="7.120501175522804"><ele></ele><time>2014-10-30T5:20:41Z</time></trkpt>
<trkpt lat="46.655650762841105" lon="7.120435880497098"><ele></ele><time>2014-10-30T5:20:44Z</time></trkpt>
<trkpt lat="46.65565160103142" lon="7.120400760322809"><ele></ele><time>2014-10-30T5:20:47Z</time></trkpt>
<trkpt lat="46.65564623661339" lon="7.120370753109455"><ele></ele><time>2014-10-30T5:20:50Z</time></trkpt>
<trkpt lat="46.655640956014395" lon="7.1203444339334965"><ele></ele><time>2014-10-30T5:20:53Z</time></trkpt>
<trkpt lat="46.6556354239583" lon="7.120326831936836"><ele></ele><time>2014-10-30T5:20:56Z</time></trkpt>
<trkpt lat="46.65563290938735" lon="7.120281150564551"><ele></ele><time>2014-10-30T5:20:59Z</time></trkpt>
<trkpt lat="46.655625365674496" lon="7.1202475391328335"><ele></ele><time>2014-10-30T5:21:2Z</time></trkpt>
<trkpt lat="46.655614133924246" lon="7.120185764506459"><ele></ele><time>2014-10-30T5:21:5Z</time></trkpt>
<trkpt lat="46.655605835840106" lon="7.12014134041965"><ele></ele><time>2014-10-30T5:21:8Z</time></trkpt>
<trkpt lat="46.6556044947356" lon="7.120097167789936"><ele></ele><time>2014-10-30T5:21:11Z</time></trkpt>
<trkpt lat="46.65560206398368" lon="7.120033800601959"><ele></ele><time>2014-10-30T5:21:14Z</time></trkpt>
<trkpt lat="46.655604327097535" lon="7.119970601052046"><ele></ele><time>2014-10-30T5:21:17Z</time></trkpt>
<trkpt lat="46.65561002679169" lon="7.119923997670412"><ele></ele><time>2014-10-30T5:21:20Z</time></trkpt>
<trkpt lat="46.65561547502875" lon="7.119880495592952"><ele></ele><time>2014-10-30T5:21:23Z</time></trkpt>
<trkpt lat="46.65561882779002" lon="7.119831126183271"><ele></ele><time>2014-10-30T5:21:26Z</time></trkpt>
<trkpt lat="46.6556303948164" lon="7.119769435375929"><ele></ele><time>2014-10-30T5:21:29Z</time></trkpt>
<trkpt lat="46.65563835762441" lon="7.119686622172594"><ele></ele><time>2014-10-30T5:21:32Z</time></trkpt>
<trkpt lat="46.655628718435764" lon="7.119596935808659"><ele></ele><time>2014-10-30T5:21:35Z</time></trkpt>
<trkpt lat="46.655617989599705" lon="7.1195280365645885"><ele></ele><time>2014-10-30T5:21:38Z</time></trkpt>
<trkpt lat="46.65561581030488" lon="7.119465759024024"><ele></ele><time>2014-10-30T5:21:41Z</time></trkpt>
<trkpt lat="46.65562461130321" lon="7.1194178983569145"><ele></ele><time>2014-10-30T5:21:44Z</time></trkpt>
<trkpt lat="46.6556303948164" lon="7.119385963305831"><ele></ele><time>2014-10-30T5:21:47Z</time></trkpt>
<trkpt lat="46.65563500486314" lon="7.119360566139221"><ele></ele><time>2014-10-30T5:21:50Z</time></trkpt>
<trkpt lat="46.65564506314695" lon="7.119331816211343"><ele></ele><time>2014-10-30T5:21:53Z</time></trkpt>
<trkpt lat="46.65565160103142" lon="7.1193089336156845"><ele></ele><time>2014-10-30T5:21:56Z</time></trkpt>
<trkpt lat="46.65565931238234" lon="7.119293427094817"><ele></ele><time>2014-10-30T5:21:59Z</time></trkpt>
<trkpt lat="46.65567087940872" lon="7.11926425807178"><ele></ele><time>2014-10-30T5:22:2Z</time></trkpt>
<trkpt lat="46.65568269789219" lon="7.119244476780295"><ele></ele><time>2014-10-30T5:22:5Z</time></trkpt>
<trkpt lat="46.65569694712758" lon="7.119205417111516"><ele></ele><time>2014-10-30T5:22:8Z</time></trkpt>
<trkpt lat="46.65569694712758" lon="7.119205417111516"><ele></ele><time>2014-10-30T5:22:11Z</time></trkpt>
<trkpt lat="46.655734246596694" lon="7.119114808738232"><ele></ele><time>2014-10-30T5:22:14Z</time></trkpt>
<trkpt lat="46.65575855411589" lon="7.11903752759099"><ele></ele><time>2014-10-30T5:22:17Z</time></trkpt>
<trkpt lat="46.65577171370387" lon="7.118964521214366"><ele></ele><time>2014-10-30T5:22:20Z</time></trkpt>
<trkpt lat="46.65577716194093" lon="7.118886485695839"><ele></ele><time>2014-10-30T5:22:23Z</time></trkpt>
<trkpt lat="46.65579132735729" lon="7.118792859837413"><ele></ele><time>2014-10-30T5:22:26Z</time></trkpt>
<trkpt lat="46.65580540895462" lon="7.1187051851302385"><ele></ele><time>2014-10-30T5:22:29Z</time></trkpt>
<trkpt lat="46.65582410059869" lon="7.118605859577656"><ele></ele><time>2014-10-30T5:22:32Z</time></trkpt>
<trkpt lat="46.65584002621472" lon="7.118509970605373"><ele></ele><time>2014-10-30T5:22:35Z</time></trkpt>
<trkpt lat="46.655862741172314" lon="7.118434030562639"><ele></ele><time>2014-10-30T5:22:38Z</time></trkpt>
<trkpt lat="46.655877493321896" lon="7.118379380553961"><ele></ele><time>2014-10-30T5:22:41Z</time></trkpt>
<trkpt lat="46.65587422437966" lon="7.118334621191025"><ele></ele><time>2014-10-30T5:22:44Z</time></trkpt>
<trkpt lat="46.65586793795228" lon="7.118287933990359"><ele></ele><time>2014-10-30T5:22:47Z</time></trkpt>
<trkpt lat="46.655856622383" lon="7.118249041959643"><ele></ele><time>2014-10-30T5:22:50Z</time></trkpt>
<trkpt lat="46.655848575755954" lon="7.118213418871164"><ele></ele><time>2014-10-30T5:22:53Z</time></trkpt>
<trkpt lat="46.65583281777799" lon="7.118177963420749"><ele></ele><time>2014-10-30T5:22:56Z</time></trkpt>
<trkpt lat="46.65581747889519" lon="7.118155919015408"><ele></ele><time>2014-10-30T5:22:59Z</time></trkpt>
<trkpt lat="46.65580163709819" lon="7.118120463564992"><ele></ele><time>2014-10-30T5:23:2Z</time></trkpt>
<trkpt lat="46.65579752996564" lon="7.118082158267498"><ele></ele><time>2014-10-30T5:23:5Z</time></trkpt>
<trkpt lat="46.65577598847449" lon="7.118000518530607"><ele></ele><time>2014-10-30T5:23:8Z</time></trkpt>
<trkpt lat="46.655767941847444" lon="7.117962464690208"><ele></ele><time>2014-10-30T5:23:11Z</time></trkpt>
<trkpt lat="46.655757296830416" lon="7.117929439991713"><ele></ele><time>2014-10-30T5:23:14Z</time></trkpt>
<trkpt lat="46.65575075894594" lon="7.117892475798726"><ele></ele><time>2014-10-30T5:23:17Z</time></trkpt>
<trkpt lat="46.65574371814728" lon="7.117857690900564"><ele></ele><time>2014-10-30T5:23:20Z</time></trkpt>
<trkpt lat="46.65573005564511" lon="7.11783891543746"><ele></ele><time>2014-10-30T5:23:23Z</time></trkpt>
<trkpt lat="46.65571848861873" lon="7.1178193017840385"><ele></ele><time>2014-10-30T5:23:26Z</time></trkpt>
<trkpt lat="46.655713710933924" lon="7.117798598483205"><ele></ele><time>2014-10-30T5:23:29Z</time></trkpt>
<trkpt lat="46.655699126422405" lon="7.117774626240134"><ele></ele><time>2014-10-30T5:23:32Z</time></trkpt>
<trkpt lat="46.65568764321506" lon="7.117740008980036"><ele></ele><time>2014-10-30T5:23:35Z</time></trkpt>
<trkpt lat="46.655665347352624" lon="7.117689633741975"><ele></ele><time>2014-10-30T5:23:38Z</time></trkpt>
<trkpt lat="46.6556562948972" lon="7.11762635037303"><ele></ele><time>2014-10-30T5:23:41Z</time></trkpt>
<trkpt lat="46.6556578874588" lon="7.117583267390728"><ele></ele><time>2014-10-30T5:23:44Z</time></trkpt>
<trkpt lat="46.655652271583676" lon="7.117526018992066"><ele></ele><time>2014-10-30T5:23:47Z</time></trkpt>
<trkpt lat="46.655658055096865" lon="7.117439433932304"><ele></ele><time>2014-10-30T5:23:50Z</time></trkpt>
<trkpt lat="46.655680099502206" lon="7.117353603243828"><ele></ele><time>2014-10-30T5:23:53Z</time></trkpt>
<trkpt lat="46.65570323355496" lon="7.117267018184066"><ele></ele><time>2014-10-30T5:23:56Z</time></trkpt>
<trkpt lat="46.65572435595095" lon="7.1171944309026"><ele></ele><time>2014-10-30T5:23:59Z</time></trkpt>
<trkpt lat="46.65573759935796" lon="7.117124609649181"><ele></ele><time>2014-10-30T5:24:2Z</time></trkpt>
<trkpt lat="46.65575025603175" lon="7.1170588955283165"><ele></ele><time>2014-10-30T5:24:5Z</time></trkpt>
<trkpt lat="46.65575545281172" lon="7.116965940222144"><ele></ele><time>2014-10-30T5:24:8Z</time></trkpt>
<trkpt lat="46.65575947612524" lon="7.1168718952685595"><ele></ele><time>2014-10-30T5:24:11Z</time></trkpt>
<trkpt lat="46.65575955994427" lon="7.116793356835842"><ele></ele><time>2014-10-30T5:24:14Z</time></trkpt>
<trkpt lat="46.655761655420065" lon="7.116723200306296"><ele></ele><time>2014-10-30T5:24:17Z</time></trkpt>
<trkpt lat="46.65577791631222" lon="7.116656564176083"><ele></ele><time>2014-10-30T5:24:20Z</time></trkpt>
<trkpt lat="46.655795350670815" lon="7.116600656881928"><ele></ele><time>2014-10-30T5:24:23Z</time></trkpt>
<trkpt lat="46.655813455581665" lon="7.116563860327005"><ele></ele><time>2014-10-30T5:24:26Z</time></trkpt>
<trkpt lat="46.65582820773125" lon="7.116527985781431"><ele></ele><time>2014-10-30T5:24:29Z</time></trkpt>
<trkpt lat="46.65583524852991" lon="7.116501415148377"><ele></ele><time>2014-10-30T5:24:32Z</time></trkpt>
<trkpt lat="46.6558341588825" lon="7.116481130942702"><ele></ele><time>2014-10-30T5:24:35Z</time></trkpt>
<trkpt lat="46.655831476673484" lon="7.116466211155057"><ele></ele><time>2014-10-30T5:24:38Z</time></trkpt>
<trkpt lat="46.65583030320704" lon="7.116459337994456"><ele></ele><time>2014-10-30T5:24:41Z</time></trkpt>
<trkpt lat="46.65583558380604" lon="7.11634861305356"><ele></ele><time>2014-10-30T5:24:44Z</time></trkpt>
<trkpt lat="46.65582804009318" lon="7.116175862029195"><ele></ele><time>2014-10-30T5:24:47Z</time></trkpt>
<trkpt lat="46.655817395076156" lon="7.11611894890666"><ele></ele><time>2014-10-30T5:24:50Z</time></trkpt>
<trkpt lat="46.65580750443041" lon="7.116060275584459"><ele></ele><time>2014-10-30T5:24:53Z</time></trkpt>
<trkpt lat="46.65579417720437" lon="7.1160095650702715"><ele></ele><time>2014-10-30T5:24:56Z</time></trkpt>
<trkpt lat="46.65578931570053" lon="7.115961033850908"><ele></ele><time>2014-10-30T5:24:59Z</time></trkpt>
<trkpt lat="46.655780766159296" lon="7.115934044122696"><ele></ele><time>2014-10-30T5:25:2Z</time></trkpt>
<trkpt lat="46.655774395912886" lon="7.115897247567773"><ele></ele><time>2014-10-30T5:25:5Z</time></trkpt>
<trkpt lat="46.65576928295195" lon="7.1158593613654375"><ele></ele><time>2014-10-30T5:25:8Z</time></trkpt>
<trkpt lat="46.65576249361038" lon="7.1158260852098465"><ele></ele><time>2014-10-30T5:25:11Z</time></trkpt>
<trkpt lat="46.65575126186013" lon="7.1158037055283785"><ele></ele><time>2014-10-30T5:25:14Z</time></trkpt>
<trkpt lat="46.65574916638434" lon="7.115767328068614"><ele></ele><time>2014-10-30T5:25:17Z</time></trkpt>
<trkpt lat="46.65574195794761" lon="7.1157286036759615"><ele></ele><time>2014-10-30T5:25:20Z</time></trkpt>
<trkpt lat="46.65572619996965" lon="7.115693232044578"><ele></ele><time>2014-10-30T5:25:23Z</time></trkpt>
<trkpt lat="46.65570977143943" lon="7.115653250366449"><ele></ele><time>2014-10-30T5:25:26Z</time></trkpt>
<trkpt lat="46.655688816681504" lon="7.1155996061861515"><ele></ele><time>2014-10-30T5:25:29Z</time></trkpt>
<trkpt lat="46.65567213669419" lon="7.115557948127389"><ele></ele><time>2014-10-30T5:25:32Z</time></trkpt>
<trkpt lat="46.655657552182674" lon="7.115529617294669"><ele></ele><time>2014-10-30T5:25:35Z</time></trkpt>
<trkpt lat="46.65563601069152" lon="7.115477481856942"><ele></ele><time>2014-10-30T5:25:38Z</time></trkpt>
<trkpt lat="46.655629221349955" lon="7.115449067205191"><ele></ele><time>2014-10-30T5:25:41Z</time></trkpt>
<trkpt lat="46.65563005954027" lon="7.115416545420885"><ele></ele><time>2014-10-30T5:25:44Z</time></trkpt>
<trkpt lat="46.65563374757767" lon="7.115374635905027"><ele></ele><time>2014-10-30T5:25:47Z</time></trkpt>
<trkpt lat="46.65564447641373" lon="7.115335995331407"><ele></ele><time>2014-10-30T5:25:50Z</time></trkpt>
<trkpt lat="46.65567683055997" lon="7.115249326452613"><ele></ele><time>2014-10-30T5:25:53Z</time></trkpt>
<trkpt lat="46.65569158270955" lon="7.115226946771145"><ele></ele><time>2014-10-30T5:25:56Z</time></trkpt>
<trkpt lat="46.655727457255125" lon="7.115170620381832"><ele></ele><time>2014-10-30T5:25:59Z</time></trkpt>
<trkpt lat="46.655746065080166" lon="7.1150836162269115"><ele></ele><time>2014-10-30T5:26:2Z</time></trkpt>
<trkpt lat="46.65576249361038" lon="7.115062577649951"><ele></ele><time>2014-10-30T5:26:5Z</time></trkpt>
<trkpt lat="46.65577372536063" lon="7.11504153907299"><ele></ele><time>2014-10-30T5:26:8Z</time></trkpt>
<trkpt lat="46.65578043088317" lon="7.115026116371155"><ele></ele><time>2014-10-30T5:26:11Z</time></trkpt>
<trkpt lat="46.655787136405706" lon="7.115006586536765"><ele></ele><time>2014-10-30T5:26:14Z</time></trkpt>
<trkpt lat="46.655792417004704" lon="7.11499803699553"><ele></ele><time>2014-10-30T5:26:17Z</time></trkpt>
<trkpt lat="46.655803145840764" lon="7.114979010075331"><ele></ele><time>2014-10-30T5:26:20Z</time></trkpt>
<trkpt lat="46.65581085719168" lon="7.114961156621575"><ele></ele><time>2014-10-30T5:26:23Z</time></trkpt>
<trkpt lat="46.65582166984677" lon="7.114934166893363"><ele></ele><time>2014-10-30T5:26:26Z</time></trkpt>
<trkpt lat="46.655828626826406" lon="7.114924192428589"><ele></ele><time>2014-10-30T5:26:29Z</time></trkpt>
<trkpt lat="46.655838852748275" lon="7.1149092726409435"><ele></ele><time>2014-10-30T5:26:32Z</time></trkpt>
<trkpt lat="46.65585243143141" lon="7.114864848554134"><ele></ele><time>2014-10-30T5:26:35Z</time></trkpt>
<trkpt lat="46.65585427545011" lon="7.114849425852299"><ele></ele><time>2014-10-30T5:26:38Z</time></trkpt>
<trkpt lat="46.655854946002364" lon="7.114834086969495"><ele></ele><time>2014-10-30T5:26:41Z</time></trkpt>
<trkpt lat="46.65586584247649" lon="7.114817323163152"><ele></ele><time>2014-10-30T5:26:44Z</time></trkpt>
<trkpt lat="46.65586458519101" lon="7.1147950273007154"><ele></ele><time>2014-10-30T5:26:47Z</time></trkpt>
<trkpt lat="46.65586751885712" lon="7.11476200260222"><ele></ele><time>2014-10-30T5:26:50Z</time></trkpt>
<trkpt lat="46.65586584247649" lon="7.11472881026566"><ele></ele><time>2014-10-30T5:26:53Z</time></trkpt>
<trkpt lat="46.65582108311355" lon="7.1146942768245935"><ele></ele><time>2014-10-30T5:26:56Z</time></trkpt>
<trkpt lat="46.65578336454928" lon="7.114666532725096"><ele></ele><time>2014-10-30T5:26:59Z</time></trkpt>
<trkpt lat="46.65575494989753" lon="7.1146265510469675"><ele></ele><time>2014-10-30T5:27:2Z</time></trkpt>
<trkpt lat="46.65574380196631" lon="7.114598136395216"><ele></ele><time>2014-10-30T5:27:5Z</time></trkpt>
<trkpt lat="46.65574966929853" lon="7.1145932748913765"><ele></ele><time>2014-10-30T5:27:8Z</time></trkpt>
<trkpt lat="46.65575754828751" lon="7.114586904644966"><ele></ele><time>2014-10-30T5:27:11Z</time></trkpt>
<trkpt lat="46.655759727582335" lon="7.114573661237955"><ele></ele><time>2014-10-30T5:27:14Z</time></trkpt>
<trkpt lat="46.65576400235295" lon="7.114563938230276"><ele></ele><time>2014-10-30T5:27:17Z</time></trkpt>
<trkpt lat="46.655767522752285" lon="7.114562261849642"><ele></ele><time>2014-10-30T5:27:20Z</time></trkpt>
<trkpt lat="46.65576878003776" lon="7.114567626267672"><ele></ele><time>2014-10-30T5:27:23Z</time></trkpt>
<trkpt lat="46.65577070787549" lon="7.114571146667004"><ele></ele><time>2014-10-30T5:27:26Z</time></trkpt>
<trkpt lat="46.65577297098935" lon="7.114577181637287"><ele></ele><time>2014-10-30T5:27:29Z</time></trkpt>
<trkpt lat="46.655778251588345" lon="7.11458564735949"><ele></ele><time>2014-10-30T5:27:32Z</time></trkpt>
<trkpt lat="46.6557910759002" lon="7.114593693986535"><ele></ele><time>2014-10-30T5:27:35Z</time></trkpt>
<trkpt lat="46.65576760657132" lon="7.114485567435622"><ele></ele><time>2014-10-30T5:27:38Z</time></trkpt>
<trkpt lat="46.65575327351689" lon="7.114453800022602"><ele></ele><time>2014-10-30T5:27:41Z</time></trkpt>
<trkpt lat="46.65573173202574" lon="7.1144298277795315"><ele></ele><time>2014-10-30T5:27:44Z</time></trkpt>
<trkpt lat="46.655716560781" lon="7.114382889121771"><ele></ele><time>2014-10-30T5:27:47Z</time></trkpt>
<trkpt lat="46.6556975338608" lon="7.114317091181874"><ele></ele><time>2014-10-30T5:27:50Z</time></trkpt>
<trkpt lat="46.65568336844444" lon="7.114263279363513"><ele></ele><time>2014-10-30T5:27:53Z</time></trkpt>
<trkpt lat="46.65568144060671" lon="7.114221202209592"><ele></ele><time>2014-10-30T5:27:56Z</time></trkpt>
<trkpt lat="46.655687894672155" lon="7.114166719838977"><ele></ele><time>2014-10-30T5:27:59Z</time></trkpt>
<trkpt lat="46.655688816681504" lon="7.114123469218612"><ele></ele><time>2014-10-30T5:28:2Z</time></trkpt>
<trkpt lat="46.65570507757366" lon="7.114083068445325"><ele></ele><time>2014-10-30T5:28:5Z</time></trkpt>
<trkpt lat="46.65571756660938" lon="7.114052642136812"><ele></ele><time>2014-10-30T5:28:8Z</time></trkpt>
<trkpt lat="46.65572737343609" lon="7.114012576639652"><ele></ele><time>2014-10-30T5:28:11Z</time></trkpt>
<trkpt lat="46.65574145503342" lon="7.113968571648002"><ele></ele><time>2014-10-30T5:28:14Z</time></trkpt>
<trkpt lat="46.655756207183" lon="7.113933702930808"><ele></ele><time>2014-10-30T5:28:17Z</time></trkpt>
<trkpt lat="46.655782191082835" lon="7.113890955224633"><ele></ele><time>2014-10-30T5:28:20Z</time></trkpt>
<trkpt lat="46.65581320412457" lon="7.113834293559194"><ele></ele><time>2014-10-30T5:28:23Z</time></trkpt>
<trkpt lat="46.65584530681372" lon="7.113758185878396"><ele></ele><time>2014-10-30T5:28:26Z</time></trkpt>
<trkpt lat="46.655866177752614" lon="7.113685179501772"><ele></ele><time>2014-10-30T5:28:29Z</time></trkpt>
<trkpt lat="46.655875565484166" lon="7.113612592220306"><ele></ele><time>2014-10-30T5:28:32Z</time></trkpt>
<trkpt lat="46.65587858296931" lon="7.113553835079074"><ele></ele><time>2014-10-30T5:28:35Z</time></trkpt>
<trkpt lat="46.65587414056063" lon="7.1134985983371735"><ele></ele><time>2014-10-30T5:28:38Z</time></trkpt>
<trkpt lat="46.65586307644844" lon="7.113438919186592"><ele></ele><time>2014-10-30T5:28:41Z</time></trkpt>
<trkpt lat="46.655847653746605" lon="7.113370858132839"><ele></ele><time>2014-10-30T5:28:44Z</time></trkpt>
<trkpt lat="46.65585343725979" lon="7.113225935027003"><ele></ele><time>2014-10-30T5:28:47Z</time></trkpt>
<trkpt lat="46.65586827322841" lon="7.113157035782933"><ele></ele><time>2014-10-30T5:28:50Z</time></trkpt>
<trkpt lat="46.655888222157955" lon="7.113106828182936"><ele></ele><time>2014-10-30T5:28:53Z</time></trkpt>
<trkpt lat="46.65591035038233" lon="7.113050082698464"><ele></ele><time>2014-10-30T5:28:56Z</time></trkpt>
<trkpt lat="46.65592501871288" lon="7.1129911579191685"><ele></ele><time>2014-10-30T5:28:59Z</time></trkpt>
<trkpt lat="46.65593130514026" lon="7.112931227311492"><ele></ele><time>2014-10-30T5:29:2Z</time></trkpt>
<trkpt lat="46.65593767538667" lon="7.112881438806653"><ele></ele><time>2014-10-30T5:29:5Z</time></trkpt>
<trkpt lat="46.655951756983995" lon="7.112842798233032"><ele></ele><time>2014-10-30T5:29:8Z</time></trkpt>
<trkpt lat="46.65595946833491" lon="7.112809019163251"><ele></ele><time>2014-10-30T5:29:11Z</time></trkpt>
<trkpt lat="46.65595963597298" lon="7.1127681992948055"><ele></ele><time>2014-10-30T5:29:14Z</time></trkpt>
<trkpt lat="46.65595552884042" lon="7.112707430496812"><ele></ele><time>2014-10-30T5:29:17Z</time></trkpt>
<trkpt lat="46.65594697929919" lon="7.112652529031038"><ele></ele><time>2014-10-30T5:29:20Z</time></trkpt>
<trkpt lat="46.655934154987335" lon="7.112601147964597"><ele></ele><time>2014-10-30T5:29:23Z</time></trkpt>
<trkpt lat="46.65592074394226" lon="7.1125543769449"><ele></ele><time>2014-10-30T5:29:26Z</time></trkpt>
<trkpt lat="46.65590708144009" lon="7.11250307969749"><ele></ele><time>2014-10-30T5:29:29Z</time></trkpt>
<trkpt lat="46.65589333511889" lon="7.112452536821365"><ele></ele><time>2014-10-30T5:29:32Z</time></trkpt>
<trkpt lat="46.65587388910353" lon="7.112413728609681"><ele></ele><time>2014-10-30T5:29:35Z</time></trkpt>
<trkpt lat="46.655853940173984" lon="7.112367292866111"><ele></ele><time>2014-10-30T5:29:38Z</time></trkpt>
<trkpt lat="46.655840864405036" lon="7.112325634807348"><ele></ele><time>2014-10-30T5:29:41Z</time></trkpt>
<trkpt lat="46.65581873618066" lon="7.112289005890489"><ele></ele><time>2014-10-30T5:29:44Z</time></trkpt>
<trkpt lat="46.65579744614661" lon="7.112252460792661"><ele></ele><time>2014-10-30T5:29:47Z</time></trkpt>
<trkpt lat="46.65577766485512" lon="7.112211138010025"><ele></ele><time>2014-10-30T5:29:50Z</time></trkpt>
<trkpt lat="46.65576467290521" lon="7.1121809631586075"><ele></ele><time>2014-10-30T5:29:53Z</time></trkpt>
<trkpt lat="46.65575453080237" lon="7.112153889611363"><ele></ele><time>2014-10-30T5:29:56Z</time></trkpt>
<trkpt lat="46.65574422106147" lon="7.1121247205883265"><ele></ele><time>2014-10-30T5:29:59Z</time></trkpt>
<trkpt lat="46.6557392757386" lon="7.11210435256362"><ele></ele><time>2014-10-30T5:30:2Z</time></trkpt>
<trkpt lat="46.65573952719569" lon="7.112089097499847"><ele></ele><time>2014-10-30T5:30:5Z</time></trkpt>
<trkpt lat="46.65574715472758" lon="7.1120543126016855"><ele></ele><time>2014-10-30T5:30:8Z</time></trkpt>
<trkpt lat="46.65574707090855" lon="7.112029083073139"><ele></ele><time>2014-10-30T5:30:11Z</time></trkpt>
<trkpt lat="46.65574707090855" lon="7.112029083073139"><ele></ele><time>2014-10-30T5:30:14Z</time></trkpt>
<trkpt lat="46.65574707090855" lon="7.112029083073139"><ele></ele><time>2014-10-30T5:30:17Z</time></trkpt>
<trkpt lat="46.65574707090855" lon="7.112029083073139"><ele></ele><time>2014-10-30T5:30:20Z</time></trkpt>
<trkpt lat="46.65574707090855" lon="7.112029083073139"><ele></ele><time>2014-10-30T5:30:23Z</time></trkpt>
<trkpt lat="46.65574707090855" lon="7.112029083073139"><ele></ele><time>2014-10-30T5:30:26Z</time></trkpt>
<trkpt lat="46.65574707090855" lon="7.112029083073139"><ele></ele><time>2014-10-30T5:30:29Z</time></trkpt>
<trkpt lat="46.65574707090855" lon="7.112029083073139"><ele></ele><time>2014-10-30T5:30:32Z</time></trkpt>
<trkpt lat="46.655744053423405" lon="7.112027909606695"><ele></ele><time>2014-10-30T5:30:35Z</time></trkpt>
<trkpt lat="46.655744053423405" lon="7.112027909606695"><ele></ele><time>2014-10-30T5:30:38Z</time></trkpt>
<trkpt lat="46.655744053423405" lon="7.112027909606695"><ele></ele><time>2014-10-30T5:30:41Z</time></trkpt>
<trkpt lat="46.655744053423405" lon="7.112027909606695"><ele></ele><time>2014-10-30T5:30:44Z</time></trkpt>
<trkpt lat="46.655744053423405" lon="7.112027909606695"><ele></ele><time>2014-10-30T5:30:47Z</time></trkpt>
<trkpt lat="46.655744053423405" lon="7.112027909606695"><ele></ele><time>2014-10-30T5:30:50Z</time></trkpt>
<trkpt lat="46.655744053423405" lon="7.112027909606695"><ele></ele><time>2014-10-30T5:30:53Z</time></trkpt>
<trkpt lat="46.655744053423405" lon="7.112027909606695"><ele></ele><time>2014-10-30T5:30:56Z</time></trkpt>
<trkpt lat="46.655744053423405" lon="7.112027909606695"><ele></ele><time>2014-10-30T5:30:59Z</time></trkpt>
<trkpt lat="46.655744053423405" lon="7.112027909606695"><ele></ele><time>2014-10-30T5:31:2Z</time></trkpt>
<trkpt lat="46.655747909098864" lon="7.112028747797012"><ele></ele><time>2014-10-30T5:31:5Z</time></trkpt>
<trkpt lat="46.655747909098864" lon="7.112028747797012"><ele></ele><time>2014-10-30T5:31:8Z</time></trkpt>
<trkpt lat="46.655747909098864" lon="7.112028747797012"><ele></ele><time>2014-10-30T5:31:11Z</time></trkpt>
<trkpt lat="46.655747909098864" lon="7.112028747797012"><ele></ele><time>2014-10-30T5:31:14Z</time></trkpt>
<trkpt lat="46.655754866078496" lon="7.112025478854775"><ele></ele><time>2014-10-30T5:31:17Z</time></trkpt>
<trkpt lat="46.655768947675824" lon="7.112013325095177"><ele></ele><time>2014-10-30T5:31:20Z</time></trkpt>
<trkpt lat="46.65590104646981" lon="7.111964290961623"><ele></ele><time>2014-10-30T5:31:23Z</time></trkpt>
<trkpt lat="46.65594597347081" lon="7.111953226849437"><ele></ele><time>2014-10-30T5:31:26Z</time></trkpt>
<trkpt lat="46.65599391795695" lon="7.1119373850524426"><ele></ele><time>2014-10-30T5:31:29Z</time></trkpt>
<trkpt lat="46.65604437701404" lon="7.111929254606366"><ele></ele><time>2014-10-30T5:31:32Z</time></trkpt>
<trkpt lat="46.65610263124108" lon="7.111922465264797"><ele></ele><time>2014-10-30T5:31:35Z</time></trkpt>
<trkpt lat="46.65616608224809" lon="7.111913999542594"><ele></ele><time>2014-10-30T5:31:38Z</time></trkpt>
<trkpt lat="46.656218972057104" lon="7.111893547698855"><ele></ele><time>2014-10-30T5:31:41Z</time></trkpt>
<trkpt lat="46.65627186186612" lon="7.111861277371645"><ele></ele><time>2014-10-30T5:31:44Z</time></trkpt>
<trkpt lat="46.65632332675159" lon="7.1118145901709795"><ele></ele><time>2014-10-30T5:31:47Z</time></trkpt>
<trkpt lat="46.65636724792421" lon="7.111753402277827"><ele></ele><time>2014-10-30T5:31:50Z</time></trkpt>
<trkpt lat="46.656409157440066" lon="7.111683581024408"><ele></ele><time>2014-10-30T5:31:53Z</time></trkpt>
<trkpt lat="46.656437907367945" lon="7.111596828326583"><ele></ele><time>2014-10-30T5:31:56Z</time></trkpt>
<trkpt lat="46.65647872723639" lon="7.1114538330584764"><ele></ele><time>2014-10-30T5:31:59Z</time></trkpt>
<trkpt lat="46.65651292540133" lon="7.111401781439781"><ele></ele><time>2014-10-30T5:32:2Z</time></trkpt>
<trkpt lat="46.65656413882971" lon="7.111360542476177"><ele></ele><time>2014-10-30T5:32:5Z</time></trkpt>
<trkpt lat="46.65662473998964" lon="7.111334390938282"><ele></ele><time>2014-10-30T5:32:8Z</time></trkpt>
<trkpt lat="46.65669137611985" lon="7.111310502514243"><ele></ele><time>2014-10-30T5:32:11Z</time></trkpt>
<trkpt lat="46.65676320903003" lon="7.11127663962543"><ele></ele><time>2014-10-30T5:32:14Z</time></trkpt>
<trkpt lat="46.65684116072953" lon="7.111247135326266"><ele></ele><time>2014-10-30T5:32:17Z</time></trkpt>
<trkpt lat="46.6569238062948" lon="7.111211512237787"><ele></ele><time>2014-10-30T5:32:20Z</time></trkpt>
<trkpt lat="46.65700142271817" lon="7.111167591065168"><ele></ele><time>2014-10-30T5:32:23Z</time></trkpt>
<trkpt lat="46.657075518742204" lon="7.111113611608744"><ele></ele><time>2014-10-30T5:32:26Z</time></trkpt>
<trkpt lat="46.657143998891115" lon="7.111043957993388"><ele></ele><time>2014-10-30T5:32:29Z</time></trkpt>
<trkpt lat="46.65720443241298" lon="7.110958797857165"><ele></ele><time>2014-10-30T5:32:32Z</time></trkpt>
<trkpt lat="46.657255394384265" lon="7.110846396535635"><ele></ele><time>2014-10-30T5:32:35Z</time></trkpt>
<trkpt lat="46.65728976018727" lon="7.110721925273538"><ele></ele><time>2014-10-30T5:32:38Z</time></trkpt>
<trkpt lat="46.65731809101999" lon="7.110590245574713"><ele></ele><time>2014-10-30T5:32:41Z</time></trkpt>
<trkpt lat="46.65734399110079" lon="7.1104545425623655"><ele></ele><time>2014-10-30T5:32:44Z</time></trkpt>
<trkpt lat="46.65736855007708" lon="7.110319845378399"><ele></ele><time>2014-10-30T5:32:47Z</time></trkpt>
<trkpt lat="46.6573952883482" lon="7.1101895067840815"><ele></ele><time>2014-10-30T5:32:50Z</time></trkpt>
<trkpt lat="46.6574280615896" lon="7.110068304464221"><ele></ele><time>2014-10-30T5:32:53Z</time></trkpt>
<trkpt lat="46.65747122839093" lon="7.109959088265896"><ele></ele><time>2014-10-30T5:32:56Z</time></trkpt>
<trkpt lat="46.65752470493317" lon="7.109857834875584"><ele></ele><time>2014-10-30T5:32:59Z</time></trkpt>
<trkpt lat="46.657590586692095" lon="7.1097680646926165"><ele></ele><time>2014-10-30T5:33:2Z</time></trkpt>
<trkpt lat="46.65766518563032" lon="7.109681144356728"><ele></ele><time>2014-10-30T5:33:5Z</time></trkpt>
<trkpt lat="46.65774095803499" lon="7.109611909836531"><ele></ele><time>2014-10-30T5:33:8Z</time></trkpt>
<trkpt lat="46.657821172848344" lon="7.1095560025423765"><ele></ele><time>2014-10-30T5:33:11Z</time></trkpt>
<trkpt lat="46.6579080093652" lon="7.1095118299126625"><ele></ele><time>2014-10-30T5:33:14Z</time></trkpt>
<trkpt lat="46.65799342095852" lon="7.109482996165752"><ele></ele><time>2014-10-30T5:33:17Z</time></trkpt>
<trkpt lat="46.65807791054249" lon="7.10947260260582"><ele></ele><time>2014-10-30T5:33:20Z</time></trkpt>
<trkpt lat="46.6581654176116" lon="7.10947897285223"><ele></ele><time>2014-10-30T5:33:23Z</time></trkpt>
<trkpt lat="46.6582550201565" lon="7.109500514343381"><ele></ele><time>2014-10-30T5:33:26Z</time></trkpt>
<trkpt lat="46.658353842794895" lon="7.109554493799806"><ele></ele><time>2014-10-30T5:33:29Z</time></trkpt>
<trkpt lat="46.65844654664397" lon="7.109619788825512"><ele></ele><time>2014-10-30T5:33:32Z</time></trkpt>
<trkpt lat="46.65852609090507" lon="7.109679048880935"><ele></ele><time>2014-10-30T5:33:35Z</time></trkpt>
<trkpt lat="46.65858610533178" lon="7.1097141690552235"><ele></ele><time>2014-10-30T5:33:38Z</time></trkpt>
<trkpt lat="46.65862809866667" lon="7.109720790758729"><ele></ele><time>2014-10-30T5:33:41Z</time></trkpt>
<trkpt lat="46.65867185220122" lon="7.109685335308313"><ele></ele><time>2014-10-30T5:33:44Z</time></trkpt>
<trkpt lat="46.658702194690704" lon="7.109613167122006"><ele></ele><time>2014-10-30T5:33:47Z</time></trkpt>
<trkpt lat="46.658698758110404" lon="7.109413258731365"><ele></ele><time>2014-10-30T5:33:50Z</time></trkpt>
<trkpt lat="46.65868450887501" lon="7.109296582639217"><ele></ele><time>2014-10-30T5:33:53Z</time></trkpt>
<trkpt lat="46.65867076255381" lon="7.109176553785801"><ele></ele><time>2014-10-30T5:33:56Z</time></trkpt>
<trkpt lat="46.658668080344796" lon="7.1090582851320505"><ele></ele><time>2014-10-30T5:33:59Z</time></trkpt>
<trkpt lat="46.658680234104395" lon="7.108930964022875"><ele></ele><time>2014-10-30T5:34:2Z</time></trkpt>
<trkpt lat="46.65870496071875" lon="7.108806995674968"><ele></ele><time>2014-10-30T5:34:5Z</time></trkpt>
<trkpt lat="46.65874888189137" lon="7.108679758384824"><ele></ele><time>2014-10-30T5:34:8Z</time></trkpt>
<trkpt lat="46.65879338979721" lon="7.108538690954447"><ele></ele><time>2014-10-30T5:34:11Z</time></trkpt>
<trkpt lat="46.65882599540055" lon="7.108405586332083"><ele></ele><time>2014-10-30T5:34:14Z</time></trkpt>
<trkpt lat="46.65884896181524" lon="7.1082651894539595"><ele></ele><time>2014-10-30T5:34:17Z</time></trkpt>
<trkpt lat="46.65888123214245" lon="7.108115991577506"><ele></ele><time>2014-10-30T5:34:20Z</time></trkpt>
<trkpt lat="46.658915262669325" lon="7.107957908883691"><ele></ele><time>2014-10-30T5:34:23Z</time></trkpt>
<trkpt lat="46.65894887410104" lon="7.107797311618924"><ele></ele><time>2014-10-30T5:34:26Z</time></trkpt>
<trkpt lat="46.65897661820054" lon="7.107652723789215"><ele></ele><time>2014-10-30T5:34:29Z</time></trkpt>
<trkpt lat="46.659010481089354" lon="7.107517020776868"><ele></ele><time>2014-10-30T5:34:32Z</time></trkpt>
<trkpt lat="46.659057922661304" lon="7.107384754344821"><ele></ele><time>2014-10-30T5:34:35Z</time></trkpt>
<trkpt lat="46.65911424905062" lon="7.107258439064026"><ele></ele><time>2014-10-30T5:34:38Z</time></trkpt>
<trkpt lat="46.659173257648945" lon="7.107141762971878"><ele></ele><time>2014-10-30T5:34:41Z</time></trkpt>
<trkpt lat="46.65923863649368" lon="7.107027769088745"><ele></ele><time>2014-10-30T5:34:44Z</time></trkpt>
<trkpt lat="46.659288592636585" lon="7.106906985864043"><ele></ele><time>2014-10-30T5:34:47Z</time></trkpt>
<trkpt lat="46.65931994095445" lon="7.106773294508457"><ele></ele><time>2014-10-30T5:34:50Z</time></trkpt>
<trkpt lat="46.659338884055614" lon="7.106629041954875"><ele></ele><time>2014-10-30T5:34:53Z</time></trkpt>
<trkpt lat="46.65935874916613" lon="7.106484202668071"><ele></ele><time>2014-10-30T5:34:56Z</time></trkpt>
<trkpt lat="46.65937442332506" lon="7.1063566301018"><ele></ele><time>2014-10-30T5:34:59Z</time></trkpt>
<trkpt lat="46.65938414633274" lon="7.106244480237365"><ele></ele><time>2014-10-30T5:35:2Z</time></trkpt>
<trkpt lat="46.65938867256045" lon="7.106144316494465"><ele></ele><time>2014-10-30T5:35:5Z</time></trkpt>
<trkpt lat="46.65941524319351" lon="7.10597014054656"><ele></ele><time>2014-10-30T5:35:8Z</time></trkpt>
<trkpt lat="46.65945237502456" lon="7.105813315138221"><ele></ele><time>2014-10-30T5:35:11Z</time></trkpt>
<trkpt lat="46.65941289626062" lon="7.105678031221032"><ele></ele><time>2014-10-30T5:35:14Z</time></trkpt>
<trkpt lat="46.65931457653642" lon="7.105644000694156"><ele></ele><time>2014-10-30T5:35:17Z</time></trkpt>
<trkpt lat="46.65921273641288" lon="7.105645090341568"><ele></ele><time>2014-10-30T5:35:20Z</time></trkpt>
<trkpt lat="46.65911642834544" lon="7.1056372951716185"><ele></ele><time>2014-10-30T5:35:23Z</time></trkpt>
<trkpt lat="46.659066807478666" lon="7.1056155022233725"><ele></ele><time>2014-10-30T5:35:26Z</time></trkpt>
<trkpt lat="46.658924482762814" lon="7.105545848608017"><ele></ele><time>2014-10-30T5:35:29Z</time></trkpt>
<trkpt lat="46.65887603536248" lon="7.105523468926549"><ele></ele><time>2014-10-30T5:35:32Z</time></trkpt>
<trkpt lat="46.65877771563828" lon="7.105486420914531"><ele></ele><time>2014-10-30T5:35:35Z</time></trkpt>
<trkpt lat="46.65873077698052" lon="7.10546538233757"><ele></ele><time>2014-10-30T5:35:38Z</time></trkpt>
<trkpt lat="46.65864000096917" lon="7.10542774759233"><ele></ele><time>2014-10-30T5:35:41Z</time></trkpt>
<trkpt lat="46.65854872204363" lon="7.10538768209517"><ele></ele><time>2014-10-30T5:35:44Z</time></trkpt>
<trkpt lat="46.658458365127444" lon="7.105343425646424"><ele></ele><time>2014-10-30T5:35:47Z</time></trkpt>
<trkpt lat="46.65841318666935" lon="7.105327919125557"><ele></ele><time>2014-10-30T5:35:50Z</time></trkpt>
<trkpt lat="46.65836381725967" lon="7.105311071500182"><ele></ele><time>2014-10-30T5:35:53Z</time></trkpt>
<trkpt lat="46.658315705135465" lon="7.105290619656444"><ele></ele><time>2014-10-30T5:35:56Z</time></trkpt>
<trkpt lat="46.65826616808772" lon="7.105271425098181"><ele></ele><time>2014-10-30T5:35:59Z</time></trkpt>
<trkpt lat="46.65821587666869" lon="7.105255080386996"><ele></ele><time>2014-10-30T5:36:2Z</time></trkpt>
<trkpt lat="46.65816742926836" lon="7.105231191962957"><ele></ele><time>2014-10-30T5:36:5Z</time></trkpt>
<trkpt lat="46.65811914950609" lon="7.105209399014711"><ele></ele><time>2014-10-30T5:36:8Z</time></trkpt>
<trkpt lat="46.65801043622196" lon="7.105169836431742"><ele></ele><time>2014-10-30T5:36:11Z</time></trkpt>
<trkpt lat="46.65785478428006" lon="7.105117533355951"><ele></ele><time>2014-10-30T5:36:14Z</time></trkpt>
<trkpt lat="46.65775017812848" lon="7.105075120925903"><ele></ele><time>2014-10-30T5:36:17Z</time></trkpt>
<trkpt lat="46.65752646513283" lon="7.10500312037766"><ele></ele><time>2014-10-30T5:36:20Z</time></trkpt>
<trkpt lat="46.657356061041355" lon="7.104953080415726"><ele></ele><time>2014-10-30T5:36:23Z</time></trkpt>
<trkpt lat="46.65716956369579" lon="7.10490882396698"><ele></ele><time>2014-10-30T5:36:26Z</time></trkpt>
<trkpt lat="46.65690779685974" lon="7.1048747934401035"><ele></ele><time>2014-10-30T5:36:29Z</time></trkpt>
<trkpt lat="46.65663857012987" lon="7.104847552254796"><ele></ele><time>2014-10-30T5:36:32Z</time></trkpt>
<trkpt lat="46.65656950324774" lon="7.104843780398369"><ele></ele><time>2014-10-30T5:36:35Z</time></trkpt>
<trkpt lat="46.65643128566444" lon="7.104836152866483"><ele></ele><time>2014-10-30T5:36:38Z</time></trkpt>
<trkpt lat="46.65636146441102" lon="7.104836571961641"><ele></ele><time>2014-10-30T5:36:41Z</time></trkpt>
<trkpt lat="46.65629197843373" lon="7.104839002713561"><ele></ele><time>2014-10-30T5:36:44Z</time></trkpt>
<trkpt lat="46.656221989542246" lon="7.104842523112893"><ele></ele><time>2014-10-30T5:36:47Z</time></trkpt>
<trkpt lat="46.65585804730654" lon="7.104872865602374"><ele></ele><time>2014-10-30T5:36:50Z</time></trkpt>
<trkpt lat="46.655406849458814" lon="7.104965904727578"><ele></ele><time>2014-10-30T5:36:53Z</time></trkpt>
<trkpt lat="46.655332585796714" lon="7.104991553351283"><ele></ele><time>2014-10-30T5:36:56Z</time></trkpt>
<trkpt lat="46.65525605902076" lon="7.1050099935382605"><ele></ele><time>2014-10-30T5:36:59Z</time></trkpt>
<trkpt lat="46.655180705711246" lon="7.105037989094853"><ele></ele><time>2014-10-30T5:37:2Z</time></trkpt>
<trkpt lat="46.655106358230114" lon="7.105065817013383"><ele></ele><time>2014-10-30T5:37:5Z</time></trkpt>
<trkpt lat="46.654952047392726" lon="7.1051218919456005"><ele></ele><time>2014-10-30T5:37:8Z</time></trkpt>
<trkpt lat="46.65442273020744" lon="7.105373768135905"><ele></ele><time>2014-10-30T5:37:11Z</time></trkpt>
<trkpt lat="46.65434536524117" lon="7.105411654338241"><ele></ele><time>2014-10-30T5:37:14Z</time></trkpt>
<trkpt lat="46.65379224345088" lon="7.105698483064771"><ele></ele><time>2014-10-30T5:37:17Z</time></trkpt>
<trkpt lat="46.653713285923004" lon="7.105740141123533"><ele></ele><time>2014-10-30T5:37:20Z</time></trkpt>
<trkpt lat="46.65314725600183" lon="7.106040716171265"><ele></ele><time>2014-10-30T5:37:23Z</time></trkpt>
<trkpt lat="46.652990179136395" lon="7.106126798316836"><ele></ele><time>2014-10-30T5:37:26Z</time></trkpt>
<trkpt lat="46.65242406539619" lon="7.106426786631346"><ele></ele><time>2014-10-30T5:37:29Z</time></trkpt>
<trkpt lat="46.65185661055148" lon="7.106719734147191"><ele></ele><time>2014-10-30T5:37:32Z</time></trkpt>
<trkpt lat="46.6512942686677" lon="7.107008825987577"><ele></ele><time>2014-10-30T5:37:35Z</time></trkpt>
<trkpt lat="46.65121489204466" lon="7.107050735503435"><ele></ele><time>2014-10-30T5:37:38Z</time></trkpt>
<trkpt lat="46.65064752101898" lon="7.107322812080383"><ele></ele><time>2014-10-30T5:37:41Z</time></trkpt>
<trkpt lat="46.650567976757884" lon="7.107352232560515"><ele></ele><time>2014-10-30T5:37:44Z</time></trkpt>
<trkpt lat="46.649994403123856" lon="7.107494724914432"><ele></ele><time>2014-10-30T5:37:47Z</time></trkpt>
<trkpt lat="46.64953373372555" lon="7.107516098767519"><ele></ele><time>2014-10-30T5:37:50Z</time></trkpt>
<trkpt lat="46.649167612195015" lon="7.107487013563514"><ele></ele><time>2014-10-30T5:37:53Z</time></trkpt>
<trkpt lat="46.649095276370645" lon="7.10748047567904"><ele></ele><time>2014-10-30T5:37:56Z</time></trkpt>
<trkpt lat="46.649023443460464" lon="7.107474692165852"><ele></ele><time>2014-10-30T5:37:59Z</time></trkpt>
<trkpt lat="46.64894758723676" lon="7.10746287368238"><ele></ele><time>2014-10-30T5:38:2Z</time></trkpt>
<trkpt lat="46.648879777640104" lon="7.107456335797906"><ele></ele><time>2014-10-30T5:38:5Z</time></trkpt>
<trkpt lat="46.64848146960139" lon="7.107421886175871"><ele></ele><time>2014-10-30T5:38:8Z</time></trkpt>
<trkpt lat="46.64841332472861" lon="7.107415096834302"><ele></ele><time>2014-10-30T5:38:11Z</time></trkpt>
<trkpt lat="46.648348700255156" lon="7.10740864276886"><ele></ele><time>2014-10-30T5:38:14Z</time></trkpt>
<trkpt lat="46.648284243419766" lon="7.107402021065354"><ele></ele><time>2014-10-30T5:38:17Z</time></trkpt>
<trkpt lat="46.64822104386985" lon="7.107396489009261"><ele></ele><time>2014-10-30T5:38:20Z</time></trkpt>
<trkpt lat="46.64790672250092" lon="7.107345191761851"><ele></ele><time>2014-10-30T5:38:23Z</time></trkpt>
<trkpt lat="46.647842517122626" lon="7.1073339600116014"><ele></ele><time>2014-10-30T5:38:26Z</time></trkpt>
<trkpt lat="46.647778479382396" lon="7.107320884242654"><ele></ele><time>2014-10-30T5:38:29Z</time></trkpt>
<trkpt lat="46.64771519601345" lon="7.107307389378548"><ele></ele><time>2014-10-30T5:38:32Z</time></trkpt>
<trkpt lat="46.647651912644506" lon="7.107295319437981"><ele></ele><time>2014-10-30T5:38:35Z</time></trkpt>
<trkpt lat="46.64758913218975" lon="7.107281489297748"><ele></ele><time>2014-10-30T5:38:38Z</time></trkpt>
<trkpt lat="46.64733893238008" lon="7.1072193793952465"><ele></ele><time>2014-10-30T5:38:41Z</time></trkpt>
<trkpt lat="46.64688630960882" lon="7.1071224845945835"><ele></ele><time>2014-10-30T5:38:44Z</time></trkpt>
<trkpt lat="46.64643410593271" lon="7.107040677219629"><ele></ele><time>2014-10-30T5:38:47Z</time></trkpt>
<trkpt lat="46.64636554196477" lon="7.107036653906107"><ele></ele><time>2014-10-30T5:38:50Z</time></trkpt>
<trkpt lat="46.64629731327295" lon="7.107041263952851"><ele></ele><time>2014-10-30T5:38:53Z</time></trkpt>
<trkpt lat="46.64623151533306" lon="7.107044281437993"><ele></ele><time>2014-10-30T5:38:56Z</time></trkpt>
<trkpt lat="46.64616127498448" lon="7.107047466561198"><ele></ele><time>2014-10-30T5:38:59Z</time></trkpt>
<trkpt lat="46.64601224474609" lon="7.107068840414286"><ele></ele><time>2014-10-30T5:39:2Z</time></trkpt>
<trkpt lat="46.64540212601423" lon="7.107136650010943"><ele></ele><time>2014-10-30T5:39:5Z</time></trkpt>
<trkpt lat="46.64509375579655" lon="7.107227761298418"><ele></ele><time>2014-10-30T5:39:8Z</time></trkpt>
<trkpt lat="46.645015804097056" lon="7.107256846502423"><ele></ele><time>2014-10-30T5:39:11Z</time></trkpt>
<trkpt lat="46.64493718184531" lon="7.107285093516111"><ele></ele><time>2014-10-30T5:39:14Z</time></trkpt>
<trkpt lat="46.644860822707415" lon="7.1073145139962435"><ele></ele><time>2014-10-30T5:39:17Z</time></trkpt>
<trkpt lat="46.64478446356952" lon="7.107347873970866"><ele></ele><time>2014-10-30T5:39:20Z</time></trkpt>
<trkpt lat="46.64470944553614" lon="7.107376623898745"><ele></ele><time>2014-10-30T5:39:23Z</time></trkpt>
<trkpt lat="46.64440819993615" lon="7.107495395466685"><ele></ele><time>2014-10-30T5:39:26Z</time></trkpt>
<trkpt lat="46.64425288327038" lon="7.107536299154162"><ele></ele><time>2014-10-30T5:39:29Z</time></trkpt>
<trkpt lat="46.64417468011379" lon="7.107547782361507"><ele></ele><time>2014-10-30T5:39:32Z</time></trkpt>
<trkpt lat="46.644093627110124" lon="7.107559349387884"><ele></ele><time>2014-10-30T5:39:35Z</time></trkpt>
<trkpt lat="46.6440103109926" lon="7.107570832595229"><ele></ele><time>2014-10-30T5:39:38Z</time></trkpt>
<trkpt lat="46.643926156684756" lon="7.107580723240972"><ele></ele><time>2014-10-30T5:39:41Z</time></trkpt>
<trkpt lat="46.643400276079774" lon="7.1075766161084175"><ele></ele><time>2014-10-30T5:39:44Z</time></trkpt>
<trkpt lat="46.6428688634187" lon="7.107537724077702"><ele></ele><time>2014-10-30T5:39:47Z</time></trkpt>
<trkpt lat="46.6426909994334" lon="7.107526576146483"><ele></ele><time>2014-10-30T5:39:50Z</time></trkpt>
<trkpt lat="46.6421246342361" lon="7.107489695772529"><ele></ele><time>2014-10-30T5:39:53Z</time></trkpt>
<trkpt lat="46.64192598313093" lon="7.107474021613598"><ele></ele><time>2014-10-30T5:39:56Z</time></trkpt>
<trkpt lat="46.6414044611156" lon="7.107440494000912"><ele></ele><time>2014-10-30T5:39:59Z</time></trkpt>
<trkpt lat="46.64129859767854" lon="7.1074361354112625"><ele></ele><time>2014-10-30T5:40:2Z</time></trkpt>
<trkpt lat="46.641191225498915" lon="7.107429010793567"><ele></ele><time>2014-10-30T5:40:5Z</time></trkpt>
<trkpt lat="46.641084775328636" lon="7.107417192310095"><ele></ele><time>2014-10-30T5:40:8Z</time></trkpt>
<trkpt lat="46.6409760620445" lon="7.107408223673701"><ele></ele><time>2014-10-30T5:40:11Z</time></trkpt>
<trkpt lat="46.640866342931986" lon="7.1074034459888935"><ele></ele><time>2014-10-30T5:40:14Z</time></trkpt>
<trkpt lat="46.64075846783817" lon="7.107399003580213"><ele></ele><time>2014-10-30T5:40:17Z</time></trkpt>
<trkpt lat="46.6406446415931" lon="7.107392298057675"><ele></ele><time>2014-10-30T5:40:20Z</time></trkpt>
<trkpt lat="46.640536431223154" lon="7.107395147904754"><ele></ele><time>2014-10-30T5:40:23Z</time></trkpt>
<trkpt lat="46.64042822085321" lon="7.107402021065354"><ele></ele><time>2014-10-30T5:40:26Z</time></trkpt>
<trkpt lat="46.6403200943023" lon="7.1074131689965725"><ele></ele><time>2014-10-30T5:40:29Z</time></trkpt>
<trkpt lat="46.64021071046591" lon="7.10742968134582"><ele></ele><time>2014-10-30T5:40:32Z</time></trkpt>
<trkpt lat="46.640099147334695" lon="7.107454240322113"><ele></ele><time>2014-10-30T5:40:35Z</time></trkpt>
<trkpt lat="46.63998900912702" lon="7.107482403516769"><ele></ele><time>2014-10-30T5:40:38Z</time></trkpt>
<trkpt lat="46.63987744599581" lon="7.107509644702077"><ele></ele><time>2014-10-30T5:40:41Z</time></trkpt>
<trkpt lat="46.639760518446565" lon="7.107544345781207"><ele></ele><time>2014-10-30T5:40:44Z</time></trkpt>
<trkpt lat="46.63965381681919" lon="7.107583656907082"><ele></ele><time>2014-10-30T5:40:47Z</time></trkpt>
<trkpt lat="46.63954761810601" lon="7.1076281648129225"><ele></ele><time>2014-10-30T5:40:50Z</time></trkpt>
<trkpt lat="46.639443850144744" lon="7.107675690203905"><ele></ele><time>2014-10-30T5:40:53Z</time></trkpt>
<trkpt lat="46.639341758564115" lon="7.107727071270347"><ele></ele><time>2014-10-30T5:40:56Z</time></trkpt>
<trkpt lat="46.63924184627831" lon="7.107778200879693"><ele></ele><time>2014-10-30T5:40:59Z</time></trkpt>
<trkpt lat="46.63904721848667" lon="7.107892697677016"><ele></ele><time>2014-10-30T5:41:2Z</time></trkpt>
<trkpt lat="46.63857338950038" lon="7.1081712283194065"><ele></ele><time>2014-10-30T5:41:5Z</time></trkpt>
<trkpt lat="46.6384946834296" lon="7.1082124672830105"><ele></ele><time>2014-10-30T5:41:8Z</time></trkpt>
<trkpt lat="46.63841036148369" lon="7.108262591063976"><ele></ele><time>2014-10-30T5:41:11Z</time></trkpt>
<trkpt lat="46.6383184120059" lon="7.108300058171153"><ele></ele><time>2014-10-30T5:41:14Z</time></trkpt>
<trkpt lat="46.638144655153155" lon="7.108359234407544"><ele></ele><time>2014-10-30T5:41:17Z</time></trkpt>
<trkpt lat="46.63806418888271" lon="7.108381865546107"><ele></ele><time>2014-10-30T5:41:20Z</time></trkpt>
<trkpt lat="46.63798606954515" lon="7.108400724828243"><ele></ele><time>2014-10-30T5:41:23Z</time></trkpt>
<trkpt lat="46.637912979349494" lon="7.1084200870245695"><ele></ele><time>2014-10-30T5:41:26Z</time></trkpt>
<trkpt lat="46.63784332573414" lon="7.108437353745103"><ele></ele><time>2014-10-30T5:41:29Z</time></trkpt>
<trkpt lat="46.63777300156653" lon="7.108449675142765"><ele></ele><time>2014-10-30T5:41:32Z</time></trkpt>
<trkpt lat="46.63770862855017" lon="7.10846409201622"><ele></ele><time>2014-10-30T5:41:35Z</time></trkpt>
<trkpt lat="46.637645261362195" lon="7.108474234119058"><ele></ele><time>2014-10-30T5:41:38Z</time></trkpt>
<trkpt lat="46.63758407346904" lon="7.108488818630576"><ele></ele><time>2014-10-30T5:41:41Z</time></trkpt>
<trkpt lat="46.63752372376621" lon="7.1085054986178875"><ele></ele><time>2014-10-30T5:41:44Z</time></trkpt>
<trkpt lat="46.63746505044401" lon="7.108519161120057"><ele></ele><time>2014-10-30T5:41:47Z</time></trkpt>
<trkpt lat="46.637406796216965" lon="7.108533158898354"><ele></ele><time>2014-10-30T5:41:50Z</time></trkpt>
<trkpt lat="46.63735960610211" lon="7.1085473243147135"><ele></ele><time>2014-10-30T5:41:53Z</time></trkpt>
<trkpt lat="46.637095492333174" lon="7.1086206659674644"><ele></ele><time>2014-10-30T5:41:56Z</time></trkpt>
<trkpt lat="46.63704595528543" lon="7.108636340126395"><ele></ele><time>2014-10-30T5:41:59Z</time></trkpt>
<trkpt lat="46.63699759170413" lon="7.108649248257279"><ele></ele><time>2014-10-30T5:42:2Z</time></trkpt>
<trkpt lat="46.63695015013218" lon="7.108659977093339"><ele></ele><time>2014-10-30T5:42:5Z</time></trkpt>
<trkpt lat="46.6369058098644" lon="7.108671795576811"><ele></ele><time>2014-10-30T5:42:8Z</time></trkpt>
<trkpt lat="46.63686281070113" lon="7.108680680394173"><ele></ele><time>2014-10-30T5:42:11Z</time></trkpt>
<trkpt lat="46.63682375103235" lon="7.108702892437577"><ele></ele><time>2014-10-30T5:42:14Z</time></trkpt>
<trkpt lat="46.63674144074321" lon="7.10871965624392"><ele></ele><time>2014-10-30T5:42:17Z</time></trkpt>
<trkpt lat="46.63670196197927" lon="7.108727870509028"><ele></ele><time>2014-10-30T5:42:20Z</time></trkpt>
<trkpt lat="46.6366605553776" lon="7.108731642365456"><ele></ele><time>2014-10-30T5:42:23Z</time></trkpt>
<trkpt lat="46.636616215109825" lon="7.108740359544754"><ele></ele><time>2014-10-30T5:42:26Z</time></trkpt>
<trkpt lat="46.63657338358462" lon="7.1087508369237185"><ele></ele><time>2014-10-30T5:42:29Z</time></trkpt>
<trkpt lat="46.63652963005006" lon="7.108760140836239"><ele></ele><time>2014-10-30T5:42:32Z</time></trkpt>
<trkpt lat="46.63648713380098" lon="7.108760727569461"><ele></ele><time>2014-10-30T5:42:35Z</time></trkpt>
<trkpt lat="46.63644413463771" lon="7.108763409778476"><ele></ele><time>2014-10-30T5:42:38Z</time></trkpt>
<trkpt lat="46.63618488237262" lon="7.108817221596837"><ele></ele><time>2014-10-30T5:42:41Z</time></trkpt>
<trkpt lat="46.63613962009549" lon="7.108830129727721"><ele></ele><time>2014-10-30T5:42:44Z</time></trkpt>
<trkpt lat="46.63609519600868" lon="7.108835158869624"><ele></ele><time>2014-10-30T5:42:47Z</time></trkpt>
<trkpt lat="46.63605152629316" lon="7.108844546601176"><ele></ele><time>2014-10-30T5:42:50Z</time></trkpt>
<trkpt lat="46.63601020351052" lon="7.1088518388569355"><ele></ele><time>2014-10-30T5:42:53Z</time></trkpt>
<trkpt lat="46.635962845757604" lon="7.108852006494999"><ele></ele><time>2014-10-30T5:42:56Z</time></trkpt>
<trkpt lat="46.63591884076595" lon="7.108854604884982"><ele></ele><time>2014-10-30T5:42:59Z</time></trkpt>
<trkpt lat="46.63564072921872" lon="7.108848989009857"><ele></ele><time>2014-10-30T5:43:2Z</time></trkpt>
<trkpt lat="46.635591527447104" lon="7.108846809715033"><ele></ele><time>2014-10-30T5:43:5Z</time></trkpt>
<trkpt lat="46.63554358296096" lon="7.108843037858605"><ele></ele><time>2014-10-30T5:43:8Z</time></trkpt>
<trkpt lat="46.63549563847482" lon="7.108838343992829"><ele></ele><time>2014-10-30T5:43:11Z</time></trkpt>
<trkpt lat="46.63544761016965" lon="7.10883448831737"><ele></ele><time>2014-10-30T5:43:14Z</time></trkpt>
<trkpt lat="46.635118620470166" lon="7.108793081715703"><ele></ele><time>2014-10-30T5:43:17Z</time></trkpt>
<trkpt lat="46.6350703407079" lon="7.108784951269627"><ele></ele><time>2014-10-30T5:43:20Z</time></trkpt>
<trkpt lat="46.63502063602209" lon="7.108776401728392"><ele></ele><time>2014-10-30T5:43:23Z</time></trkpt>
<trkpt lat="46.634971937164664" lon="7.108770618215203"><ele></ele><time>2014-10-30T5:43:26Z</time></trkpt>
<trkpt lat="46.63492105901241" lon="7.108765337616205"><ele></ele><time>2014-10-30T5:43:29Z</time></trkpt>
<trkpt lat="46.634871857240796" lon="7.1087584644556046"><ele></ele><time>2014-10-30T5:43:32Z</time></trkpt>
<trkpt lat="46.63468108512461" lon="7.108739772811532"><ele></ele><time>2014-10-30T5:43:35Z</time></trkpt>
<trkpt lat="46.63437372073531" lon="7.1087069157511"><ele></ele><time>2014-10-30T5:43:38Z</time></trkpt>
<trkpt lat="46.63432342931628" lon="7.108700964599848"><ele></ele><time>2014-10-30T5:43:41Z</time></trkpt>
<trkpt lat="46.63427263498306" lon="7.1086930856108665"><ele></ele><time>2014-10-30T5:43:44Z</time></trkpt>
<trkpt lat="46.63422200828791" lon="7.108689229935408"><ele></ele><time>2014-10-30T5:43:47Z</time></trkpt>
<trkpt lat="46.634169118478894" lon="7.108683530241251"><ele></ele><time>2014-10-30T5:43:50Z</time></trkpt>
<trkpt lat="46.633852533996105" lon="7.108647990971804"><ele></ele><time>2014-10-30T5:43:53Z</time></trkpt>
<trkpt lat="46.633798303082585" lon="7.1086442191153765"><ele></ele><time>2014-10-30T5:43:56Z</time></trkpt>
<trkpt lat="46.63368506357074" lon="7.108646314591169"><ele></ele><time>2014-10-30T5:43:59Z</time></trkpt>
<trkpt lat="46.633521700277925" lon="7.10863022133708"><ele></ele><time>2014-10-30T5:44:2Z</time></trkpt>
<trkpt lat="46.63307595066726" lon="7.108619241043925"><ele></ele><time>2014-10-30T5:44:5Z</time></trkpt>
<trkpt lat="46.63266045972705" lon="7.108526369556785"><ele></ele><time>2014-10-30T5:44:8Z</time></trkpt>
<trkpt lat="46.63215930573642" lon="7.108371555805206"><ele></ele><time>2014-10-30T5:44:11Z</time></trkpt>
<trkpt lat="46.631697630509734" lon="7.1083679515868425"><ele></ele><time>2014-10-30T5:44:14Z</time></trkpt>
<trkpt lat="46.631222292780876" lon="7.108472054824233"><ele></ele><time>2014-10-30T5:44:17Z</time></trkpt>
<trkpt lat="46.63071736693382" lon="7.108567273244262"><ele></ele><time>2014-10-30T5:44:20Z</time></trkpt>
<trkpt lat="46.630096016451716" lon="7.108660731464624"><ele></ele><time>2014-10-30T5:44:23Z</time></trkpt>
<trkpt lat="46.630003647878766" lon="7.108664000406861"><ele></ele><time>2014-10-30T5:44:26Z</time></trkpt>
<trkpt lat="46.62991194985807" lon="7.108669113367796"><ele></ele><time>2014-10-30T5:44:29Z</time></trkpt>
<trkpt lat="46.629819329828024" lon="7.1086695324629545"><ele></ele><time>2014-10-30T5:44:32Z</time></trkpt>
<trkpt lat="46.62972494959831" lon="7.1086757350713015"><ele></ele><time>2014-10-30T5:44:35Z</time></trkpt>
<trkpt lat="46.62962512113154" lon="7.108677159994841"><ele></ele><time>2014-10-30T5:44:38Z</time></trkpt>
<trkpt lat="46.62923879921436" lon="7.108672466129065"><ele></ele><time>2014-10-30T5:44:41Z</time></trkpt>
<trkpt lat="46.629141233861446" lon="7.108677243813872"><ele></ele><time>2014-10-30T5:44:44Z</time></trkpt>
<trkpt lat="46.62903771735728" lon="7.108675399795175"><ele></ele><time>2014-10-30T5:44:47Z</time></trkpt>
<trkpt lat="46.628940822556615" lon="7.10867565125227"><ele></ele><time>2014-10-30T5:44:50Z</time></trkpt>
<trkpt lat="46.62865273654461" lon="7.108667269349098"><ele></ele><time>2014-10-30T5:44:53Z</time></trkpt>
<trkpt lat="46.62827898748219" lon="7.108663665130734"><ele></ele><time>2014-10-30T5:44:56Z</time></trkpt>
<trkpt lat="46.62818427197635" lon="7.108660312369466"><ele></ele><time>2014-10-30T5:44:59Z</time></trkpt>
<trkpt lat="46.62809290923178" lon="7.108665173873305"><ele></ele><time>2014-10-30T5:45:2Z</time></trkpt>
<trkpt lat="46.62800246849656" lon="7.108668610453606"><ele></ele><time>2014-10-30T5:45:5Z</time></trkpt>
<trkpt lat="46.62791286595166" lon="7.108669700101018"><ele></ele><time>2014-10-30T5:45:8Z</time></trkpt>
<trkpt lat="46.62729964591563" lon="7.108658384531736"><ele></ele><time>2014-10-30T5:45:11Z</time></trkpt>
<trkpt lat="46.62676270119846" lon="7.108736503869295"><ele></ele><time>2014-10-30T5:45:14Z</time></trkpt>
<trkpt lat="46.62667318247259" lon="7.108761230483651"><ele></ele><time>2014-10-30T5:45:17Z</time></trkpt>
<trkpt lat="46.6261353995651" lon="7.108928365632892"><ele></ele><time>2014-10-30T5:45:20Z</time></trkpt>
<trkpt lat="46.62595745176077" lon="7.108981925994158"><ele></ele><time>2014-10-30T5:45:23Z</time></trkpt>
<trkpt lat="46.62586902268231" lon="7.109009502455592"><ele></ele><time>2014-10-30T5:45:26Z</time></trkpt>
<trkpt lat="46.62578009068966" lon="7.109034061431885"><ele></ele><time>2014-10-30T5:45:29Z</time></trkpt>
<trkpt lat="46.62569551728666" lon="7.109063062816858"><ele></ele><time>2014-10-30T5:45:32Z</time></trkpt>
<trkpt lat="46.62560616619885" lon="7.109087873250246"><ele></ele><time>2014-10-30T5:45:35Z</time></trkpt>
<trkpt lat="46.62552519701421" lon="7.10911151021719"><ele></ele><time>2014-10-30T5:45:38Z</time></trkpt>
<trkpt lat="46.62535395473242" lon="7.109166327863932"><ele></ele><time>2014-10-30T5:45:41Z</time></trkpt>
<trkpt lat="46.62527625449002" lon="7.109193233773112"><ele></ele><time>2014-10-30T5:45:44Z</time></trkpt>
<trkpt lat="46.62519813515246" lon="7.109219217672944"><ele></ele><time>2014-10-30T5:45:47Z</time></trkpt>
<trkpt lat="46.625121776014566" lon="7.109246458858252"><ele></ele><time>2014-10-30T5:45:50Z</time></trkpt>
<trkpt lat="46.62504818290472" lon="7.1092726942151785"><ele></ele><time>2014-10-30T5:45:53Z</time></trkpt>
<trkpt lat="46.62497743964195" lon="7.109302533790469"><ele></ele><time>2014-10-30T5:45:56Z</time></trkpt>
<trkpt lat="46.62490686401725" lon="7.1093265898525715"><ele></ele><time>2014-10-30T5:45:59Z</time></trkpt>
<trkpt lat="46.624837294220924" lon="7.109356764703989"><ele></ele><time>2014-10-30T5:46:2Z</time></trkpt>
<trkpt lat="46.624767472967505" lon="7.109393645077944"><ele></ele><time>2014-10-30T5:46:5Z</time></trkpt>
<trkpt lat="46.624698070809245" lon="7.10942960344255"><ele></ele><time>2014-10-30T5:46:8Z</time></trkpt>
<trkpt lat="46.624631183221936" lon="7.1094682440161705"><ele></ele><time>2014-10-30T5:46:11Z</time></trkpt>
<trkpt lat="46.624503526836634" lon="7.1095571760088205"><ele></ele><time>2014-10-30T5:46:14Z</time></trkpt>
<trkpt lat="46.62443739362061" lon="7.109605623409152"><ele></ele><time>2014-10-30T5:46:17Z</time></trkpt>
<trkpt lat="46.62437863647938" lon="7.109653735533357"><ele></ele><time>2014-10-30T5:46:20Z</time></trkpt>
<trkpt lat="46.624323735013604" lon="7.109706122428179"><ele></ele><time>2014-10-30T5:46:23Z</time></trkpt>
<trkpt lat="46.624267576262355" lon="7.109762700274587"><ele></ele><time>2014-10-30T5:46:26Z</time></trkpt>
<trkpt lat="46.62421259097755" lon="7.109818356111646"><ele></ele><time>2014-10-30T5:46:29Z</time></trkpt>
<trkpt lat="46.62415995262563" lon="7.109876358881593"><ele></ele><time>2014-10-30T5:46:32Z</time></trkpt>
<trkpt lat="46.62410890683532" lon="7.109941905364394"><ele></ele><time>2014-10-30T5:46:35Z</time></trkpt>
<trkpt lat="46.62405576556921" lon="7.110007032752037"><ele></ele><time>2014-10-30T5:46:38Z</time></trkpt>
<trkpt lat="46.62400597706437" lon="7.110072914510965"><ele></ele><time>2014-10-30T5:46:41Z</time></trkpt>
<trkpt lat="46.62395702674985" lon="7.110139634460211"><ele></ele><time>2014-10-30T5:46:44Z</time></trkpt>
<trkpt lat="46.623819563537836" lon="7.11035555228591"><ele></ele><time>2014-10-30T5:46:47Z</time></trkpt>
<trkpt lat="46.62377790547907" lon="7.11043082177639"><ele></ele><time>2014-10-30T5:46:50Z</time></trkpt>
<trkpt lat="46.623730547726154" lon="7.110508354380727"><ele></ele><time>2014-10-30T5:46:53Z</time></trkpt>
<trkpt lat="46.62368897348642" lon="7.110581360757351"><ele></ele><time>2014-10-30T5:46:56Z</time></trkpt>
<trkpt lat="46.62364480085671" lon="7.110654450953007"><ele></ele><time>2014-10-30T5:46:59Z</time></trkpt>
<trkpt lat="46.62342360243201" lon="7.111024344339967"><ele></ele><time>2014-10-30T5:47:2Z</time></trkpt>
<trkpt lat="46.623377250507474" lon="7.111103134229779"><ele></ele><time>2014-10-30T5:47:5Z</time></trkpt>
<trkpt lat="46.6233345028013" lon="7.1111775655299425"><ele></ele><time>2014-10-30T5:47:8Z</time></trkpt>
<trkpt lat="46.623291252180934" lon="7.111252248287201"><ele></ele><time>2014-10-30T5:47:11Z</time></trkpt>
<trkpt lat="46.62324674427509" lon="7.1113289427012205"><ele></ele><time>2014-10-30T5:47:14Z</time></trkpt>
<trkpt lat="46.62302822805941" lon="7.11170369759202"><ele></ele><time>2014-10-30T5:47:17Z</time></trkpt>
<trkpt lat="46.62292622029781" lon="7.111832611262798"><ele></ele><time>2014-10-30T5:47:20Z</time></trkpt>
<trkpt lat="46.6227578278631" lon="7.112009469419718"><ele></ele><time>2014-10-30T5:47:23Z</time></trkpt>
<trkpt lat="46.622498240321875" lon="7.11217082105577"><ele></ele><time>2014-10-30T5:47:26Z</time></trkpt>
<trkpt lat="46.62242976017296" lon="7.112193536013365"><ele></ele><time>2014-10-30T5:47:29Z</time></trkpt>
<trkpt lat="46.62214930169284" lon="7.112293113023043"><ele></ele><time>2014-10-30T5:47:32Z</time></trkpt>
<trkpt lat="46.62208006717265" lon="7.112315911799669"><ele></ele><time>2014-10-30T5:47:35Z</time></trkpt>
<trkpt lat="46.622010665014386" lon="7.1123461704701185"><ele></ele><time>2014-10-30T5:47:38Z</time></trkpt>
<trkpt lat="46.621940676122904" lon="7.112374836578965"><ele></ele><time>2014-10-30T5:47:41Z</time></trkpt>
<trkpt lat="46.62187026813626" lon="7.112397216260433"><ele></ele><time>2014-10-30T5:47:44Z</time></trkpt>
<trkpt lat="46.621305998414755" lon="7.1126144751906395"><ele></ele><time>2014-10-30T5:47:47Z</time></trkpt>
<trkpt lat="46.62117104977369" lon="7.112680776044726"><ele></ele><time>2014-10-30T5:47:50Z</time></trkpt>
<trkpt lat="46.62102822214365" lon="7.112742550671101"><ele></ele><time>2014-10-30T5:47:53Z</time></trkpt>
<trkpt lat="46.6209548804909" lon="7.11274690926075"><ele></ele><time>2014-10-30T5:47:56Z</time></trkpt>
<trkpt lat="46.62065933458507" lon="7.11267264559865"><ele></ele><time>2014-10-30T5:47:59Z</time></trkpt>
<trkpt lat="46.62019112147391" lon="7.11261598393321"><ele></ele><time>2014-10-30T5:48:2Z</time></trkpt>
<trkpt lat="46.619937820360065" lon="7.112617660313845"><ele></ele><time>2014-10-30T5:48:5Z</time></trkpt>
<trkpt lat="46.619854252785444" lon="7.112600225955248"><ele></ele><time>2014-10-30T5:48:8Z</time></trkpt>
<trkpt lat="46.61977143958211" lon="7.11257298476994"><ele></ele><time>2014-10-30T5:48:11Z</time></trkpt>
<trkpt lat="46.61968686617911" lon="7.112549263983965"><ele></ele><time>2014-10-30T5:48:14Z</time></trkpt>
<trkpt lat="46.61960011348128" lon="7.112526800483465"><ele></ele><time>2014-10-30T5:48:17Z</time></trkpt>
<trkpt lat="46.61951093003154" lon="7.112506432458758"><ele></ele><time>2014-10-30T5:48:20Z</time></trkpt>
<trkpt lat="46.619420824572444" lon="7.112481789663434"><ele></ele><time>2014-10-30T5:48:23Z</time></trkpt>
<trkpt lat="46.61932275630534" lon="7.11245714686811"><ele></ele><time>2014-10-30T5:48:26Z</time></trkpt>
<trkpt lat="46.61922552622855" lon="7.112429738044739"><ele></ele><time>2014-10-30T5:48:29Z</time></trkpt>
<trkpt lat="46.619129721075296" lon="7.112408699467778"><ele></ele><time>2014-10-30T5:48:32Z</time></trkpt>
<trkpt lat="46.619037352502346" lon="7.112381458282471"><ele></ele><time>2014-10-30T5:48:35Z</time></trkpt>
<trkpt lat="46.6189431399107" lon="7.112353462725878"><ele></ele><time>2014-10-30T5:48:38Z</time></trkpt>
<trkpt lat="46.61884607747197" lon="7.112327143549919"><ele></ele><time>2014-10-30T5:48:41Z</time></trkpt>
<trkpt lat="46.61874834448099" lon="7.112302165478468"><ele></ele><time>2014-10-30T5:48:44Z</time></trkpt>
<trkpt lat="46.6186495218426" lon="7.112281294539571"><ele></ele><time>2014-10-30T5:48:47Z</time></trkpt>
<trkpt lat="46.61854550242424" lon="7.112258579581976"><ele></ele><time>2014-10-30T5:48:50Z</time></trkpt>
<trkpt lat="46.61844592541456" lon="7.11223385296762"><ele></ele><time>2014-10-30T5:48:53Z</time></trkpt>
<trkpt lat="46.61834852769971" lon="7.1122113056480885"><ele></ele><time>2014-10-30T5:48:56Z</time></trkpt>
<trkpt lat="46.61824853159487" lon="7.1121838968247175"><ele></ele><time>2014-10-30T5:48:59Z</time></trkpt>
<trkpt lat="46.61814887076616" lon="7.112153302878141"><ele></ele><time>2014-10-30T5:49:2Z</time></trkpt>
<trkpt lat="46.61785248667002" lon="7.112080715596676"><ele></ele><time>2014-10-30T5:49:5Z</time></trkpt>
<trkpt lat="46.61775550805032" lon="7.112073255702853"><ele></ele><time>2014-10-30T5:49:8Z</time></trkpt>
<trkpt lat="46.61765710450709" lon="7.112068478018045"><ele></ele><time>2014-10-30T5:49:11Z</time></trkpt>
<trkpt lat="46.61755844950676" lon="7.112071830779314"><ele></ele><time>2014-10-30T5:49:14Z</time></trkpt>
<trkpt lat="46.61746038123965" lon="7.112081469967961"><ele></ele><time>2014-10-30T5:49:17Z</time></trkpt>
<trkpt lat="46.617177072912455" lon="7.112147267907858"><ele></ele><time>2014-10-30T5:49:20Z</time></trkpt>
<trkpt lat="46.616935674101114" lon="7.112194625660777"><ele></ele><time>2014-10-30T5:49:23Z</time></trkpt>
<trkpt lat="46.61686459556222" lon="7.112141903489828"><ele></ele><time>2014-10-30T5:49:26Z</time></trkpt>
<trkpt lat="46.61676652729511" lon="7.111920705065131"><ele></ele><time>2014-10-30T5:49:29Z</time></trkpt>
<trkpt lat="46.616720678284764" lon="7.111802687868476"><ele></ele><time>2014-10-30T5:49:32Z</time></trkpt>
<trkpt lat="46.61667508073151" lon="7.111699171364307"><ele></ele><time>2014-10-30T5:49:35Z</time></trkpt>
<trkpt lat="46.6166153177619" lon="7.111612418666482"><ele></ele><time>2014-10-30T5:49:38Z</time></trkpt>
<trkpt lat="46.61654155701399" lon="7.111581154167652"><ele></ele><time>2014-10-30T5:49:41Z</time></trkpt>
<trkpt lat="46.61646586842835" lon="7.11160009726882"><ele></ele><time>2014-10-30T5:49:44Z</time></trkpt>
<trkpt lat="46.61640300415456" lon="7.111611915752292"><ele></ele><time>2014-10-30T5:49:47Z</time></trkpt>
<trkpt lat="46.61633536219597" lon="7.111628847196698"><ele></ele><time>2014-10-30T5:49:50Z</time></trkpt>
<trkpt lat="46.61614031530917" lon="7.111563133075833"><ele></ele><time>2014-10-30T5:49:53Z</time></trkpt>
<trkpt lat="46.616077199578285" lon="7.111536227166653"><ele></ele><time>2014-10-30T5:49:56Z</time></trkpt>
<trkpt lat="46.61600821651518" lon="7.111505214124918"><ele></ele><time>2014-10-30T5:49:59Z</time></trkpt>
<trkpt lat="46.61594015546143" lon="7.111474955454469"><ele></ele><time>2014-10-30T5:50:2Z</time></trkpt>
<trkpt lat="46.61586974747479" lon="7.111451737582684"><ele></ele><time>2014-10-30T5:50:5Z</time></trkpt>
<trkpt lat="46.61579908803105" lon="7.111432207748294"><ele></ele><time>2014-10-30T5:50:8Z</time></trkpt>
<trkpt lat="46.615728847682476" lon="7.1114143542945385"><ele></ele><time>2014-10-30T5:50:11Z</time></trkpt>
<trkpt lat="46.61566120572388" lon="7.111399518325925"><ele></ele><time>2014-10-30T5:50:14Z</time></trkpt>
<trkpt lat="46.61559037864208" lon="7.111399350687861"><ele></ele><time>2014-10-30T5:50:17Z</time></trkpt>
<trkpt lat="46.615523574873805" lon="7.111408654600382"><ele></ele><time>2014-10-30T5:50:20Z</time></trkpt>
<trkpt lat="46.6154564358294" lon="7.111418712884188"><ele></ele><time>2014-10-30T5:50:23Z</time></trkpt>
<trkpt lat="46.61538979969919" lon="7.111421311274171"><ele></ele><time>2014-10-30T5:50:26Z</time></trkpt>
<trkpt lat="46.61520556546748" lon="7.1114723570644855"><ele></ele><time>2014-10-30T5:50:29Z</time></trkpt>
<trkpt lat="46.61517119966447" lon="7.111540753394365"><ele></ele><time>2014-10-30T5:50:32Z</time></trkpt>
<trkpt lat="46.615150328725576" lon="7.111737644299865"><ele></ele><time>2014-10-30T5:50:35Z</time></trkpt>
<trkpt lat="46.615147814154625" lon="7.1117842476814985"><ele></ele><time>2014-10-30T5:50:38Z</time></trkpt>
<trkpt lat="46.61514504812658" lon="7.111866641789675"><ele></ele><time>2014-10-30T5:50:41Z</time></trkpt>
<trkpt lat="46.61514756269753" lon="7.111885584890842"><ele></ele><time>2014-10-30T5:50:44Z</time></trkpt>
<trkpt lat="46.61514312028885" lon="7.111886842176318"><ele></ele><time>2014-10-30T5:50:47Z</time></trkpt>
<trkpt lat="46.61514312028885" lon="7.111886842176318"><ele></ele><time>2014-10-30T5:50:50Z</time></trkpt>
<trkpt lat="46.61514312028885" lon="7.111886842176318"><ele></ele><time>2014-10-30T5:50:53Z</time></trkpt>
<trkpt lat="46.61514312028885" lon="7.111886842176318"><ele></ele><time>2014-10-30T5:50:56Z</time></trkpt>
<trkpt lat="46.61514462903142" lon="7.11188935674727"><ele></ele><time>2014-10-30T5:50:59Z</time></trkpt>
<trkpt lat="46.61514462903142" lon="7.11188935674727"><ele></ele><time>2014-10-30T5:51:2Z</time></trkpt>
<trkpt lat="46.61514462903142" lon="7.11188935674727"><ele></ele><time>2014-10-30T5:51:5Z</time></trkpt>
<trkpt lat="46.61514462903142" lon="7.11188935674727"><ele></ele><time>2014-10-30T5:51:8Z</time></trkpt>
<trkpt lat="46.61514462903142" lon="7.11188935674727"><ele></ele><time>2014-10-30T5:51:11Z</time></trkpt>
<trkpt lat="46.61514462903142" lon="7.11188935674727"><ele></ele><time>2014-10-30T5:51:14Z</time></trkpt>
<trkpt lat="46.61514278501272" lon="7.111891200765967"><ele></ele><time>2014-10-30T5:51:17Z</time></trkpt>
<trkpt lat="46.61514278501272" lon="7.111891200765967"><ele></ele><time>2014-10-30T5:51:20Z</time></trkpt>
<trkpt lat="46.61514278501272" lon="7.111891200765967"><ele></ele><time>2014-10-30T5:51:23Z</time></trkpt>
<trkpt lat="46.61514278501272" lon="7.111891200765967"><ele></ele><time>2014-10-30T5:51:26Z</time></trkpt>
<trkpt lat="46.61514278501272" lon="7.111891200765967"><ele></ele><time>2014-10-30T5:51:29Z</time></trkpt>
<trkpt lat="46.61514278501272" lon="7.111891200765967"><ele></ele><time>2014-10-30T5:51:32Z</time></trkpt>
<trkpt lat="46.61514278501272" lon="7.111891200765967"><ele></ele><time>2014-10-30T5:51:35Z</time></trkpt>
<trkpt lat="46.61514278501272" lon="7.111891200765967"><ele></ele><time>2014-10-30T5:51:38Z</time></trkpt>
<trkpt lat="46.61514454521239" lon="7.111891871318221"><ele></ele><time>2014-10-30T5:51:41Z</time></trkpt>
<trkpt lat="46.61514454521239" lon="7.111891871318221"><ele></ele><time>2014-10-30T5:51:44Z</time></trkpt>
<trkpt lat="46.61514454521239" lon="7.111891871318221"><ele></ele><time>2014-10-30T5:51:47Z</time></trkpt>
<trkpt lat="46.61514454521239" lon="7.111891871318221"><ele></ele><time>2014-10-30T5:51:50Z</time></trkpt>
<trkpt lat="46.615147814154625" lon="7.111901845782995"><ele></ele><time>2014-10-30T5:51:53Z</time></trkpt>
<trkpt lat="46.615147814154625" lon="7.111901845782995"><ele></ele><time>2014-10-30T5:51:56Z</time></trkpt>
<trkpt lat="46.615147814154625" lon="7.111901845782995"><ele></ele><time>2014-10-30T5:51:59Z</time></trkpt>
<trkpt lat="46.615147814154625" lon="7.111901845782995"><ele></ele><time>2014-10-30T5:52:2Z</time></trkpt>
<trkpt lat="46.615147814154625" lon="7.111901845782995"><ele></ele><time>2014-10-30T5:52:5Z</time></trkpt>
<trkpt lat="46.615147814154625" lon="7.111901845782995"><ele></ele><time>2014-10-30T5:52:8Z</time></trkpt>
<trkpt lat="46.615147814154625" lon="7.111901845782995"><ele></ele><time>2014-10-30T5:52:11Z</time></trkpt>
<trkpt lat="46.61514848470688" lon="7.111896062269807"><ele></ele><time>2014-10-30T5:52:14Z</time></trkpt>
<trkpt lat="46.61514848470688" lon="7.111896062269807"><ele></ele><time>2014-10-30T5:52:17Z</time></trkpt>
<trkpt lat="46.61514848470688" lon="7.111896062269807"><ele></ele><time>2014-10-30T5:52:20Z</time></trkpt>
<trkpt lat="46.61514848470688" lon="7.111896062269807"><ele></ele><time>2014-10-30T5:52:23Z</time></trkpt>
<trkpt lat="46.61514714360237" lon="7.111884579062462"><ele></ele><time>2014-10-30T5:52:26Z</time></trkpt>
<trkpt lat="46.61514714360237" lon="7.111884579062462"><ele></ele><time>2014-10-30T5:52:29Z</time></trkpt>
<trkpt lat="46.61514714360237" lon="7.111884579062462"><ele></ele><time>2014-10-30T5:52:32Z</time></trkpt>
<trkpt lat="46.61514714360237" lon="7.111884579062462"><ele></ele><time>2014-10-30T5:52:35Z</time></trkpt>
<trkpt lat="46.61514714360237" lon="7.111884579062462"><ele></ele><time>2014-10-30T5:52:38Z</time></trkpt>
<trkpt lat="46.615147395059466" lon="7.111883908510208"><ele></ele><time>2014-10-30T5:52:41Z</time></trkpt>
<trkpt lat="46.615147395059466" lon="7.111883908510208"><ele></ele><time>2014-10-30T5:52:44Z</time></trkpt>
<trkpt lat="46.615147395059466" lon="7.111883908510208"><ele></ele><time>2014-10-30T5:52:47Z</time></trkpt>
<trkpt lat="46.615147395059466" lon="7.111883908510208"><ele></ele><time>2014-10-30T5:52:50Z</time></trkpt>
<trkpt lat="46.615147395059466" lon="7.111883908510208"><ele></ele><time>2014-10-30T5:52:53Z</time></trkpt>
<trkpt lat="46.615147395059466" lon="7.111883908510208"><ele></ele><time>2014-10-30T5:52:56Z</time></trkpt>
<trkpt lat="46.61514705978334" lon="7.111886003986001"><ele></ele><time>2014-10-30T5:52:59Z</time></trkpt>
<trkpt lat="46.61514705978334" lon="7.111886003986001"><ele></ele><time>2014-10-30T5:53:2Z</time></trkpt>
<trkpt lat="46.61514705978334" lon="7.111886003986001"><ele></ele><time>2014-10-30T5:53:5Z</time></trkpt>
<trkpt lat="46.61514705978334" lon="7.111886003986001"><ele></ele><time>2014-10-30T5:53:8Z</time></trkpt>
<trkpt lat="46.61514705978334" lon="7.111886003986001"><ele></ele><time>2014-10-30T5:53:11Z</time></trkpt>
<trkpt lat="46.61514705978334" lon="7.111886003986001"><ele></ele><time>2014-10-30T5:53:14Z</time></trkpt>
<trkpt lat="46.61514705978334" lon="7.111886003986001"><ele></ele><time>2014-10-30T5:53:17Z</time></trkpt>
<trkpt lat="46.61514764651656" lon="7.111877119168639"><ele></ele><time>2014-10-30T5:53:20Z</time></trkpt>
<trkpt lat="46.61514764651656" lon="7.111877119168639"><ele></ele><time>2014-10-30T5:53:23Z</time></trkpt>
<trkpt lat="46.61514764651656" lon="7.111877119168639"><ele></ele><time>2014-10-30T5:53:26Z</time></trkpt>
<trkpt lat="46.61514764651656" lon="7.111877119168639"><ele></ele><time>2014-10-30T5:53:29Z</time></trkpt>
<trkpt lat="46.61514764651656" lon="7.111877119168639"><ele></ele><time>2014-10-30T5:53:32Z</time></trkpt>
<trkpt lat="46.61514764651656" lon="7.111877119168639"><ele></ele><time>2014-10-30T5:53:35Z</time></trkpt>
<trkpt lat="46.61514764651656" lon="7.111877119168639"><ele></ele><time>2014-10-30T5:53:38Z</time></trkpt>
<trkpt lat="46.61514764651656" lon="7.111877119168639"><ele></ele><time>2014-10-30T5:53:41Z</time></trkpt>
<trkpt lat="46.61514764651656" lon="7.111877119168639"><ele></ele><time>2014-10-30T5:53:44Z</time></trkpt>
<trkpt lat="46.61514764651656" lon="7.111877119168639"><ele></ele><time>2014-10-30T5:53:47Z</time></trkpt>
<trkpt lat="46.61514764651656" lon="7.111883237957954"><ele></ele><time>2014-10-30T5:53:50Z</time></trkpt>
<trkpt lat="46.61514764651656" lon="7.111883237957954"><ele></ele><time>2014-10-30T5:53:53Z</time></trkpt>
<trkpt lat="46.61514764651656" lon="7.111883237957954"><ele></ele><time>2014-10-30T5:53:56Z</time></trkpt>
<trkpt lat="46.61514764651656" lon="7.111883237957954"><ele></ele><time>2014-10-30T5:53:59Z</time></trkpt>
<trkpt lat="46.61514764651656" lon="7.111883237957954"><ele></ele><time>2014-10-30T5:54:2Z</time></trkpt>
<trkpt lat="46.61514764651656" lon="7.111883237957954"><ele></ele><time>2014-10-30T5:54:5Z</time></trkpt>
<trkpt lat="46.61514764651656" lon="7.111883237957954"><ele></ele><time>2014-10-30T5:54:8Z</time></trkpt>
<trkpt lat="46.61514479666948" lon="7.111898744478822"><ele></ele><time>2014-10-30T5:54:11Z</time></trkpt>
<trkpt lat="46.61514479666948" lon="7.111898744478822"><ele></ele><time>2014-10-30T5:54:14Z</time></trkpt>
<trkpt lat="46.61514479666948" lon="7.111898744478822"><ele></ele><time>2014-10-30T5:54:17Z</time></trkpt>
<trkpt lat="46.61514479666948" lon="7.111898744478822"><ele></ele><time>2014-10-30T5:54:20Z</time></trkpt>
<trkpt lat="46.61514479666948" lon="7.111898744478822"><ele></ele><time>2014-10-30T5:54:23Z</time></trkpt>
<trkpt lat="46.61514479666948" lon="7.111898744478822"><ele></ele><time>2014-10-30T5:54:26Z</time></trkpt>
<trkpt lat="46.61514479666948" lon="7.111898744478822"><ele></ele><time>2014-10-30T5:54:29Z</time></trkpt>
<trkpt lat="46.61514479666948" lon="7.111898744478822"><ele></ele><time>2014-10-30T5:54:32Z</time></trkpt>
<trkpt lat="46.61514504812658" lon="7.111903438344598"><ele></ele><time>2014-10-30T5:54:35Z</time></trkpt>
<trkpt lat="46.61514504812658" lon="7.111903438344598"><ele></ele><time>2014-10-30T5:54:38Z</time></trkpt>
<trkpt lat="46.61514504812658" lon="7.111903438344598"><ele></ele><time>2014-10-30T5:54:41Z</time></trkpt>
<trkpt lat="46.61514504812658" lon="7.111903438344598"><ele></ele><time>2014-10-30T5:54:44Z</time></trkpt>
<trkpt lat="46.61514504812658" lon="7.111903438344598"><ele></ele><time>2014-10-30T5:54:47Z</time></trkpt>
<trkpt lat="46.61514504812658" lon="7.111903438344598"><ele></ele><time>2014-10-30T5:54:50Z</time></trkpt>
<trkpt lat="46.61514504812658" lon="7.111903438344598"><ele></ele><time>2014-10-30T5:54:53Z</time></trkpt>
<trkpt lat="46.61514504812658" lon="7.111903438344598"><ele></ele><time>2014-10-30T5:54:56Z</time></trkpt>
<trkpt lat="46.61514504812658" lon="7.111903438344598"><ele></ele><time>2014-10-30T5:54:59Z</time></trkpt>
<trkpt lat="46.61514119245112" lon="7.111902013421059"><ele></ele><time>2014-10-30T5:55:2Z</time></trkpt>
<trkpt lat="46.61514119245112" lon="7.111902013421059"><ele></ele><time>2014-10-30T5:55:5Z</time></trkpt>
<trkpt lat="46.61514119245112" lon="7.111902013421059"><ele></ele><time>2014-10-30T5:55:8Z</time></trkpt>
<trkpt lat="46.61514119245112" lon="7.111902013421059"><ele></ele><time>2014-10-30T5:55:11Z</time></trkpt>
<trkpt lat="46.61514119245112" lon="7.111902013421059"><ele></ele><time>2014-10-30T5:55:14Z</time></trkpt>
<trkpt lat="46.61514119245112" lon="7.111902013421059"><ele></ele><time>2014-10-30T5:55:17Z</time></trkpt>
<trkpt lat="46.61514119245112" lon="7.111902013421059"><ele></ele><time>2014-10-30T5:55:20Z</time></trkpt>
<trkpt lat="46.6151440422982" lon="7.111895810812712"><ele></ele><time>2014-10-30T5:55:23Z</time></trkpt>
<trkpt lat="46.6151440422982" lon="7.111895810812712"><ele></ele><time>2014-10-30T5:55:26Z</time></trkpt>
<trkpt lat="46.6151440422982" lon="7.111895810812712"><ele></ele><time>2014-10-30T5:55:29Z</time></trkpt>
<trkpt lat="46.6151440422982" lon="7.111895810812712"><ele></ele><time>2014-10-30T5:55:32Z</time></trkpt>
<trkpt lat="46.615143874660134" lon="7.111896816641092"><ele></ele><time>2014-10-30T5:55:35Z</time></trkpt>
<trkpt lat="46.615139516070485" lon="7.111916011199355"><ele></ele><time>2014-10-30T5:55:38Z</time></trkpt>
<trkpt lat="46.61513675004244" lon="7.111943252384663"><ele></ele><time>2014-10-30T5:55:41Z</time></trkpt>
<trkpt lat="46.6150819323957" lon="7.1120083797723055"><ele></ele><time>2014-10-30T5:55:44Z</time></trkpt>
<trkpt lat="46.61506223492324" lon="7.112020868808031"><ele></ele><time>2014-10-30T5:55:47Z</time></trkpt>
<trkpt lat="46.615055026486516" lon="7.1120393089950085"><ele></ele><time>2014-10-30T5:55:50Z</time></trkpt>
<trkpt lat="46.615055026486516" lon="7.1120393089950085"><ele></ele><time>2014-10-30T5:55:53Z</time></trkpt>
<trkpt lat="46.615055026486516" lon="7.1120393089950085"><ele></ele><time>2014-10-30T5:55:56Z</time></trkpt>
<trkpt lat="46.615055026486516" lon="7.1120393089950085"><ele></ele><time>2014-10-30T5:55:59Z</time></trkpt>
<trkpt lat="46.615055026486516" lon="7.1120393089950085"><ele></ele><time>2014-10-30T5:56:2Z</time></trkpt>
<trkpt lat="46.615055026486516" lon="7.1120393089950085"><ele></ele><time>2014-10-30T5:56:5Z</time></trkpt>
<trkpt lat="46.615055026486516" lon="7.1120393089950085"><ele></ele><time>2014-10-30T5:56:8Z</time></trkpt>
</trkseg></trk></gpx>